Wetterdaten: Mittwoch, 15.03.2017
Datum Zeit Temp. A. Temp. A. max Feuchte A. Luftdruck Regen Wind Richtung Richtung Sonnenschein ET UV Solar Taupunkt Windchill Windböen
15.03.2017 00:00 2,4 °C 2,4 °C 76 % 1032,2 hPa 0,0 mm 0,8 km/h (0 Bft) S-SO 153 ° 0 min 0,000 mm 0,0 UV-I 0 W/m² -1,4 °C 2,4 °C 1,6 km/h (1 Bft)
15.03.2017 00:01 2,5 °C 2,5 °C 76 % 1032,2 hPa 0,0 mm 0,1 km/h (0 Bft) S-SO 153 ° 0 min 0,000 mm 0,0 UV-I 0 W/m² -1,3 °C 2,5 °C 1,6 km/h (1 Bft)
15.03.2017 00:02 2,4 °C 2,5 °C 77 % 1032,2 hPa 0,0 mm 0,5 km/h (0 Bft) S-SO 153 ° 0 min 0,000 mm 0,0 UV-I 0 W/m² -1,2 °C 2,4 °C 1,6 km/h (1 Bft)
15.03.2017 00:03 2,4 °C 2,4 °C 76 % 1032,2 hPa 0,0 mm 2,4 km/h (1 Bft) S-SW 194 ° 0 min 0,000 mm 0,0 UV-I 0 W/m² -1,4 °C 2,4 °C 6,4 km/h (2 Bft)
15.03.2017 00:04 2,3 °C 2,4 °C 76 % 1032,2 hPa 0,0 mm 3,6 km/h (1 Bft) S 174 ° 0 min 0,000 mm 0,0 UV-I 0 W/m² -1,5 °C 2,3 °C 4,8 km/h (1 Bft)
15.03.2017 00:05 2,3 °C 2,3 °C 77 % 1032,2 hPa 0,0 mm 0,3 km/h (0 Bft) S 174 ° 0 min 0,000 mm 0,0 UV-I 0 W/m² -1,3 °C 2,3 °C 1,6 km/h (1 Bft)
15.03.2017 00:06 2,3 °C 2,3 °C 76 % 1032,2 hPa 0,0 mm 2,5 km/h (1 Bft) S 174 ° 0 min 0,000 mm 0,0 UV-I 0 W/m² -1,5 °C 2,3 °C 4,8 km/h (1 Bft)
15.03.2017 00:07 2,4 °C 2,4 °C 76 % 1032,1 hPa 0,0 mm 3,9 km/h (1 Bft) S 171 ° 0 min 0,000 mm 0,0 UV-I 0 W/m² -1,4 °C 2,4 °C 6,4 km/h (2 Bft)
15.03.2017 00:08 2,6 °C 2,6 °C 76 % 1032,1 hPa 0,0 mm 4,6 km/h (1 Bft) SO 143 ° 0 min 0,000 mm 0,0 UV-I 0 W/m² -1,2 °C 1,5 °C 8,0 km/h (2 Bft)
15.03.2017 00:09 2,7 °C 2,7 °C 75 % 1032,2 hPa 0,0 mm 4,8 km/h (1 Bft) S 173 ° 0 min 0,000 mm 0,0 UV-I 0 W/m² -1,3 °C 1,6 °C 6,4 km/h (2 Bft)
15.03.2017 00:10 2,8 °C 2,8 °C 75 % 1032,2 hPa 0,0 mm 6,1 km/h (2 Bft) S-SO 161 ° 0 min 0,000 mm 0,0 UV-I 0 W/m² -1,2 °C 1,2 °C 8,0 km/h (2 Bft)
15.03.2017 00:11 2,9 °C 2,9 °C 74 % 1032,1 hPa 0,0 mm 5,8 km/h (2 Bft) S 169 ° 0 min 0,000 mm 0,0 UV-I 0 W/m² -1,3 °C 1,4 °C 8,0 km/h (2 Bft)
15.03.2017 00:12 3,0 °C 3,0 °C 74 % 1032,1 hPa 0,0 mm 6,2 km/h (2 Bft) S-SO 163 ° 0 min 0,000 mm 0,0 UV-I 0 W/m² -1,2 °C 1,4 °C 8,0 km/h (2 Bft)
15.03.2017 00:13 3,1 °C 3,1 °C 73 % 1032,1 hPa 0,0 mm 6,3 km/h (2 Bft) S-SO 167 ° 0 min 0,000 mm 0,0 UV-I 0 W/m² -1,3 °C 1,4 °C 8,0 km/h (2 Bft)
15.03.2017 00:14 3,2 °C 3,2 °C 73 % 1032,1 hPa 0,0 mm 4,4 km/h (1 Bft) S-SO 163 ° 0 min 0,000 mm 0,0 UV-I 0 W/m² -1,2 °C 3,2 °C 8,0 km/h (2 Bft)
15.03.2017 00:15 3,3 °C 3,3 °C 72 % 1032,2 hPa 0,0 mm 4,5 km/h (1 Bft) S-SO 163 ° 0 min 0,000 mm 0,0 UV-I 0 W/m² -1,3 °C 3,3 °C 6,4 km/h (2 Bft)
15.03.2017 00:16 3,3 °C 3,3 °C 72 % 1032,2 hPa 0,0 mm 5,5 km/h (1 Bft) S 182 ° 0 min 0,000 mm 0,0 UV-I 0 W/m² -1,3 °C 2,0 °C 6,4 km/h (2 Bft)
15.03.2017 00:17 3,3 °C 3,3 °C 71 % 1032,2 hPa 0,0 mm 4,3 km/h (1 Bft) S 173 ° 0 min 0,000 mm 0,0 UV-I 0 W/m² -1,4 °C 3,3 °C 4,8 km/h (1 Bft)
15.03.2017 00:18 3,3 °C 3,3 °C 71 % 1032,2 hPa 0,0 mm 5,2 km/h (1 Bft) S-SO 167 ° 0 min 0,000 mm 0,0 UV-I 0 W/m² -1,4 °C 2,1 °C 8,0 km/h (2 Bft)
15.03.2017 00:19 3,3 °C 3,3 °C 71 % 1032,2 hPa 0,0 mm 4,1 km/h (1 Bft) S 178 ° 0 min 0,000 mm 0,0 UV-I 0 W/m² -1,4 °C 3,3 °C 6,4 km/h (2 Bft)
15.03.2017 00:20 3,3 °C 3,3 °C 71 % 1032,2 hPa 0,0 mm 3,6 km/h (1 Bft) S-SO 165 ° 0 min 0,000 mm 0,0 UV-I 0 W/m² -1,4 °C 3,3 °C 6,4 km/h (2 Bft)
15.03.2017 00:21 3,3 °C 3,3 °C 71 % 1032,2 hPa 0,0 mm 4,5 km/h (1 Bft) S-SO 165 ° 0 min 0,000 mm 0,0 UV-I 0 W/m² -1,4 °C 3,3 °C 8,0 km/h (2 Bft)
15.03.2017 00:22 3,3 °C 3,3 °C 71 % 1032,2 hPa 0,0 mm 5,8 km/h (2 Bft) S 171 ° 0 min 0,000 mm 0,0 UV-I 0 W/m² -1,4 °C 1,8 °C 8,0 km/h (2 Bft)
15.03.2017 00:23 3,2 °C 3,3 °C 72 % 1032,1 hPa 0,0 mm 5,7 km/h (1 Bft) S 180 ° 0 min 0,000 mm 0,0 UV-I 0 W/m² -1,3 °C 1,8 °C 8,0 km/h (2 Bft)
15.03.2017 00:24 3,1 °C 3,2 °C 71 % 1032,2 hPa 0,0 mm 4,2 km/h (1 Bft) S 173 ° 0 min 0,000 mm 0,0 UV-I 0 W/m² -1,6 °C 3,1 °C 4,8 km/h (1 Bft)
15.03.2017 00:25 3,1 °C 3,1 °C 72 % 1032,2 hPa 0,0 mm 4,8 km/h (1 Bft) S-SW 198 ° 0 min 0,000 mm 0,0 UV-I 0 W/m² -1,4 °C 2,0 °C 8,0 km/h (2 Bft)
15.03.2017 00:26 3,1 °C 3,1 °C 71 % 1032,2 hPa 0,0 mm 4,8 km/h (1 Bft) S 178 ° 0 min 0,000 mm 0,0 UV-I 0 W/m² -1,6 °C 2,0 °C 8,0 km/h (2 Bft)
15.03.2017 00:27 3,1 °C 3,1 °C 71 % 1032,2 hPa 0,0 mm 3,2 km/h (1 Bft) S-SO 159 ° 0 min 0,000 mm 0,0 UV-I 0 W/m² -1,6 °C 3,1 °C 9,7 km/h (2 Bft)
15.03.2017 00:28 3,2 °C 3,2 °C 71 % 1032,2 hPa 0,0 mm 4,0 km/h (1 Bft) S 187 ° 0 min 0,000 mm 0,0 UV-I 0 W/m² -1,5 °C 3,2 °C 6,4 km/h (2 Bft)
15.03.2017 00:29 3,2 °C 3,2 °C 71 % 1032,2 hPa 0,0 mm 3,0 km/h (1 Bft) S 183 ° 0 min 0,000 mm 0,0 UV-I 0 W/m² -1,5 °C 3,2 °C 4,8 km/h (1 Bft)
15.03.2017 00:30 3,2 °C 3,2 °C 70 % 1032,2 hPa 0,0 mm 4,0 km/h (1 Bft) S-SW 204 ° 0 min 0,000 mm 0,0 UV-I 0 W/m² -1,7 °C 3,2 °C 6,4 km/h (2 Bft)
15.03.2017 00:31 3,2 °C 3,2 °C 70 % 1032,2 hPa 0,0 mm 1,7 km/h (1 Bft) S 187 ° 0 min 0,000 mm 0,0 UV-I 0 W/m² -1,7 °C 3,2 °C 3,2 km/h (1 Bft)
15.03.2017 00:32 3,2 °C 3,2 °C 70 % 1032,2 hPa 0,0 mm 4,2 km/h (1 Bft) S 173 ° 0 min 0,000 mm 0,0 UV-I 0 W/m² -1,7 °C 3,2 °C 8,0 km/h (2 Bft)
15.03.2017 00:33 3,2 °C 3,2 °C 70 % 1032,2 hPa 0,0 mm 3,4 km/h (1 Bft) S 183 ° 0 min 0,000 mm 0,0 UV-I 0 W/m² -1,7 °C 3,2 °C 4,8 km/h (1 Bft)
15.03.2017 00:34 3,2 °C 3,2 °C 70 % 1032,1 hPa 0,0 mm 5,4 km/h (1 Bft) S-SW 201 ° 0 min 0,000 mm 0,0 UV-I 0 W/m² -1,7 °C 1,9 °C 9,7 km/h (2 Bft)
15.03.2017 00:35 3,2 °C 3,2 °C 71 % 1032,1 hPa 0,0 mm 5,0 km/h (1 Bft) S 182 ° 0 min 0,000 mm 0,0 UV-I 0 W/m² -1,5 °C 2,0 °C 9,7 km/h (2 Bft)
15.03.2017 00:36 3,1 °C 3,2 °C 70 % 1032,2 hPa 0,0 mm 6,0 km/h (2 Bft) S 182 ° 0 min 0,000 mm 0,0 UV-I 0 W/m² -1,8 °C 1,5 °C 8,0 km/h (2 Bft)
15.03.2017 00:37 3,0 °C 3,1 °C 71 % 1032,1 hPa 0,0 mm 7,2 km/h (2 Bft) S-SW 196 ° 0 min 0,000 mm 0,0 UV-I 0 W/m² -1,7 °C 1,0 °C 9,7 km/h (2 Bft)
15.03.2017 00:38 2,9 °C 3,0 °C 71 % 1032,1 hPa 0,0 mm 5,8 km/h (2 Bft) S 173 ° 0 min 0,000 mm 0,0 UV-I 0 W/m² -1,8 °C 1,4 °C 8,0 km/h (2 Bft)
15.03.2017 00:39 2,9 °C 2,9 °C 71 % 1032,2 hPa 0,0 mm 3,3 km/h (1 Bft) S-SW 192 ° 0 min 0,000 mm 0,0 UV-I 0 W/m² -1,8 °C 2,9 °C 4,8 km/h (1 Bft)
15.03.2017 00:40 2,9 °C 2,9 °C 71 % 1032,1 hPa 0,0 mm 4,4 km/h (1 Bft) S 182 ° 0 min 0,000 mm 0,0 UV-I 0 W/m² -1,8 °C 2,9 °C 6,4 km/h (2 Bft)
15.03.2017 00:41 2,9 °C 2,9 °C 71 % 1032,1 hPa 0,0 mm 6,7 km/h (2 Bft) S 173 ° 0 min 0,000 mm 0,0 UV-I 0 W/m² -1,8 °C 1,1 °C 11,3 km/h (2 Bft)
15.03.2017 00:42 2,9 °C 2,9 °C 71 % 1032,2 hPa 0,0 mm 6,0 km/h (2 Bft) S-SW 192 ° 0 min 0,000 mm 0,0 UV-I 0 W/m² -1,8 °C 1,3 °C 9,7 km/h (2 Bft)
15.03.2017 00:43 2,8 °C 2,9 °C 72 % 1032,2 hPa 0,0 mm 8,2 km/h (2 Bft) S-SW 196 ° 0 min 0,000 mm 0,0 UV-I 0 W/m² -1,7 °C 0,5 °C 9,7 km/h (2 Bft)
15.03.2017 00:44 2,8 °C 2,8 °C 72 % 1032,2 hPa 0,0 mm 5,8 km/h (2 Bft) S 180 ° 0 min 0,000 mm 0,0 UV-I 0 W/m² -1,7 °C 1,3 °C 11,3 km/h (2 Bft)
15.03.2017 00:45 2,7 °C 2,8 °C 71 % 1032,2 hPa 0,0 mm 4,1 km/h (1 Bft) S 186 ° 0 min 0,000 mm 0,0 UV-I 0 W/m² -2,0 °C 2,7 °C 6,4 km/h (2 Bft)
15.03.2017 00:46 2,8 °C 2,8 °C 72 % 1032,2 hPa 0,0 mm 2,0 km/h (1 Bft) S 176 ° 0 min 0,000 mm 0,0 UV-I 0 W/m² -1,7 °C 2,8 °C 4,8 km/h (1 Bft)
15.03.2017 00:47 2,8 °C 2,8 °C 71 % 1032,2 hPa 0,0 mm 1,3 km/h (1 Bft) S 176 ° 0 min 0,000 mm 0,0 UV-I 0 W/m² -1,9 °C 2,8 °C 3,2 km/h (1 Bft)
15.03.2017 00:48 2,9 °C 2,9 °C 71 % 1032,1 hPa 0,0 mm 2,2 km/h (1 Bft) S 176 ° 0 min 0,000 mm 0,0 UV-I 0 W/m² -1,8 °C 2,9 °C 3,2 km/h (1 Bft)
15.03.2017 00:49 2,9 °C 2,9 °C 71 % 1032,1 hPa 0,0 mm 2,1 km/h (1 Bft) S 176 ° 0 min 0,000 mm 0,0 UV-I 0 W/m² -1,8 °C 2,9 °C 4,8 km/h (1 Bft)
15.03.2017 00:50 3,0 °C 3,0 °C 71 % 1032,1 hPa 0,0 mm 2,6 km/h (1 Bft) S 176 ° 0 min 0,000 mm 0,0 UV-I 0 W/m² -1,7 °C 3,0 °C 4,8 km/h (1 Bft)
15.03.2017 00:51 3,1 °C 3,1 °C 70 % 1032,2 hPa 0,0 mm 1,4 km/h (1 Bft) S 176 ° 0 min 0,000 mm 0,0 UV-I 0 W/m² -1,8 °C 3,1 °C 3,2 km/h (1 Bft)
15.03.2017 00:52 3,1 °C 3,1 °C 71 % 1032,1 hPa 0,0 mm 1,9 km/h (1 Bft) S 176 ° 0 min 0,000 mm 0,0 UV-I 0 W/m² -1,6 °C 3,1 °C 3,2 km/h (1 Bft)
15.03.2017 00:53 2,9 °C 3,1 °C 71 % 1032,1 hPa 0,0 mm 1,3 km/h (1 Bft) S 176 ° 0 min 0,000 mm 0,0 UV-I 0 W/m² -1,8 °C 2,9 °C 3,2 km/h (1 Bft)
15.03.2017 00:54 2,9 °C 2,9 °C 72 % 1032,1 hPa 0,0 mm 0,4 km/h (0 Bft) S 176 ° 0 min 0,000 mm 0,0 UV-I 0 W/m² -1,6 °C 2,9 °C 1,6 km/h (1 Bft)
15.03.2017 00:55 2,8 °C 2,9 °C 72 % 1032,2 hPa 0,0 mm 1,3 km/h (1 Bft) S 176 ° 0 min 0,000 mm 0,0 UV-I 0 W/m² -1,7 °C 2,8 °C 3,2 km/h (1 Bft)
15.03.2017 00:56 2,7 °C 2,8 °C 73 % 1032,2 hPa 0,0 mm 2,1 km/h (1 Bft) S 176 ° 0 min 0,000 mm 0,0 UV-I 0 W/m² -1,6 °C 2,7 °C 4,8 km/h (1 Bft)
15.03.2017 00:57 2,6 °C 2,7 °C 72 % 1032,1 hPa 0,0 mm 0,4 km/h (0 Bft) S 176 ° 0 min 0,000 mm 0,0 UV-I 0 W/m² -1,9 °C 2,6 °C 1,6 km/h (1 Bft)
15.03.2017 00:58 2,6 °C 2,6 °C 73 % 1032,1 hPa 0,0 mm 0,5 km/h (0 Bft) S 176 ° 0 min 0,000 mm 0,0 UV-I 0 W/m² -1,7 °C 2,6 °C 1,6 km/h (1 Bft)
15.03.2017 00:59 2,4 °C 2,6 °C 74 % 1032,1 hPa 0,0 mm 1,6 km/h (1 Bft) S 176 ° 0 min 0,000 mm 0,0 UV-I 0 W/m² -1,7 °C 2,4 °C 3,2 km/h (1 Bft)
15.03.2017 01:00 2,3 °C 2,4 °C 74 % 1032,0 hPa 0,0 mm 1,3 km/h (1 Bft) S 176 ° 0 min 0,000 mm 0,0 UV-I 0 W/m² -1,8 °C 2,3 °C 3,2 km/h (1 Bft)
15.03.2017 01:01 2,2 °C 2,3 °C 74 % 1032,0 hPa 0,0 mm 0,2 km/h (0 Bft) S 176 ° 0 min 0,025 mm 0,0 UV-I 0 W/m² -1,9 °C 2,2 °C 1,6 km/h (1 Bft)
15.03.2017 01:02 2,2 °C 2,2 °C 75 % 1032,0 hPa 0,0 mm 0,5 km/h (0 Bft) S 176 ° 0 min 0,000 mm 0,0 UV-I 0 W/m² -1,8 °C 2,2 °C 1,6 km/h (1 Bft)
15.03.2017 01:03 2,2 °C 2,2 °C 75 % 1032,0 hPa 0,0 mm 2,5 km/h (1 Bft) S 176 ° 0 min 0,000 mm 0,0 UV-I 0 W/m² -1,8 °C 2,2 °C 3,2 km/h (1 Bft)
15.03.2017 01:04 2,2 °C 2,2 °C 74 % 1032,0 hPa 0,0 mm 2,3 km/h (1 Bft) S 176 ° 0 min 0,000 mm 0,0 UV-I 0 W/m² -1,9 °C 2,2 °C 3,2 km/h (1 Bft)
15.03.2017 01:05 2,2 °C 2,2 °C 74 % 1032,0 hPa 0,0 mm 1,5 km/h (1 Bft) S 176 ° 0 min 0,000 mm 0,0 UV-I 0 W/m² -1,9 °C 2,2 °C 3,2 km/h (1 Bft)
15.03.2017 01:06 2,2 °C 2,2 °C 74 % 1032,0 hPa 0,0 mm 1,9 km/h (1 Bft) S 176 ° 0 min 0,000 mm 0,0 UV-I 0 W/m² -1,9 °C 2,2 °C 3,2 km/h (1 Bft)
15.03.2017 01:07 2,2 °C 2,2 °C 74 % 1032,0 hPa 0,0 mm 1,8 km/h (1 Bft) S 176 ° 0 min 0,000 mm 0,0 UV-I 0 W/m² -1,9 °C 2,2 °C 3,2 km/h (1 Bft)
15.03.2017 01:08 2,2 °C 2,2 °C 74 % 1032,0 hPa 0,0 mm 2,5 km/h (1 Bft) S 176 ° 0 min 0,000 mm 0,0 UV-I 0 W/m² -1,9 °C 2,2 °C 3,2 km/h (1 Bft)
15.03.2017 01:09 2,2 °C 2,2 °C 74 % 1032,0 hPa 0,0 mm 3,0 km/h (1 Bft) S 176 ° 0 min 0,000 mm 0,0 UV-I 0 W/m² -1,9 °C 2,2 °C 4,8 km/h (1 Bft)
15.03.2017 01:10 2,2 °C 2,2 °C 74 % 1032,0 hPa 0,0 mm 2,0 km/h (1 Bft) S 176 ° 0 min 0,000 mm 0,0 UV-I 0 W/m² -1,9 °C 2,2 °C 3,2 km/h (1 Bft)
15.03.2017 01:11 2,2 °C 2,2 °C 75 % 1032,0 hPa 0,0 mm 2,7 km/h (1 Bft) S 176 ° 0 min 0,000 mm 0,0 UV-I 0 W/m² -1,8 °C 2,2 °C 4,8 km/h (1 Bft)
15.03.2017 01:12 2,1 °C 2,2 °C 75 % 1032,0 hPa 0,0 mm 2,3 km/h (1 Bft) S 176 ° 0 min 0,000 mm 0,0 UV-I 0 W/m² -1,9 °C 2,1 °C 4,8 km/h (1 Bft)
15.03.2017 01:13 2,1 °C 2,1 °C 75 % 1032,0 hPa 0,0 mm 4,0 km/h (1 Bft) S 176 ° 0 min 0,000 mm 0,0 UV-I 0 W/m² -1,9 °C 2,1 °C 4,8 km/h (1 Bft)
15.03.2017 01:14 2,1 °C 2,1 °C 75 % 1032,0 hPa 0,0 mm 4,0 km/h (1 Bft) S 175 ° 0 min 0,000 mm 0,0 UV-I 0 W/m² -1,9 °C 2,1 °C 4,8 km/h (1 Bft)
15.03.2017 01:15 2,1 °C 2,1 °C 75 % 1032,1 hPa 0,0 mm 3,2 km/h (1 Bft) S-SO 153 ° 0 min 0,000 mm 0,0 UV-I 0 W/m² -1,9 °C 2,1 °C 6,4 km/h (2 Bft)
15.03.2017 01:16 2,0 °C 2,1 °C 75 % 1032,0 hPa 0,0 mm 2,5 km/h (1 Bft) S-SO 153 ° 0 min 0,000 mm 0,0 UV-I 0 W/m² -2,0 °C 2,0 °C 4,8 km/h (1 Bft)
15.03.2017 01:17 2,0 °C 2,0 °C 75 % 1032,1 hPa 0,0 mm 0,6 km/h (0 Bft) S-SO 153 ° 0 min 0,000 mm 0,0 UV-I 0 W/m² -2,0 °C 2,0 °C 1,6 km/h (1 Bft)
15.03.2017 01:18 1,9 °C 2,0 °C 76 % 1032,0 hPa 0,0 mm 0,9 km/h (0 Bft) S-SO 153 ° 0 min 0,000 mm 0,0 UV-I 0 W/m² -1,9 °C 1,9 °C 3,2 km/h (1 Bft)
15.03.2017 01:19 1,9 °C 1,9 °C 76 % 1032,0 hPa 0,0 mm 1,3 km/h (1 Bft) S-SO 153 ° 0 min 0,000 mm 0,0 UV-I 0 W/m² -1,9 °C 1,9 °C 3,2 km/h (1 Bft)
15.03.2017 01:20 1,9 °C 1,9 °C 76 % 1032,0 hPa 0,0 mm 0,3 km/h (0 Bft) S-SO 153 ° 0 min 0,000 mm 0,0 UV-I 0 W/m² -1,9 °C 1,9 °C 1,6 km/h (1 Bft)
15.03.2017 01:21 1,9 °C 1,9 °C 76 % 1031,9 hPa 0,0 mm 1,1 km/h (1 Bft) S-SO 153 ° 0 min 0,000 mm 0,0 UV-I 0 W/m² -1,9 °C 1,9 °C 3,2 km/h (1 Bft)
15.03.2017 01:22 1,9 °C 1,9 °C 76 % 1031,9 hPa 0,0 mm 4,6 km/h (1 Bft) S 184 ° 0 min 0,000 mm 0,0 UV-I 0 W/m² -1,9 °C 0,7 °C 6,4 km/h (2 Bft)
15.03.2017 01:23 1,9 °C 1,9 °C 76 % 1032,0 hPa 0,0 mm 1,7 km/h (1 Bft) S 184 ° 0 min 0,000 mm 0,0 UV-I 0 W/m² -1,9 °C 1,9 °C 4,8 km/h (1 Bft)
15.03.2017 01:24 1,8 °C 1,9 °C 76 % 1032,0 hPa 0,0 mm 0,8 km/h (0 Bft) S 181 ° 0 min 0,000 mm 0,0 UV-I 0 W/m² -2,0 °C 1,8 °C 3,2 km/h (1 Bft)
15.03.2017 01:25 1,8 °C 1,8 °C 77 % 1032,0 hPa 0,0 mm 0,6 km/h (0 Bft) S 181 ° 0 min 0,000 mm 0,0 UV-I 0 W/m² -1,8 °C 1,8 °C 1,6 km/h (1 Bft)
15.03.2017 01:26 1,7 °C 1,8 °C 77 % 1032,0 hPa 0,0 mm 0,6 km/h (0 Bft) S 181 ° 0 min 0,000 mm 0,0 UV-I 0 W/m² -1,9 °C 1,7 °C 1,6 km/h (1 Bft)
15.03.2017 01:27 1,6 °C 1,7 °C 77 % 1031,9 hPa 0,0 mm 0,0 km/h (0 Bft) S 181 ° 0 min 0,000 mm 0,0 UV-I 0 W/m² -2,0 °C 1,6 °C 0,0 km/h (0 Bft)
15.03.2017 01:28 1,4 °C 1,6 °C 78 % 1031,9 hPa 0,0 mm 0,0 km/h (0 Bft) S 181 ° 0 min 0,000 mm 0,0 UV-I 0 W/m² -2,0 °C 1,4 °C 0,0 km/h (0 Bft)
15.03.2017 01:29 1,4 °C 1,4 °C 78 % 1031,9 hPa 0,0 mm 0,0 km/h (0 Bft) S 181 ° 0 min 0,000 mm 0,0 UV-I 0 W/m² -2,0 °C 1,4 °C 0,0 km/h (0 Bft)
15.03.2017 01:30 1,3 °C 1,4 °C 79 % 1031,9 hPa 0,0 mm 0,0 km/h (0 Bft) S 181 ° 0 min 0,000 mm 0,0 UV-I 0 W/m² -1,9 °C 1,3 °C 0,0 km/h (0 Bft)
15.03.2017 01:31 1,3 °C 1,3 °C 78 % 1031,9 hPa 0,0 mm 0,0 km/h (0 Bft) S 181 ° 0 min 0,000 mm 0,0 UV-I 0 W/m² -2,1 °C 1,3 °C 0,0 km/h (0 Bft)
15.03.2017 01:32 1,3 °C 1,3 °C 79 % 1031,9 hPa 0,0 mm 0,0 km/h (0 Bft) S 181 ° 0 min 0,000 mm 0,0 UV-I 0 W/m² -1,9 °C 1,3 °C 0,0 km/h (0 Bft)
15.03.2017 01:33 1,3 °C 1,3 °C 79 % 1031,9 hPa 0,0 mm 0,0 km/h (0 Bft) S 181 ° 0 min 0,000 mm 0,0 UV-I 0 W/m² -1,9 °C 1,3 °C 0,0 km/h (0 Bft)
15.03.2017 01:34 1,2 °C 1,3 °C 79 % 1032,0 hPa 0,0 mm 0,0 km/h (0 Bft) S 181 ° 0 min 0,000 mm 0,0 UV-I 0 W/m² -2,0 °C 1,2 °C 0,0 km/h (0 Bft)
15.03.2017 01:35 1,2 °C 1,2 °C 79 % 1031,9 hPa 0,0 mm 0,0 km/h (0 Bft) S 181 ° 0 min 0,000 mm 0,0 UV-I 0 W/m² -2,0 °C 1,2 °C 0,0 km/h (0 Bft)
15.03.2017 01:36 1,2 °C 1,2 °C 79 % 1032,0 hPa 0,0 mm 0,0 km/h (0 Bft) S 181 ° 0 min 0,000 mm 0,0 UV-I 0 W/m² -2,0 °C 1,2 °C 0,0 km/h (0 Bft)
15.03.2017 01:37 1,2 °C 1,2 °C 79 % 1032,0 hPa 0,0 mm 0,0 km/h (0 Bft) S 181 ° 0 min 0,000 mm 0,0 UV-I 0 W/m² -2,0 °C 1,2 °C 0,0 km/h (0 Bft)
15.03.2017 01:38 1,2 °C 1,3 °C 79 % 1032,0 hPa 0,0 mm 0,1 km/h (0 Bft) S 181 ° 0 min 0,000 mm 0,0 UV-I 0 W/m² -2,0 °C 1,2 °C 1,6 km/h (1 Bft)
15.03.2017 01:39 1,3 °C 1,3 °C 79 % 1031,9 hPa 0,0 mm 0,2 km/h (0 Bft) S 181 ° 0 min 0,000 mm 0,0 UV-I 0 W/m² -1,9 °C 1,3 °C 1,6 km/h (1 Bft)
15.03.2017 01:40 1,3 °C 1,3 °C 79 % 1032,0 hPa 0,0 mm 0,0 km/h (0 Bft) S 181 ° 0 min 0,000 mm 0,0 UV-I 0 W/m² -1,9 °C 1,3 °C 0,0 km/h (0 Bft)
15.03.2017 01:41 1,3 °C 1,3 °C 79 % 1032,0 hPa 0,0 mm 0,0 km/h (0 Bft) S 181 ° 0 min 0,000 mm 0,0 UV-I 0 W/m² -1,9 °C 1,3 °C 0,0 km/h (0 Bft)
15.03.2017 01:42 1,3 °C 1,3 °C 79 % 1032,1 hPa 0,0 mm 0,0 km/h (0 Bft) S 181 ° 0 min 0,000 mm 0,0 UV-I 0 W/m² -1,9 °C 1,3 °C 0,0 km/h (0 Bft)
15.03.2017 01:43 1,3 °C 1,3 °C 79 % 1032,1 hPa 0,0 mm 0,0 km/h (0 Bft) S 181 ° 0 min 0,000 mm 0,0 UV-I 0 W/m² -1,9 °C 1,3 °C 0,0 km/h (0 Bft)
15.03.2017 01:44 1,4 °C 1,4 °C 79 % 1032,0 hPa 0,0 mm 0,2 km/h (0 Bft) S 181 ° 0 min 0,000 mm 0,0 UV-I 0 W/m² -1,8 °C 1,4 °C 1,6 km/h (1 Bft)
15.03.2017 01:45 1,4 °C 1,4 °C 79 % 1032,1 hPa 0,0 mm 0,0 km/h (0 Bft) S 181 ° 0 min 0,000 mm 0,0 UV-I 0 W/m² -1,8 °C 1,4 °C 0,0 km/h (0 Bft)
15.03.2017 01:46 1,4 °C 1,4 °C 79 % 1032,0 hPa 0,0 mm 0,0 km/h (0 Bft) S 181 ° 0 min 0,000 mm 0,0 UV-I 0 W/m² -1,8 °C 1,4 °C 0,0 km/h (0 Bft)
15.03.2017 01:47 1,3 °C 1,4 °C 79 % 1032,0 hPa 0,0 mm 0,3 km/h (0 Bft) S 181 ° 0 min 0,000 mm 0,0 UV-I 0 W/m² -1,9 °C 1,3 °C 1,6 km/h (1 Bft)
15.03.2017 01:48 1,3 °C 1,3 °C 79 % 1032,0 hPa 0,0 mm 0,0 km/h (0 Bft) S 181 ° 0 min 0,000 mm 0,0 UV-I 0 W/m² -1,9 °C 1,3 °C 0,0 km/h (0 Bft)
15.03.2017 01:49 1,2 °C 1,3 °C 80 % 1032,0 hPa 0,0 mm 0,1 km/h (0 Bft) S 181 ° 0 min 0,000 mm 0,0 UV-I 0 W/m² -1,9 °C 1,2 °C 1,6 km/h (1 Bft)
15.03.2017 01:50 1,2 °C 1,2 °C 80 % 1032,0 hPa 0,0 mm 1,4 km/h (1 Bft) S 181 ° 0 min 0,000 mm 0,0 UV-I 0 W/m² -1,9 °C 1,2 °C 3,2 km/h (1 Bft)
15.03.2017 01:51 1,2 °C 1,2 °C 80 % 1031,9 hPa 0,0 mm 0,1 km/h (0 Bft) S 181 ° 0 min 0,000 mm 0,0 UV-I 0 W/m² -1,9 °C 1,2 °C 1,6 km/h (1 Bft)
15.03.2017 01:52 1,1 °C 1,2 °C 80 % 1031,9 hPa 0,0 mm 0,0 km/h (0 Bft) S 181 ° 0 min 0,000 mm 0,0 UV-I 0 W/m² -2,0 °C 1,1 °C 0,0 km/h (0 Bft)
15.03.2017 01:53 1,1 °C 1,2 °C 80 % 1031,9 hPa 0,0 mm 0,0 km/h (0 Bft) S 181 ° 0 min 0,000 mm 0,0 UV-I 0 W/m² -2,0 °C 1,1 °C 0,0 km/h (0 Bft)
15.03.2017 01:54 0,9 °C 1,1 °C 80 % 1031,9 hPa 0,0 mm 0,0 km/h (0 Bft) S 181 ° 0 min 0,000 mm 0,0 UV-I 0 W/m² -2,2 °C 0,9 °C 0,0 km/h (0 Bft)
15.03.2017 01:55 0,9 °C 0,9 °C 80 % 1031,9 hPa 0,0 mm 0,0 km/h (0 Bft) S 181 ° 0 min 0,000 mm 0,0 UV-I 0 W/m² -2,2 °C 0,9 °C 0,0 km/h (0 Bft)
15.03.2017 01:56 0,9 °C 0,9 °C 80 % 1031,9 hPa 0,0 mm 0,0 km/h (0 Bft) S 181 ° 0 min 0,000 mm 0,0 UV-I 0 W/m² -2,2 °C 0,9 °C 0,0 km/h (0 Bft)
15.03.2017 01:57 1,0 °C 1,0 °C 81 % 1031,9 hPa 0,0 mm 0,0 km/h (0 Bft) S 181 ° 0 min 0,000 mm 0,0 UV-I 0 W/m² -1,9 °C 1,0 °C 0,0 km/h (0 Bft)
15.03.2017 01:58 1,0 °C 1,1 °C 81 % 1031,8 hPa 0,0 mm 0,7 km/h (0 Bft) S 181 ° 0 min 0,000 mm 0,0 UV-I 0 W/m² -1,9 °C 1,0 °C 3,2 km/h (1 Bft)
15.03.2017 01:59 1,2 °C 1,2 °C 80 % 1031,8 hPa 0,0 mm 1,4 km/h (1 Bft) S 181 ° 0 min 0,000 mm 0,0 UV-I 0 W/m² -1,9 °C 1,2 °C 3,2 km/h (1 Bft)
15.03.2017 02:00 1,3 °C 1,3 °C 80 % 1031,8 hPa 0,0 mm 2,3 km/h (1 Bft) S 181 ° 0 min 0,000 mm 0,0 UV-I 0 W/m² -1,8 °C 1,3 °C 3,2 km/h (1 Bft)
15.03.2017 02:01 1,4 °C 1,4 °C 80 % 1031,8 hPa 0,0 mm 1,3 km/h (1 Bft) S 181 ° 0 min 0,000 mm 0,0 UV-I 0 W/m² -1,7 °C 1,4 °C 3,2 km/h (1 Bft)
15.03.2017 02:02 1,6 °C 1,6 °C 79 % 1031,8 hPa 0,0 mm 1,7 km/h (1 Bft) S 181 ° 0 min 0,000 mm 0,0 UV-I 0 W/m² -1,6 °C 1,6 °C 3,2 km/h (1 Bft)
15.03.2017 02:03 1,7 °C 1,7 °C 78 % 1031,8 hPa 0,0 mm 1,0 km/h (0 Bft) S 181 ° 0 min 0,000 mm 0,0 UV-I 0 W/m² -1,7 °C 1,7 °C 3,2 km/h (1 Bft)
15.03.2017 02:04 1,7 °C 1,7 °C 78 % 1031,8 hPa 0,0 mm 1,3 km/h (1 Bft) S 181 ° 0 min 0,000 mm 0,0 UV-I 0 W/m² -1,7 °C 1,7 °C 3,2 km/h (1 Bft)
15.03.2017 02:05 1,7 °C 1,7 °C 78 % 1031,9 hPa 0,0 mm 0,3 km/h (0 Bft) S 181 ° 0 min 0,000 mm 0,0 UV-I 0 W/m² -1,7 °C 1,7 °C 1,6 km/h (1 Bft)
15.03.2017 02:06 1,5 °C 1,7 °C 78 % 1031,8 hPa 0,0 mm 0,5 km/h (0 Bft) S 181 ° 0 min 0,000 mm 0,0 UV-I 0 W/m² -1,9 °C 1,5 °C 1,6 km/h (1 Bft)
15.03.2017 02:07 1,4 °C 1,5 °C 79 % 1031,9 hPa 0,0 mm 0,4 km/h (0 Bft) S 181 ° 0 min 0,000 mm 0,0 UV-I 0 W/m² -1,8 °C 1,4 °C 1,6 km/h (1 Bft)
15.03.2017 02:08 1,2 °C 1,4 °C 79 % 1031,9 hPa 0,0 mm 0,2 km/h (0 Bft) S 181 ° 0 min 0,000 mm 0,0 UV-I 0 W/m² -2,0 °C 1,2 °C 1,6 km/h (1 Bft)
15.03.2017 02:09 1,2 °C 1,2 °C 80 % 1031,9 hPa 0,0 mm 0,3 km/h (0 Bft) S 181 ° 0 min 0,000 mm 0,0 UV-I 0 W/m² -1,9 °C 1,2 °C 1,6 km/h (1 Bft)
15.03.2017 02:10 1,1 °C 1,2 °C 80 % 1031,9 hPa 0,0 mm 0,0 km/h (0 Bft) S 181 ° 0 min 0,000 mm 0,0 UV-I 0 W/m² -2,0 °C 1,1 °C 0,0 km/h (0 Bft)
15.03.2017 02:11 1,1 °C 1,1 °C 81 % 1031,8 hPa 0,0 mm 0,0 km/h (0 Bft) S 181 ° 0 min 0,000 mm 0,0 UV-I 0 W/m² -1,8 °C 1,1 °C 0,0 km/h (0 Bft)
15.03.2017 02:12 1,1 °C 1,1 °C 81 % 1031,8 hPa 0,0 mm 0,0 km/h (0 Bft) S 181 ° 0 min 0,000 mm 0,0 UV-I 0 W/m² -1,8 °C 1,1 °C 0,0 km/h (0 Bft)
15.03.2017 02:13 1,2 °C 1,2 °C 80 % 1031,8 hPa 0,0 mm 0,1 km/h (0 Bft) S 181 ° 0 min 0,000 mm 0,0 UV-I 0 W/m² -1,9 °C 1,2 °C 1,6 km/h (1 Bft)
15.03.2017 02:14 1,1 °C 1,2 °C 80 % 1031,8 hPa 0,0 mm 0,1 km/h (0 Bft) S 181 ° 0 min 0,000 mm 0,0 UV-I 0 W/m² -2,0 °C 1,1 °C 1,6 km/h (1 Bft)
15.03.2017 02:15 1,1 °C 1,1 °C 80 % 1031,9 hPa 0,0 mm 0,0 km/h (0 Bft) S 181 ° 0 min 0,000 mm 0,0 UV-I 0 W/m² -2,0 °C 1,1 °C 0,0 km/h (0 Bft)
15.03.2017 02:16 1,0 °C 1,1 °C 80 % 1031,8 hPa 0,0 mm 0,0 km/h (0 Bft) S 181 ° 0 min 0,000 mm 0,0 UV-I 0 W/m² -2,1 °C 1,0 °C 0,0 km/h (0 Bft)
15.03.2017 02:17 0,9 °C 1,0 °C 80 % 1031,8 hPa 0,0 mm 0,0 km/h (0 Bft) S 181 ° 0 min 0,000 mm 0,0 UV-I 0 W/m² -2,2 °C 0,9 °C 0,0 km/h (0 Bft)
15.03.2017 02:18 0,8 °C 0,9 °C 80 % 1031,8 hPa 0,0 mm 0,6 km/h (0 Bft) S 181 ° 0 min 0,000 mm 0,0 UV-I 0 W/m² -2,2 °C 0,8 °C 1,6 km/h (1 Bft)
15.03.2017 02:19 0,8 °C 0,8 °C 81 % 1031,8 hPa 0,0 mm 0,8 km/h (0 Bft) S 181 ° 0 min 0,000 mm 0,0 UV-I 0 W/m² -2,1 °C 0,8 °C 1,6 km/h (1 Bft)
15.03.2017 02:20 0,8 °C 0,8 °C 82 % 1031,7 hPa 0,0 mm 0,2 km/h (0 Bft) S 181 ° 0 min 0,000 mm 0,0 UV-I 0 W/m² -1,9 °C 0,8 °C 1,6 km/h (1 Bft)
15.03.2017 02:21 0,8 °C 0,8 °C 82 % 1031,7 hPa 0,0 mm 0,0 km/h (0 Bft) S 181 ° 0 min 0,000 mm 0,0 UV-I 0 W/m² -1,9 °C 0,8 °C 0,0 km/h (0 Bft)
15.03.2017 02:22 0,9 °C 0,9 °C 82 % 1031,7 hPa 0,0 mm 0,0 km/h (0 Bft) S 181 ° 0 min 0,000 mm 0,0 UV-I 0 W/m² -1,8 °C 0,9 °C 0,0 km/h (0 Bft)
15.03.2017 02:23 1,1 °C 1,1 °C 81 % 1031,7 hPa 0,0 mm 0,7 km/h (0 Bft) S 181 ° 0 min 0,000 mm 0,0 UV-I 0 W/m² -1,8 °C 1,1 °C 1,6 km/h (1 Bft)
15.03.2017 02:24 1,2 °C 1,2 °C 81 % 1031,7 hPa 0,0 mm 0,0 km/h (0 Bft) S 181 ° 0 min 0,000 mm 0,0 UV-I 0 W/m² -1,7 °C 1,2 °C 0,0 km/h (0 Bft)
15.03.2017 02:25 1,3 °C 1,3 °C 81 % 1031,7 hPa 0,0 mm 0,0 km/h (0 Bft) S 181 ° 0 min 0,000 mm 0,0 UV-I 0 W/m² -1,6 °C 1,3 °C 0,0 km/h (0 Bft)
15.03.2017 02:26 1,4 °C 1,4 °C 80 % 1031,6 hPa 0,0 mm 0,6 km/h (0 Bft) S 181 ° 0 min 0,000 mm 0,0 UV-I 0 W/m² -1,7 °C 1,4 °C 1,6 km/h (1 Bft)
15.03.2017 02:27 1,4 °C 1,4 °C 79 % 1031,6 hPa 0,0 mm 1,2 km/h (1 Bft) S 181 ° 0 min 0,000 mm 0,0 UV-I 0 W/m² -1,8 °C 1,4 °C 1,6 km/h (1 Bft)
15.03.2017 02:28 1,4 °C 1,4 °C 79 % 1031,6 hPa 0,0 mm 1,5 km/h (1 Bft) S 181 ° 0 min 0,000 mm 0,0 UV-I 0 W/m² -1,8 °C 1,4 °C 3,2 km/h (1 Bft)
15.03.2017 02:29 1,5 °C 1,5 °C 79 % 1031,6 hPa 0,0 mm 3,3 km/h (1 Bft) S 181 ° 0 min 0,000 mm 0,0 UV-I 0 W/m² -1,7 °C 1,5 °C 4,8 km/h (1 Bft)
15.03.2017 02:30 1,5 °C 1,5 °C 79 % 1031,6 hPa 0,0 mm 1,5 km/h (1 Bft) S 181 ° 0 min 0,000 mm 0,0 UV-I 0 W/m² -1,7 °C 1,5 °C 3,2 km/h (1 Bft)
15.03.2017 02:31 1,6 °C 1,6 °C 79 % 1031,5 hPa 0,0 mm 0,9 km/h (0 Bft) S 181 ° 0 min 0,000 mm 0,0 UV-I 0 W/m² -1,6 °C 1,6 °C 3,2 km/h (1 Bft)
15.03.2017 02:32 1,6 °C 1,6 °C 79 % 1031,5 hPa 0,0 mm 0,9 km/h (0 Bft) S 181 ° 0 min 0,000 mm 0,0 UV-I 0 W/m² -1,6 °C 1,6 °C 1,6 km/h (1 Bft)
15.03.2017 02:33 1,7 °C 1,7 °C 79 % 1031,5 hPa 0,0 mm 0,4 km/h (0 Bft) S 181 ° 0 min 0,000 mm 0,0 UV-I 0 W/m² -1,5 °C 1,7 °C 1,6 km/h (1 Bft)
15.03.2017 02:34 1,7 °C 1,7 °C 79 % 1031,5 hPa 0,0 mm 0,4 km/h (0 Bft) S 181 ° 0 min 0,000 mm 0,0 UV-I 0 W/m² -1,5 °C 1,7 °C 1,6 km/h (1 Bft)
15.03.2017 02:35 1,7 °C 1,7 °C 79 % 1031,5 hPa 0,0 mm 0,0 km/h (0 Bft) S 181 ° 0 min 0,000 mm 0,0 UV-I 0 W/m² -1,5 °C 1,7 °C 0,0 km/h (0 Bft)
15.03.2017 02:36 1,6 °C 1,7 °C 79 % 1031,5 hPa 0,0 mm 0,0 km/h (0 Bft) S 181 ° 0 min 0,000 mm 0,0 UV-I 0 W/m² -1,6 °C 1,6 °C 0,0 km/h (0 Bft)
15.03.2017 02:37 1,3 °C 1,6 °C 79 % 1031,5 hPa 0,0 mm 0,0 km/h (0 Bft) S 181 ° 0 min 0,000 mm 0,0 UV-I 0 W/m² -1,9 °C 1,3 °C 0,0 km/h (0 Bft)
15.03.2017 02:38 1,2 °C 1,3 °C 80 % 1031,5 hPa 0,0 mm 0,0 km/h (0 Bft) S 181 ° 0 min 0,000 mm 0,0 UV-I 0 W/m² -1,9 °C 1,2 °C 0,0 km/h (0 Bft)
15.03.2017 02:39 1,2 °C 1,2 °C 80 % 1031,5 hPa 0,0 mm 0,0 km/h (0 Bft) S 181 ° 0 min 0,000 mm 0,0 UV-I 0 W/m² -1,9 °C 1,2 °C 0,0 km/h (0 Bft)
15.03.2017 02:40 1,1 °C 1,2 °C 80 % 1031,4 hPa 0,0 mm 0,0 km/h (0 Bft) S 181 ° 0 min 0,000 mm 0,0 UV-I 0 W/m² -2,0 °C 1,1 °C 0,0 km/h (0 Bft)
15.03.2017 02:41 1,0 °C 1,1 °C 81 % 1031,5 hPa 0,0 mm 0,0 km/h (0 Bft) S 181 ° 0 min 0,000 mm 0,0 UV-I 0 W/m² -1,9 °C 1,0 °C 0,0 km/h (0 Bft)
15.03.2017 02:42 0,9 °C 1,0 °C 80 % 1031,5 hPa 0,0 mm 0,0 km/h (0 Bft) S 181 ° 0 min 0,000 mm 0,0 UV-I 0 W/m² -2,2 °C 0,9 °C 0,0 km/h (0 Bft)
15.03.2017 02:43 0,9 °C 0,9 °C 81 % 1031,5 hPa 0,0 mm 0,0 km/h (0 Bft) S 181 ° 0 min 0,000 mm 0,0 UV-I 0 W/m² -2,0 °C 0,9 °C 0,0 km/h (0 Bft)
15.03.2017 02:44 0,8 °C 0,9 °C 81 % 1031,6 hPa 0,0 mm 0,0 km/h (0 Bft) S 181 ° 0 min 0,000 mm 0,0 UV-I 0 W/m² -2,1 °C 0,8 °C 0,0 km/h (0 Bft)
15.03.2017 02:45 0,8 °C 0,8 °C 81 % 1031,6 hPa 0,0 mm 0,0 km/h (0 Bft) S 181 ° 0 min 0,000 mm 0,0 UV-I 0 W/m² -2,1 °C 0,8 °C 0,0 km/h (0 Bft)
15.03.2017 02:46 0,9 °C 0,9 °C 81 % 1031,6 hPa 0,0 mm 0,0 km/h (0 Bft) S 181 ° 0 min 0,000 mm 0,0 UV-I 0 W/m² -2,0 °C 0,9 °C 0,0 km/h (0 Bft)
15.03.2017 02:47 0,8 °C 0,9 °C 81 % 1031,5 hPa 0,0 mm 0,0 km/h (0 Bft) S 181 ° 0 min 0,000 mm 0,0 UV-I 0 W/m² -2,1 °C 0,8 °C 0,0 km/h (0 Bft)
15.03.2017 02:48 0,8 °C 0,8 °C 81 % 1031,5 hPa 0,0 mm 0,0 km/h (0 Bft) S 181 ° 0 min 0,000 mm 0,0 UV-I 0 W/m² -2,1 °C 0,8 °C 0,0 km/h (0 Bft)
15.03.2017 02:49 0,7 °C 0,8 °C 82 % 1031,6 hPa 0,0 mm 0,0 km/h (0 Bft) S 181 ° 0 min 0,000 mm 0,0 UV-I 0 W/m² -2,0 °C 0,7 °C 0,0 km/h (0 Bft)
15.03.2017 02:50 0,7 °C 0,7 °C 82 % 1031,5 hPa 0,0 mm 0,0 km/h (0 Bft) S 181 ° 0 min 0,000 mm 0,0 UV-I 0 W/m² -2,0 °C 0,7 °C 0,0 km/h (0 Bft)
15.03.2017 02:51 0,7 °C 0,7 °C 82 % 1031,5 hPa 0,0 mm 0,0 km/h (0 Bft) S 181 ° 0 min 0,000 mm 0,0 UV-I 0 W/m² -2,0 °C 0,7 °C 0,0 km/h (0 Bft)
15.03.2017 02:52 0,6 °C 0,7 °C 82 % 1031,5 hPa 0,0 mm 0,0 km/h (0 Bft) S 181 ° 0 min 0,000 mm 0,0 UV-I 0 W/m² -2,1 °C 0,6 °C 0,0 km/h (0 Bft)
15.03.2017 02:53 0,6 °C 0,6 °C 82 % 1031,6 hPa 0,0 mm 0,0 km/h (0 Bft) S 181 ° 0 min 0,000 mm 0,0 UV-I 0 W/m² -2,1 °C 0,6 °C 0,0 km/h (0 Bft)
15.03.2017 02:54 0,5 °C 0,6 °C 82 % 1031,5 hPa 0,0 mm 0,0 km/h (0 Bft) S 181 ° 0 min 0,000 mm 0,0 UV-I 0 W/m² -2,2 °C 0,5 °C 0,0 km/h (0 Bft)
15.03.2017 02:55 0,5 °C 0,5 °C 82 % 1031,5 hPa 0,0 mm 0,0 km/h (0 Bft) S 181 ° 0 min 0,000 mm 0,0 UV-I 0 W/m² -2,2 °C 0,5 °C 0,0 km/h (0 Bft)
15.03.2017 02:56 0,6 °C 0,6 °C 82 % 1031,5 hPa 0,0 mm 0,0 km/h (0 Bft) S 181 ° 0 min 0,000 mm 0,0 UV-I 0 W/m² -2,1 °C 0,6 °C 0,0 km/h (0 Bft)
15.03.2017 02:57 0,6 °C 0,6 °C 82 % 1031,5 hPa 0,0 mm 0,0 km/h (0 Bft) S 181 ° 0 min 0,000 mm 0,0 UV-I 0 W/m² -2,1 °C 0,6 °C 0,0 km/h (0 Bft)
15.03.2017 02:58 0,6 °C 0,6 °C 82 % 1031,4 hPa 0,0 mm 0,0 km/h (0 Bft) S 181 ° 0 min 0,000 mm 0,0 UV-I 0 W/m² -2,1 °C 0,6 °C 0,0 km/h (0 Bft)
15.03.2017 02:59 0,6 °C 0,6 °C 82 % 1031,4 hPa 0,0 mm 0,0 km/h (0 Bft) S 181 ° 0 min 0,000 mm 0,0 UV-I 0 W/m² -2,1 °C 0,6 °C 0,0 km/h (0 Bft)
15.03.2017 03:00 0,7 °C 0,7 °C 82 % 1031,4 hPa 0,0 mm 0,0 km/h (0 Bft) S 181 ° 0 min 0,000 mm 0,0 UV-I 0 W/m² -2,0 °C 0,7 °C 0,0 km/h (0 Bft)
15.03.2017 03:01 0,7 °C 0,7 °C 82 % 1031,4 hPa 0,0 mm 0,0 km/h (0 Bft) S 181 ° 0 min 0,000 mm 0,0 UV-I 0 W/m² -2,0 °C 0,7 °C 0,0 km/h (0 Bft)
15.03.2017 03:02 0,7 °C 0,7 °C 81 % 1031,4 hPa 0,0 mm 0,0 km/h (0 Bft) S 181 ° 0 min 0,000 mm 0,0 UV-I 0 W/m² -2,2 °C 0,7 °C 0,0 km/h (0 Bft)
15.03.2017 03:03 0,6 °C 0,7 °C 81 % 1031,4 hPa 0,0 mm 0,0 km/h (0 Bft) S 181 ° 0 min 0,000 mm 0,0 UV-I 0 W/m² -2,3 °C 0,6 °C 0,0 km/h (0 Bft)
15.03.2017 03:04 0,5 °C 0,6 °C 82 % 1031,4 hPa 0,0 mm 0,0 km/h (0 Bft) S 181 ° 0 min 0,000 mm 0,0 UV-I 0 W/m² -2,2 °C 0,5 °C 0,0 km/h (0 Bft)
15.03.2017 03:05 0,4 °C 0,5 °C 82 % 1031,5 hPa 0,0 mm 0,0 km/h (0 Bft) S 181 ° 0 min 0,000 mm 0,0 UV-I 0 W/m² -2,3 °C 0,4 °C 0,0 km/h (0 Bft)
15.03.2017 03:06 0,3 °C 0,4 °C 82 % 1031,4 hPa 0,0 mm 0,0 km/h (0 Bft) S 181 ° 0 min 0,000 mm 0,0 UV-I 0 W/m² -2,4 °C 0,3 °C 0,0 km/h (0 Bft)
15.03.2017 03:07 0,2 °C 0,3 °C 83 % 1031,4 hPa 0,0 mm 0,0 km/h (0 Bft) S 181 ° 0 min 0,000 mm 0,0 UV-I 0 W/m² -2,3 °C 0,2 °C 0,0 km/h (0 Bft)
15.03.2017 03:08 0,2 °C 0,2 °C 84 % 1031,4 hPa 0,0 mm 0,0 km/h (0 Bft) S 181 ° 0 min 0,000 mm 0,0 UV-I 0 W/m² -2,2 °C 0,2 °C 0,0 km/h (0 Bft)
15.03.2017 03:09 0,2 °C 0,2 °C 84 % 1031,3 hPa 0,0 mm 0,0 km/h (0 Bft) S 181 ° 0 min 0,000 mm 0,0 UV-I 0 W/m² -2,2 °C 0,2 °C 0,0 km/h (0 Bft)
15.03.2017 03:10 0,1 °C 0,2 °C 84 % 1031,3 hPa 0,0 mm 0,0 km/h (0 Bft) S 181 ° 0 min 0,000 mm 0,0 UV-I 0 W/m² -2,3 °C 0,1 °C 0,0 km/h (0 Bft)
15.03.2017 03:11 0,1 °C 0,1 °C 84 % 1031,3 hPa 0,0 mm 0,0 km/h (0 Bft) S 181 ° 0 min 0,000 mm 0,0 UV-I 0 W/m² -2,3 °C 0,1 °C 0,0 km/h (0 Bft)
15.03.2017 03:12 0,1 °C 0,1 °C 84 % 1031,2 hPa 0,0 mm 0,0 km/h (0 Bft) S 181 ° 0 min 0,000 mm 0,0 UV-I 0 W/m² -2,3 °C 0,1 °C 0,0 km/h (0 Bft)
15.03.2017 03:13 0,2 °C 0,2 °C 85 % 1031,2 hPa 0,0 mm 0,0 km/h (0 Bft) S 181 ° 0 min 0,000 mm 0,0 UV-I 0 W/m² -2,0 °C 0,2 °C 0,0 km/h (0 Bft)
15.03.2017 03:14 0,2 °C 0,2 °C 84 % 1031,3 hPa 0,0 mm 0,0 km/h (0 Bft) S 181 ° 0 min 0,000 mm 0,0 UV-I 0 W/m² -2,2 °C 0,2 °C 0,0 km/h (0 Bft)
15.03.2017 03:15 0,3 °C 0,3 °C 84 % 1031,3 hPa 0,0 mm 0,0 km/h (0 Bft) S 181 ° 0 min 0,000 mm 0,0 UV-I 0 W/m² -2,1 °C 0,3 °C 0,0 km/h (0 Bft)
15.03.2017 03:16 0,3 °C 0,3 °C 84 % 1031,2 hPa 0,0 mm 0,0 km/h (0 Bft) S 181 ° 0 min 0,000 mm 0,0 UV-I 0 W/m² -2,1 °C 0,3 °C 0,0 km/h (0 Bft)
15.03.2017 03:17 0,2 °C 0,3 °C 84 % 1031,2 hPa 0,0 mm 0,0 km/h (0 Bft) S 181 ° 0 min 0,000 mm 0,0 UV-I 0 W/m² -2,2 °C 0,2 °C 0,0 km/h (0 Bft)
15.03.2017 03:18 0,2 °C 0,2 °C 83 % 1031,2 hPa 0,0 mm 0,0 km/h (0 Bft) S 181 ° 0 min 0,000 mm 0,0 UV-I 0 W/m² -2,3 °C 0,2 °C 0,0 km/h (0 Bft)
15.03.2017 03:19 0,1 °C 0,2 °C 83 % 1031,2 hPa 0,0 mm 0,0 km/h (0 Bft) S 181 ° 0 min 0,000 mm 0,0 UV-I 0 W/m² -2,4 °C 0,1 °C 0,0 km/h (0 Bft)
15.03.2017 03:20 0,0 °C 0,1 °C 83 % 1031,2 hPa 0,0 mm 0,0 km/h (0 Bft) S 181 ° 0 min 0,000 mm 0,0 UV-I 0 W/m² -2,5 °C 0,0 °C 0,0 km/h (0 Bft)
15.03.2017 03:21 -0,1 °C 0,0 °C 84 % 1031,2 hPa 0,0 mm 0,0 km/h (0 Bft) S 181 ° 0 min 0,000 mm 0,0 UV-I 0 W/m² -2,5 °C -0,1 °C 0,0 km/h (0 Bft)
15.03.2017 03:22 -0,1 °C -0,1 °C 84 % 1031,2 hPa 0,0 mm 0,0 km/h (0 Bft) S 181 ° 0 min 0,000 mm 0,0 UV-I 0 W/m² -2,5 °C -0,1 °C 0,0 km/h (0 Bft)
15.03.2017 03:23 -0,2 °C -0,1 °C 85 % 1031,2 hPa 0,0 mm 0,0 km/h (0 Bft) S 181 ° 0 min 0,000 mm 0,0 UV-I 0 W/m² -2,4 °C -0,2 °C 0,0 km/h (0 Bft)
15.03.2017 03:24 -0,2 °C -0,2 °C 85 % 1031,2 hPa 0,0 mm 0,0 km/h (0 Bft) S 181 ° 0 min 0,000 mm 0,0 UV-I 0 W/m² -2,4 °C -0,2 °C 0,0 km/h (0 Bft)
15.03.2017 03:25 -0,2 °C -0,2 °C 85 % 1031,2 hPa 0,0 mm 0,0 km/h (0 Bft) S 181 ° 0 min 0,000 mm 0,0 UV-I 0 W/m² -2,4 °C -0,2 °C 0,0 km/h (0 Bft)
15.03.2017 03:26 -0,2 °C -0,2 °C 86 % 1031,3 hPa 0,0 mm 0,0 km/h (0 Bft) S 181 ° 0 min 0,000 mm 0,0 UV-I 0 W/m² -2,3 °C -0,2 °C 0,0 km/h (0 Bft)
15.03.2017 03:27 -0,2 °C -0,2 °C 85 % 1031,3 hPa 0,0 mm 0,0 km/h (0 Bft) S 181 ° 0 min 0,000 mm 0,0 UV-I 0 W/m² -2,4 °C -0,2 °C 0,0 km/h (0 Bft)
15.03.2017 03:28 -0,2 °C -0,2 °C 85 % 1031,3 hPa 0,0 mm 0,0 km/h (0 Bft) S 181 ° 0 min 0,000 mm 0,0 UV-I 0 W/m² -2,4 °C -0,2 °C 0,0 km/h (0 Bft)
15.03.2017 03:29 -0,2 °C -0,2 °C 85 % 1031,3 hPa 0,0 mm 0,0 km/h (0 Bft) S 181 ° 0 min 0,000 mm 0,0 UV-I 0 W/m² -2,4 °C -0,2 °C 0,0 km/h (0 Bft)
15.03.2017 03:30 -0,3 °C -0,2 °C 85 % 1031,3 hPa 0,0 mm 0,0 km/h (0 Bft) S 181 ° 0 min 0,000 mm 0,0 UV-I 0 W/m² -2,5 °C -0,3 °C 0,0 km/h (0 Bft)
15.03.2017 03:31 -0,3 °C -0,3 °C 86 % 1031,3 hPa 0,0 mm 0,0 km/h (0 Bft) S 181 ° 0 min 0,000 mm 0,0 UV-I 0 W/m² -2,3 °C -0,3 °C 0,0 km/h (0 Bft)
15.03.2017 03:32 -0,3 °C -0,3 °C 86 % 1031,3 hPa 0,0 mm 0,0 km/h (0 Bft) S 181 ° 0 min 0,000 mm 0,0 UV-I 0 W/m² -2,3 °C -0,3 °C 0,0 km/h (0 Bft)
15.03.2017 03:33 -0,2 °C -0,2 °C 86 % 1031,3 hPa 0,0 mm 0,0 km/h (0 Bft) S 181 ° 0 min 0,000 mm 0,0 UV-I 0 W/m² -2,3 °C -0,2 °C 0,0 km/h (0 Bft)
15.03.2017 03:34 -0,2 °C -0,2 °C 86 % 1031,3 hPa 0,0 mm 0,0 km/h (0 Bft) S 181 ° 0 min 0,000 mm 0,0 UV-I 0 W/m² -2,3 °C -0,2 °C 0,0 km/h (0 Bft)
15.03.2017 03:35 -0,2 °C -0,2 °C 86 % 1031,3 hPa 0,0 mm 0,0 km/h (0 Bft) S 181 ° 0 min 0,000 mm 0,0 UV-I 0 W/m² -2,3 °C -0,2 °C 0,0 km/h (0 Bft)
15.03.2017 03:36 -0,1 °C -0,1 °C 86 % 1031,3 hPa 0,0 mm 0,0 km/h (0 Bft) S 181 ° 0 min 0,000 mm 0,0 UV-I 0 W/m² -2,2 °C -0,1 °C 0,0 km/h (0 Bft)
15.03.2017 03:37 -0,1 °C -0,1 °C 85 % 1031,2 hPa 0,0 mm 0,0 km/h (0 Bft) S 181 ° 0 min 0,000 mm 0,0 UV-I 0 W/m² -2,3 °C -0,1 °C 0,0 km/h (0 Bft)
15.03.2017 03:38 -0,1 °C -0,1 °C 85 % 1031,3 hPa 0,0 mm 0,0 km/h (0 Bft) S 181 ° 0 min 0,000 mm 0,0 UV-I 0 W/m² -2,3 °C -0,1 °C 0,0 km/h (0 Bft)
15.03.2017 03:39 -0,2 °C -0,1 °C 85 % 1031,3 hPa 0,0 mm 0,0 km/h (0 Bft) S 181 ° 0 min 0,000 mm 0,0 UV-I 0 W/m² -2,4 °C -0,2 °C 0,0 km/h (0 Bft)
15.03.2017 03:40 -0,2 °C -0,2 °C 85 % 1031,3 hPa 0,0 mm 0,0 km/h (0 Bft) S 181 ° 0 min 0,000 mm 0,0 UV-I 0 W/m² -2,4 °C -0,2 °C 0,0 km/h (0 Bft)
15.03.2017 03:41 -0,3 °C -0,2 °C 85 % 1031,3 hPa 0,0 mm 0,0 km/h (0 Bft) S 181 ° 0 min 0,000 mm 0,0 UV-I 0 W/m² -2,5 °C -0,3 °C 0,0 km/h (0 Bft)
15.03.2017 03:42 -0,3 °C -0,3 °C 86 % 1031,3 hPa 0,0 mm 0,0 km/h (0 Bft) S 181 ° 0 min 0,000 mm 0,0 UV-I 0 W/m² -2,3 °C -0,3 °C 0,0 km/h (0 Bft)
15.03.2017 03:43 -0,3 °C -0,3 °C 86 % 1031,3 hPa 0,0 mm 0,0 km/h (0 Bft) S 181 ° 0 min 0,000 mm 0,0 UV-I 0 W/m² -2,3 °C -0,3 °C 0,0 km/h (0 Bft)
15.03.2017 03:44 -0,3 °C -0,3 °C 86 % 1031,3 hPa 0,0 mm 0,0 km/h (0 Bft) S 181 ° 0 min 0,000 mm 0,0 UV-I 0 W/m² -2,3 °C -0,3 °C 0,0 km/h (0 Bft)
15.03.2017 03:45 -0,3 °C -0,2 °C 86 % 1031,3 hPa 0,0 mm 0,0 km/h (0 Bft) S 181 ° 0 min 0,000 mm 0,0 UV-I 0 W/m² -2,3 °C -0,3 °C 0,0 km/h (0 Bft)
15.03.2017 03:46 -0,2 °C -0,2 °C 86 % 1031,3 hPa 0,0 mm 0,0 km/h (0 Bft) S 181 ° 0 min 0,000 mm 0,0 UV-I 0 W/m² -2,3 °C -0,2 °C 0,0 km/h (0 Bft)
15.03.2017 03:47 -0,1 °C -0,1 °C 85 % 1031,3 hPa 0,0 mm 0,0 km/h (0 Bft) S 181 ° 0 min 0,000 mm 0,0 UV-I 0 W/m² -2,3 °C -0,1 °C 0,0 km/h (0 Bft)
15.03.2017 03:48 -0,1 °C -0,1 °C 85 % 1031,3 hPa 0,0 mm 0,0 km/h (0 Bft) S 181 ° 0 min 0,000 mm 0,0 UV-I 0 W/m² -2,3 °C -0,1 °C 0,0 km/h (0 Bft)
15.03.2017 03:49 -0,1 °C -0,1 °C 85 % 1031,2 hPa 0,0 mm 0,0 km/h (0 Bft) S 181 ° 0 min 0,000 mm 0,0 UV-I 0 W/m² -2,3 °C -0,1 °C 0,0 km/h (0 Bft)
15.03.2017 03:50 -0,1 °C -0,1 °C 85 % 1031,2 hPa 0,0 mm 0,0 km/h (0 Bft) S 181 ° 0 min 0,000 mm 0,0 UV-I 0 W/m² -2,3 °C -0,1 °C 0,0 km/h (0 Bft)
15.03.2017 03:51 -0,2 °C -0,1 °C 85 % 1031,1 hPa 0,0 mm 0,0 km/h (0 Bft) S 181 ° 0 min 0,000 mm 0,0 UV-I 0 W/m² -2,4 °C -0,2 °C 0,0 km/h (0 Bft)
15.03.2017 03:52 -0,2 °C -0,2 °C 85 % 1031,1 hPa 0,0 mm 0,0 km/h (0 Bft) S 181 ° 0 min 0,000 mm 0,0 UV-I 0 W/m² -2,4 °C -0,2 °C 0,0 km/h (0 Bft)
15.03.2017 03:53 -0,2 °C -0,2 °C 85 % 1031,1 hPa 0,0 mm 0,0 km/h (0 Bft) S 181 ° 0 min 0,000 mm 0,0 UV-I 0 W/m² -2,4 °C -0,2 °C 0,0 km/h (0 Bft)
15.03.2017 03:54 -0,2 °C -0,2 °C 85 % 1031,1 hPa 0,0 mm 0,0 km/h (0 Bft) S 181 ° 0 min 0,000 mm 0,0 UV-I 0 W/m² -2,4 °C -0,2 °C 0,0 km/h (0 Bft)
15.03.2017 03:55 -0,2 °C -0,2 °C 85 % 1031,1 hPa 0,0 mm 0,0 km/h (0 Bft) S 181 ° 0 min 0,000 mm 0,0 UV-I 0 W/m² -2,4 °C -0,2 °C 0,0 km/h (0 Bft)
15.03.2017 03:56 -0,2 °C -0,2 °C 85 % 1031,1 hPa 0,0 mm 0,0 km/h (0 Bft) S 181 ° 0 min 0,000 mm 0,0 UV-I 0 W/m² -2,4 °C -0,2 °C 0,0 km/h (0 Bft)
15.03.2017 03:57 -0,3 °C -0,2 °C 85 % 1031,1 hPa 0,0 mm 0,0 km/h (0 Bft) S 181 ° 0 min 0,000 mm 0,0 UV-I 0 W/m² -2,5 °C -0,3 °C 0,0 km/h (0 Bft)
15.03.2017 03:58 -0,2 °C -0,2 °C 85 % 1031,1 hPa 0,0 mm 0,0 km/h (0 Bft) S 181 ° 0 min 0,000 mm 0,0 UV-I 0 W/m² -2,4 °C -0,2 °C 0,0 km/h (0 Bft)
15.03.2017 03:59 -0,2 °C -0,2 °C 85 % 1031,0 hPa 0,0 mm 0,0 km/h (0 Bft) S 181 ° 0 min 0,000 mm 0,0 UV-I 0 W/m² -2,4 °C -0,2 °C 0,0 km/h (0 Bft)
15.03.2017 04:00 -0,1 °C -0,1 °C 85 % 1031,1 hPa 0,0 mm 0,0 km/h (0 Bft) S 181 ° 0 min 0,000 mm 0,0 UV-I 0 W/m² -2,3 °C -0,1 °C 0,0 km/h (0 Bft)
15.03.2017 04:01 0,0 °C 0,0 °C 85 % 1031,1 hPa 0,0 mm 0,0 km/h (0 Bft) S 181 ° 0 min 0,000 mm 0,0 UV-I 0 W/m² -2,2 °C 0,0 °C 0,0 km/h (0 Bft)
15.03.2017 04:02 0,0 °C 0,0 °C 85 % 1031,1 hPa 0,0 mm 0,0 km/h (0 Bft) S 181 ° 0 min 0,000 mm 0,0 UV-I 0 W/m² -2,2 °C 0,0 °C 0,0 km/h (0 Bft)
15.03.2017 04:03 -0,1 °C 0,0 °C 84 % 1031,0 hPa 0,0 mm 0,0 km/h (0 Bft) S 181 ° 0 min 0,000 mm 0,0 UV-I 0 W/m² -2,5 °C -0,1 °C 0,0 km/h (0 Bft)
15.03.2017 04:04 -0,1 °C -0,1 °C 84 % 1031,0 hPa 0,0 mm 0,0 km/h (0 Bft) S 181 ° 0 min 0,000 mm 0,0 UV-I 0 W/m² -2,5 °C -0,1 °C 0,0 km/h (0 Bft)
15.03.2017 04:05 -0,2 °C -0,1 °C 84 % 1031,0 hPa 0,0 mm 0,0 km/h (0 Bft) S 181 ° 0 min 0,000 mm 0,0 UV-I 0 W/m² -2,6 °C -0,2 °C 0,0 km/h (0 Bft)
15.03.2017 04:06 -0,2 °C -0,2 °C 85 % 1031,1 hPa 0,0 mm 0,0 km/h (0 Bft) S 181 ° 0 min 0,000 mm 0,0 UV-I 0 W/m² -2,4 °C -0,2 °C 0,0 km/h (0 Bft)
15.03.2017 04:07 -0,2 °C -0,2 °C 85 % 1031,1 hPa 0,0 mm 0,0 km/h (0 Bft) S 181 ° 0 min 0,000 mm 0,0 UV-I 0 W/m² -2,4 °C -0,2 °C 0,0 km/h (0 Bft)
15.03.2017 04:08 -0,3 °C -0,2 °C 85 % 1031,1 hPa 0,0 mm 0,0 km/h (0 Bft) S 181 ° 0 min 0,000 mm 0,0 UV-I 0 W/m² -2,5 °C -0,3 °C 0,0 km/h (0 Bft)
15.03.2017 04:09 -0,3 °C -0,3 °C 85 % 1031,1 hPa 0,0 mm 0,0 km/h (0 Bft) S 181 ° 0 min 0,000 mm 0,0 UV-I 0 W/m² -2,5 °C -0,3 °C 0,0 km/h (0 Bft)
15.03.2017 04:10 -0,4 °C -0,3 °C 85 % 1031,1 hPa 0,0 mm 0,0 km/h (0 Bft) S 181 ° 0 min 0,000 mm 0,0 UV-I 0 W/m² -2,6 °C -0,4 °C 0,0 km/h (0 Bft)
15.03.2017 04:11 -0,4 °C -0,4 °C 85 % 1031,1 hPa 0,0 mm 0,0 km/h (0 Bft) S 181 ° 0 min 0,000 mm 0,0 UV-I 0 W/m² -2,6 °C -0,4 °C 0,0 km/h (0 Bft)
15.03.2017 04:12 -0,3 °C -0,3 °C 86 % 1031,2 hPa 0,0 mm 0,0 km/h (0 Bft) S 181 ° 0 min 0,000 mm 0,0 UV-I 0 W/m² -2,3 °C -0,3 °C 0,0 km/h (0 Bft)
15.03.2017 04:13 -0,3 °C -0,3 °C 86 % 1031,2 hPa 0,0 mm 0,0 km/h (0 Bft) S 181 ° 0 min 0,000 mm 0,0 UV-I 0 W/m² -2,3 °C -0,3 °C 0,0 km/h (0 Bft)
15.03.2017 04:14 -0,3 °C -0,3 °C 86 % 1031,2 hPa 0,0 mm 0,0 km/h (0 Bft) S 181 ° 0 min 0,000 mm 0,0 UV-I 0 W/m² -2,3 °C -0,3 °C 0,0 km/h (0 Bft)
15.03.2017 04:15 -0,3 °C -0,3 °C 86 % 1031,2 hPa 0,0 mm 0,0 km/h (0 Bft) S 181 ° 0 min 0,000 mm 0,0 UV-I 0 W/m² -2,3 °C -0,3 °C 0,0 km/h (0 Bft)
15.03.2017 04:16 -0,3 °C -0,3 °C 86 % 1031,2 hPa 0,0 mm 0,0 km/h (0 Bft) S 181 ° 0 min 0,000 mm 0,0 UV-I 0 W/m² -2,3 °C -0,3 °C 0,0 km/h (0 Bft)
15.03.2017 04:17 -0,3 °C -0,3 °C 86 % 1031,2 hPa 0,0 mm 0,0 km/h (0 Bft) S 181 ° 0 min 0,000 mm 0,0 UV-I 0 W/m² -2,3 °C -0,3 °C 0,0 km/h (0 Bft)
15.03.2017 04:18 -0,3 °C -0,3 °C 86 % 1031,1 hPa 0,0 mm 0,0 km/h (0 Bft) S 181 ° 0 min 0,000 mm 0,0 UV-I 0 W/m² -2,3 °C -0,3 °C 0,0 km/h (0 Bft)
15.03.2017 04:19 -0,2 °C -0,2 °C 86 % 1031,1 hPa 0,0 mm 0,0 km/h (0 Bft) S 181 ° 0 min 0,000 mm 0,0 UV-I 0 W/m² -2,3 °C -0,2 °C 0,0 km/h (0 Bft)
15.03.2017 04:20 -0,2 °C -0,2 °C 85 % 1031,1 hPa 0,0 mm 0,0 km/h (0 Bft) S 181 ° 0 min 0,000 mm 0,0 UV-I 0 W/m² -2,4 °C -0,2 °C 0,0 km/h (0 Bft)
15.03.2017 04:21 -0,2 °C -0,1 °C 85 % 1031,2 hPa 0,0 mm 0,0 km/h (0 Bft) S 181 ° 0 min 0,000 mm 0,0 UV-I 0 W/m² -2,4 °C -0,2 °C 0,0 km/h (0 Bft)
15.03.2017 04:22 -0,2 °C -0,2 °C 85 % 1031,1 hPa 0,0 mm 0,0 km/h (0 Bft) S 181 ° 0 min 0,000 mm 0,0 UV-I 0 W/m² -2,4 °C -0,2 °C 0,0 km/h (0 Bft)
15.03.2017 04:23 -0,2 °C -0,2 °C 85 % 1031,1 hPa 0,0 mm 0,0 km/h (0 Bft) S 181 ° 0 min 0,000 mm 0,0 UV-I 0 W/m² -2,4 °C -0,2 °C 0,0 km/h (0 Bft)
15.03.2017 04:24 -0,2 °C -0,2 °C 85 % 1031,1 hPa 0,0 mm 0,0 km/h (0 Bft) S 181 ° 0 min 0,000 mm 0,0 UV-I 0 W/m² -2,4 °C -0,2 °C 0,0 km/h (0 Bft)
15.03.2017 04:25 -0,2 °C -0,2 °C 85 % 1031,2 hPa 0,0 mm 0,0 km/h (0 Bft) S 181 ° 0 min 0,000 mm 0,0 UV-I 0 W/m² -2,4 °C -0,2 °C 0,0 km/h (0 Bft)
15.03.2017 04:26 -0,1 °C -0,1 °C 85 % 1031,1 hPa 0,0 mm 0,0 km/h (0 Bft) S 181 ° 0 min 0,000 mm 0,0 UV-I 0 W/m² -2,3 °C -0,1 °C 0,0 km/h (0 Bft)
15.03.2017 04:27 -0,1 °C -0,1 °C 85 % 1031,2 hPa 0,0 mm 0,0 km/h (0 Bft) S 181 ° 0 min 0,000 mm 0,0 UV-I 0 W/m² -2,3 °C -0,1 °C 0,0 km/h (0 Bft)
15.03.2017 04:28 -0,1 °C -0,1 °C 84 % 1031,2 hPa 0,0 mm 0,0 km/h (0 Bft) S 181 ° 0 min 0,000 mm 0,0 UV-I 0 W/m² -2,5 °C -0,1 °C 0,0 km/h (0 Bft)
15.03.2017 04:29 -0,1 °C -0,1 °C 84 % 1031,2 hPa 0,0 mm 0,0 km/h (0 Bft) S 181 ° 0 min 0,000 mm 0,0 UV-I 0 W/m² -2,5 °C -0,1 °C 0,0 km/h (0 Bft)
15.03.2017 04:30 -0,2 °C -0,1 °C 84 % 1031,2 hPa 0,0 mm 0,0 km/h (0 Bft) S 181 ° 0 min 0,000 mm 0,0 UV-I 0 W/m² -2,6 °C -0,2 °C 0,0 km/h (0 Bft)
15.03.2017 04:31 -0,2 °C -0,2 °C 84 % 1031,2 hPa 0,0 mm 0,0 km/h (0 Bft) S 181 ° 0 min 0,000 mm 0,0 UV-I 0 W/m² -2,6 °C -0,2 °C 0,0 km/h (0 Bft)
15.03.2017 04:32 -0,3 °C -0,2 °C 84 % 1031,2 hPa 0,0 mm 0,0 km/h (0 Bft) S 181 ° 0 min 0,000 mm 0,0 UV-I 0 W/m² -2,7 °C -0,3 °C 0,0 km/h (0 Bft)
15.03.2017 04:33 -0,3 °C -0,3 °C 85 % 1031,2 hPa 0,0 mm 0,0 km/h (0 Bft) S 181 ° 0 min 0,000 mm 0,0 UV-I 0 W/m² -2,5 °C -0,3 °C 0,0 km/h (0 Bft)
15.03.2017 04:34 -0,3 °C -0,3 °C 85 % 1031,2 hPa 0,0 mm 0,0 km/h (0 Bft) S 181 ° 0 min 0,000 mm 0,0 UV-I 0 W/m² -2,5 °C -0,3 °C 0,0 km/h (0 Bft)
15.03.2017 04:35 -0,4 °C -0,3 °C 85 % 1031,2 hPa 0,0 mm 0,0 km/h (0 Bft) S 181 ° 0 min 0,000 mm 0,0 UV-I 0 W/m² -2,6 °C -0,4 °C 0,0 km/h (0 Bft)
15.03.2017 04:36 -0,4 °C -0,4 °C 85 % 1031,2 hPa 0,0 mm 0,0 km/h (0 Bft) S 181 ° 0 min 0,000 mm 0,0 UV-I 0 W/m² -2,6 °C -0,4 °C 0,0 km/h (0 Bft)
15.03.2017 04:37 -0,5 °C -0,4 °C 85 % 1031,2 hPa 0,0 mm 0,0 km/h (0 Bft) S 181 ° 0 min 0,000 mm 0,0 UV-I 0 W/m² -2,7 °C -0,5 °C 0,0 km/h (0 Bft)
15.03.2017 04:38 -0,6 °C -0,5 °C 85 % 1031,2 hPa 0,0 mm 0,0 km/h (0 Bft) S 181 ° 0 min 0,000 mm 0,0 UV-I 0 W/m² -2,8 °C -0,6 °C 0,0 km/h (0 Bft)
15.03.2017 04:39 -0,6 °C -0,6 °C 86 % 1031,2 hPa 0,0 mm 0,0 km/h (0 Bft) S 181 ° 0 min 0,000 mm 0,0 UV-I 0 W/m² -2,6 °C -0,6 °C 0,0 km/h (0 Bft)
15.03.2017 04:40 -0,6 °C -0,6 °C 86 % 1031,2 hPa 0,0 mm 0,0 km/h (0 Bft) S 181 ° 0 min 0,000 mm 0,0 UV-I 0 W/m² -2,6 °C -0,6 °C 0,0 km/h (0 Bft)
15.03.2017 04:41 -0,6 °C -0,6 °C 87 % 1031,2 hPa 0,0 mm 0,0 km/h (0 Bft) S 181 ° 0 min 0,000 mm 0,0 UV-I 0 W/m² -2,5 °C -0,6 °C 0,0 km/h (0 Bft)
15.03.2017 04:42 -0,5 °C -0,5 °C 87 % 1031,2 hPa 0,0 mm 0,0 km/h (0 Bft) S 181 ° 0 min 0,000 mm 0,0 UV-I 0 W/m² -2,4 °C -0,5 °C 0,0 km/h (0 Bft)
15.03.2017 04:43 -0,4 °C -0,4 °C 87 % 1031,3 hPa 0,0 mm 0,0 km/h (0 Bft) S 181 ° 0 min 0,000 mm 0,0 UV-I 0 W/m² -2,3 °C -0,4 °C 0,0 km/h (0 Bft)
15.03.2017 04:44 -0,3 °C -0,3 °C 87 % 1031,2 hPa 0,0 mm 0,0 km/h (0 Bft) S 181 ° 0 min 0,000 mm 0,0 UV-I 0 W/m² -2,2 °C -0,3 °C 0,0 km/h (0 Bft)
15.03.2017 04:45 -0,2 °C -0,2 °C 87 % 1031,2 hPa 0,0 mm 0,0 km/h (0 Bft) S 181 ° 0 min 0,000 mm 0,0 UV-I 0 W/m² -2,1 °C -0,2 °C 0,0 km/h (0 Bft)
15.03.2017 04:46 -0,2 °C -0,2 °C 87 % 1031,2 hPa 0,0 mm 0,0 km/h (0 Bft) S 181 ° 0 min 0,000 mm 0,0 UV-I 0 W/m² -2,1 °C -0,2 °C 0,0 km/h (0 Bft)
15.03.2017 04:47 -0,1 °C -0,1 °C 86 % 1031,2 hPa 0,0 mm 0,0 km/h (0 Bft) S 181 ° 0 min 0,000 mm 0,0 UV-I 0 W/m² -2,2 °C -0,1 °C 0,0 km/h (0 Bft)
15.03.2017 04:48 -0,1 °C -0,1 °C 85 % 1031,2 hPa 0,0 mm 0,0 km/h (0 Bft) S 181 ° 0 min 0,000 mm 0,0 UV-I 0 W/m² -2,3 °C -0,1 °C 0,0 km/h (0 Bft)
15.03.2017 04:49 -0,2 °C -0,1 °C 85 % 1031,1 hPa 0,0 mm 0,0 km/h (0 Bft) S 181 ° 0 min 0,000 mm 0,0 UV-I 0 W/m² -2,4 °C -0,2 °C 0,0 km/h (0 Bft)
15.03.2017 04:50 -0,2 °C -0,2 °C 86 % 1031,2 hPa 0,0 mm 0,0 km/h (0 Bft) S 181 ° 0 min 0,000 mm 0,0 UV-I 0 W/m² -2,3 °C -0,2 °C 0,0 km/h (0 Bft)
15.03.2017 04:51 -0,3 °C -0,2 °C 86 % 1031,1 hPa 0,0 mm 0,0 km/h (0 Bft) S 181 ° 0 min 0,000 mm 0,0 UV-I 0 W/m² -2,3 °C -0,3 °C 0,0 km/h (0 Bft)
15.03.2017 04:52 -0,4 °C -0,3 °C 86 % 1031,1 hPa 0,0 mm 0,0 km/h (0 Bft) S 181 ° 0 min 0,000 mm 0,0 UV-I 0 W/m² -2,4 °C -0,4 °C 0,0 km/h (0 Bft)
15.03.2017 04:53 -0,5 °C -0,4 °C 85 % 1031,1 hPa 0,0 mm 0,0 km/h (0 Bft) S 181 ° 0 min 0,000 mm 0,0 UV-I 0 W/m² -2,7 °C -0,5 °C 0,0 km/h (0 Bft)
15.03.2017 04:54 -0,6 °C -0,5 °C 86 % 1031,1 hPa 0,0 mm 0,0 km/h (0 Bft) S 181 ° 0 min 0,000 mm 0,0 UV-I 0 W/m² -2,6 °C -0,6 °C 0,0 km/h (0 Bft)
15.03.2017 04:55 -0,7 °C -0,6 °C 86 % 1031,1 hPa 0,0 mm 0,0 km/h (0 Bft) S 181 ° 0 min 0,000 mm 0,0 UV-I 0 W/m² -2,7 °C -0,7 °C 0,0 km/h (0 Bft)
15.03.2017 04:56 -0,7 °C -0,7 °C 86 % 1031,1 hPa 0,0 mm 0,0 km/h (0 Bft) S 181 ° 0 min 0,000 mm 0,0 UV-I 0 W/m² -2,7 °C -0,7 °C 0,0 km/h (0 Bft)
15.03.2017 04:57 -0,7 °C -0,7 °C 87 % 1031,1 hPa 0,0 mm 0,0 km/h (0 Bft) S 181 ° 0 min 0,000 mm 0,0 UV-I 0 W/m² -2,6 °C -0,7 °C 0,0 km/h (0 Bft)
15.03.2017 04:58 -0,8 °C -0,7 °C 87 % 1031,0 hPa 0,0 mm 0,0 km/h (0 Bft) S 181 ° 0 min 0,000 mm 0,0 UV-I 0 W/m² -2,7 °C -0,8 °C 0,0 km/h (0 Bft)
15.03.2017 04:59 -0,8 °C -0,8 °C 87 % 1031,0 hPa 0,0 mm 0,0 km/h (0 Bft) S 181 ° 0 min 0,000 mm 0,0 UV-I 0 W/m² -2,7 °C -0,8 °C 0,0 km/h (0 Bft)
15.03.2017 05:00 -0,8 °C -0,8 °C 87 % 1031,0 hPa 0,0 mm 0,0 km/h (0 Bft) S 181 ° 0 min 0,000 mm 0,0 UV-I 0 W/m² -2,7 °C -0,8 °C 0,0 km/h (0 Bft)
15.03.2017 05:01 -0,8 °C -0,8 °C 87 % 1031,0 hPa 0,0 mm 0,0 km/h (0 Bft) S 181 ° 0 min 0,000 mm 0,0 UV-I 0 W/m² -2,7 °C -0,8 °C 0,0 km/h (0 Bft)
15.03.2017 05:02 -0,8 °C -0,8 °C 88 % 1031,0 hPa 0,0 mm 0,0 km/h (0 Bft) S 181 ° 0 min 0,000 mm 0,0 UV-I 0 W/m² -2,5 °C -0,8 °C 0,0 km/h (0 Bft)
15.03.2017 05:03 -0,8 °C -0,8 °C 88 % 1031,0 hPa 0,0 mm 0,0 km/h (0 Bft) S 181 ° 0 min 0,000 mm 0,0 UV-I 0 W/m² -2,5 °C -0,8 °C 0,0 km/h (0 Bft)
15.03.2017 05:04 -0,8 °C -0,8 °C 88 % 1031,0 hPa 0,0 mm 0,0 km/h (0 Bft) S 181 ° 0 min 0,000 mm 0,0 UV-I 0 W/m² -2,5 °C -0,8 °C 0,0 km/h (0 Bft)
15.03.2017 05:05 -0,8 °C -0,8 °C 88 % 1031,0 hPa 0,0 mm 0,0 km/h (0 Bft) S 181 ° 0 min 0,000 mm 0,0 UV-I 0 W/m² -2,5 °C -0,8 °C 0,0 km/h (0 Bft)
15.03.2017 05:06 -0,9 °C -0,8 °C 87 % 1031,1 hPa 0,0 mm 0,0 km/h (0 Bft) S 181 ° 0 min 0,000 mm 0,0 UV-I 0 W/m² -2,8 °C -0,9 °C 0,0 km/h (0 Bft)
15.03.2017 05:07 -0,9 °C -0,9 °C 87 % 1031,1 hPa 0,0 mm 0,0 km/h (0 Bft) S 181 ° 0 min 0,000 mm 0,0 UV-I 0 W/m² -2,8 °C -0,9 °C 0,0 km/h (0 Bft)
15.03.2017 05:08 -0,9 °C -0,9 °C 88 % 1031,1 hPa 0,0 mm 0,0 km/h (0 Bft) S 181 ° 0 min 0,000 mm 0,0 UV-I 0 W/m² -2,6 °C -0,9 °C 0,0 km/h (0 Bft)
15.03.2017 05:09 -1,0 °C -0,9 °C 88 % 1031,1 hPa 0,0 mm 0,0 km/h (0 Bft) S 181 ° 0 min 0,000 mm 0,0 UV-I 0 W/m² -2,7 °C -1,0 °C 0,0 km/h (0 Bft)
15.03.2017 05:10 -1,1 °C -1,0 °C 88 % 1031,1 hPa 0,0 mm 0,0 km/h (0 Bft) S 181 ° 0 min 0,000 mm 0,0 UV-I 0 W/m² -2,8 °C -1,1 °C 0,0 km/h (0 Bft)
15.03.2017 05:11 -1,1 °C -1,0 °C 88 % 1031,1 hPa 0,0 mm 0,0 km/h (0 Bft) S 181 ° 0 min 0,000 mm 0,0 UV-I 0 W/m² -2,8 °C -1,1 °C 0,0 km/h (0 Bft)
15.03.2017 05:12 -1,1 °C -1,0 °C 88 % 1031,1 hPa 0,0 mm 0,0 km/h (0 Bft) S 181 ° 0 min 0,000 mm 0,0 UV-I 0 W/m² -2,8 °C -1,1 °C 0,0 km/h (0 Bft)
15.03.2017 05:13 -1,1 °C -1,1 °C 88 % 1031,1 hPa 0,0 mm 0,0 km/h (0 Bft) S 181 ° 0 min 0,000 mm 0,0 UV-I 0 W/m² -2,8 °C -1,1 °C 0,0 km/h (0 Bft)
15.03.2017 05:14 -1,1 °C -1,1 °C 88 % 1031,1 hPa 0,0 mm 0,0 km/h (0 Bft) S 181 ° 0 min 0,000 mm 0,0 UV-I 0 W/m² -2,8 °C -1,1 °C 0,0 km/h (0 Bft)
15.03.2017 05:15 -1,1 °C -1,1 °C 88 % 1031,1 hPa 0,0 mm 0,0 km/h (0 Bft) S 181 ° 0 min 0,000 mm 0,0 UV-I 0 W/m² -2,8 °C -1,1 °C 0,0 km/h (0 Bft)
15.03.2017 05:16 -1,0 °C -1,0 °C 89 % 1031,1 hPa 0,0 mm 0,0 km/h (0 Bft) S 181 ° 0 min 0,000 mm 0,0 UV-I 0 W/m² -2,6 °C -1,0 °C 0,0 km/h (0 Bft)
15.03.2017 05:17 -0,9 °C -0,9 °C 89 % 1031,2 hPa 0,0 mm 0,0 km/h (0 Bft) S 181 ° 0 min 0,000 mm 0,0 UV-I 0 W/m² -2,5 °C -0,9 °C 0,0 km/h (0 Bft)
15.03.2017 05:18 -0,9 °C -0,9 °C 88 % 1031,2 hPa 0,0 mm 0,0 km/h (0 Bft) S 181 ° 0 min 0,000 mm 0,0 UV-I 0 W/m² -2,6 °C -0,9 °C 0,0 km/h (0 Bft)
15.03.2017 05:19 -0,9 °C -0,9 °C 88 % 1031,2 hPa 0,0 mm 0,0 km/h (0 Bft) S 181 ° 0 min 0,000 mm 0,0 UV-I 0 W/m² -2,6 °C -0,9 °C 0,0 km/h (0 Bft)
15.03.2017 05:20 -0,9 °C -0,9 °C 88 % 1031,2 hPa 0,0 mm 0,0 km/h (0 Bft) S 181 ° 0 min 0,000 mm 0,0 UV-I 0 W/m² -2,6 °C -0,9 °C 0,0 km/h (0 Bft)
15.03.2017 05:21 -0,9 °C -0,9 °C 88 % 1031,2 hPa 0,0 mm 0,0 km/h (0 Bft) S 181 ° 0 min 0,000 mm 0,0 UV-I 0 W/m² -2,6 °C -0,9 °C 0,0 km/h (0 Bft)
15.03.2017 05:22 -0,9 °C -0,9 °C 88 % 1031,2 hPa 0,0 mm 0,0 km/h (0 Bft) S 181 ° 0 min 0,000 mm 0,0 UV-I 0 W/m² -2,6 °C -0,9 °C 0,0 km/h (0 Bft)
15.03.2017 05:23 -0,9 °C -0,9 °C 88 % 1031,2 hPa 0,0 mm 0,0 km/h (0 Bft) S 181 ° 0 min 0,000 mm 0,0 UV-I 0 W/m² -2,6 °C -0,9 °C 0,0 km/h (0 Bft)
15.03.2017 05:24 -0,9 °C -0,8 °C 88 % 1031,3 hPa 0,0 mm 0,0 km/h (0 Bft) S 181 ° 0 min 0,000 mm 0,0 UV-I 0 W/m² -2,6 °C -0,9 °C 0,0 km/h (0 Bft)
15.03.2017 05:25 -0,8 °C -0,8 °C 88 % 1031,2 hPa 0,0 mm 0,0 km/h (0 Bft) S 181 ° 0 min 0,000 mm 0,0 UV-I 0 W/m² -2,5 °C -0,8 °C 0,0 km/h (0 Bft)
15.03.2017 05:26 -0,6 °C -0,6 °C 88 % 1031,3 hPa 0,0 mm 0,0 km/h (0 Bft) S 181 ° 0 min 0,000 mm 0,0 UV-I 0 W/m² -2,3 °C -0,6 °C 0,0 km/h (0 Bft)
15.03.2017 05:27 -0,6 °C -0,6 °C 88 % 1031,3 hPa 0,0 mm 0,0 km/h (0 Bft) S 181 ° 0 min 0,000 mm 0,0 UV-I 0 W/m² -2,3 °C -0,6 °C 0,0 km/h (0 Bft)
15.03.2017 05:28 -0,5 °C -0,5 °C 87 % 1031,2 hPa 0,0 mm 0,0 km/h (0 Bft) S 181 ° 0 min 0,000 mm 0,0 UV-I 0 W/m² -2,4 °C -0,5 °C 0,0 km/h (0 Bft)
15.03.2017 05:29 -0,5 °C -0,4 °C 87 % 1031,2 hPa 0,0 mm 0,0 km/h (0 Bft) S 181 ° 0 min 0,000 mm 0,0 UV-I 0 W/m² -2,4 °C -0,5 °C 0,0 km/h (0 Bft)
15.03.2017 05:30 -0,5 °C -0,4 °C 87 % 1031,3 hPa 0,0 mm 0,0 km/h (0 Bft) S 181 ° 0 min 0,000 mm 0,0 UV-I 0 W/m² -2,4 °C -0,5 °C 0,0 km/h (0 Bft)
15.03.2017 05:31 -0,6 °C -0,5 °C 87 % 1031,3 hPa 0,0 mm 0,0 km/h (0 Bft) S 181 ° 0 min 0,000 mm 0,0 UV-I 0 W/m² -2,5 °C -0,6 °C 0,0 km/h (0 Bft)
15.03.2017 05:32 -0,6 °C -0,6 °C 87 % 1031,2 hPa 0,0 mm 0,0 km/h (0 Bft) S 181 ° 0 min 0,000 mm 0,0 UV-I 0 W/m² -2,5 °C -0,6 °C 0,0 km/h (0 Bft)
15.03.2017 05:33 -0,6 °C -0,6 °C 87 % 1031,3 hPa 0,0 mm 0,0 km/h (0 Bft) S 181 ° 0 min 0,000 mm 0,0 UV-I 0 W/m² -2,5 °C -0,6 °C 0,0 km/h (0 Bft)
15.03.2017 05:34 -0,7 °C -0,6 °C 87 % 1031,3 hPa 0,0 mm 0,0 km/h (0 Bft) S 181 ° 0 min 0,000 mm 0,0 UV-I 0 W/m² -2,6 °C -0,7 °C 0,0 km/h (0 Bft)
15.03.2017 05:35 -0,7 °C -0,7 °C 87 % 1031,3 hPa 0,0 mm 0,0 km/h (0 Bft) S 181 ° 0 min 0,000 mm 0,0 UV-I 0 W/m² -2,6 °C -0,7 °C 0,0 km/h (0 Bft)
15.03.2017 05:36 -0,7 °C -0,7 °C 87 % 1031,3 hPa 0,0 mm 0,0 km/h (0 Bft) S 181 ° 0 min 0,000 mm 0,0 UV-I 0 W/m² -2,6 °C -0,7 °C 0,0 km/h (0 Bft)
15.03.2017 05:37 -0,7 °C -0,7 °C 87 % 1031,2 hPa 0,0 mm 0,0 km/h (0 Bft) S 181 ° 0 min 0,000 mm 0,0 UV-I 0 W/m² -2,6 °C -0,7 °C 0,0 km/h (0 Bft)
15.03.2017 05:38 -0,7 °C -0,7 °C 87 % 1031,2 hPa 0,0 mm 0,0 km/h (0 Bft) S 181 ° 0 min 0,000 mm 0,0 UV-I 0 W/m² -2,6 °C -0,7 °C 0,0 km/h (0 Bft)
15.03.2017 05:39 -0,7 °C -0,7 °C 87 % 1031,2 hPa 0,0 mm 0,0 km/h (0 Bft) S 181 ° 0 min 0,000 mm 0,0 UV-I 0 W/m² -2,6 °C -0,7 °C 0,0 km/h (0 Bft)
15.03.2017 05:40 -0,6 °C -0,6 °C 88 % 1031,2 hPa 0,0 mm 0,0 km/h (0 Bft) S 181 ° 0 min 0,000 mm 0,0 UV-I 0 W/m² -2,3 °C -0,6 °C 0,0 km/h (0 Bft)
15.03.2017 05:41 -0,7 °C -0,6 °C 87 % 1031,2 hPa 0,0 mm 0,0 km/h (0 Bft) S 181 ° 0 min 0,000 mm 0,0 UV-I 0 W/m² -2,6 °C -0,7 °C 0,0 km/h (0 Bft)
15.03.2017 05:42 -0,7 °C -0,6 °C 87 % 1031,2 hPa 0,0 mm 0,0 km/h (0 Bft) S 181 ° 0 min 0,000 mm 0,0 UV-I 0 W/m² -2,6 °C -0,7 °C 0,0 km/h (0 Bft)
15.03.2017 05:43 -0,8 °C -0,7 °C 86 % 1031,3 hPa 0,0 mm 0,0 km/h (0 Bft) S 181 ° 0 min 0,000 mm 0,0 UV-I 0 W/m² -2,8 °C -0,8 °C 0,0 km/h (0 Bft)
15.03.2017 05:44 -0,9 °C -0,8 °C 86 % 1031,3 hPa 0,0 mm 0,0 km/h (0 Bft) S 181 ° 0 min 0,000 mm 0,0 UV-I 0 W/m² -2,9 °C -0,9 °C 0,0 km/h (0 Bft)
15.03.2017 05:45 -1,0 °C -0,9 °C 86 % 1031,3 hPa 0,0 mm 0,0 km/h (0 Bft) S 181 ° 0 min 0,000 mm 0,0 UV-I 0 W/m² -3,0 °C -1,0 °C 0,0 km/h (0 Bft)
15.03.2017 05:46 -1,0 °C -1,0 °C 87 % 1031,3 hPa 0,0 mm 0,0 km/h (0 Bft) S 181 ° 0 min 0,000 mm 0,0 UV-I 0 W/m² -2,9 °C -1,0 °C 0,0 km/h (0 Bft)
15.03.2017 05:47 -1,1 °C -1,0 °C 87 % 1031,3 hPa 0,0 mm 0,0 km/h (0 Bft) S 181 ° 0 min 0,000 mm 0,0 UV-I 0 W/m² -3,0 °C -1,1 °C 0,0 km/h (0 Bft)
15.03.2017 05:48 -1,1 °C -1,1 °C 88 % 1031,3 hPa 0,0 mm 0,0 km/h (0 Bft) S 181 ° 0 min 0,000 mm 0,0 UV-I 0 W/m² -2,8 °C -1,1 °C 0,0 km/h (0 Bft)
15.03.2017 05:49 -1,1 °C -1,1 °C 88 % 1031,3 hPa 0,0 mm 0,0 km/h (0 Bft) S 181 ° 0 min 0,000 mm 0,0 UV-I 0 W/m² -2,8 °C -1,1 °C 0,0 km/h (0 Bft)
15.03.2017 05:50 -1,1 °C -1,1 °C 88 % 1031,3 hPa 0,0 mm 0,0 km/h (0 Bft) S 181 ° 0 min 0,000 mm 0,0 UV-I 0 W/m² -2,8 °C -1,1 °C 0,0 km/h (0 Bft)
15.03.2017 05:51 -1,1 °C -1,1 °C 88 % 1031,3 hPa 0,0 mm 0,0 km/h (0 Bft) S 181 ° 0 min 0,000 mm 0,0 UV-I 0 W/m² -2,8 °C -1,1 °C 0,0 km/h (0 Bft)
15.03.2017 05:52 -1,0 °C -1,0 °C 88 % 1031,3 hPa 0,0 mm 0,0 km/h (0 Bft) S 181 ° 0 min 0,000 mm 0,0 UV-I 0 W/m² -2,7 °C -1,0 °C 0,0 km/h (0 Bft)
15.03.2017 05:53 -1,0 °C -1,0 °C 88 % 1031,4 hPa 0,0 mm 0,0 km/h (0 Bft) S 181 ° 0 min 0,000 mm 0,0 UV-I 0 W/m² -2,7 °C -1,0 °C 0,0 km/h (0 Bft)
15.03.2017 05:54 -1,1 °C -1,0 °C 88 % 1031,4 hPa 0,0 mm 0,0 km/h (0 Bft) S 181 ° 0 min 0,000 mm 0,0 UV-I 0 W/m² -2,8 °C -1,1 °C 0,0 km/h (0 Bft)
15.03.2017 05:55 -1,1 °C -1,1 °C 88 % 1031,4 hPa 0,0 mm 0,0 km/h (0 Bft) S 181 ° 0 min 0,000 mm 0,0 UV-I 0 W/m² -2,8 °C -1,1 °C 0,0 km/h (0 Bft)
15.03.2017 05:56 -1,1 °C -1,1 °C 88 % 1031,4 hPa 0,0 mm 0,0 km/h (0 Bft) S 181 ° 0 min 0,000 mm 0,0 UV-I 0 W/m² -2,8 °C -1,1 °C 0,0 km/h (0 Bft)
15.03.2017 05:57 -1,1 °C -1,1 °C 88 % 1031,4 hPa 0,0 mm 0,0 km/h (0 Bft) S 181 ° 0 min 0,000 mm 0,0 UV-I 0 W/m² -2,8 °C -1,1 °C 0,0 km/h (0 Bft)
15.03.2017 05:58 -0,9 °C -0,9 °C 89 % 1031,3 hPa 0,0 mm 0,0 km/h (0 Bft) S 181 ° 0 min 0,000 mm 0,0 UV-I 0 W/m² -2,5 °C -0,9 °C 0,0 km/h (0 Bft)
15.03.2017 05:59 -0,7 °C -0,7 °C 89 % 1031,3 hPa 0,0 mm 0,0 km/h (0 Bft) S 181 ° 0 min 0,000 mm 0,0 UV-I 0 W/m² -2,3 °C -0,7 °C 0,0 km/h (0 Bft)
15.03.2017 06:00 -0,4 °C -0,4 °C 89 % 1031,2 hPa 0,0 mm 1,8 km/h (1 Bft) S 181 ° 0 min 0,000 mm 0,0 UV-I 0 W/m² -2,0 °C -0,4 °C 3,2 km/h (1 Bft)
15.03.2017 06:01 -0,2 °C -0,2 °C 89 % 1031,2 hPa 0,0 mm 2,0 km/h (1 Bft) S 181 ° 0 min 0,000 mm 0,0 UV-I 0 W/m² -1,8 °C -0,2 °C 3,2 km/h (1 Bft)
15.03.2017 06:02 0,0 °C 0,0 °C 89 % 1031,2 hPa 0,0 mm 0,5 km/h (0 Bft) S 181 ° 0 min 0,000 mm 0,0 UV-I 0 W/m² -1,6 °C 0,0 °C 1,6 km/h (1 Bft)
15.03.2017 06:03 0,2 °C 0,2 °C 87 % 1031,2 hPa 0,0 mm 0,0 km/h (0 Bft) S 181 ° 0 min 0,000 mm 0,0 UV-I 0 W/m² -1,7 °C 0,2 °C 0,0 km/h (0 Bft)
15.03.2017 06:04 0,3 °C 0,3 °C 87 % 1031,2 hPa 0,0 mm 0,0 km/h (0 Bft) S 181 ° 0 min 0,000 mm 0,0 UV-I 0 W/m² -1,6 °C 0,3 °C 0,0 km/h (0 Bft)
15.03.2017 06:05 0,4 °C 0,4 °C 86 % 1031,2 hPa 0,0 mm 0,0 km/h (0 Bft) S 181 ° 0 min 0,000 mm 0,0 UV-I 0 W/m² -1,7 °C 0,4 °C 0,0 km/h (0 Bft)
15.03.2017 06:06 0,3 °C 0,4 °C 84 % 1031,2 hPa 0,0 mm 0,0 km/h (0 Bft) S 181 ° 0 min 0,000 mm 0,0 UV-I 0 W/m² -2,1 °C 0,3 °C 0,0 km/h (0 Bft)
15.03.2017 06:07 0,0 °C 0,3 °C 84 % 1031,2 hPa 0,0 mm 0,1 km/h (0 Bft) S 181 ° 0 min 0,000 mm 0,0 UV-I 0 W/m² -2,4 °C 0,0 °C 1,6 km/h (1 Bft)
15.03.2017 06:08 -0,2 °C 0,0 °C 84 % 1031,2 hPa 0,0 mm 0,0 km/h (0 Bft) S 181 ° 0 min 0,000 mm 0,0 UV-I 0 W/m² -2,6 °C -0,2 °C 0,0 km/h (0 Bft)
15.03.2017 06:09 -0,3 °C -0,2 °C 85 % 1031,2 hPa 0,0 mm 0,0 km/h (0 Bft) S 181 ° 0 min 0,000 mm 0,0 UV-I 0 W/m² -2,5 °C -0,3 °C 0,0 km/h (0 Bft)
15.03.2017 06:10 -0,5 °C -0,3 °C 85 % 1031,2 hPa 0,0 mm 0,0 km/h (0 Bft) S 181 ° 0 min 0,000 mm 0,0 UV-I 0 W/m² -2,7 °C -0,5 °C 0,0 km/h (0 Bft)
15.03.2017 06:11 -0,6 °C -0,5 °C 86 % 1031,2 hPa 0,0 mm 0,0 km/h (0 Bft) S 181 ° 0 min 0,000 mm 0,0 UV-I 0 W/m² -2,6 °C -0,6 °C 0,0 km/h (0 Bft)
15.03.2017 06:12 -0,7 °C -0,6 °C 86 % 1031,2 hPa 0,0 mm 0,0 km/h (0 Bft) S 181 ° 0 min 0,000 mm 0,0 UV-I 0 W/m² -2,7 °C -0,7 °C 0,0 km/h (0 Bft)
15.03.2017 06:13 -0,8 °C -0,7 °C 86 % 1031,2 hPa 0,0 mm 0,0 km/h (0 Bft) S 181 ° 0 min 0,000 mm 0,0 UV-I 0 W/m² -2,8 °C -0,8 °C 0,0 km/h (0 Bft)
15.03.2017 06:14 -0,8 °C -0,8 °C 86 % 1031,2 hPa 0,0 mm 0,0 km/h (0 Bft) S 181 ° 0 min 0,000 mm 0,0 UV-I 0 W/m² -2,8 °C -0,8 °C 0,0 km/h (0 Bft)
15.03.2017 06:15 -0,8 °C -0,8 °C 87 % 1031,2 hPa 0,0 mm 0,0 km/h (0 Bft) S 181 ° 0 min 0,000 mm 0,0 UV-I 0 W/m² -2,7 °C -0,8 °C 0,0 km/h (0 Bft)
15.03.2017 06:16 -0,8 °C -0,8 °C 87 % 1031,2 hPa 0,0 mm 0,0 km/h (0 Bft) S 181 ° 0 min 0,000 mm 0,0 UV-I 0 W/m² -2,7 °C -0,8 °C 0,0 km/h (0 Bft)
15.03.2017 06:17 -0,8 °C -0,8 °C 88 % 1031,3 hPa 0,0 mm 0,0 km/h (0 Bft) S 181 ° 0 min 0,000 mm 0,0 UV-I 0 W/m² -2,5 °C -0,8 °C 0,0 km/h (0 Bft)
15.03.2017 06:18 -0,7 °C -0,7 °C 88 % 1031,4 hPa 0,0 mm 0,0 km/h (0 Bft) S 181 ° 0 min 0,000 mm 0,0 UV-I 0 W/m² -2,4 °C -0,7 °C 0,0 km/h (0 Bft)
15.03.2017 06:19 -0,7 °C -0,7 °C 88 % 1031,4 hPa 0,0 mm 0,0 km/h (0 Bft) S 181 ° 0 min 0,000 mm 0,0 UV-I 0 W/m² -2,4 °C -0,7 °C 0,0 km/h (0 Bft)
15.03.2017 06:20 -0,7 °C -0,7 °C 88 % 1031,4 hPa 0,0 mm 0,1 km/h (0 Bft) S 181 ° 0 min 0,000 mm 0,0 UV-I 0 W/m² -2,4 °C -0,7 °C 1,6 km/h (1 Bft)
15.03.2017 06:21 -0,6 °C -0,6 °C 88 % 1031,4 hPa 0,0 mm 0,0 km/h (0 Bft) S 181 ° 0 min 0,000 mm 0,0 UV-I 0 W/m² -2,3 °C -0,6 °C 0,0 km/h (0 Bft)
15.03.2017 06:22 -0,6 °C -0,6 °C 87 % 1031,4 hPa 0,0 mm 0,0 km/h (0 Bft) S 181 ° 0 min 0,000 mm 0,0 UV-I 0 W/m² -2,5 °C -0,6 °C 0,0 km/h (0 Bft)
15.03.2017 06:23 -0,6 °C -0,6 °C 88 % 1031,4 hPa 0,0 mm 0,0 km/h (0 Bft) S 181 ° 0 min 0,000 mm 0,0 UV-I 0 W/m² -2,3 °C -0,6 °C 0,0 km/h (0 Bft)
15.03.2017 06:24 -0,6 °C -0,6 °C 88 % 1031,4 hPa 0,0 mm 0,0 km/h (0 Bft) S 181 ° 0 min 0,000 mm 0,0 UV-I 0 W/m² -2,3 °C -0,6 °C 0,0 km/h (0 Bft)
15.03.2017 06:25 -0,5 °C -0,5 °C 88 % 1031,4 hPa 0,0 mm 0,0 km/h (0 Bft) S 181 ° 0 min 0,000 mm 0,0 UV-I 0 W/m² -2,2 °C -0,5 °C 0,0 km/h (0 Bft)
15.03.2017 06:26 -0,4 °C -0,4 °C 88 % 1031,4 hPa 0,0 mm 0,0 km/h (0 Bft) S 181 ° 0 min 0,000 mm 0,0 UV-I 0 W/m² -2,1 °C -0,4 °C 0,0 km/h (0 Bft)
15.03.2017 06:27 -0,4 °C -0,4 °C 87 % 1031,4 hPa 0,0 mm 0,0 km/h (0 Bft) S 181 ° 0 min 0,000 mm 0,0 UV-I 0 W/m² -2,3 °C -0,4 °C 0,0 km/h (0 Bft)
15.03.2017 06:28 -0,4 °C -0,4 °C 87 % 1031,4 hPa 0,0 mm 0,0 km/h (0 Bft) S 181 ° 0 min 0,000 mm 0,0 UV-I 0 W/m² -2,3 °C -0,4 °C 0,0 km/h (0 Bft)
15.03.2017 06:29 -0,5 °C -0,4 °C 87 % 1031,4 hPa 0,0 mm 0,0 km/h (0 Bft) S 181 ° 0 min 0,000 mm 0,0 UV-I 5 W/m² -2,4 °C -0,5 °C 0,0 km/h (0 Bft)
15.03.2017 06:30 -0,4 °C -0,4 °C 88 % 1031,4 hPa 0,0 mm 0,2 km/h (0 Bft) S 181 ° 0 min 0,000 mm 0,0 UV-I 5 W/m² -2,1 °C -0,4 °C 1,6 km/h (1 Bft)
15.03.2017 06:31 -0,5 °C -0,4 °C 88 % 1031,5 hPa 0,0 mm 0,0 km/h (0 Bft) S 181 ° 0 min 0,000 mm 0,0 UV-I 5 W/m² -2,2 °C -0,5 °C 0,0 km/h (0 Bft)
15.03.2017 06:32 -0,5 °C -0,5 °C 87 % 1031,5 hPa 0,0 mm 0,1 km/h (0 Bft) S 181 ° 0 min 0,000 mm 0,0 UV-I 5 W/m² -2,4 °C -0,5 °C 1,6 km/h (1 Bft)
15.03.2017 06:33 -0,4 °C -0,4 °C 87 % 1031,5 hPa 0,0 mm 0,0 km/h (0 Bft) S 181 ° 0 min 0,000 mm 0,0 UV-I 5 W/m² -2,3 °C -0,4 °C 0,0 km/h (0 Bft)
15.03.2017 06:34 -0,4 °C -0,4 °C 88 % 1031,5 hPa 0,0 mm 0,0 km/h (0 Bft) S 181 ° 0 min 0,000 mm 0,0 UV-I 5 W/m² -2,1 °C -0,4 °C 0,0 km/h (0 Bft)
15.03.2017 06:35 -0,4 °C -0,4 °C 87 % 1031,5 hPa 0,0 mm 0,0 km/h (0 Bft) S 181 ° 0 min 0,000 mm 0,0 UV-I 7 W/m² -2,3 °C -0,4 °C 0,0 km/h (0 Bft)
15.03.2017 06:36 -0,4 °C -0,4 °C 87 % 1031,5 hPa 0,0 mm 0,0 km/h (0 Bft) S 181 ° 0 min 0,000 mm 0,0 UV-I 7 W/m² -2,3 °C -0,4 °C 0,0 km/h (0 Bft)
15.03.2017 06:37 -0,4 °C -0,4 °C 87 % 1031,5 hPa 0,0 mm 0,0 km/h (0 Bft) S 181 ° 0 min 0,000 mm 0,0 UV-I 7 W/m² -2,3 °C -0,4 °C 0,0 km/h (0 Bft)
15.03.2017 06:38 -0,4 °C -0,4 °C 87 % 1031,5 hPa 0,0 mm 0,1 km/h (0 Bft) S 181 ° 0 min 0,000 mm 0,0 UV-I 9 W/m² -2,3 °C -0,4 °C 1,6 km/h (1 Bft)
15.03.2017 06:39 -0,4 °C -0,4 °C 87 % 1031,5 hPa 0,0 mm 0,0 km/h (0 Bft) S 181 ° 0 min 0,000 mm 0,0 UV-I 9 W/m² -2,3 °C -0,4 °C 0,0 km/h (0 Bft)
15.03.2017 06:40 -0,4 °C -0,4 °C 87 % 1031,5 hPa 0,0 mm 0,3 km/h (0 Bft) S 181 ° 0 min 0,000 mm 0,0 UV-I 11 W/m² -2,3 °C -0,4 °C 1,6 km/h (1 Bft)
15.03.2017 06:41 -0,5 °C -0,4 °C 87 % 1031,5 hPa 0,0 mm 0,8 km/h (0 Bft) S 181 ° 0 min 0,000 mm 0,0 UV-I 11 W/m² -2,4 °C -0,5 °C 1,6 km/h (1 Bft)
15.03.2017 06:42 -0,6 °C -0,5 °C 87 % 1031,6 hPa 0,0 mm 0,9 km/h (0 Bft) S 181 ° 0 min 0,000 mm 0,0 UV-I 12 W/m² -2,5 °C -0,6 °C 1,6 km/h (1 Bft)
15.03.2017 06:43 -0,6 °C -0,6 °C 87 % 1031,6 hPa 0,0 mm 0,0 km/h (0 Bft) S 181 ° 0 min 0,000 mm 0,0 UV-I 12 W/m² -2,5 °C -0,6 °C 0,0 km/h (0 Bft)
15.03.2017 06:44 -0,7 °C -0,6 °C 87 % 1031,7 hPa 0,0 mm 0,0 km/h (0 Bft) S 181 ° 0 min 0,000 mm 0,0 UV-I 12 W/m² -2,6 °C -0,7 °C 0,0 km/h (0 Bft)
15.03.2017 06:45 -0,7 °C -0,7 °C 88 % 1031,7 hPa 0,0 mm 0,0 km/h (0 Bft) S 181 ° 0 min 0,000 mm 0,0 UV-I 14 W/m² -2,4 °C -0,7 °C 0,0 km/h (0 Bft)
15.03.2017 06:46 -0,7 °C -0,7 °C 88 % 1031,7 hPa 0,0 mm 0,3 km/h (0 Bft) S 181 ° 0 min 0,000 mm 0,0 UV-I 14 W/m² -2,4 °C -0,7 °C 1,6 km/h (1 Bft)
15.03.2017 06:47 -0,7 °C -0,7 °C 88 % 1031,7 hPa 0,0 mm 0,6 km/h (0 Bft) S 181 ° 0 min 0,000 mm 0,0 UV-I 14 W/m² -2,4 °C -0,7 °C 1,6 km/h (1 Bft)
15.03.2017 06:48 -0,7 °C -0,7 °C 88 % 1031,7 hPa 0,0 mm 0,4 km/h (0 Bft) S 181 ° 0 min 0,000 mm 0,0 UV-I 16 W/m² -2,4 °C -0,7 °C 1,6 km/h (1 Bft)
15.03.2017 06:49 -0,6 °C -0,6 °C 88 % 1031,7 hPa 0,0 mm 1,6 km/h (1 Bft) S 181 ° 0 min 0,000 mm 0,0 UV-I 16 W/m² -2,3 °C -0,6 °C 3,2 km/h (1 Bft)
15.03.2017 06:50 -0,6 °C -0,6 °C 88 % 1031,7 hPa 0,0 mm 1,5 km/h (1 Bft) S 181 ° 0 min 0,000 mm 0,0 UV-I 16 W/m² -2,3 °C -0,6 °C 3,2 km/h (1 Bft)
15.03.2017 06:51 -0,5 °C -0,5 °C 88 % 1031,7 hPa 0,0 mm 0,5 km/h (0 Bft) S 181 ° 0 min 0,000 mm 0,0 UV-I 16 W/m² -2,2 °C -0,5 °C 1,6 km/h (1 Bft)
15.03.2017 06:52 -0,4 °C -0,4 °C 88 % 1031,7 hPa 0,0 mm 0,0 km/h (0 Bft) S 181 ° 0 min 0,000 mm 0,0 UV-I 18 W/m² -2,1 °C -0,4 °C 0,0 km/h (0 Bft)
15.03.2017 06:53 -0,4 °C -0,4 °C 88 % 1031,7 hPa 0,0 mm 0,0 km/h (0 Bft) S 181 ° 0 min 0,000 mm 0,0 UV-I 18 W/m² -2,1 °C -0,4 °C 0,0 km/h (0 Bft)
15.03.2017 06:54 -0,4 °C -0,4 °C 87 % 1031,7 hPa 0,0 mm 0,0 km/h (0 Bft) S 181 ° 0 min 0,000 mm 0,0 UV-I 18 W/m² -2,3 °C -0,4 °C 0,0 km/h (0 Bft)
15.03.2017 06:55 -0,4 °C -0,4 °C 87 % 1031,7 hPa 0,0 mm 0,0 km/h (0 Bft) S 181 ° 0 min 0,000 mm 0,0 UV-I 19 W/m² -2,3 °C -0,4 °C 0,0 km/h (0 Bft)
15.03.2017 06:56 -0,4 °C -0,4 °C 88 % 1031,6 hPa 0,0 mm 0,0 km/h (0 Bft) S 181 ° 0 min 0,000 mm 0,0 UV-I 19 W/m² -2,1 °C -0,4 °C 0,0 km/h (0 Bft)
15.03.2017 06:57 -0,4 °C -0,4 °C 88 % 1031,6 hPa 0,0 mm 0,0 km/h (0 Bft) S 189 ° 0 min 0,000 mm 0,0 UV-I 21 W/m² -2,1 °C -0,4 °C 0,0 km/h (0 Bft)
15.03.2017 06:58 -0,3 °C -0,3 °C 87 % 1031,6 hPa 0,0 mm 0,0 km/h (0 Bft) S-SW 193 ° 0 min 0,000 mm 0,0 UV-I 21 W/m² -2,2 °C -0,3 °C 0,0 km/h (0 Bft)
15.03.2017 06:59 -0,3 °C -0,3 °C 88 % 1031,6 hPa 0,0 mm 0,0 km/h (0 Bft) S-SW 193 ° 0 min 0,000 mm 0,0 UV-I 21 W/m² -2,0 °C -0,3 °C 0,0 km/h (0 Bft)
15.03.2017 07:00 -0,3 °C -0,3 °C 87 % 1031,5 hPa 0,0 mm 0,1 km/h (0 Bft) S-SW 193 ° 0 min 0,000 mm 0,0 UV-I 23 W/m² -2,2 °C -0,3 °C 1,6 km/h (1 Bft)
15.03.2017 07:01 -0,3 °C -0,2 °C 87 % 1031,6 hPa 0,0 mm 0,0 km/h (0 Bft) S-SW 193 ° 0 min 0,000 mm 0,0 UV-I 23 W/m² -2,2 °C -0,3 °C 0,0 km/h (0 Bft)
15.03.2017 07:02 -0,2 °C -0,2 °C 87 % 1031,5 hPa 0,0 mm 0,0 km/h (0 Bft) S-SW 193 ° 0 min 0,000 mm 0,0 UV-I 25 W/m² -2,1 °C -0,2 °C 0,0 km/h (0 Bft)
15.03.2017 07:03 -0,3 °C -0,2 °C 87 % 1031,5 hPa 0,0 mm 0,0 km/h (0 Bft) S-SW 193 ° 0 min 0,000 mm 0,0 UV-I 25 W/m² -2,2 °C -0,3 °C 0,0 km/h (0 Bft)
15.03.2017 07:04 -0,3 °C -0,3 °C 87 % 1031,5 hPa 0,0 mm 0,0 km/h (0 Bft) S-SW 193 ° 0 min 0,000 mm 0,0 UV-I 26 W/m² -2,2 °C -0,3 °C 0,0 km/h (0 Bft)
15.03.2017 07:05 -0,3 °C -0,3 °C 87 % 1031,5 hPa 0,0 mm 0,0 km/h (0 Bft) S-SW 193 ° 0 min 0,000 mm 0,0 UV-I 26 W/m² -2,2 °C -0,3 °C 0,0 km/h (0 Bft)
15.03.2017 07:06 -0,4 °C -0,3 °C 87 % 1031,5 hPa 0,0 mm 0,0 km/h (0 Bft) S-SW 193 ° 0 min 0,000 mm 0,0 UV-I 26 W/m² -2,3 °C -0,4 °C 0,0 km/h (0 Bft)
15.03.2017 07:07 -0,4 °C -0,4 °C 87 % 1031,5 hPa 0,0 mm 0,0 km/h (0 Bft) S-SW 193 ° 0 min 0,000 mm 0,0 UV-I 28 W/m² -2,3 °C -0,4 °C 0,0 km/h (0 Bft)
15.03.2017 07:08 -0,5 °C -0,4 °C 88 % 1031,4 hPa 0,0 mm 0,0 km/h (0 Bft) S-SW 193 ° 0 min 0,000 mm 0,0 UV-I 28 W/m² -2,2 °C -0,5 °C 0,0 km/h (0 Bft)
15.03.2017 07:09 -0,5 °C -0,4 °C 87 % 1031,4 hPa 0,0 mm 0,1 km/h (0 Bft) S-SW 193 ° 0 min 0,000 mm 0,0 UV-I 28 W/m² -2,4 °C -0,5 °C 1,6 km/h (1 Bft)
15.03.2017 07:10 -0,5 °C -0,5 °C 88 % 1031,4 hPa 0,0 mm 0,1 km/h (0 Bft) S-SW 193 ° 0 min 0,000 mm 0,0 UV-I 28 W/m² -2,2 °C -0,5 °C 1,6 km/h (1 Bft)
15.03.2017 07:11 -0,4 °C -0,4 °C 88 % 1031,3 hPa 0,0 mm 0,0 km/h (0 Bft) S-SW 193 ° 0 min 0,000 mm 0,0 UV-I 28 W/m² -2,1 °C -0,4 °C 0,0 km/h (0 Bft)
15.03.2017 07:12 -0,4 °C -0,4 °C 88 % 1031,3 hPa 0,0 mm 0,2 km/h (0 Bft) S-SW 193 ° 0 min 0,000 mm 0,0 UV-I 28 W/m² -2,1 °C -0,4 °C 1,6 km/h (1 Bft)
15.03.2017 07:13 -0,4 °C -0,4 °C 88 % 1031,2 hPa 0,0 mm 0,2 km/h (0 Bft) S-SW 193 ° 0 min 0,000 mm 0,0 UV-I 28 W/m² -2,1 °C -0,4 °C 1,6 km/h (1 Bft)
15.03.2017 07:14 -0,3 °C -0,3 °C 88 % 1031,3 hPa 0,0 mm 0,4 km/h (0 Bft) S-SW 193 ° 0 min 0,000 mm 0,0 UV-I 28 W/m² -2,0 °C -0,3 °C 1,6 km/h (1 Bft)
15.03.2017 07:15 -0,3 °C -0,3 °C 88 % 1031,2 hPa 0,0 mm 0,4 km/h (0 Bft) S-SW 193 ° 0 min 0,000 mm 0,0 UV-I 28 W/m² -2,0 °C -0,3 °C 1,6 km/h (1 Bft)
15.03.2017 07:16 -0,3 °C -0,2 °C 88 % 1031,2 hPa 0,0 mm 0,2 km/h (0 Bft) S-SW 193 ° 0 min 0,000 mm 0,0 UV-I 30 W/m² -2,0 °C -0,3 °C 1,6 km/h (1 Bft)
15.03.2017 07:17 -0,3 °C -0,2 °C 87 % 1031,2 hPa 0,0 mm 0,6 km/h (0 Bft) S-SW 193 ° 0 min 0,000 mm 0,0 UV-I 30 W/m² -2,2 °C -0,3 °C 1,6 km/h (1 Bft)
15.03.2017 07:18 -0,3 °C -0,3 °C 88 % 1031,3 hPa 0,0 mm 0,0 km/h (0 Bft) S-SW 193 ° 0 min 0,000 mm 0,0 UV-I 32 W/m² -2,0 °C -0,3 °C 0,0 km/h (0 Bft)
15.03.2017 07:19 -0,3 °C -0,3 °C 88 % 1031,3 hPa 0,0 mm 0,0 km/h (0 Bft) S-SW 193 ° 0 min 0,000 mm 0,0 UV-I 33 W/m² -2,0 °C -0,3 °C 0,0 km/h (0 Bft)
15.03.2017 07:20 -0,3 °C -0,3 °C 88 % 1031,2 hPa 0,0 mm 0,5 km/h (0 Bft) S-SW 193 ° 0 min 0,000 mm 0,0 UV-I 33 W/m² -2,0 °C -0,3 °C 1,6 km/h (1 Bft)
15.03.2017 07:21 -0,3 °C -0,3 °C 89 % 1031,2 hPa 0,0 mm 0,1 km/h (0 Bft) S-SW 193 ° 0 min 0,000 mm 0,0 UV-I 33 W/m² -1,9 °C -0,3 °C 1,6 km/h (1 Bft)
15.03.2017 07:22 -0,3 °C -0,3 °C 89 % 1031,2 hPa 0,0 mm 0,0 km/h (0 Bft) S-SW 193 ° 0 min 0,000 mm 0,0 UV-I 33 W/m² -1,9 °C -0,3 °C 0,0 km/h (0 Bft)
15.03.2017 07:23 0,0 °C 0,0 °C 88 % 1031,1 hPa 0,0 mm 0,0 km/h (0 Bft) N 0 ° 0 min 0,000 mm 0,0 UV-I 32 W/m² -1,7 °C 0,0 °C 0,0 km/h (0 Bft)
15.03.2017 07:24 0,1 °C 0,1 °C 88 % 1031,1 hPa 0,0 mm 0,0 km/h (0 Bft) N 0 ° 0 min 0,000 mm 0,0 UV-I 32 W/m² -1,6 °C 0,1 °C 0,0 km/h (0 Bft)
15.03.2017 07:25 0,2 °C 0,2 °C 87 % 1031,1 hPa 0,0 mm 0,0 km/h (0 Bft) N 0 ° 0 min 0,000 mm 0,0 UV-I 32 W/m² -1,7 °C 0,2 °C 0,0 km/h (0 Bft)
15.03.2017 07:26 0,3 °C 0,3 °C 87 % 1031,1 hPa 0,0 mm 0,0 km/h (0 Bft) N 0 ° 0 min 0,000 mm 0,0 UV-I 33 W/m² -1,6 °C 0,3 °C 0,0 km/h (0 Bft)
15.03.2017 07:27 0,4 °C 0,4 °C 87 % 1031,1 hPa 0,0 mm 0,0 km/h (0 Bft) N 0 ° 0 min 0,000 mm 0,0 UV-I 33 W/m² -1,5 °C 0,4 °C 0,0 km/h (0 Bft)
15.03.2017 07:28 0,5 °C 0,5 °C 87 % 1031,0 hPa 0,0 mm 0,0 km/h (0 Bft) N 0 ° 0 min 0,000 mm 0,0 UV-I 35 W/m² -1,4 °C 0,5 °C 0,0 km/h (0 Bft)
15.03.2017 07:29 0,6 °C 0,6 °C 87 % 1031,0 hPa 0,0 mm 0,0 km/h (0 Bft) S-SW 202 ° 0 min 0,000 mm 0,0 UV-I 35 W/m² -1,3 °C 0,6 °C 1,6 km/h (1 Bft)
15.03.2017 07:30 0,8 °C 0,8 °C 87 % 1031,0 hPa 0,0 mm 0,0 km/h (0 Bft) S-SW 202 ° 0 min 0,000 mm 0,0 UV-I 35 W/m² -1,1 °C 0,8 °C 1,6 km/h (1 Bft)
15.03.2017 07:31 0,9 °C 0,9 °C 87 % 1031,0 hPa 0,0 mm 0,0 km/h (0 Bft) S-SW 202 ° 0 min 0,000 mm 0,0 UV-I 35 W/m² -1,0 °C 0,9 °C 3,2 km/h (1 Bft)
15.03.2017 07:32 1,1 °C 1,1 °C 86 % 1031,0 hPa 0,0 mm 1,6 km/h (1 Bft) W 270 ° 0 min 0,000 mm 0,0 UV-I 33 W/m² -1,0 °C 1,1 °C 4,8 km/h (1 Bft)
15.03.2017 07:33 1,3 °C 1,3 °C 86 % 1031,0 hPa 0,0 mm 0,0 km/h (0 Bft) W 270 ° 0 min 0,000 mm 0,0 UV-I 33 W/m² -0,8 °C 1,3 °C 1,6 km/h (1 Bft)
15.03.2017 07:34 1,3 °C 1,3 °C 85 % 1031,1 hPa 0,0 mm 0,0 km/h (0 Bft) N 0 ° 0 min 0,000 mm 0,0 UV-I 35 W/m² -0,9 °C 1,3 °C 0,0 km/h (0 Bft)
15.03.2017 07:35 1,3 °C 1,3 °C 85 % 1031,1 hPa 0,0 mm 0,0 km/h (0 Bft) N 0 ° 0 min 0,000 mm 0,0 UV-I 37 W/m² -0,9 °C 1,3 °C 0,0 km/h (0 Bft)
15.03.2017 07:36 1,4 °C 1,4 °C 85 % 1031,1 hPa 0,0 mm 0,0 km/h (0 Bft) N 0 ° 0 min 0,000 mm 0,0 UV-I 40 W/m² -0,8 °C 1,4 °C 0,0 km/h (0 Bft)
15.03.2017 07:37 1,4 °C 1,4 °C 85 % 1031,1 hPa 0,0 mm 0,0 km/h (0 Bft) W 270 ° 0 min 0,000 mm 0,0 UV-I 42 W/m² -0,8 °C 1,4 °C 1,6 km/h (1 Bft)
15.03.2017 07:38 1,7 °C 1,7 °C 84 % 1031,1 hPa 0,0 mm 0,0 km/h (0 Bft) W 270 ° 0 min 0,000 mm 0,0 UV-I 42 W/m² -0,7 °C 1,7 °C 1,6 km/h (1 Bft)
15.03.2017 07:39 1,9 °C 1,9 °C 84 % 1031,1 hPa 0,0 mm 0,0 km/h (0 Bft) W 270 ° 0 min 0,000 mm 0,0 UV-I 44 W/m² -0,5 °C 1,9 °C 1,6 km/h (1 Bft)
15.03.2017 07:40 2,1 °C 2,1 °C 83 % 1031,1 hPa 0,0 mm 0,0 km/h (0 Bft) W 270 ° 0 min 0,000 mm 0,0 UV-I 42 W/m² -0,5 °C 2,1 °C 1,6 km/h (1 Bft)
15.03.2017 07:41 2,1 °C 2,1 °C 83 % 1031,1 hPa 0,0 mm 0,0 km/h (0 Bft) W 270 ° 0 min 0,000 mm 0,0 UV-I 42 W/m² -0,5 °C 2,1 °C 1,6 km/h (1 Bft)
15.03.2017 07:42 2,1 °C 2,1 °C 83 % 1031,1 hPa 0,0 mm 0,0 km/h (0 Bft) N 0 ° 0 min 0,000 mm 0,0 UV-I 44 W/m² -0,5 °C 2,1 °C 0,0 km/h (0 Bft)
15.03.2017 07:43 2,0 °C 2,1 °C 83 % 1031,1 hPa 0,0 mm 0,0 km/h (0 Bft) N 0 ° 0 min 0,000 mm 0,0 UV-I 44 W/m² -0,6 °C 2,0 °C 0,0 km/h (0 Bft)
15.03.2017 07:44 2,0 °C 2,0 °C 83 % 1031,1 hPa 0,0 mm 1,6 km/h (1 Bft) W 270 ° 0 min 0,000 mm 0,0 UV-I 44 W/m² -0,6 °C 2,0 °C 3,2 km/h (1 Bft)
15.03.2017 07:45 2,0 °C 2,0 °C 83 % 1031,2 hPa 0,0 mm 1,6 km/h (1 Bft) NW 315 ° 0 min 0,000 mm 0,0 UV-I 46 W/m² -0,6 °C 2,0 °C 3,2 km/h (1 Bft)
15.03.2017 07:46 2,0 °C 2,0 °C 83 % 1031,2 hPa 0,0 mm 1,6 km/h (1 Bft) N-NW 337 ° 0 min 0,000 mm 0,0 UV-I 46 W/m² -0,6 °C 2,0 °C 3,2 km/h (1 Bft)
15.03.2017 07:47 2,0 °C 2,0 °C 83 % 1031,3 hPa 0,0 mm 1,6 km/h (1 Bft) N-NW 337 ° 0 min 0,000 mm 0,0 UV-I 46 W/m² -0,6 °C 2,0 °C 3,2 km/h (1 Bft)
15.03.2017 07:48 2,1 °C 2,1 °C 82 % 1031,3 hPa 0,0 mm 0,0 km/h (0 Bft) N-NW 337 ° 0 min 0,000 mm 0,0 UV-I 47 W/m² -0,6 °C 2,1 °C 1,6 km/h (1 Bft)
15.03.2017 07:49 2,1 °C 2,1 °C 82 % 1031,4 hPa 0,0 mm 0,0 km/h (0 Bft) N 0 ° 0 min 0,000 mm 0,0 UV-I 47 W/m² -0,6 °C 2,1 °C 0,0 km/h (0 Bft)
15.03.2017 07:50 2,2 °C 2,2 °C 82 % 1031,4 hPa 0,0 mm 0,0 km/h (0 Bft) N-NW 337 ° 0 min 0,000 mm 0,0 UV-I 47 W/m² -0,5 °C 2,2 °C 1,6 km/h (1 Bft)
15.03.2017 07:51 2,2 °C 2,2 °C 82 % 1031,3 hPa 0,0 mm 0,0 km/h (0 Bft) N-NW 337 ° 0 min 0,000 mm 0,0 UV-I 49 W/m² -0,5 °C 2,2 °C 3,2 km/h (1 Bft)
15.03.2017 07:52 2,3 °C 2,3 °C 81 % 1031,3 hPa 0,0 mm 0,0 km/h (0 Bft) N-NW 337 ° 0 min 0,000 mm 0,0 UV-I 47 W/m² -0,6 °C 2,3 °C 1,6 km/h (1 Bft)
15.03.2017 07:53 2,3 °C 2,3 °C 81 % 1031,3 hPa 0,0 mm 0,0 km/h (0 Bft) N 0 ° 0 min 0,000 mm 0,0 UV-I 47 W/m² -0,6 °C 2,3 °C 0,0 km/h (0 Bft)
15.03.2017 07:54 2,3 °C 2,3 °C 81 % 1031,3 hPa 0,0 mm 0,0 km/h (0 Bft) N 0 ° 0 min 0,000 mm 0,0 UV-I 49 W/m² -0,6 °C 2,3 °C 0,0 km/h (0 Bft)
15.03.2017 07:55 2,4 °C 2,4 °C 81 % 1031,3 hPa 0,0 mm 1,6 km/h (1 Bft) N-NW 337 ° 0 min 0,000 mm 0,0 UV-I 51 W/m² -0,5 °C 2,4 °C 3,2 km/h (1 Bft)
15.03.2017 07:56 2,3 °C 2,3 °C 81 % 1031,5 hPa 0,0 mm 1,6 km/h (1 Bft) N-NW 337 ° 0 min 0,000 mm 0,0 UV-I 51 W/m² -0,6 °C 2,3 °C 1,6 km/h (1 Bft)
15.03.2017 07:57 2,2 °C 2,3 °C 82 % 1031,5 hPa 0,0 mm 0,0 km/h (0 Bft) N-NW 337 ° 0 min 0,000 mm 0,0 UV-I 53 W/m² -0,5 °C 2,2 °C 1,6 km/h (1 Bft)
15.03.2017 07:58 2,0 °C 2,1 °C 81 % 1031,7 hPa 0,0 mm 0,0 km/h (0 Bft) N 0 ° 0 min 0,000 mm 0,0 UV-I 53 W/m² -0,9 °C 2,0 °C 0,0 km/h (0 Bft)
15.03.2017 07:59 1,9 °C 1,9 °C 82 % 1031,7 hPa 0,0 mm 0,0 km/h (0 Bft) N-NW 337 ° 0 min 0,000 mm 0,0 UV-I 53 W/m² -0,8 °C 1,9 °C 1,6 km/h (1 Bft)
15.03.2017 08:00 1,9 °C 1,9 °C 83 % 1031,6 hPa 0,0 mm 0,0 km/h (0 Bft) N-NW 337 ° 0 min 0,025 mm 0,0 UV-I 53 W/m² -0,7 °C 1,9 °C 1,6 km/h (1 Bft)
15.03.2017 08:01 1,9 °C 1,9 °C 83 % 1031,8 hPa 0,0 mm 0,0 km/h (0 Bft) N 0 ° 0 min 0,000 mm 0,0 UV-I 53 W/m² -0,7 °C 1,9 °C 0,0 km/h (0 Bft)
15.03.2017 08:02 1,8 °C 1,9 °C 83 % 1031,7 hPa 0,0 mm 0,0 km/h (0 Bft) N 0 ° 0 min 0,000 mm 0,0 UV-I 54 W/m² -0,8 °C 1,8 °C 0,0 km/h (0 Bft)
15.03.2017 08:03 1,8 °C 1,9 °C 83 % 1031,7 hPa 0,0 mm 0,0 km/h (0 Bft) N 0 ° 0 min 0,000 mm 0,0 UV-I 54 W/m² -0,8 °C 1,8 °C 0,0 km/h (0 Bft)
15.03.2017 08:04 1,8 °C 1,8 °C 84 % 1031,7 hPa 0,0 mm 0,0 km/h (0 Bft) N 0 ° 0 min 0,000 mm 0,0 UV-I 54 W/m² -0,6 °C 1,8 °C 0,0 km/h (0 Bft)
15.03.2017 08:05 1,8 °C 1,8 °C 84 % 1031,7 hPa 0,0 mm 0,0 km/h (0 Bft) N 0 ° 0 min 0,000 mm 0,0 UV-I 54 W/m² -0,6 °C 1,8 °C 0,0 km/h (0 Bft)
15.03.2017 08:06 1,9 °C 1,9 °C 84 % 1031,7 hPa 0,0 mm 0,0 km/h (0 Bft) N 0 ° 0 min 0,000 mm 0,7 UV-I 56 W/m² -0,5 °C 1,9 °C 0,0 km/h (0 Bft)
15.03.2017 08:07 1,9 °C 1,9 °C 84 % 1031,6 hPa 0,0 mm 0,0 km/h (0 Bft) N-NW 337 ° 0 min 0,000 mm 0,7 UV-I 58 W/m² -0,5 °C 1,9 °C 1,6 km/h (1 Bft)
15.03.2017 08:08 2,0 °C 2,0 °C 83 % 1031,6 hPa 0,0 mm 0,0 km/h (0 Bft) N 0 ° 0 min 0,000 mm 0,7 UV-I 69 W/m² -0,6 °C 2,0 °C 0,0 km/h (0 Bft)
15.03.2017 08:09 2,1 °C 2,2 °C 83 % 1031,5 hPa 0,0 mm 0,0 km/h (0 Bft) N 0 ° 0 min 0,000 mm 0,7 UV-I 79 W/m² -0,5 °C 2,1 °C 0,0 km/h (0 Bft)
15.03.2017 08:10 2,2 °C 2,2 °C 83 % 1031,5 hPa 0,0 mm 1,6 km/h (1 Bft) N-NW 337 ° 0 min 0,000 mm 0,7 UV-I 91 W/m² -0,4 °C 2,2 °C 1,6 km/h (1 Bft)
15.03.2017 08:11 2,2 °C 2,2 °C 84 % 1031,4 hPa 0,0 mm 1,6 km/h (1 Bft) N-NW 337 ° 0 min 0,000 mm 0,7 UV-I 104 W/m² -0,2 °C 2,2 °C 1,6 km/h (1 Bft)
15.03.2017 08:12 2,2 °C 2,2 °C 83 % 1031,5 hPa 0,0 mm 1,6 km/h (1 Bft) N-NW 337 ° 0 min 0,000 mm 0,8 UV-I 105 W/m² -0,4 °C 2,2 °C 1,6 km/h (1 Bft)
15.03.2017 08:13 2,2 °C 2,3 °C 83 % 1031,4 hPa 0,0 mm 0,0 km/h (0 Bft) N-NW 337 ° 0 min 0,000 mm 0,8 UV-I 98 W/m² -0,4 °C 2,2 °C 1,6 km/h (1 Bft)
15.03.2017 08:14 2,2 °C 2,2 °C 83 % 1031,5 hPa 0,0 mm 0,0 km/h (0 Bft) N-NW 337 ° 0 min 0,000 mm 0,8 UV-I 111 W/m² -0,4 °C 2,2 °C 1,6 km/h (1 Bft)
15.03.2017 08:15 2,2 °C 2,2 °C 83 % 1031,5 hPa 0,0 mm 0,0 km/h (0 Bft) N-NW 337 ° 0 min 0,000 mm 0,8 UV-I 125 W/m² -0,4 °C 2,2 °C 1,6 km/h (1 Bft)
15.03.2017 08:16 2,2 °C 2,2 °C 84 % 1031,5 hPa 0,0 mm 0,0 km/h (0 Bft) N 0 ° 0 min 0,000 mm 0,8 UV-I 125 W/m² -0,2 °C 2,2 °C 0,0 km/h (0 Bft)
15.03.2017 08:17 2,3 °C 2,3 °C 83 % 1031,5 hPa 0,0 mm 0,0 km/h (0 Bft) N 0 ° 0 min 0,000 mm 0,8 UV-I 118 W/m² -0,3 °C 2,3 °C 0,0 km/h (0 Bft)
15.03.2017 08:18 2,4 °C 2,4 °C 83 % 1031,4 hPa 0,0 mm 0,0 km/h (0 Bft) N 0 ° 0 min 0,000 mm 0,8 UV-I 125 W/m² -0,2 °C 2,4 °C 0,0 km/h (0 Bft)
15.03.2017 08:19 2,6 °C 2,6 °C 83 % 1031,5 hPa 0,0 mm 0,0 km/h (0 Bft) N 0 ° 0 min 0,000 mm 0,8 UV-I 121 W/m² 0,0 °C 2,6 °C 0,0 km/h (0 Bft)
15.03.2017 08:20 2,6 °C 2,6 °C 83 % 1031,5 hPa 0,0 mm 0,0 km/h (0 Bft) N 0 ° 0 min 0,000 mm 0,8 UV-I 116 W/m² 0,0 °C 2,6 °C 0,0 km/h (0 Bft)
15.03.2017 08:21 2,7 °C 2,7 °C 82 % 1031,6 hPa 0,0 mm 0,0 km/h (0 Bft) N 0 ° 0 min 0,000 mm 0,8 UV-I 118 W/m² -0,1 °C 2,7 °C 0,0 km/h (0 Bft)
15.03.2017 08:22 2,8 °C 2,8 °C 82 % 1031,6 hPa 0,0 mm 0,0 km/h (0 Bft) N-NW 337 ° 0 min 0,000 mm 0,8 UV-I 121 W/m² 0,0 °C 2,8 °C 1,6 km/h (1 Bft)
15.03.2017 08:23 2,9 °C 2,9 °C 82 % 1031,6 hPa 0,0 mm 0,0 km/h (0 Bft) N-NW 337 ° 0 min 0,000 mm 0,9 UV-I 127 W/m² 0,1 °C 2,9 °C 1,6 km/h (1 Bft)
15.03.2017 08:24 2,9 °C 3,0 °C 82 % 1031,7 hPa 0,0 mm 0,0 km/h (0 Bft) N 0 ° 0 min 0,000 mm 0,9 UV-I 130 W/m² 0,1 °C 2,9 °C 0,0 km/h (0 Bft)
15.03.2017 08:25 3,1 °C 3,1 °C 82 % 1031,6 hPa 0,0 mm 0,0 km/h (0 Bft) N 0 ° 0 min 0,000 mm 0,9 UV-I 134 W/m² 0,3 °C 3,1 °C 0,0 km/h (0 Bft)
15.03.2017 08:26 3,2 °C 3,2 °C 82 % 1031,6 hPa 0,0 mm 0,0 km/h (0 Bft) N 0 ° 0 min 0,000 mm 0,9 UV-I 141 W/m² 0,4 °C 3,2 °C 0,0 km/h (0 Bft)
15.03.2017 08:27 3,2 °C 3,2 °C 81 % 1031,6 hPa 0,0 mm 0,0 km/h (0 Bft) N 0 ° 0 min 0,000 mm 0,9 UV-I 148 W/m² 0,3 °C 3,2 °C 0,0 km/h (0 Bft)
15.03.2017 08:28 3,3 °C 3,3 °C 81 % 1031,6 hPa 0,0 mm 0,0 km/h (0 Bft) N 0 ° 0 min 0,000 mm 0,9 UV-I 155 W/m² 0,4 °C 3,3 °C 0,0 km/h (0 Bft)
15.03.2017 08:29 3,3 °C 3,3 °C 81 % 1031,6 hPa 0,0 mm 0,0 km/h (0 Bft) N 0 ° 0 min 0,000 mm 0,9 UV-I 162 W/m² 0,4 °C 3,3 °C 0,0 km/h (0 Bft)
15.03.2017 08:30 3,4 °C 3,4 °C 81 % 1031,6 hPa 0,0 mm 0,0 km/h (0 Bft) N 0 ° 0 min 0,000 mm 1,0 UV-I 165 W/m² 0,5 °C 3,4 °C 0,0 km/h (0 Bft)
15.03.2017 08:31 3,5 °C 3,5 °C 81 % 1031,6 hPa 0,0 mm 0,0 km/h (0 Bft) N 0 ° 0 min 0,000 mm 1,0 UV-I 158 W/m² 0,6 °C 3,5 °C 0,0 km/h (0 Bft)
15.03.2017 08:32 3,6 °C 3,6 °C 81 % 1031,6 hPa 0,0 mm 0,0 km/h (0 Bft) N 0 ° 0 min 0,000 mm 1,0 UV-I 178 W/m² 0,7 °C 3,6 °C 0,0 km/h (0 Bft)
15.03.2017 08:33 3,6 °C 3,6 °C 80 % 1031,6 hPa 0,0 mm 0,0 km/h (0 Bft) N 0 ° 0 min 0,000 mm 1,0 UV-I 183 W/m² 0,5 °C 3,6 °C 0,0 km/h (0 Bft)
15.03.2017 08:34 3,7 °C 3,7 °C 80 % 1031,6 hPa 0,0 mm 0,0 km/h (0 Bft) N 0 ° 0 min 0,000 mm 1,0 UV-I 149 W/m² 0,6 °C 3,7 °C 0,0 km/h (0 Bft)
15.03.2017 08:35 3,8 °C 3,8 °C 79 % 1031,6 hPa 0,0 mm 0,0 km/h (0 Bft) N 0 ° 0 min 0,000 mm 1,0 UV-I 128 W/m² 0,5 °C 3,8 °C 0,0 km/h (0 Bft)
15.03.2017 08:36 3,9 °C 3,9 °C 79 % 1031,6 hPa 0,0 mm 0,0 km/h (0 Bft) N 0 ° 0 min 0,000 mm 1,0 UV-I 134 W/m² 0,6 °C 3,9 °C 0,0 km/h (0 Bft)
15.03.2017 08:37 3,9 °C 3,9 °C 79 % 1031,5 hPa 0,0 mm 0,0 km/h (0 Bft) N 0 ° 0 min 0,000 mm 1,0 UV-I 118 W/m² 0,6 °C 3,9 °C 0,0 km/h (0 Bft)
15.03.2017 08:38 4,0 °C 4,0 °C 79 % 1031,6 hPa 0,0 mm 0,0 km/h (0 Bft) N 0 ° 0 min 0,000 mm 1,0 UV-I 102 W/m² 0,7 °C 4,0 °C 0,0 km/h (0 Bft)
15.03.2017 08:39 4,0 °C 4,0 °C 79 % 1031,6 hPa 0,0 mm 0,0 km/h (0 Bft) N 0 ° 0 min 0,000 mm 1,1 UV-I 151 W/m² 0,7 °C 4,0 °C 0,0 km/h (0 Bft)
15.03.2017 08:40 4,1 °C 4,1 °C 79 % 1031,5 hPa 0,0 mm 0,0 km/h (0 Bft) N 0 ° 0 min 0,000 mm 1,1 UV-I 174 W/m² 0,8 °C 4,1 °C 0,0 km/h (0 Bft)
15.03.2017 08:41 4,1 °C 4,1 °C 79 % 1031,5 hPa 0,0 mm 0,0 km/h (0 Bft) N 0 ° 0 min 0,000 mm 1,1 UV-I 179 W/m² 0,8 °C 4,1 °C 0,0 km/h (0 Bft)
15.03.2017 08:42 4,2 °C 4,2 °C 78 % 1031,5 hPa 0,0 mm 0,0 km/h (0 Bft) N 0 ° 0 min 0,000 mm 1,2 UV-I 183 W/m² 0,7 °C 4,2 °C 0,0 km/h (0 Bft)
15.03.2017 08:43 4,2 °C 4,2 °C 79 % 1031,5 hPa 0,0 mm 0,0 km/h (0 Bft) N 0 ° 0 min 0,000 mm 1,2 UV-I 197 W/m² 0,9 °C 4,2 °C 0,0 km/h (0 Bft)
15.03.2017 08:44 4,2 °C 4,2 °C 79 % 1031,5 hPa 0,0 mm 0,0 km/h (0 Bft) N 0 ° 1 min 0,000 mm 1,2 UV-I 246 W/m² 0,9 °C 4,2 °C 0,0 km/h (0 Bft)
15.03.2017 08:45 4,3 °C 4,3 °C 78 % 1031,6 hPa 0,0 mm 0,0 km/h (0 Bft) N 0 ° 1 min 0,000 mm 1,3 UV-I 246 W/m² 0,8 °C 4,3 °C 0,0 km/h (0 Bft)
15.03.2017 08:46 4,3 °C 4,3 °C 78 % 1031,5 hPa 0,0 mm 0,0 km/h (0 Bft) N 0 ° 1 min 0,000 mm 1,3 UV-I 239 W/m² 0,8 °C 4,3 °C 0,0 km/h (0 Bft)
15.03.2017 08:47 4,4 °C 4,4 °C 79 % 1031,6 hPa 0,0 mm 0,0 km/h (0 Bft) N 0 ° 1 min 0,000 mm 1,3 UV-I 230 W/m² 1,1 °C 4,4 °C 0,0 km/h (0 Bft)
15.03.2017 08:48 4,4 °C 4,4 °C 79 % 1031,5 hPa 0,0 mm 0,0 km/h (0 Bft) N 0 ° 1 min 0,000 mm 1,3 UV-I 237 W/m² 1,1 °C 4,4 °C 0,0 km/h (0 Bft)
15.03.2017 08:49 4,6 °C 4,6 °C 78 % 1031,4 hPa 0,0 mm 0,0 km/h (0 Bft) N 0 ° 1 min 0,000 mm 1,3 UV-I 258 W/m² 1,1 °C 4,6 °C 0,0 km/h (0 Bft)
15.03.2017 08:50 4,7 °C 4,7 °C 79 % 1031,4 hPa 0,0 mm 0,0 km/h (0 Bft) N 0 ° 1 min 0,000 mm 1,3 UV-I 232 W/m² 1,4 °C 4,7 °C 0,0 km/h (0 Bft)
15.03.2017 08:51 4,8 °C 4,8 °C 78 % 1031,4 hPa 0,0 mm 0,0 km/h (0 Bft) N 0 ° 1 min 0,000 mm 1,3 UV-I 223 W/m² 1,3 °C 4,8 °C 0,0 km/h (0 Bft)
15.03.2017 08:52 4,9 °C 4,9 °C 78 % 1031,5 hPa 0,0 mm 0,0 km/h (0 Bft) N 0 ° 1 min 0,000 mm 1,3 UV-I 214 W/m² 1,4 °C 4,9 °C 0,0 km/h (0 Bft)
15.03.2017 08:53 5,1 °C 5,1 °C 77 % 1031,5 hPa 0,0 mm 0,0 km/h (0 Bft) N 0 ° 1 min 0,000 mm 1,2 UV-I 200 W/m² 1,4 °C 5,1 °C 0,0 km/h (0 Bft)
15.03.2017 08:54 5,1 °C 5,1 °C 76 % 1031,6 hPa 0,0 mm 0,0 km/h (0 Bft) N 0 ° 0 min 0,000 mm 1,2 UV-I 185 W/m² 1,2 °C 5,1 °C 0,0 km/h (0 Bft)
15.03.2017 08:55 5,2 °C 5,2 °C 77 % 1031,7 hPa 0,0 mm 0,0 km/h (0 Bft) N 0 ° 0 min 0,000 mm 1,2 UV-I 162 W/m² 1,5 °C 5,2 °C 0,0 km/h (0 Bft)
15.03.2017 08:56 5,2 °C 5,2 °C 77 % 1031,7 hPa 0,0 mm 0,0 km/h (0 Bft) N 0 ° 0 min 0,000 mm 1,2 UV-I 144 W/m² 1,5 °C 5,2 °C 0,0 km/h (0 Bft)
15.03.2017 08:57 5,3 °C 5,3 °C 76 % 1031,7 hPa 0,0 mm 0,0 km/h (0 Bft) N 0 ° 0 min 0,000 mm 1,2 UV-I 139 W/m² 1,4 °C 5,3 °C 0,0 km/h (0 Bft)
15.03.2017 08:58 5,4 °C 5,4 °C 76 % 1031,7 hPa 0,0 mm 0,0 km/h (0 Bft) N 0 ° 0 min 0,000 mm 1,2 UV-I 139 W/m² 1,5 °C 5,4 °C 0,0 km/h (0 Bft)
15.03.2017 08:59 5,6 °C 5,6 °C 75 % 1031,7 hPa 0,0 mm 0,0 km/h (0 Bft) N 0 ° 0 min 0,000 mm 1,2 UV-I 142 W/m² 1,5 °C 5,6 °C 0,0 km/h (0 Bft)
15.03.2017 09:00 5,7 °C 5,7 °C 75 % 1031,6 hPa 0,0 mm 0,0 km/h (0 Bft) N 0 ° 0 min 0,051 mm 1,2 UV-I 151 W/m² 1,6 °C 5,7 °C 0,0 km/h (0 Bft)
15.03.2017 09:01 5,8 °C 5,8 °C 75 % 1031,6 hPa 0,0 mm 0,0 km/h (0 Bft) N 0 ° 1 min 0,000 mm 1,3 UV-I 221 W/m² 1,7 °C 5,8 °C 0,0 km/h (0 Bft)
15.03.2017 09:02 5,9 °C 5,9 °C 75 % 1031,6 hPa 0,0 mm 0,0 km/h (0 Bft) N 0 ° 1 min 0,000 mm 1,5 UV-I 294 W/m² 1,8 °C 5,9 °C 0,0 km/h (0 Bft)
15.03.2017 09:03 6,1 °C 6,1 °C 76 % 1031,6 hPa 0,0 mm 0,0 km/h (0 Bft) N 0 ° 1 min 0,000 mm 1,6 UV-I 339 W/m² 2,2 °C 6,1 °C 0,0 km/h (0 Bft)
15.03.2017 09:04 6,1 °C 6,1 °C 78 % 1031,6 hPa 0,0 mm 0,0 km/h (0 Bft) N 0 ° 1 min 0,000 mm 1,6 UV-I 297 W/m² 2,6 °C 6,1 °C 0,0 km/h (0 Bft)
15.03.2017 09:05 6,3 °C 6,3 °C 81 % 1031,6 hPa 0,0 mm 0,0 km/h (0 Bft) N 0 ° 1 min 0,000 mm 1,5 UV-I 308 W/m² 3,3 °C 6,3 °C 0,0 km/h (0 Bft)
15.03.2017 09:06 6,4 °C 6,4 °C 77 % 1031,6 hPa 0,0 mm 0,0 km/h (0 Bft) N 0 ° 1 min 0,000 mm 1,5 UV-I 262 W/m² 2,7 °C 6,4 °C 0,0 km/h (0 Bft)
15.03.2017 09:07 6,4 °C 6,4 °C 77 % 1031,6 hPa 0,0 mm 0,0 km/h (0 Bft) N 0 ° 1 min 0,000 mm 1,5 UV-I 243 W/m² 2,7 °C 6,4 °C 0,0 km/h (0 Bft)
15.03.2017 09:08 6,4 °C 6,4 °C 77 % 1031,6 hPa 0,0 mm 0,0 km/h (0 Bft) N 0 ° 1 min 0,000 mm 1,4 UV-I 207 W/m² 2,7 °C 6,4 °C 0,0 km/h (0 Bft)
15.03.2017 09:09 6,5 °C 6,5 °C 75 % 1031,7 hPa 0,0 mm 0,0 km/h (0 Bft) N 0 ° 1 min 0,000 mm 1,4 UV-I 209 W/m² 2,4 °C 6,5 °C 0,0 km/h (0 Bft)
15.03.2017 09:10 6,4 °C 6,4 °C 79 % 1031,7 hPa 0,0 mm 0,0 km/h (0 Bft) N 0 ° 0 min 0,000 mm 1,4 UV-I 197 W/m² 3,0 °C 6,4 °C 0,0 km/h (0 Bft)
15.03.2017 09:11 6,4 °C 6,4 °C 76 % 1031,7 hPa 0,0 mm 0,0 km/h (0 Bft) N 0 ° 0 min 0,000 mm 1,4 UV-I 190 W/m² 2,5 °C 6,4 °C 0,0 km/h (0 Bft)
15.03.2017 09:12 6,4 °C 6,4 °C 76 % 1031,7 hPa 0,0 mm 0,0 km/h (0 Bft) N 0 ° 1 min 0,000 mm 1,5 UV-I 209 W/m² 2,5 °C 6,4 °C 0,0 km/h (0 Bft)
15.03.2017 09:13 6,4 °C 6,4 °C 75 % 1031,7 hPa 0,0 mm 0,0 km/h (0 Bft) N 0 ° 1 min 0,000 mm 1,5 UV-I 288 W/m² 2,3 °C 6,4 °C 0,0 km/h (0 Bft)
15.03.2017 09:14 6,4 °C 6,4 °C 75 % 1031,7 hPa 0,0 mm 0,0 km/h (0 Bft) N 0 ° 1 min 0,000 mm 1,6 UV-I 292 W/m² 2,3 °C 6,4 °C 0,0 km/h (0 Bft)
15.03.2017 09:15 6,4 °C 6,4 °C 75 % 1031,7 hPa 0,0 mm 0,0 km/h (0 Bft) N 0 ° 1 min 0,000 mm 1,5 UV-I 250 W/m² 2,3 °C 6,4 °C 0,0 km/h (0 Bft)
15.03.2017 09:16 6,5 °C 6,5 °C 75 % 1031,7 hPa 0,0 mm 0,0 km/h (0 Bft) N 0 ° 1 min 0,000 mm 1,5 UV-I 237 W/m² 2,4 °C 6,5 °C 0,0 km/h (0 Bft)
15.03.2017 09:17 6,6 °C 6,6 °C 73 % 1031,7 hPa 0,0 mm 0,0 km/h (0 Bft) N 0 ° 1 min 0,000 mm 1,5 UV-I 225 W/m² 2,1 °C 6,6 °C 0,0 km/h (0 Bft)
15.03.2017 09:18 6,7 °C 6,7 °C 73 % 1031,7 hPa 0,0 mm 0,0 km/h (0 Bft) N 0 ° 1 min 0,000 mm 1,5 UV-I 225 W/m² 2,2 °C 6,7 °C 0,0 km/h (0 Bft)
15.03.2017 09:19 6,8 °C 6,8 °C 72 % 1031,7 hPa 0,0 mm 0,0 km/h (0 Bft) N 0 ° 1 min 0,000 mm 1,5 UV-I 232 W/m² 2,1 °C 6,8 °C 0,0 km/h (0 Bft)
15.03.2017 09:20 6,8 °C 6,8 °C 72 % 1031,7 hPa 0,0 mm 0,0 km/h (0 Bft) N 0 ° 1 min 0,000 mm 1,5 UV-I 239 W/m² 2,1 °C 6,8 °C 0,0 km/h (0 Bft)
15.03.2017 09:21 6,9 °C 6,9 °C 72 % 1031,8 hPa 0,0 mm 0,0 km/h (0 Bft) N 0 ° 1 min 0,000 mm 1,6 UV-I 269 W/m² 2,2 °C 6,9 °C 0,0 km/h (0 Bft)
15.03.2017 09:22 6,9 °C 6,9 °C 72 % 1031,8 hPa 0,0 mm 0,0 km/h (0 Bft) N 0 ° 1 min 0,000 mm 1,6 UV-I 274 W/m² 2,2 °C 6,9 °C 0,0 km/h (0 Bft)
15.03.2017 09:23 7,0 °C 7,0 °C 72 % 1031,8 hPa 0,0 mm 0,0 km/h (0 Bft) N 0 ° 1 min 0,000 mm 1,5 UV-I 234 W/m² 2,3 °C 7,0 °C 0,0 km/h (0 Bft)
15.03.2017 09:24 7,1 °C 7,1 °C 73 % 1031,8 hPa 0,0 mm 0,0 km/h (0 Bft) N 0 ° 1 min 0,000 mm 1,5 UV-I 234 W/m² 2,6 °C 7,1 °C 0,0 km/h (0 Bft)
15.03.2017 09:25 7,1 °C 7,1 °C 71 % 1031,8 hPa 0,0 mm 0,0 km/h (0 Bft) N 0 ° 1 min 0,000 mm 1,6 UV-I 264 W/m² 2,2 °C 7,1 °C 0,0 km/h (0 Bft)
15.03.2017 09:27 7,3 °C 7,3 °C 70 % 1031,8 hPa 0,0 mm 0,0 km/h (0 Bft) N-NW 329 ° 2 min 0,001 mm 1,6 UV-I 253 W/m² 2,2 °C 7,3 °C 0,0 km/h (0 Bft)
15.03.2017 09:28 7,3 °C 7,3 °C 70 % 1031,8 hPa 0,0 mm 0,0 km/h (0 Bft) N-NW 329 ° 1 min 0,000 mm 1,6 UV-I 234 W/m² 2,2 °C 7,3 °C 0,0 km/h (0 Bft)
15.03.2017 09:29 7,4 °C 7,4 °C 69 % 1031,8 hPa 0,0 mm 0,0 km/h (0 Bft) N-NW 329 ° 1 min 0,000 mm 1,8 UV-I 285 W/m² 2,1 °C 7,4 °C 0,0 km/h (0 Bft)
15.03.2017 09:30 7,4 °C 7,5 °C 71 % 1031,8 hPa 0,0 mm 0,0 km/h (0 Bft) N-NW 329 ° 1 min 0,000 mm 2,0 UV-I 374 W/m² 2,5 °C 7,4 °C 0,0 km/h (0 Bft)
15.03.2017 09:31 7,8 °C 7,8 °C 68 % 1031,8 hPa 0,0 mm 0,0 km/h (0 Bft) N-NW 329 ° 1 min 0,000 mm 2,0 UV-I 422 W/m² 2,3 °C 7,8 °C 0,0 km/h (0 Bft)
15.03.2017 09:32 8,0 °C 8,0 °C 70 % 1031,8 hPa 0,0 mm 0,0 km/h (0 Bft) N-NW 329 ° 1 min 0,000 mm 2,1 UV-I 431 W/m² 2,9 °C 8,0 °C 0,0 km/h (0 Bft)
15.03.2017 09:33 8,1 °C 8,1 °C 62 % 1031,8 hPa 0,0 mm 1,2 km/h (1 Bft) W 273 ° 1 min 0,000 mm 2,1 UV-I 438 W/m² 1,3 °C 8,1 °C 4,8 km/h (1 Bft)
15.03.2017 09:34 8,2 °C 8,2 °C 61 % 1031,8 hPa 0,0 mm 1,3 km/h (1 Bft) W 273 ° 1 min 0,000 mm 2,2 UV-I 443 W/m² 1,1 °C 8,2 °C 3,2 km/h (1 Bft)
15.03.2017 09:35 8,4 °C 8,4 °C 62 % 1031,8 hPa 0,0 mm 4,4 km/h (1 Bft) W 266 ° 1 min 0,000 mm 2,2 UV-I 455 W/m² 1,6 °C 8,4 °C 6,4 km/h (2 Bft)
15.03.2017 09:36 8,6 °C 8,6 °C 62 % 1031,8 hPa 0,0 mm 3,5 km/h (1 Bft) W 263 ° 1 min 0,000 mm 2,2 UV-I 459 W/m² 1,7 °C 8,6 °C 6,4 km/h (2 Bft)
15.03.2017 09:37 8,7 °C 8,7 °C 62 % 1031,8 hPa 0,0 mm 3,0 km/h (1 Bft) W 263 ° 1 min 0,000 mm 2,1 UV-I 425 W/m² 1,8 °C 8,7 °C 4,8 km/h (1 Bft)
15.03.2017 09:38 8,8 °C 8,8 °C 61 % 1031,8 hPa 0,0 mm 2,8 km/h (1 Bft) W-SW 240 ° 1 min 0,000 mm 2,1 UV-I 380 W/m² 1,7 °C 8,8 °C 4,8 km/h (1 Bft)
15.03.2017 09:39 8,8 °C 8,8 °C 59 % 1031,8 hPa 0,0 mm 0,8 km/h (0 Bft) W-SW 240 ° 1 min 0,000 mm 2,0 UV-I 309 W/m² 1,2 °C 8,8 °C 3,2 km/h (1 Bft)
15.03.2017 09:40 8,8 °C 8,8 °C 59 % 1031,9 hPa 0,0 mm 0,3 km/h (0 Bft) W-SW 240 ° 1 min 0,000 mm 1,9 UV-I 269 W/m² 1,2 °C 8,8 °C 1,6 km/h (1 Bft)
15.03.2017 09:41 8,7 °C 8,8 °C 61 % 1031,8 hPa 0,0 mm 1,1 km/h (1 Bft) W-SW 240 ° 1 min 0,000 mm 1,9 UV-I 264 W/m² 1,6 °C 8,7 °C 3,2 km/h (1 Bft)
15.03.2017 09:42 8,9 °C 8,9 °C 60 % 1031,8 hPa 0,0 mm 1,8 km/h (1 Bft) W 272 ° 1 min 0,000 mm 1,8 UV-I 272 W/m² 1,6 °C 8,9 °C 4,8 km/h (1 Bft)
15.03.2017 09:43 8,9 °C 8,9 °C 58 % 1031,8 hPa 0,0 mm 0,3 km/h (0 Bft) W 272 ° 1 min 0,000 mm 1,8 UV-I 265 W/m² 1,1 °C 8,9 °C 1,6 km/h (1 Bft)
15.03.2017 09:44 9,0 °C 9,0 °C 58 % 1031,8 hPa 0,0 mm 1,7 km/h (1 Bft) W-SW 248 ° 1 min 0,000 mm 1,8 UV-I 260 W/m² 1,2 °C 9,0 °C 6,4 km/h (2 Bft)
15.03.2017 09:45 9,1 °C 9,1 °C 60 % 1031,8 hPa 0,0 mm 5,2 km/h (1 Bft) W 278 ° 1 min 0,000 mm 1,8 UV-I 218 W/m² 1,8 °C 8,7 °C 6,4 km/h (2 Bft)
15.03.2017 09:46 9,1 °C 9,1 °C 56 % 1031,8 hPa 0,0 mm 3,2 km/h (1 Bft) W 278 ° 1 min 0,000 mm 1,8 UV-I 264 W/m² 0,8 °C 9,1 °C 4,8 km/h (1 Bft)
15.03.2017 09:47 9,1 °C 9,1 °C 58 % 1031,8 hPa 0,0 mm 2,1 km/h (1 Bft) W 279 ° 1 min 0,000 mm 1,8 UV-I 241 W/m² 1,3 °C 9,1 °C 3,2 km/h (1 Bft)
15.03.2017 09:48 9,1 °C 9,1 °C 56 % 1031,9 hPa 0,0 mm 1,5 km/h (1 Bft) W 278 ° 1 min 0,000 mm 1,8 UV-I 257 W/m² 0,8 °C 9,1 °C 3,2 km/h (1 Bft)
15.03.2017 09:49 9,1 °C 9,1 °C 59 % 1031,8 hPa 0,0 mm 1,2 km/h (1 Bft) W 279 ° 1 min 0,000 mm 2,0 UV-I 265 W/m² 1,5 °C 9,1 °C 3,2 km/h (1 Bft)
15.03.2017 09:50 9,2 °C 9,2 °C 56 % 1031,8 hPa 0,0 mm 1,5 km/h (1 Bft) W 279 ° 1 min 0,000 mm 2,0 UV-I 250 W/m² 0,9 °C 9,2 °C 3,2 km/h (1 Bft)
15.03.2017 09:51 9,2 °C 9,2 °C 55 % 1031,8 hPa 0,0 mm 5,3 km/h (1 Bft) W-SW 252 ° 1 min 0,000 mm 2,0 UV-I 244 W/m² 0,6 °C 8,8 °C 8,0 km/h (2 Bft)
15.03.2017 09:52 9,2 °C 9,2 °C 54 % 1031,9 hPa 0,0 mm 7,4 km/h (2 Bft) W-NW 284 ° 1 min 0,000 mm 1,9 UV-I 229 W/m² 0,4 °C 8,2 °C 11,3 km/h (2 Bft)
15.03.2017 09:53 9,3 °C 9,3 °C 56 % 1031,8 hPa 0,0 mm 5,3 km/h (1 Bft) W 279 ° 1 min 0,000 mm 2,0 UV-I 279 W/m² 1,0 °C 8,9 °C 6,4 km/h (2 Bft)
15.03.2017 09:54 9,3 °C 9,3 °C 57 % 1031,8 hPa 0,0 mm 2,1 km/h (1 Bft) W 279 ° 1 min 0,000 mm 2,1 UV-I 401 W/m² 1,2 °C 9,3 °C 4,8 km/h (1 Bft)
15.03.2017 09:55 9,3 °C 9,4 °C 54 % 1031,8 hPa 0,0 mm 0,3 km/h (0 Bft) W 279 ° 1 min 0,000 mm 2,3 UV-I 434 W/m² 0,5 °C 9,3 °C 1,6 km/h (1 Bft)
15.03.2017 09:56 9,4 °C 9,4 °C 53 % 1031,8 hPa 0,0 mm 0,0 km/h (0 Bft) W 279 ° 1 min 0,000 mm 2,4 UV-I 459 W/m² 0,3 °C 9,4 °C 0,0 km/h (0 Bft)
15.03.2017 09:57 9,3 °C 9,4 °C 53 % 1031,7 hPa 0,0 mm 0,0 km/h (0 Bft) W 279 ° 1 min 0,000 mm 2,4 UV-I 475 W/m² 0,2 °C 9,3 °C 0,0 km/h (0 Bft)
15.03.2017 09:58 9,3 °C 9,3 °C 54 % 1031,7 hPa 0,0 mm 0,2 km/h (0 Bft) W 279 ° 1 min 0,000 mm 2,5 UV-I 480 W/m² 0,5 °C 9,3 °C 1,6 km/h (1 Bft)
15.03.2017 09:59 9,4 °C 9,4 °C 55 % 1031,7 hPa 0,0 mm 1,9 km/h (1 Bft) W 261 ° 1 min 0,000 mm 2,5 UV-I 478 W/m² 0,8 °C 9,4 °C 3,2 km/h (1 Bft)
15.03.2017 10:00 9,6 °C 9,6 °C 54 % 1031,7 hPa 0,0 mm 2,5 km/h (1 Bft) W-NW 298 ° 1 min 0,000 mm 2,5 UV-I 480 W/m² 0,8 °C 9,6 °C 4,8 km/h (1 Bft)
15.03.2017 10:01 9,7 °C 9,7 °C 54 % 1031,7 hPa 0,0 mm 3,6 km/h (1 Bft) W 263 ° 1 min 0,127 mm 2,5 UV-I 469 W/m² 0,9 °C 9,7 °C 4,8 km/h (1 Bft)
15.03.2017 10:02 9,7 °C 9,7 °C 52 % 1031,7 hPa 0,0 mm 5,9 km/h (2 Bft) W-SW 249 ° 1 min 0,000 mm 2,4 UV-I 450 W/m² 0,3 °C 9,2 °C 8,0 km/h (2 Bft)
15.03.2017 10:03 9,8 °C 9,8 °C 55 % 1031,6 hPa 0,0 mm 6,6 km/h (2 Bft) W-SW 252 ° 1 min 0,000 mm 2,5 UV-I 469 W/m² 1,2 °C 9,1 °C 9,7 km/h (2 Bft)
15.03.2017 10:04 9,9 °C 9,9 °C 52 % 1031,7 hPa 0,0 mm 7,4 km/h (2 Bft) W-NW 301 ° 1 min 0,000 mm 2,5 UV-I 478 W/m² 0,5 °C 9,0 °C 8,0 km/h (2 Bft)
15.03.2017 10:05 9,9 °C 9,9 °C 53 % 1031,7 hPa 0,0 mm 2,3 km/h (1 Bft) W-NW 301 ° 1 min 0,000 mm 2,6 UV-I 480 W/m² 0,8 °C 9,9 °C 4,8 km/h (1 Bft)
15.03.2017 10:06 9,9 °C 10,0 °C 54 % 1031,6 hPa 0,0 mm 3,1 km/h (1 Bft) W 263 ° 1 min 0,000 mm 2,6 UV-I 489 W/m² 1,0 °C 9,9 °C 4,8 km/h (1 Bft)
15.03.2017 10:07 9,9 °C 10,0 °C 52 % 1031,6 hPa 0,0 mm 3,3 km/h (1 Bft) W 263 ° 1 min 0,000 mm 2,6 UV-I 476 W/m² 0,5 °C 9,9 °C 4,8 km/h (1 Bft)
15.03.2017 10:08 9,8 °C 9,9 °C 51 % 1031,7 hPa 0,0 mm 2,5 km/h (1 Bft) W 263 ° 1 min 0,000 mm 2,7 UV-I 492 W/m² 0,2 °C 9,8 °C 4,8 km/h (1 Bft)
15.03.2017 10:09 9,8 °C 9,8 °C 53 % 1031,6 hPa 0,0 mm 1,4 km/h (1 Bft) W 263 ° 1 min 0,000 mm 2,7 UV-I 504 W/m² 0,7 °C 9,8 °C 3,2 km/h (1 Bft)
15.03.2017 10:10 10,0 °C 10,0 °C 55 % 1031,7 hPa 0,0 mm 4,0 km/h (1 Bft) W-NW 297 ° 1 min 0,000 mm 2,8 UV-I 517 W/m² 1,4 °C 10,0 °C 6,4 km/h (2 Bft)
15.03.2017 10:11 10,1 °C 10,1 °C 52 % 1031,7 hPa 0,0 mm 3,1 km/h (1 Bft) NW 309 ° 1 min 0,000 mm 2,8 UV-I 524 W/m² 0,7 °C 10,1 °C 6,4 km/h (2 Bft)
15.03.2017 10:12 10,1 °C 10,1 °C 52 % 1031,7 hPa 0,0 mm 3,2 km/h (1 Bft) NW 309 ° 1 min 0,000 mm 2,8 UV-I 533 W/m² 0,7 °C 10,1 °C 4,8 km/h (1 Bft)
15.03.2017 10:13 10,2 °C 10,2 °C 54 % 1031,7 hPa 0,0 mm 4,8 km/h (1 Bft) NW 324 ° 1 min 0,000 mm 2,9 UV-I 545 W/m² 1,3 °C 10,2 °C 6,4 km/h (2 Bft)
15.03.2017 10:14 10,4 °C 10,4 °C 55 % 1031,7 hPa 0,0 mm 5,5 km/h (1 Bft) NW 315 ° 1 min 0,000 mm 2,9 UV-I 545 W/m² 1,8 °C 10,4 °C 6,4 km/h (2 Bft)
15.03.2017 10:15 10,5 °C 10,6 °C 52 % 1031,7 hPa 0,0 mm 4,0 km/h (1 Bft) N 351 ° 1 min 0,000 mm 2,9 UV-I 533 W/m² 1,1 °C 10,5 °C 6,4 km/h (2 Bft)
15.03.2017 10:16 10,4 °C 10,5 °C 50 % 1031,7 hPa 0,0 mm 5,6 km/h (1 Bft) N-NO 19 ° 1 min 0,000 mm 2,9 UV-I 527 W/m² 0,4 °C 10,4 °C 6,4 km/h (2 Bft)
15.03.2017 10:17 10,5 °C 10,5 °C 52 % 1031,7 hPa 0,0 mm 5,0 km/h (1 Bft) W-NW 295 ° 1 min 0,000 mm 2,8 UV-I 522 W/m² 1,1 °C 10,5 °C 9,7 km/h (2 Bft)
15.03.2017 10:18 10,6 °C 10,6 °C 52 % 1031,7 hPa 0,0 mm 4,6 km/h (1 Bft) NW 313 ° 1 min 0,000 mm 2,8 UV-I 508 W/m² 1,2 °C 10,6 °C 8,0 km/h (2 Bft)
15.03.2017 10:19 10,6 °C 10,6 °C 52 % 1031,7 hPa 0,0 mm 6,6 km/h (2 Bft) W-NW 298 ° 1 min 0,000 mm 2,7 UV-I 499 W/m² 1,2 °C 10,6 °C 8,0 km/h (2 Bft)
15.03.2017 10:20 10,6 °C 10,6 °C 52 % 1031,7 hPa 0,0 mm 5,9 km/h (2 Bft) NW 310 ° 1 min 0,000 mm 2,8 UV-I 501 W/m² 1,2 °C 10,6 °C 9,7 km/h (2 Bft)
15.03.2017 10:21 10,6 °C 10,6 °C 52 % 1031,8 hPa 0,0 mm 5,1 km/h (1 Bft) W-NW 300 ° 1 min 0,000 mm 2,8 UV-I 504 W/m² 1,2 °C 10,6 °C 6,4 km/h (2 Bft)
15.03.2017 10:22 10,6 °C 10,6 °C 51 % 1031,8 hPa 0,0 mm 6,1 km/h (2 Bft) W-NW 300 ° 1 min 0,000 mm 2,7 UV-I 490 W/m² 0,9 °C 10,6 °C 8,0 km/h (2 Bft)
15.03.2017 10:23 10,6 °C 10,7 °C 51 % 1031,8 hPa 0,0 mm 5,8 km/h (2 Bft) N-NW 333 ° 1 min 0,000 mm 2,8 UV-I 476 W/m² 0,9 °C 10,6 °C 11,3 km/h (2 Bft)
15.03.2017 10:24 10,6 °C 10,6 °C 52 % 1031,9 hPa 0,0 mm 4,5 km/h (1 Bft) W-NW 290 ° 1 min 0,000 mm 2,9 UV-I 524 W/m² 1,2 °C 10,6 °C 6,4 km/h (2 Bft)
15.03.2017 10:25 10,6 °C 10,6 °C 51 % 1031,9 hPa 0,0 mm 3,7 km/h (1 Bft) W-NW 287 ° 1 min 0,000 mm 2,9 UV-I 527 W/m² 0,9 °C 10,6 °C 6,4 km/h (2 Bft)
15.03.2017 10:26 10,6 °C 10,7 °C 53 % 1031,9 hPa 0,0 mm 7,9 km/h (2 Bft) N 355 ° 1 min 0,000 mm 3,0 UV-I 554 W/m² 1,4 °C 10,6 °C 11,3 km/h (2 Bft)
15.03.2017 10:27 10,6 °C 10,7 °C 51 % 1031,9 hPa 0,0 mm 6,0 km/h (2 Bft) N-NO 31 ° 1 min 0,000 mm 3,0 UV-I 538 W/m² 0,9 °C 10,6 °C 11,3 km/h (2 Bft)
15.03.2017 10:28 10,5 °C 10,6 °C 51 % 1031,9 hPa 0,0 mm 3,0 km/h (1 Bft) O-NO 61 ° 1 min 0,000 mm 3,0 UV-I 555 W/m² 0,8 °C 10,5 °C 4,8 km/h (1 Bft)
15.03.2017 10:29 10,3 °C 10,5 °C 52 % 1031,9 hPa 0,0 mm 4,2 km/h (1 Bft) O-NO 62 ° 1 min 0,000 mm 3,0 UV-I 548 W/m² 0,9 °C 10,3 °C 6,4 km/h (2 Bft)
15.03.2017 10:30 10,3 °C 10,3 °C 55 % 1031,9 hPa 0,0 mm 4,1 km/h (1 Bft) O-NO 57 ° 1 min 0,000 mm 2,9 UV-I 548 W/m² 1,7 °C 10,3 °C 4,8 km/h (1 Bft)
15.03.2017 10:31 10,4 °C 10,4 °C 53 % 1031,9 hPa 0,0 mm 8,7 km/h (2 Bft) N-NW 344 ° 1 min 0,000 mm 2,8 UV-I 464 W/m² 1,2 °C 10,4 °C 12,9 km/h (3 Bft)
15.03.2017 10:32 10,6 °C 10,6 °C 53 % 1031,9 hPa 0,0 mm 7,5 km/h (2 Bft) N-NW 334 ° 1 min 0,000 mm 2,8 UV-I 462 W/m² 1,4 °C 10,6 °C 9,7 km/h (2 Bft)
15.03.2017 10:33 10,7 °C 10,7 °C 51 % 1032,0 hPa 0,0 mm 7,8 km/h (2 Bft) N 355 ° 1 min 0,000 mm 2,9 UV-I 462 W/m² 1,0 °C 10,7 °C 9,7 km/h (2 Bft)
15.03.2017 10:34 10,6 °C 10,7 °C 51 % 1032,0 hPa 0,0 mm 7,1 km/h (2 Bft) N-NW 339 ° 1 min 0,000 mm 2,9 UV-I 494 W/m² 0,9 °C 10,6 °C 9,7 km/h (2 Bft)
15.03.2017 10:35 10,6 °C 10,6 °C 51 % 1032,0 hPa 0,0 mm 8,4 km/h (2 Bft) N 5 ° 1 min 0,000 mm 2,9 UV-I 478 W/m² 0,9 °C 10,6 °C 11,3 km/h (2 Bft)
15.03.2017 10:36 10,6 °C 10,6 °C 51 % 1032,1 hPa 0,0 mm 4,6 km/h (1 Bft) N-NW 348 ° 1 min 0,000 mm 2,8 UV-I 464 W/m² 0,9 °C 10,6 °C 8,0 km/h (2 Bft)
15.03.2017 10:37 10,6 °C 10,6 °C 52 % 1032,1 hPa 0,0 mm 7,2 km/h (2 Bft) N-NO 12 ° 1 min 0,000 mm 2,9 UV-I 506 W/m² 1,2 °C 10,6 °C 8,0 km/h (2 Bft)
15.03.2017 10:38 10,5 °C 10,6 °C 51 % 1032,0 hPa 0,0 mm 6,7 km/h (2 Bft) N-NW 331 ° 1 min 0,000 mm 2,9 UV-I 520 W/m² 0,8 °C 10,5 °C 9,7 km/h (2 Bft)
15.03.2017 10:39 10,5 °C 10,5 °C 51 % 1032,0 hPa 0,0 mm 5,6 km/h (1 Bft) W-NW 294 ° 1 min 0,000 mm 2,8 UV-I 490 W/m² 0,8 °C 10,5 °C 8,0 km/h (2 Bft)
15.03.2017 10:40 10,6 °C 10,6 °C 51 % 1032,0 hPa 0,0 mm 5,0 km/h (1 Bft) W-NW 303 ° 1 min 0,000 mm 2,8 UV-I 485 W/m² 0,9 °C 10,6 °C 8,0 km/h (2 Bft)
15.03.2017 10:41 10,7 °C 10,7 °C 52 % 1032,0 hPa 0,0 mm 9,9 km/h (2 Bft) W-NW 299 ° 1 min 0,000 mm 2,7 UV-I 461 W/m² 1,3 °C 10,7 °C 14,5 km/h (3 Bft)
15.03.2017 10:42 10,7 °C 10,7 °C 53 % 1032,0 hPa 0,0 mm 5,9 km/h (2 Bft) W-NW 298 ° 1 min 0,000 mm 2,8 UV-I 448 W/m² 1,5 °C 10,7 °C 11,3 km/h (2 Bft)
15.03.2017 10:43 10,8 °C 10,8 °C 53 % 1032,0 hPa 0,0 mm 6,0 km/h (2 Bft) NW 309 ° 1 min 0,000 mm 2,8 UV-I 473 W/m² 1,6 °C 10,8 °C 8,0 km/h (2 Bft)
15.03.2017 10:44 10,7 °C 10,8 °C 51 % 1031,9 hPa 0,0 mm 5,3 km/h (1 Bft) NW 306 ° 1 min 0,000 mm 2,8 UV-I 478 W/m² 1,0 °C 10,7 °C 6,4 km/h (2 Bft)
15.03.2017 10:45 10,7 °C 10,7 °C 52 % 1031,9 hPa 0,0 mm 4,3 km/h (1 Bft) NW 306 ° 1 min 0,000 mm 2,9 UV-I 494 W/m² 1,3 °C 10,7 °C 6,4 km/h (2 Bft)
15.03.2017 10:46 10,7 °C 10,7 °C 49 % 1031,9 hPa 0,0 mm 1,7 km/h (1 Bft) N 355 ° 1 min 0,000 mm 2,9 UV-I 508 W/m² 0,4 °C 10,7 °C 4,8 km/h (1 Bft)
15.03.2017 10:47 10,7 °C 10,7 °C 50 % 1031,8 hPa 0,0 mm 6,6 km/h (2 Bft) NW 315 ° 1 min 0,000 mm 2,9 UV-I 499 W/m² 0,7 °C 10,7 °C 17,7 km/h (3 Bft)
15.03.2017 10:48 10,8 °C 10,8 °C 52 % 1031,8 hPa 0,0 mm 8,2 km/h (2 Bft) NW 323 ° 1 min 0,000 mm 2,9 UV-I 497 W/m² 1,3 °C 10,8 °C 17,7 km/h (3 Bft)
15.03.2017 10:49 10,8 °C 10,8 °C 49 % 1031,9 hPa 0,0 mm 3,5 km/h (1 Bft) W-NW 291 ° 1 min 0,000 mm 2,9 UV-I 497 W/m² 0,5 °C 10,8 °C 6,4 km/h (2 Bft)
15.03.2017 10:50 10,7 °C 10,8 °C 49 % 1031,9 hPa 0,0 mm 3,5 km/h (1 Bft) W-NW 292 ° 1 min 0,000 mm 2,8 UV-I 497 W/m² 0,4 °C 10,7 °C 6,4 km/h (2 Bft)
15.03.2017 10:51 10,8 °C 10,8 °C 52 % 1031,8 hPa 0,0 mm 5,0 km/h (1 Bft) W-NW 303 ° 1 min 0,000 mm 2,8 UV-I 480 W/m² 1,3 °C 10,8 °C 6,4 km/h (2 Bft)
15.03.2017 10:52 11,0 °C 11,0 °C 51 % 1031,8 hPa 0,0 mm 9,5 km/h (2 Bft) W-NW 300 ° 1 min 0,000 mm 2,8 UV-I 476 W/m² 1,3 °C 11,0 °C 14,5 km/h (3 Bft)
15.03.2017 10:53 11,2 °C 11,2 °C 51 % 1031,8 hPa 0,0 mm 8,6 km/h (2 Bft) N 350 ° 1 min 0,000 mm 2,8 UV-I 462 W/m² 1,4 °C 11,2 °C 14,5 km/h (3 Bft)
15.03.2017 10:54 11,0 °C 11,2 °C 49 % 1031,8 hPa 0,0 mm 5,6 km/h (1 Bft) W 270 ° 1 min 0,000 mm 2,6 UV-I 424 W/m² 0,7 °C 11,0 °C 11,3 km/h (2 Bft)
15.03.2017 10:55 10,9 °C 11,0 °C 49 % 1031,8 hPa 0,0 mm 9,7 km/h (2 Bft) W 273 ° 1 min 0,000 mm 2,6 UV-I 413 W/m² 0,6 °C 10,9 °C 12,9 km/h (3 Bft)
15.03.2017 10:56 10,9 °C 10,9 °C 48 % 1031,7 hPa 0,0 mm 4,8 km/h (1 Bft) W-NW 292 ° 1 min 0,000 mm 2,5 UV-I 387 W/m² 0,3 °C 10,9 °C 8,0 km/h (2 Bft)
15.03.2017 10:57 10,8 °C 10,9 °C 47 % 1031,7 hPa 0,0 mm 4,5 km/h (1 Bft) NW 308 ° 1 min 0,000 mm 2,5 UV-I 396 W/m² -0,1 °C 10,8 °C 6,4 km/h (2 Bft)
15.03.2017 10:58 10,9 °C 10,9 °C 51 % 1031,7 hPa 0,0 mm 6,8 km/h (2 Bft) NW 308 ° 1 min 0,000 mm 2,6 UV-I 418 W/m² 1,2 °C 10,9 °C 12,9 km/h (3 Bft)
15.03.2017 10:59 10,9 °C 10,9 °C 49 % 1031,7 hPa 0,0 mm 3,8 km/h (1 Bft) W-NW 292 ° 1 min 0,000 mm 2,5 UV-I 394 W/m² 0,6 °C 10,9 °C 4,8 km/h (1 Bft)
15.03.2017 11:00 10,9 °C 10,9 °C 49 % 1031,7 hPa 0,0 mm 3,1 km/h (1 Bft) W-NW 294 ° 1 min 0,254 mm 2,5 UV-I 369 W/m² 0,6 °C 10,9 °C 4,8 km/h (1 Bft)
15.03.2017 11:01 10,8 °C 10,9 °C 48 % 1031,7 hPa 0,0 mm 5,3 km/h (1 Bft) NW 306 ° 1 min 0,000 mm 2,5 UV-I 350 W/m² 0,2 °C 10,8 °C 8,0 km/h (2 Bft)
15.03.2017 11:02 10,8 °C 10,8 °C 49 % 1031,7 hPa 0,0 mm 1,8 km/h (1 Bft) NW 306 ° 1 min 0,000 mm 2,5 UV-I 332 W/m² 0,5 °C 10,8 °C 3,2 km/h (1 Bft)
15.03.2017 11:03 10,8 °C 10,8 °C 49 % 1031,7 hPa 0,0 mm 4,0 km/h (1 Bft) NW 310 ° 1 min 0,000 mm 2,5 UV-I 334 W/m² 0,5 °C 10,8 °C 6,4 km/h (2 Bft)
15.03.2017 11:04 10,8 °C 10,8 °C 50 % 1031,7 hPa 0,0 mm 4,9 km/h (1 Bft) N 5 ° 1 min 0,000 mm 2,5 UV-I 367 W/m² 0,8 °C 10,8 °C 8,0 km/h (2 Bft)
15.03.2017 11:05 10,9 °C 10,9 °C 49 % 1031,7 hPa 0,0 mm 4,0 km/h (1 Bft) NW 320 ° 1 min 0,000 mm 2,6 UV-I 374 W/m² 0,6 °C 10,9 °C 6,4 km/h (2 Bft)
15.03.2017 11:06 11,1 °C 11,1 °C 51 % 1031,8 hPa 0,0 mm 3,0 km/h (1 Bft) NW 319 ° 1 min 0,000 mm 2,5 UV-I 359 W/m² 1,4 °C 11,1 °C 6,4 km/h (2 Bft)
15.03.2017 11:07 11,2 °C 11,2 °C 51 % 1031,8 hPa 0,0 mm 4,8 km/h (1 Bft) NW 325 ° 1 min 0,000 mm 2,5 UV-I 357 W/m² 1,4 °C 11,2 °C 8,0 km/h (2 Bft)
15.03.2017 11:08 11,2 °C 11,2 °C 51 % 1031,7 hPa 0,0 mm 8,5 km/h (2 Bft) NW 314 ° 1 min 0,000 mm 2,5 UV-I 355 W/m² 1,4 °C 11,2 °C 12,9 km/h (3 Bft)
15.03.2017 11:09 11,2 °C 11,2 °C 49 % 1031,7 hPa 0,0 mm 6,1 km/h (2 Bft) NW 315 ° 1 min 0,000 mm 2,6 UV-I 357 W/m² 0,9 °C 11,2 °C 9,7 km/h (2 Bft)
15.03.2017 11:10 11,2 °C 11,2 °C 51 % 1031,7 hPa 0,0 mm 4,5 km/h (1 Bft) NW 314 ° 1 min 0,000 mm 2,6 UV-I 355 W/m² 1,4 °C 11,2 °C 6,4 km/h (2 Bft)
15.03.2017 11:11 11,2 °C 11,2 °C 48 % 1031,8 hPa 0,0 mm 4,8 km/h (1 Bft) NW 321 ° 1 min 0,000 mm 2,5 UV-I 341 W/m² 0,6 °C 11,2 °C 6,4 km/h (2 Bft)
15.03.2017 11:12 11,1 °C 11,2 °C 48 % 1031,8 hPa 0,0 mm 4,2 km/h (1 Bft) NW 321 ° 1 min 0,000 mm 2,6 UV-I 346 W/m² 0,5 °C 11,1 °C 6,4 km/h (2 Bft)
15.03.2017 11:13 11,1 °C 11,1 °C 49 % 1031,8 hPa 0,0 mm 7,3 km/h (2 Bft) NW 316 ° 1 min 0,000 mm 2,6 UV-I 362 W/m² 0,8 °C 11,1 °C 12,9 km/h (3 Bft)
15.03.2017 11:14 11,1 °C 11,1 °C 50 % 1031,8 hPa 0,0 mm 5,0 km/h (1 Bft) N-NW 338 ° 1 min 0,000 mm 2,7 UV-I 371 W/m² 1,1 °C 11,1 °C 8,0 km/h (2 Bft)
15.03.2017 11:15 11,1 °C 11,1 °C 51 % 1031,8 hPa 0,0 mm 5,6 km/h (1 Bft) N 355 ° 1 min 0,000 mm 2,6 UV-I 374 W/m² 1,4 °C 11,1 °C 8,0 km/h (2 Bft)
15.03.2017 11:16 11,2 °C 11,2 °C 51 % 1031,8 hPa 0,0 mm 6,2 km/h (2 Bft) N 360 ° 1 min 0,000 mm 2,7 UV-I 396 W/m² 1,4 °C 11,2 °C 8,0 km/h (2 Bft)
15.03.2017 11:17 11,2 °C 11,2 °C 50 % 1031,8 hPa 0,0 mm 6,1 km/h (2 Bft) N 349 ° 1 min 0,000 mm 2,8 UV-I 406 W/m² 1,2 °C 11,2 °C 8,0 km/h (2 Bft)
15.03.2017 11:18 11,3 °C 11,3 °C 51 % 1031,8 hPa 0,0 mm 4,5 km/h (1 Bft) NW 323 ° 1 min 0,000 mm 2,8 UV-I 424 W/m² 1,5 °C 11,3 °C 8,0 km/h (2 Bft)
15.03.2017 11:19 11,2 °C 11,3 °C 50 % 1031,9 hPa 0,0 mm 6,3 km/h (2 Bft) NW 323 ° 1 min 0,000 mm 2,8 UV-I 411 W/m² 1,2 °C 11,2 °C 14,5 km/h (3 Bft)
15.03.2017 11:20 11,2 °C 11,2 °C 50 % 1031,9 hPa 0,0 mm 6,6 km/h (2 Bft) N-NO 18 ° 1 min 0,000 mm 2,7 UV-I 397 W/m² 1,2 °C 11,2 °C 8,0 km/h (2 Bft)
15.03.2017 11:21 11,2 °C 11,2 °C 51 % 1031,9 hPa 0,0 mm 6,6 km/h (2 Bft) W-NW 293 ° 1 min 0,000 mm 2,7 UV-I 390 W/m² 1,4 °C 11,2 °C 12,9 km/h (3 Bft)
15.03.2017 11:22 11,2 °C 11,2 °C 51 % 1031,9 hPa 0,0 mm 7,0 km/h (2 Bft) NW 304 ° 1 min 0,000 mm 2,7 UV-I 403 W/m² 1,4 °C 11,2 °C 11,3 km/h (2 Bft)
15.03.2017 11:23 11,3 °C 11,3 °C 51 % 1031,8 hPa 0,0 mm 7,4 km/h (2 Bft) N-NW 338 ° 1 min 0,000 mm 2,9 UV-I 434 W/m² 1,5 °C 11,3 °C 12,9 km/h (3 Bft)
15.03.2017 11:24 11,3 °C 11,3 °C 50 % 1031,8 hPa 0,0 mm 5,8 km/h (2 Bft) NW 323 ° 1 min 0,000 mm 3,0 UV-I 455 W/m² 1,3 °C 11,3 °C 8,0 km/h (2 Bft)
15.03.2017 11:25 11,3 °C 11,3 °C 50 % 1031,8 hPa 0,0 mm 6,2 km/h (2 Bft) N 355 ° 1 min 0,000 mm 3,0 UV-I 485 W/m² 1,3 °C 11,3 °C 9,7 km/h (2 Bft)
15.03.2017 11:26 11,3 °C 11,3 °C 49 % 1031,8 hPa 0,0 mm 9,1 km/h (2 Bft) NW 317 ° 1 min 0,000 mm 3,1 UV-I 497 W/m² 1,0 °C 11,3 °C 14,5 km/h (3 Bft)
15.03.2017 11:27 11,3 °C 11,3 °C 51 % 1031,8 hPa 0,0 mm 8,9 km/h (2 Bft) N-NW 342 ° 1 min 0,000 mm 3,1 UV-I 508 W/m² 1,5 °C 11,3 °C 14,5 km/h (3 Bft)
15.03.2017 11:28 11,3 °C 11,3 °C 50 % 1031,8 hPa 0,0 mm 6,4 km/h (2 Bft) NW 325 ° 1 min 0,000 mm 3,1 UV-I 501 W/m² 1,3 °C 11,3 °C 12,9 km/h (3 Bft)
15.03.2017 11:29 11,3 °C 11,3 °C 50 % 1031,9 hPa 0,0 mm 9,9 km/h (2 Bft) N 5 ° 1 min 0,000 mm 3,1 UV-I 494 W/m² 1,3 °C 11,3 °C 14,5 km/h (3 Bft)
15.03.2017 11:30 11,3 °C 11,3 °C 49 % 1031,9 hPa 0,0 mm 4,6 km/h (1 Bft) NO 34 ° 1 min 0,000 mm 3,1 UV-I 501 W/m² 1,0 °C 11,3 °C 8,0 km/h (2 Bft)
15.03.2017 11:31 11,3 °C 11,3 °C 50 % 1031,9 hPa 0,0 mm 5,2 km/h (1 Bft) N-NW 342 ° 1 min 0,000 mm 3,0 UV-I 476 W/m² 1,3 °C 11,3 °C 8,0 km/h (2 Bft)
15.03.2017 11:32 11,4 °C 11,4 °C 50 % 1031,8 hPa 0,0 mm 6,9 km/h (2 Bft) N-NW 343 ° 1 min 0,000 mm 3,0 UV-I 450 W/m² 1,4 °C 11,4 °C 14,5 km/h (3 Bft)
15.03.2017 11:33 11,4 °C 11,4 °C 48 % 1031,8 hPa 0,0 mm 6,5 km/h (2 Bft) N 355 ° 1 min 0,000 mm 3,0 UV-I 462 W/m² 0,8 °C 11,4 °C 9,7 km/h (2 Bft)
15.03.2017 11:34 11,4 °C 11,4 °C 49 % 1031,8 hPa 0,0 mm 7,8 km/h (2 Bft) N-NO 12 ° 1 min 0,000 mm 3,0 UV-I 461 W/m² 1,1 °C 11,4 °C 12,9 km/h (3 Bft)
15.03.2017 11:35 11,4 °C 11,4 °C 48 % 1031,8 hPa 0,0 mm 10,7 km/h (2 Bft) NW 307 ° 1 min 0,000 mm 2,9 UV-I 445 W/m² 0,8 °C 11,4 °C 14,5 km/h (3 Bft)
15.03.2017 11:36 11,4 °C 11,4 °C 49 % 1031,8 hPa 0,0 mm 8,9 km/h (2 Bft) N 355 ° 1 min 0,000 mm 3,0 UV-I 452 W/m² 1,1 °C 11,4 °C 14,5 km/h (3 Bft)
15.03.2017 11:37 11,4 °C 11,4 °C 51 % 1031,8 hPa 0,0 mm 8,0 km/h (2 Bft) N-NW 341 ° 1 min 0,000 mm 3,0 UV-I 448 W/m² 1,6 °C 11,4 °C 14,5 km/h (3 Bft)
15.03.2017 11:38 11,4 °C 11,4 °C 50 % 1031,8 hPa 0,0 mm 8,0 km/h (2 Bft) NW 310 ° 1 min 0,000 mm 3,1 UV-I 471 W/m² 1,4 °C 11,4 °C 12,9 km/h (3 Bft)
15.03.2017 11:39 11,4 °C 11,4 °C 52 % 1031,8 hPa 0,0 mm 5,6 km/h (1 Bft) NW 324 ° 1 min 0,000 mm 3,1 UV-I 487 W/m² 1,9 °C 11,4 °C 9,7 km/h (2 Bft)
15.03.2017 11:40 11,4 °C 11,4 °C 51 % 1031,8 hPa 0,0 mm 5,3 km/h (1 Bft) N 5 ° 1 min 0,000 mm 3,1 UV-I 503 W/m² 1,6 °C 11,4 °C 9,7 km/h (2 Bft)
15.03.2017 11:41 11,5 °C 11,5 °C 51 % 1031,7 hPa 0,0 mm 4,1 km/h (1 Bft) N-NO 16 ° 1 min 0,000 mm 3,1 UV-I 492 W/m² 1,7 °C 11,5 °C 4,8 km/h (1 Bft)
15.03.2017 11:42 11,6 °C 11,6 °C 51 % 1031,7 hPa 0,0 mm 4,3 km/h (1 Bft) W-NW 299 ° 1 min 0,000 mm 3,0 UV-I 462 W/m² 1,8 °C 11,6 °C 6,4 km/h (2 Bft)
15.03.2017 11:43 11,6 °C 11,6 °C 49 % 1031,7 hPa 0,0 mm 6,0 km/h (2 Bft) N-NW 334 ° 1 min 0,000 mm 3,0 UV-I 461 W/m² 1,3 °C 11,6 °C 9,7 km/h (2 Bft)
15.03.2017 11:44 11,4 °C 11,6 °C 50 % 1031,7 hPa 0,0 mm 3,7 km/h (1 Bft) N 9 ° 1 min 0,000 mm 2,8 UV-I 415 W/m² 1,4 °C 11,4 °C 4,8 km/h (1 Bft)
15.03.2017 11:45 11,2 °C 11,4 °C 48 % 1031,7 hPa 0,0 mm 4,5 km/h (1 Bft) NO 54 ° 1 min 0,000 mm 2,9 UV-I 422 W/m² 0,6 °C 11,2 °C 6,4 km/h (2 Bft)
15.03.2017 11:46 11,1 °C 11,2 °C 50 % 1031,7 hPa 0,0 mm 6,1 km/h (2 Bft) W-NW 283 ° 1 min 0,000 mm 2,8 UV-I 403 W/m² 1,1 °C 11,1 °C 8,0 km/h (2 Bft)
15.03.2017 11:47 11,2 °C 11,2 °C 51 % 1031,7 hPa 0,0 mm 5,9 km/h (2 Bft) W 271 ° 1 min 0,000 mm 2,8 UV-I 397 W/m² 1,4 °C 11,2 °C 8,0 km/h (2 Bft)
15.03.2017 11:48 11,3 °C 11,3 °C 50 % 1031,7 hPa 0,0 mm 6,4 km/h (2 Bft) NW 319 ° 1 min 0,000 mm 2,9 UV-I 403 W/m² 1,3 °C 11,3 °C 11,3 km/h (2 Bft)
15.03.2017 11:49 11,3 °C 11,3 °C 50 % 1031,7 hPa 0,0 mm 5,4 km/h (1 Bft) NW 323 ° 1 min 0,000 mm 2,9 UV-I 413 W/m² 1,3 °C 11,3 °C 8,0 km/h (2 Bft)
15.03.2017 11:50 11,3 °C 11,3 °C 52 % 1031,8 hPa 0,0 mm 4,2 km/h (1 Bft) NW 317 ° 1 min 0,000 mm 2,9 UV-I 424 W/m² 1,8 °C 11,3 °C 8,0 km/h (2 Bft)
15.03.2017 11:51 11,2 °C 11,3 °C 49 % 1031,7 hPa 0,0 mm 1,3 km/h (1 Bft) NW 317 ° 1 min 0,000 mm 3,0 UV-I 446 W/m² 0,9 °C 11,2 °C 3,2 km/h (1 Bft)
15.03.2017 11:52 11,2 °C 11,2 °C 50 % 1031,7 hPa 0,0 mm 0,5 km/h (0 Bft) NW 317 ° 1 min 0,000 mm 3,0 UV-I 445 W/m² 1,2 °C 11,2 °C 1,6 km/h (1 Bft)
15.03.2017 11:53 11,3 °C 11,3 °C 51 % 1031,7 hPa 0,0 mm 4,0 km/h (1 Bft) N-NW 340 ° 1 min 0,000 mm 3,0 UV-I 448 W/m² 1,5 °C 11,3 °C 6,4 km/h (2 Bft)
15.03.2017 11:54 11,5 °C 11,5 °C 51 % 1031,7 hPa 0,0 mm 3,4 km/h (1 Bft) N-NO 29 ° 1 min 0,000 mm 3,0 UV-I 446 W/m² 1,7 °C 11,5 °C 4,8 km/h (1 Bft)
15.03.2017 11:55 11,5 °C 11,6 °C 51 % 1031,7 hPa 0,0 mm 7,2 km/h (2 Bft) W 270 ° 1 min 0,000 mm 3,1 UV-I 441 W/m² 1,7 °C 11,5 °C 12,9 km/h (3 Bft)
15.03.2017 11:56 11,5 °C 11,6 °C 51 % 1031,7 hPa 0,0 mm 5,7 km/h (1 Bft) W-NW 286 ° 1 min 0,000 mm 3,1 UV-I 461 W/m² 1,7 °C 11,5 °C 6,4 km/h (2 Bft)
15.03.2017 11:57 11,6 °C 11,6 °C 51 % 1031,7 hPa 0,0 mm 4,9 km/h (1 Bft) N-NW 335 ° 1 min 0,000 mm 3,1 UV-I 499 W/m² 1,8 °C 11,6 °C 6,4 km/h (2 Bft)
15.03.2017 11:58 11,6 °C 11,6 °C 51 % 1031,7 hPa 0,0 mm 6,5 km/h (2 Bft) N 350 ° 1 min 0,000 mm 3,3 UV-I 522 W/m² 1,8 °C 11,6 °C 9,7 km/h (2 Bft)
15.03.2017 11:59 11,6 °C 11,6 °C 51 % 1031,7 hPa 0,0 mm 4,6 km/h (1 Bft) N-NO 26 ° 1 min 0,000 mm 3,2 UV-I 510 W/m² 1,8 °C 11,6 °C 8,0 km/h (2 Bft)
15.03.2017 12:00 11,5 °C 11,6 °C 50 % 1031,7 hPa 0,0 mm 3,4 km/h (1 Bft) N 11 ° 1 min 0,228 mm 3,2 UV-I 475 W/m² 1,4 °C 11,5 °C 4,8 km/h (1 Bft)
15.03.2017 12:01 11,4 °C 11,5 °C 52 % 1031,7 hPa 0,0 mm 4,2 km/h (1 Bft) O-NO 71 ° 1 min 0,000 mm 3,1 UV-I 459 W/m² 1,9 °C 11,4 °C 8,0 km/h (2 Bft)
15.03.2017 12:02 11,3 °C 11,4 °C 52 % 1031,7 hPa 0,0 mm 4,6 km/h (1 Bft) W-NW 302 ° 1 min 0,000 mm 3,1 UV-I 466 W/m² 1,8 °C 11,3 °C 6,4 km/h (2 Bft)
15.03.2017 12:03 11,3 °C 11,3 °C 51 % 1031,7 hPa 0,0 mm 5,7 km/h (1 Bft) N 351 ° 1 min 0,000 mm 3,0 UV-I 425 W/m² 1,5 °C 11,3 °C 12,9 km/h (3 Bft)
15.03.2017 12:04 11,3 °C 11,3 °C 50 % 1031,7 hPa 0,0 mm 7,3 km/h (2 Bft) NW 316 ° 1 min 0,000 mm 3,0 UV-I 443 W/m² 1,3 °C 11,3 °C 8,0 km/h (2 Bft)
15.03.2017 12:05 11,3 °C 11,3 °C 52 % 1031,6 hPa 0,0 mm 9,5 km/h (2 Bft) N-NW 332 ° 1 min 0,000 mm 3,2 UV-I 490 W/m² 1,8 °C 11,3 °C 12,9 km/h (3 Bft)
15.03.2017 12:06 11,3 °C 11,3 °C 51 % 1031,6 hPa 0,0 mm 4,0 km/h (1 Bft) N-NW 336 ° 1 min 0,000 mm 3,2 UV-I 512 W/m² 1,5 °C 11,3 °C 8,0 km/h (2 Bft)
15.03.2017 12:07 11,3 °C 11,3 °C 52 % 1031,6 hPa 0,0 mm 1,0 km/h (0 Bft) N-NW 336 ° 1 min 0,000 mm 3,3 UV-I 504 W/m² 1,8 °C 11,3 °C 3,2 km/h (1 Bft)
15.03.2017 12:08 11,3 °C 11,3 °C 50 % 1031,7 hPa 0,0 mm 4,5 km/h (1 Bft) N 350 ° 1 min 0,000 mm 3,0 UV-I 443 W/m² 1,3 °C 11,3 °C 8,0 km/h (2 Bft)
15.03.2017 12:09 11,3 °C 11,3 °C 51 % 1031,6 hPa 0,0 mm 7,6 km/h (2 Bft) NW 315 ° 1 min 0,000 mm 3,0 UV-I 439 W/m² 1,5 °C 11,3 °C 12,9 km/h (3 Bft)
15.03.2017 12:10 11,4 °C 11,4 °C 52 % 1031,6 hPa 0,0 mm 8,4 km/h (2 Bft) NW 320 ° 1 min 0,000 mm 3,1 UV-I 445 W/m² 1,9 °C 11,4 °C 11,3 km/h (2 Bft)
15.03.2017 12:11 11,5 °C 11,5 °C 51 % 1031,6 hPa 0,0 mm 7,2 km/h (2 Bft) NW 304 ° 1 min 0,000 mm 3,4 UV-I 538 W/m² 1,7 °C 11,5 °C 12,9 km/h (3 Bft)
15.03.2017 12:12 11,6 °C 11,6 °C 53 % 1031,6 hPa 0,0 mm 6,8 km/h (2 Bft) N-NW 347 ° 1 min 0,000 mm 3,4 UV-I 589 W/m² 2,4 °C 11,6 °C 14,5 km/h (3 Bft)
15.03.2017 12:13 11,8 °C 11,8 °C 53 % 1031,6 hPa 0,0 mm 3,6 km/h (1 Bft) W-NW 287 ° 1 min 0,000 mm 3,3 UV-I 522 W/m² 2,5 °C 11,8 °C 8,0 km/h (2 Bft)
15.03.2017 12:14 11,8 °C 11,8 °C 51 % 1031,6 hPa 0,0 mm 6,9 km/h (2 Bft) N-NO 13 ° 1 min 0,000 mm 3,3 UV-I 541 W/m² 2,0 °C 11,8 °C 11,3 km/h (2 Bft)
15.03.2017 12:15 11,8 °C 11,8 °C 51 % 1031,6 hPa 0,0 mm 8,5 km/h (2 Bft) N 355 ° 1 min 0,000 mm 3,3 UV-I 499 W/m² 2,0 °C 11,8 °C 14,5 km/h (3 Bft)
15.03.2017 12:16 11,8 °C 11,9 °C 50 % 1031,6 hPa 0,0 mm 6,6 km/h (2 Bft) N 5 ° 1 min 0,000 mm 3,4 UV-I 526 W/m² 1,7 °C 11,8 °C 11,3 km/h (2 Bft)
15.03.2017 12:17 11,8 °C 11,8 °C 51 % 1031,6 hPa 0,0 mm 1,9 km/h (1 Bft) N-NO 23 ° 1 min 0,000 mm 3,5 UV-I 582 W/m² 2,0 °C 11,8 °C 3,2 km/h (1 Bft)
15.03.2017 12:18 11,8 °C 11,8 °C 52 % 1031,5 hPa 0,0 mm 3,6 km/h (1 Bft) N-NO 32 ° 1 min 0,000 mm 3,3 UV-I 578 W/m² 2,3 °C 11,8 °C 6,4 km/h (2 Bft)
15.03.2017 12:19 11,6 °C 11,8 °C 49 % 1031,5 hPa 0,0 mm 3,4 km/h (1 Bft) NW 315 ° 1 min 0,000 mm 2,9 UV-I 578 W/m² 1,3 °C 11,6 °C 6,4 km/h (2 Bft)
15.03.2017 12:20 11,6 °C 11,6 °C 50 % 1031,5 hPa 0,0 mm 5,0 km/h (1 Bft) NW 304 ° 1 min 0,000 mm 2,8 UV-I 374 W/m² 1,5 °C 11,6 °C 8,0 km/h (2 Bft)
15.03.2017 12:21 11,5 °C 11,6 °C 50 % 1031,5 hPa 0,0 mm 3,6 km/h (1 Bft) W-NW 290 ° 1 min 0,000 mm 2,7 UV-I 353 W/m² 1,4 °C 11,5 °C 4,8 km/h (1 Bft)
15.03.2017 12:22 11,4 °C 11,5 °C 50 % 1031,5 hPa 0,0 mm 3,4 km/h (1 Bft) W-NW 289 ° 1 min 0,000 mm 2,7 UV-I 359 W/m² 1,4 °C 11,4 °C 6,4 km/h (2 Bft)
15.03.2017 12:23 11,3 °C 11,4 °C 50 % 1031,4 hPa 0,0 mm 1,7 km/h (1 Bft) NW 326 ° 1 min 0,000 mm 2,7 UV-I 355 W/m² 1,3 °C 11,3 °C 6,4 km/h (2 Bft)
15.03.2017 12:24 11,3 °C 11,3 °C 52 % 1031,4 hPa 0,0 mm 4,0 km/h (1 Bft) NW 309 ° 1 min 0,000 mm 2,7 UV-I 360 W/m² 1,8 °C 11,3 °C 6,4 km/h (2 Bft)
15.03.2017 12:25 11,4 °C 11,4 °C 52 % 1031,4 hPa 0,0 mm 4,0 km/h (1 Bft) W 271 ° 1 min 0,000 mm 2,7 UV-I 369 W/m² 1,9 °C 11,4 °C 6,4 km/h (2 Bft)
15.03.2017 12:26 11,5 °C 11,5 °C 52 % 1031,4 hPa 0,0 mm 4,9 km/h (1 Bft) N 11 ° 1 min 0,000 mm 2,8 UV-I 401 W/m² 2,0 °C 11,5 °C 8,0 km/h (2 Bft)
15.03.2017 12:27 11,5 °C 11,6 °C 50 % 1031,3 hPa 0,0 mm 4,4 km/h (1 Bft) N-NO 31 ° 1 min 0,000 mm 3,0 UV-I 438 W/m² 1,4 °C 11,5 °C 6,4 km/h (2 Bft)
15.03.2017 12:28 11,5 °C 11,5 °C 50 % 1031,3 hPa 0,0 mm 3,7 km/h (1 Bft) NO 38 ° 1 min 0,000 mm 3,0 UV-I 446 W/m² 1,4 °C 11,5 °C 6,4 km/h (2 Bft)
15.03.2017 12:29 11,5 °C 11,5 °C 52 % 1031,3 hPa 0,0 mm 4,8 km/h (1 Bft) N-NO 33 ° 1 min 0,000 mm 3,0 UV-I 450 W/m² 2,0 °C 11,5 °C 8,0 km/h (2 Bft)
15.03.2017 12:30 11,5 °C 11,5 °C 51 % 1031,2 hPa 0,0 mm 3,2 km/h (1 Bft) NO 50 ° 1 min 0,000 mm 3,0 UV-I 443 W/m² 1,7 °C 11,5 °C 4,8 km/h (1 Bft)
15.03.2017 12:31 11,4 °C 11,5 °C 50 % 1031,2 hPa 0,0 mm 5,1 km/h (1 Bft) N 11 ° 1 min 0,000 mm 2,9 UV-I 410 W/m² 1,4 °C 11,4 °C 8,0 km/h (2 Bft)
15.03.2017 12:32 11,4 °C 11,4 °C 50 % 1031,3 hPa 0,0 mm 7,0 km/h (2 Bft) N 9 ° 1 min 0,000 mm 2,8 UV-I 408 W/m² 1,4 °C 11,4 °C 9,7 km/h (2 Bft)
15.03.2017 12:33 11,4 °C 11,4 °C 50 % 1031,2 hPa 0,0 mm 5,8 km/h (2 Bft) N 5 ° 1 min 0,000 mm 2,7 UV-I 385 W/m² 1,4 °C 11,4 °C 8,0 km/h (2 Bft)
15.03.2017 12:34 11,5 °C 11,5 °C 52 % 1031,2 hPa 0,0 mm 4,0 km/h (1 Bft) NW 308 ° 1 min 0,000 mm 2,8 UV-I 378 W/m² 2,0 °C 11,5 °C 6,4 km/h (2 Bft)
15.03.2017 12:35 11,4 °C 11,5 °C 50 % 1031,2 hPa 0,0 mm 3,5 km/h (1 Bft) NO 35 ° 1 min 0,000 mm 2,7 UV-I 369 W/m² 1,4 °C 11,4 °C 4,8 km/h (1 Bft)
15.03.2017 12:36 11,6 °C 11,6 °C 52 % 1031,2 hPa 0,0 mm 5,6 km/h (1 Bft) NO 43 ° 1 min 0,000 mm 2,8 UV-I 381 W/m² 2,1 °C 11,6 °C 8,0 km/h (2 Bft)
15.03.2017 12:37 11,6 °C 11,7 °C 50 % 1031,2 hPa 0,0 mm 3,3 km/h (1 Bft) O-NO 57 ° 1 min 0,000 mm 2,8 UV-I 380 W/m² 1,5 °C 11,6 °C 4,8 km/h (1 Bft)
15.03.2017 12:38 11,5 °C 11,6 °C 50 % 1031,1 hPa 0,0 mm 3,7 km/h (1 Bft) N 355 ° 1 min 0,000 mm 2,8 UV-I 417 W/m² 1,4 °C 11,5 °C 8,0 km/h (2 Bft)
15.03.2017 12:39 11,5 °C 11,5 °C 51 % 1031,1 hPa 0,0 mm 3,9 km/h (1 Bft) N 355 ° 1 min 0,000 mm 3,0 UV-I 459 W/m² 1,7 °C 11,5 °C 6,4 km/h (2 Bft)
15.03.2017 12:40 11,6 °C 11,6 °C 50 % 1031,1 hPa 0,0 mm 1,3 km/h (1 Bft) O-NO 58 ° 1 min 0,000 mm 3,1 UV-I 454 W/m² 1,5 °C 11,6 °C 3,2 km/h (1 Bft)
15.03.2017 12:41 11,6 °C 11,6 °C 50 % 1031,0 hPa 0,0 mm 2,9 km/h (1 Bft) O-NO 66 ° 1 min 0,000 mm 3,1 UV-I 457 W/m² 1,5 °C 11,6 °C 4,8 km/h (1 Bft)
15.03.2017 12:42 11,5 °C 11,6 °C 50 % 1031,0 hPa 0,0 mm 1,7 km/h (1 Bft) O-NO 67 ° 1 min 0,000 mm 3,5 UV-I 457 W/m² 1,4 °C 11,5 °C 3,2 km/h (1 Bft)
15.03.2017 12:43 11,4 °C 11,5 °C 50 % 1031,0 hPa 0,0 mm 2,5 km/h (1 Bft) S-SO 166 ° 1 min 0,000 mm 3,6 UV-I 457 W/m² 1,4 °C 11,4 °C 3,2 km/h (1 Bft)
15.03.2017 12:44 11,6 °C 11,6 °C 51 % 1031,0 hPa 0,0 mm 3,2 km/h (1 Bft) S 179 ° 1 min 0,000 mm 3,8 UV-I 664 W/m² 1,8 °C 11,6 °C 6,4 km/h (2 Bft)
15.03.2017 12:45 11,6 °C 11,6 °C 50 % 1031,0 hPa 0,0 mm 3,0 km/h (1 Bft) O 98 ° 1 min 0,000 mm 3,7 UV-I 666 W/m² 1,5 °C 11,6 °C 4,8 km/h (1 Bft)
15.03.2017 12:46 11,8 °C 11,8 °C 52 % 1030,9 hPa 0,0 mm 4,4 km/h (1 Bft) O 80 ° 1 min 0,000 mm 4,0 UV-I 700 W/m² 2,3 °C 11,8 °C 6,4 km/h (2 Bft)
15.03.2017 12:47 11,9 °C 11,9 °C 52 % 1030,9 hPa 0,0 mm 5,9 km/h (2 Bft) N-NW 329 ° 1 min 0,000 mm 4,0 UV-I 670 W/m² 2,4 °C 11,9 °C 11,3 km/h (2 Bft)
15.03.2017 12:48 12,1 °C 12,1 °C 52 % 1030,8 hPa 0,0 mm 8,6 km/h (2 Bft) W-NW 286 ° 1 min 0,000 mm 3,8 UV-I 573 W/m² 2,5 °C 12,1 °C 12,9 km/h (3 Bft)
15.03.2017 12:49 12,1 °C 12,1 °C 50 % 1030,8 hPa 0,0 mm 9,0 km/h (2 Bft) W 272 ° 1 min 0,000 mm 3,5 UV-I 582 W/m² 2,0 °C 12,1 °C 12,9 km/h (3 Bft)
15.03.2017 12:50 11,9 °C 12,1 °C 49 % 1030,8 hPa 0,0 mm 6,4 km/h (2 Bft) W 277 ° 1 min 0,000 mm 3,7 UV-I 647 W/m² 1,5 °C 11,9 °C 11,3 km/h (2 Bft)
15.03.2017 12:51 11,8 °C 11,9 °C 50 % 1030,7 hPa 0,0 mm 7,9 km/h (2 Bft) W 276 ° 1 min 0,000 mm 3,7 UV-I 624 W/m² 1,7 °C 11,8 °C 12,9 km/h (3 Bft)
15.03.2017 12:52 11,8 °C 11,8 °C 50 % 1030,7 hPa 0,0 mm 8,0 km/h (2 Bft) W-SW 242 ° 1 min 0,000 mm 3,3 UV-I 624 W/m² 1,7 °C 11,8 °C 11,3 km/h (2 Bft)
15.03.2017 12:53 11,7 °C 11,8 °C 50 % 1030,7 hPa 0,0 mm 4,5 km/h (1 Bft) W 266 ° 1 min 0,000 mm 3,0 UV-I 624 W/m² 1,6 °C 11,7 °C 8,0 km/h (2 Bft)
15.03.2017 12:54 11,7 °C 11,7 °C 51 % 1030,8 hPa 0,0 mm 2,5 km/h (1 Bft) W 266 ° 1 min 0,000 mm 3,0 UV-I 417 W/m² 1,9 °C 11,7 °C 4,8 km/h (1 Bft)
15.03.2017 12:55 11,7 °C 11,7 °C 50 % 1030,8 hPa 0,0 mm 0,6 km/h (0 Bft) W 266 ° 1 min 0,000 mm 3,2 UV-I 487 W/m² 1,6 °C 11,7 °C 1,6 km/h (1 Bft)
15.03.2017 12:56 11,7 °C 11,7 °C 50 % 1030,7 hPa 0,0 mm 2,0 km/h (1 Bft) N-NW 346 ° 1 min 0,000 mm 3,1 UV-I 540 W/m² 1,6 °C 11,7 °C 4,8 km/h (1 Bft)
15.03.2017 12:57 11,7 °C 11,7 °C 51 % 1030,7 hPa 0,0 mm 1,9 km/h (1 Bft) N-NW 346 ° 1 min 0,000 mm 3,9 UV-I 540 W/m² 1,9 °C 11,7 °C 3,2 km/h (1 Bft)
15.03.2017 12:58 11,9 °C 11,9 °C 53 % 1030,7 hPa 0,0 mm 4,2 km/h (1 Bft) N 355 ° 1 min 0,000 mm 3,9 UV-I 677 W/m² 2,6 °C 11,9 °C 6,4 km/h (2 Bft)
15.03.2017 12:59 12,2 °C 12,2 °C 51 % 1030,7 hPa 0,0 mm 6,5 km/h (2 Bft) NW 325 ° 1 min 0,000 mm 3,9 UV-I 659 W/m² 2,4 °C 12,2 °C 9,7 km/h (2 Bft)
15.03.2017 13:00 12,3 °C 12,3 °C 49 % 1030,7 hPa 0,0 mm 5,0 km/h (1 Bft) N-NW 343 ° 1 min 0,254 mm 3,9 UV-I 661 W/m² 1,9 °C 12,3 °C 9,7 km/h (2 Bft)
15.03.2017 13:01 12,3 °C 12,3 °C 49 % 1030,7 hPa 0,0 mm 2,9 km/h (1 Bft) N 360 ° 1 min 0,000 mm 3,9 UV-I 668 W/m² 1,9 °C 12,3 °C 4,8 km/h (1 Bft)
15.03.2017 13:02 12,3 °C 12,3 °C 49 % 1030,7 hPa 0,0 mm 8,4 km/h (2 Bft) NW 304 ° 1 min 0,000 mm 4,0 UV-I 673 W/m² 1,9 °C 12,3 °C 12,9 km/h (3 Bft)
15.03.2017 13:03 12,4 °C 12,4 °C 51 % 1030,7 hPa 0,0 mm 7,7 km/h (2 Bft) NW 323 ° 1 min 0,000 mm 4,0 UV-I 659 W/m² 2,6 °C 12,4 °C 12,9 km/h (3 Bft)
15.03.2017 13:04 12,5 °C 12,5 °C 49 % 1030,7 hPa 0,0 mm 6,6 km/h (2 Bft) NW 306 ° 1 min 0,000 mm 3,8 UV-I 624 W/m² 2,1 °C 12,5 °C 12,9 km/h (3 Bft)
15.03.2017 13:05 12,5 °C 12,6 °C 47 % 1030,7 hPa 0,0 mm 2,1 km/h (1 Bft) NW 306 ° 1 min 0,000 mm 3,9 UV-I 647 W/m² 1,5 °C 12,5 °C 4,8 km/h (1 Bft)
15.03.2017 13:06 12,4 °C 12,5 °C 49 % 1030,7 hPa 0,0 mm 5,1 km/h (1 Bft) N-NO 24 ° 1 min 0,000 mm 3,8 UV-I 628 W/m² 2,0 °C 12,4 °C 8,0 km/h (2 Bft)
15.03.2017 13:07 12,4 °C 12,4 °C 49 % 1030,7 hPa 0,0 mm 4,3 km/h (1 Bft) NO 51 ° 1 min 0,000 mm 3,8 UV-I 571 W/m² 2,0 °C 12,4 °C 6,4 km/h (2 Bft)
15.03.2017 13:08 12,3 °C 12,4 °C 48 % 1030,7 hPa 0,0 mm 5,5 km/h (1 Bft) N-NW 327 ° 1 min 0,000 mm 3,5 UV-I 608 W/m² 1,6 °C 12,3 °C 8,0 km/h (2 Bft)
15.03.2017 13:09 12,4 °C 12,4 °C 50 % 1030,7 hPa 0,0 mm 6,5 km/h (2 Bft) N-NO 28 ° 1 min 0,000 mm 3,7 UV-I 603 W/m² 2,3 °C 12,4 °C 8,0 km/h (2 Bft)
15.03.2017 13:10 12,4 °C 12,4 °C 49 % 1030,7 hPa 0,0 mm 4,4 km/h (1 Bft) O 82 ° 1 min 0,000 mm 3,5 UV-I 577 W/m² 2,0 °C 12,4 °C 6,4 km/h (2 Bft)
15.03.2017 13:11 12,3 °C 12,4 °C 48 % 1030,7 hPa 0,0 mm 5,6 km/h (1 Bft) N-NO 29 ° 1 min 0,000 mm 3,3 UV-I 510 W/m² 1,6 °C 12,3 °C 8,0 km/h (2 Bft)
15.03.2017 13:12 12,2 °C 12,3 °C 49 % 1030,6 hPa 0,0 mm 4,4 km/h (1 Bft) N-NW 344 ° 1 min 0,000 mm 3,4 UV-I 512 W/m² 1,8 °C 12,2 °C 6,4 km/h (2 Bft)
15.03.2017 13:13 12,3 °C 12,3 °C 52 % 1030,5 hPa 0,0 mm 1,6 km/h (1 Bft) N 350 ° 1 min 0,000 mm 3,7 UV-I 642 W/m² 2,7 °C 12,3 °C 3,2 km/h (1 Bft)
15.03.2017 13:14 12,5 °C 12,5 °C 50 % 1030,5 hPa 0,0 mm 2,3 km/h (1 Bft) N 350 ° 1 min 0,000 mm 3,9 UV-I 663 W/m² 2,4 °C 12,5 °C 3,2 km/h (1 Bft)
15.03.2017 13:15 12,6 °C 12,6 °C 49 % 1030,6 hPa 0,0 mm 3,1 km/h (1 Bft) NW 319 ° 1 min 0,000 mm 3,8 UV-I 659 W/m² 2,2 °C 12,6 °C 4,8 km/h (1 Bft)
15.03.2017 13:16 12,6 °C 12,7 °C 49 % 1030,5 hPa 0,0 mm 5,5 km/h (1 Bft) S-SW 196 ° 1 min 0,000 mm 3,6 UV-I 596 W/m² 2,2 °C 12,6 °C 8,0 km/h (2 Bft)
15.03.2017 13:17 12,6 °C 12,6 °C 48 % 1030,6 hPa 0,0 mm 4,2 km/h (1 Bft) W 263 ° 1 min 0,000 mm 3,6 UV-I 591 W/m² 1,9 °C 12,6 °C 6,4 km/h (2 Bft)
15.03.2017 13:18 12,6 °C 12,6 °C 48 % 1030,6 hPa 0,0 mm 4,2 km/h (1 Bft) NW 320 ° 1 min 0,000 mm 3,7 UV-I 621 W/m² 1,9 °C 12,6 °C 6,4 km/h (2 Bft)
15.03.2017 13:19 12,8 °C 12,8 °C 51 % 1030,6 hPa 0,0 mm 6,0 km/h (2 Bft) NW 325 ° 1 min 0,000 mm 3,7 UV-I 659 W/m² 2,9 °C 12,8 °C 6,4 km/h (2 Bft)
15.03.2017 13:20 12,9 °C 12,9 °C 49 % 1030,5 hPa 0,0 mm 6,0 km/h (2 Bft) W 277 ° 1 min 0,000 mm 3,4 UV-I 561 W/m² 2,5 °C 12,9 °C 9,7 km/h (2 Bft)
15.03.2017 13:21 12,9 °C 12,9 °C 49 % 1030,5 hPa 0,0 mm 4,6 km/h (1 Bft) NW 315 ° 1 min 0,000 mm 3,5 UV-I 564 W/m² 2,5 °C 12,9 °C 6,4 km/h (2 Bft)
15.03.2017 13:22 12,8 °C 12,9 °C 48 % 1030,5 hPa 0,0 mm 2,5 km/h (1 Bft) NW 319 ° 1 min 0,000 mm 3,5 UV-I 568 W/m² 2,1 °C 12,8 °C 4,8 km/h (1 Bft)
15.03.2017 13:23 12,8 °C 12,8 °C 47 % 1030,5 hPa 0,0 mm 1,7 km/h (1 Bft) NW 319 ° 1 min 0,000 mm 3,6 UV-I 596 W/m² 1,8 °C 12,8 °C 3,2 km/h (1 Bft)
15.03.2017 13:24 12,8 °C 12,8 °C 49 % 1030,4 hPa 0,0 mm 1,8 km/h (1 Bft) W 273 ° 1 min 0,000 mm 3,6 UV-I 577 W/m² 2,4 °C 12,8 °C 3,2 km/h (1 Bft)
15.03.2017 13:25 12,8 °C 12,9 °C 48 % 1030,4 hPa 0,0 mm 3,5 km/h (1 Bft) N-NW 346 ° 1 min 0,000 mm 3,6 UV-I 608 W/m² 2,1 °C 12,8 °C 6,4 km/h (2 Bft)
15.03.2017 13:26 12,8 °C 12,9 °C 49 % 1030,4 hPa 0,0 mm 3,1 km/h (1 Bft) W-NW 289 ° 1 min 0,000 mm 3,5 UV-I 575 W/m² 2,4 °C 12,8 °C 4,8 km/h (1 Bft)
15.03.2017 13:27 12,8 °C 12,8 °C 50 % 1030,4 hPa 0,0 mm 4,6 km/h (1 Bft) N-NW 342 ° 1 min 0,000 mm 3,3 UV-I 529 W/m² 2,6 °C 12,8 °C 12,9 km/h (3 Bft)
15.03.2017 13:28 12,9 °C 12,9 °C 49 % 1030,4 hPa 0,0 mm 5,6 km/h (1 Bft) N-NW 330 ° 1 min 0,000 mm 3,2 UV-I 462 W/m² 2,5 °C 12,9 °C 8,0 km/h (2 Bft)
15.03.2017 13:29 12,9 °C 12,9 °C 49 % 1030,4 hPa 0,0 mm 4,6 km/h (1 Bft) NW 313 ° 1 min 0,000 mm 3,2 UV-I 469 W/m² 2,5 °C 12,9 °C 12,9 km/h (3 Bft)
15.03.2017 13:30 12,8 °C 12,9 °C 48 % 1030,4 hPa 0,0 mm 9,4 km/h (2 Bft) N 5 ° 1 min 0,000 mm 3,3 UV-I 513 W/m² 2,1 °C 12,8 °C 14,5 km/h (3 Bft)
15.03.2017 13:31 12,8 °C 12,9 °C 48 % 1030,4 hPa 0,0 mm 9,9 km/h (2 Bft) N-NO 16 ° 1 min 0,000 mm 3,4 UV-I 527 W/m² 2,1 °C 12,8 °C 12,9 km/h (3 Bft)
15.03.2017 13:32 12,7 °C 12,8 °C 47 % 1030,4 hPa 0,0 mm 6,8 km/h (2 Bft) N-NO 28 ° 1 min 0,000 mm 3,1 UV-I 454 W/m² 1,7 °C 12,7 °C 12,9 km/h (3 Bft)
15.03.2017 13:33 12,8 °C 12,8 °C 50 % 1030,4 hPa 0,0 mm 4,4 km/h (1 Bft) N 355 ° 1 min 0,000 mm 3,1 UV-I 434 W/m² 2,6 °C 12,8 °C 6,4 km/h (2 Bft)
15.03.2017 13:34 12,8 °C 12,8 °C 48 % 1030,5 hPa 0,0 mm 7,1 km/h (2 Bft) NW 322 ° 1 min 0,000 mm 3,4 UV-I 526 W/m² 2,1 °C 12,8 °C 9,7 km/h (2 Bft)
15.03.2017 13:35 12,8 °C 12,8 °C 49 % 1030,5 hPa 0,0 mm 7,0 km/h (2 Bft) N 349 ° 1 min 0,000 mm 3,5 UV-I 564 W/m² 2,4 °C 12,8 °C 9,7 km/h (2 Bft)
15.03.2017 13:36 13,0 °C 13,0 °C 50 % 1030,5 hPa 0,0 mm 4,1 km/h (1 Bft) NW 304 ° 1 min 0,000 mm 3,6 UV-I 656 W/m² 2,8 °C 13,0 °C 6,4 km/h (2 Bft)
15.03.2017 13:37 13,2 °C 13,2 °C 48 % 1030,5 hPa 0,0 mm 4,6 km/h (1 Bft) N-NW 336 ° 1 min 0,000 mm 3,6 UV-I 664 W/m² 2,4 °C 13,2 °C 6,4 km/h (2 Bft)
15.03.2017 13:38 13,3 °C 13,3 °C 50 % 1030,5 hPa 0,0 mm 4,4 km/h (1 Bft) W-NW 296 ° 1 min 0,000 mm 3,4 UV-I 584 W/m² 3,1 °C 13,3 °C 6,4 km/h (2 Bft)
15.03.2017 13:39 13,4 °C 13,4 °C 48 % 1030,4 hPa 0,0 mm 6,1 km/h (2 Bft) N 360 ° 1 min 0,000 mm 2,9 UV-I 584 W/m² 2,6 °C 13,4 °C 12,9 km/h (3 Bft)
15.03.2017 13:40 13,3 °C 13,4 °C 48 % 1030,4 hPa 0,0 mm 6,1 km/h (2 Bft) NW 306 ° 1 min 0,000 mm 2,6 UV-I 376 W/m² 2,5 °C 13,3 °C 8,0 km/h (2 Bft)
15.03.2017 13:41 13,3 °C 13,3 °C 48 % 1030,5 hPa 0,0 mm 8,0 km/h (2 Bft) N-NW 343 ° 1 min 0,000 mm 2,4 UV-I 323 W/m² 2,5 °C 13,3 °C 14,5 km/h (3 Bft)
15.03.2017 13:42 13,2 °C 13,3 °C 49 % 1030,5 hPa 0,0 mm 6,5 km/h (2 Bft) NW 310 ° 1 min 0,000 mm 2,3 UV-I 260 W/m² 2,7 °C 13,2 °C 8,0 km/h (2 Bft)
15.03.2017 13:43 13,1 °C 13,2 °C 49 % 1030,5 hPa 0,0 mm 6,1 km/h (2 Bft) N-NO 33 ° 1 min 0,000 mm 2,1 UV-I 243 W/m² 2,6 °C 13,1 °C 9,7 km/h (2 Bft)
15.03.2017 13:44 12,9 °C 13,1 °C 48 % 1030,4 hPa 0,0 mm 7,8 km/h (2 Bft) N-NW 343 ° 1 min 0,000 mm 2,0 UV-I 221 W/m² 2,2 °C 12,9 °C 12,9 km/h (3 Bft)
15.03.2017 13:45 12,8 °C 12,9 °C 48 % 1030,4 hPa 0,0 mm 7,0 km/h (2 Bft) N-NW 341 ° 1 min 0,000 mm 1,9 UV-I 202 W/m² 2,1 °C 12,8 °C 11,3 km/h (2 Bft)
15.03.2017 13:46 12,8 °C 12,8 °C 49 % 1030,4 hPa 0,0 mm 6,6 km/h (2 Bft) N-NO 19 ° 0 min 0,000 mm 1,9 UV-I 195 W/m² 2,4 °C 12,8 °C 9,7 km/h (2 Bft)
15.03.2017 13:47 12,6 °C 12,8 °C 49 % 1030,4 hPa 0,0 mm 10,0 km/h (2 Bft) N 11 ° 0 min 0,000 mm 1,9 UV-I 190 W/m² 2,2 °C 12,6 °C 12,9 km/h (3 Bft)
15.03.2017 13:48 12,4 °C 12,6 °C 48 % 1030,4 hPa 0,0 mm 5,6 km/h (1 Bft) N 10 ° 1 min 0,000 mm 1,9 UV-I 230 W/m² 1,7 °C 12,4 °C 8,0 km/h (2 Bft)
15.03.2017 13:49 12,4 °C 12,4 °C 48 % 1030,4 hPa 0,0 mm 5,5 km/h (1 Bft) N 350 ° 1 min 0,000 mm 2,4 UV-I 295 W/m² 1,7 °C 12,4 °C 11,3 km/h (2 Bft)
15.03.2017 13:50 12,3 °C 12,4 °C 50 % 1030,4 hPa 0,0 mm 4,6 km/h (1 Bft) N-NO 28 ° 1 min 0,000 mm 2,6 UV-I 374 W/m² 2,2 °C 12,3 °C 8,0 km/h (2 Bft)
15.03.2017 13:51 12,4 °C 12,4 °C 50 % 1030,4 hPa 0,0 mm 5,0 km/h (1 Bft) N-NO 32 ° 1 min 0,000 mm 2,7 UV-I 374 W/m² 2,3 °C 12,4 °C 8,0 km/h (2 Bft)
15.03.2017 13:52 12,4 °C 12,4 °C 49 % 1030,3 hPa 0,0 mm 4,9 km/h (1 Bft) N-NO 25 ° 1 min 0,000 mm 3,1 UV-I 374 W/m² 2,0 °C 12,4 °C 6,4 km/h (2 Bft)
15.03.2017 13:53 12,6 °C 12,6 °C 50 % 1030,3 hPa 0,0 mm 8,3 km/h (2 Bft) N 351 ° 1 min 0,000 mm 3,1 UV-I 533 W/m² 2,5 °C 12,6 °C 12,9 km/h (3 Bft)
15.03.2017 13:54 12,6 °C 12,6 °C 49 % 1030,4 hPa 0,0 mm 6,4 km/h (2 Bft) N 355 ° 1 min 0,000 mm 3,2 UV-I 487 W/m² 2,2 °C 12,6 °C 8,0 km/h (2 Bft)
15.03.2017 13:55 12,6 °C 12,6 °C 49 % 1030,4 hPa 0,0 mm 4,2 km/h (1 Bft) NO 49 ° 1 min 0,000 mm 3,2 UV-I 584 W/m² 2,2 °C 12,6 °C 4,8 km/h (1 Bft)
15.03.2017 13:56 12,7 °C 12,7 °C 50 % 1030,3 hPa 0,0 mm 4,4 km/h (1 Bft) O-NO 71 ° 1 min 0,000 mm 3,0 UV-I 570 W/m² 2,6 °C 12,7 °C 6,4 km/h (2 Bft)
15.03.2017 13:57 12,8 °C 12,8 °C 50 % 1030,3 hPa 0,0 mm 4,1 km/h (1 Bft) N-NO 14 ° 1 min 0,000 mm 3,0 UV-I 615 W/m² 2,6 °C 12,8 °C 6,4 km/h (2 Bft)
15.03.2017 13:58 13,1 °C 13,1 °C 52 % 1030,4 hPa 0,0 mm 6,6 km/h (2 Bft) NW 312 ° 1 min 0,000 mm 2,8 UV-I 615 W/m² 3,5 °C 13,1 °C 9,7 km/h (2 Bft)
15.03.2017 13:59 13,2 °C 13,2 °C 48 % 1030,4 hPa 0,0 mm 4,2 km/h (1 Bft) N-NW 340 ° 1 min 0,000 mm 3,1 UV-I 559 W/m² 2,4 °C 13,2 °C 6,4 km/h (2 Bft)
15.03.2017 14:00 13,2 °C 13,2 °C 48 % 1030,3 hPa 0,0 mm 3,0 km/h (1 Bft) W-NW 301 ° 1 min 0,280 mm 3,2 UV-I 552 W/m² 2,4 °C 13,2 °C 4,8 km/h (1 Bft)
15.03.2017 14:01 13,1 °C 13,2 °C 48 % 1030,3 hPa 0,0 mm 5,7 km/h (1 Bft) W-NW 289 ° 1 min 0,000 mm 2,7 UV-I 464 W/m² 2,3 °C 13,1 °C 9,7 km/h (2 Bft)
15.03.2017 14:02 13,1 °C 13,1 °C 48 % 1030,3 hPa 0,0 mm 5,4 km/h (1 Bft) W-NW 292 ° 1 min 0,000 mm 2,4 UV-I 374 W/m² 2,3 °C 13,1 °C 6,4 km/h (2 Bft)
15.03.2017 14:03 13,0 °C 13,1 °C 49 % 1030,4 hPa 0,0 mm 9,1 km/h (2 Bft) NW 321 ° 1 min 0,000 mm 2,4 UV-I 343 W/m² 2,5 °C 13,0 °C 17,7 km/h (3 Bft)
15.03.2017 14:04 13,1 °C 13,1 °C 51 % 1030,4 hPa 0,0 mm 4,6 km/h (1 Bft) W 276 ° 1 min 0,000 mm 2,3 UV-I 350 W/m² 3,2 °C 13,1 °C 9,7 km/h (2 Bft)
15.03.2017 14:05 13,2 °C 13,2 °C 50 % 1030,3 hPa 0,0 mm 8,0 km/h (2 Bft) NW 314 ° 1 min 0,000 mm 2,4 UV-I 369 W/m² 3,0 °C 13,2 °C 12,9 km/h (3 Bft)
15.03.2017 14:06 13,1 °C 13,2 °C 48 % 1030,4 hPa 0,0 mm 7,2 km/h (2 Bft) W-NW 284 ° 1 min 0,000 mm 2,4 UV-I 385 W/m² 2,3 °C 13,1 °C 14,5 km/h (3 Bft)
15.03.2017 14:07 12,9 °C 13,1 °C 49 % 1030,3 hPa 0,0 mm 7,2 km/h (2 Bft) W-NW 285 ° 1 min 0,000 mm 2,6 UV-I 436 W/m² 2,5 °C 12,9 °C 11,3 km/h (2 Bft)
15.03.2017 14:08 12,8 °C 12,9 °C 49 % 1030,3 hPa 0,0 mm 6,4 km/h (2 Bft) W 278 ° 1 min 0,000 mm 2,7 UV-I 417 W/m² 2,4 °C 12,8 °C 9,7 km/h (2 Bft)
15.03.2017 14:09 12,8 °C 12,8 °C 49 % 1030,3 hPa 0,0 mm 3,8 km/h (1 Bft) W 272 ° 1 min 0,000 mm 2,7 UV-I 417 W/m² 2,4 °C 12,8 °C 6,4 km/h (2 Bft)
15.03.2017 14:10 12,8 °C 12,8 °C 49 % 1030,3 hPa 0,0 mm 3,4 km/h (1 Bft) NW 304 ° 1 min 0,000 mm 2,7 UV-I 455 W/m² 2,4 °C 12,8 °C 6,4 km/h (2 Bft)
15.03.2017 14:11 12,8 °C 12,8 °C 49 % 1030,3 hPa 0,0 mm 2,3 km/h (1 Bft) N-NW 341 ° 1 min 0,000 mm 2,7 UV-I 450 W/m² 2,4 °C 12,8 °C 4,8 km/h (1 Bft)
15.03.2017 14:12 12,9 °C 12,9 °C 51 % 1030,3 hPa 0,0 mm 6,9 km/h (2 Bft) W-NW 298 ° 1 min 0,000 mm 2,7 UV-I 420 W/m² 3,0 °C 12,9 °C 12,9 km/h (3 Bft)
15.03.2017 14:13 12,9 °C 12,9 °C 49 % 1030,3 hPa 0,0 mm 4,1 km/h (1 Bft) W-NW 285 ° 1 min 0,000 mm 2,7 UV-I 429 W/m² 2,5 °C 12,9 °C 6,4 km/h (2 Bft)
15.03.2017 14:14 12,9 °C 12,9 °C 49 % 1030,3 hPa 0,0 mm 2,4 km/h (1 Bft) NW 309 ° 1 min 0,000 mm 2,9 UV-I 492 W/m² 2,5 °C 12,9 °C 4,8 km/h (1 Bft)
15.03.2017 14:15 13,0 °C 13,0 °C 50 % 1030,3 hPa 0,0 mm 7,2 km/h (2 Bft) N-NW 338 ° 1 min 0,000 mm 2,9 UV-I 510 W/m² 2,8 °C 13,0 °C 9,7 km/h (2 Bft)
15.03.2017 14:16 13,1 °C 13,1 °C 50 % 1030,3 hPa 0,0 mm 8,9 km/h (2 Bft) N 355 ° 1 min 0,000 mm 3,0 UV-I 543 W/m² 2,9 °C 13,1 °C 12,9 km/h (3 Bft)
15.03.2017 14:17 13,1 °C 13,1 °C 51 % 1030,4 hPa 0,0 mm 5,2 km/h (1 Bft) N-NO 12 ° 1 min 0,000 mm 3,0 UV-I 561 W/m² 3,2 °C 13,1 °C 6,4 km/h (2 Bft)
15.03.2017 14:18 13,1 °C 13,1 °C 49 % 1030,2 hPa 0,0 mm 5,0 km/h (1 Bft) NW 305 ° 1 min 0,000 mm 3,1 UV-I 584 W/m² 2,6 °C 13,1 °C 6,4 km/h (2 Bft)
15.03.2017 14:19 13,1 °C 13,1 °C 50 % 1030,2 hPa 0,0 mm 2,2 km/h (1 Bft) NW 306 ° 1 min 0,000 mm 3,0 UV-I 575 W/m² 2,9 °C 13,1 °C 3,2 km/h (1 Bft)
15.03.2017 14:20 13,1 °C 13,1 °C 50 % 1030,3 hPa 0,0 mm 3,4 km/h (1 Bft) W-NW 296 ° 1 min 0,000 mm 3,0 UV-I 555 W/m² 2,9 °C 13,1 °C 12,9 km/h (3 Bft)
15.03.2017 14:21 13,1 °C 13,1 °C 52 % 1030,2 hPa 0,0 mm 9,9 km/h (2 Bft) N-NW 333 ° 1 min 0,000 mm 3,0 UV-I 563 W/m² 3,5 °C 13,1 °C 14,5 km/h (3 Bft)
15.03.2017 14:22 13,1 °C 13,2 °C 50 % 1030,2 hPa 0,0 mm 5,6 km/h (1 Bft) N-NO 32 ° 1 min 0,000 mm 2,9 UV-I 540 W/m² 2,9 °C 13,1 °C 9,7 km/h (2 Bft)
15.03.2017 14:23 13,1 °C 13,1 °C 50 % 1030,2 hPa 0,0 mm 4,5 km/h (1 Bft) N-NO 28 ° 1 min 0,000 mm 2,8 UV-I 504 W/m² 2,9 °C 13,1 °C 6,4 km/h (2 Bft)
15.03.2017 14:24 12,9 °C 13,1 °C 50 % 1030,1 hPa 0,0 mm 1,5 km/h (1 Bft) N-NO 28 ° 1 min 0,000 mm 2,6 UV-I 494 W/m² 2,7 °C 12,9 °C 3,2 km/h (1 Bft)
15.03.2017 14:25 12,8 °C 12,9 °C 51 % 1030,1 hPa 0,0 mm 0,9 km/h (0 Bft) N-NO 28 ° 1 min 0,000 mm 2,6 UV-I 482 W/m² 2,9 °C 12,8 °C 1,6 km/h (1 Bft)
15.03.2017 14:26 12,8 °C 12,8 °C 52 % 1030,1 hPa 0,0 mm 2,4 km/h (1 Bft) NW 317 ° 1 min 0,000 mm 2,6 UV-I 492 W/m² 3,2 °C 12,8 °C 6,4 km/h (2 Bft)
15.03.2017 14:27 12,8 °C 12,8 °C 51 % 1030,1 hPa 0,0 mm 4,7 km/h (1 Bft) W 275 ° 1 min 0,000 mm 2,4 UV-I 397 W/m² 2,9 °C 12,8 °C 6,4 km/h (2 Bft)
15.03.2017 14:28 12,8 °C 12,8 °C 52 % 1030,1 hPa 0,0 mm 4,8 km/h (1 Bft) NW 324 ° 1 min 0,000 mm 2,3 UV-I 396 W/m² 3,2 °C 12,8 °C 4,8 km/h (1 Bft)
15.03.2017 14:29 12,8 °C 12,8 °C 52 % 1030,1 hPa 0,0 mm 3,4 km/h (1 Bft) W-NW 290 ° 1 min 0,000 mm 2,5 UV-I 494 W/m² 3,2 °C 12,8 °C 6,4 km/h (2 Bft)
15.03.2017 14:30 12,8 °C 12,8 °C 51 % 1030,1 hPa 0,0 mm 1,9 km/h (1 Bft) W-NW 290 ° 1 min 0,000 mm 2,8 UV-I 582 W/m² 2,9 °C 12,8 °C 3,2 km/h (1 Bft)
15.03.2017 14:31 12,9 °C 12,9 °C 51 % 1030,0 hPa 0,0 mm 3,4 km/h (1 Bft) W-NW 298 ° 1 min 0,000 mm 3,0 UV-I 647 W/m² 3,0 °C 12,9 °C 6,4 km/h (2 Bft)
15.03.2017 14:32 12,9 °C 12,9 °C 51 % 1030,0 hPa 0,0 mm 4,1 km/h (1 Bft) N-NW 348 ° 1 min 0,000 mm 2,8 UV-I 578 W/m² 3,0 °C 12,9 °C 6,4 km/h (2 Bft)
15.03.2017 14:33 13,0 °C 13,0 °C 50 % 1030,0 hPa 0,0 mm 2,8 km/h (1 Bft) N-NW 348 ° 1 min 0,000 mm 2,9 UV-I 552 W/m² 2,8 °C 13,0 °C 4,8 km/h (1 Bft)
15.03.2017 14:34 12,9 °C 13,0 °C 49 % 1030,0 hPa 0,0 mm 3,7 km/h (1 Bft) N-NW 338 ° 1 min 0,000 mm 2,8 UV-I 584 W/m² 2,5 °C 12,9 °C 6,4 km/h (2 Bft)
15.03.2017 14:35 13,1 °C 13,1 °C 52 % 1030,0 hPa 0,0 mm 7,4 km/h (2 Bft) W-NW 283 ° 1 min 0,000 mm 3,0 UV-I 680 W/m² 3,5 °C 13,1 °C 12,9 km/h (3 Bft)
15.03.2017 14:36 13,1 °C 13,1 °C 49 % 1030,0 hPa 0,0 mm 7,0 km/h (2 Bft) S-SW 196 ° 1 min 0,000 mm 2,3 UV-I 371 W/m² 2,6 °C 13,1 °C 9,7 km/h (2 Bft)
15.03.2017 14:37 12,9 °C 13,1 °C 48 % 1030,1 hPa 0,0 mm 6,5 km/h (2 Bft) SW 219 ° 1 min 0,000 mm 2,5 UV-I 434 W/m² 2,2 °C 12,9 °C 11,3 km/h (2 Bft)
15.03.2017 14:38 12,8 °C 12,9 °C 49 % 1030,1 hPa 0,0 mm 2,1 km/h (1 Bft) SW 219 ° 1 min 0,000 mm 2,3 UV-I 434 W/m² 2,4 °C 12,8 °C 4,8 km/h (1 Bft)
15.03.2017 14:39 12,9 °C 12,9 °C 50 % 1030,1 hPa 0,0 mm 0,8 km/h (0 Bft) SW 220 ° 1 min 0,000 mm 2,1 UV-I 434 W/m² 2,7 °C 12,9 °C 3,2 km/h (1 Bft)
15.03.2017 14:40 12,9 °C 12,9 °C 50 % 1030,1 hPa 0,0 mm 6,3 km/h (2 Bft) N-NW 334 ° 1 min 0,000 mm 2,0 UV-I 325 W/m² 2,7 °C 12,9 °C 11,3 km/h (2 Bft)
15.03.2017 14:41 12,9 °C 12,9 °C 49 % 1030,1 hPa 0,0 mm 5,5 km/h (1 Bft) NW 306 ° 1 min 0,000 mm 2,0 UV-I 248 W/m² 2,5 °C 12,9 °C 8,0 km/h (2 Bft)
15.03.2017 14:42 12,9 °C 12,9 °C 49 % 1030,1 hPa 0,0 mm 4,6 km/h (1 Bft) N-NW 340 ° 1 min 0,000 mm 1,7 UV-I 234 W/m² 2,5 °C 12,9 °C 9,7 km/h (2 Bft)
15.03.2017 14:43 12,9 °C 12,9 °C 50 % 1030,2 hPa 0,0 mm 6,6 km/h (2 Bft) NW 311 ° 1 min 0,000 mm 1,6 UV-I 232 W/m² 2,7 °C 12,9 °C 8,0 km/h (2 Bft)
15.03.2017 14:44 12,9 °C 12,9 °C 49 % 1030,2 hPa 0,0 mm 2,5 km/h (1 Bft) N-NW 327 ° 1 min 0,000 mm 1,6 UV-I 236 W/m² 2,5 °C 12,9 °C 4,8 km/h (1 Bft)
15.03.2017 14:45 12,8 °C 12,9 °C 48 % 1030,2 hPa 0,0 mm 3,6 km/h (1 Bft) N-NO 19 ° 1 min 0,000 mm 1,7 UV-I 239 W/m² 2,1 °C 12,8 °C 6,4 km/h (2 Bft)
15.03.2017 14:46 12,7 °C 12,8 °C 48 % 1030,2 hPa 0,0 mm 5,2 km/h (1 Bft) N-NO 19 ° 1 min 0,000 mm 1,6 UV-I 236 W/m² 2,0 °C 12,7 °C 6,4 km/h (2 Bft)
15.03.2017 14:47 12,6 °C 12,7 °C 49 % 1030,2 hPa 0,0 mm 1,7 km/h (1 Bft) N-NO 19 ° 1 min 0,000 mm 1,6 UV-I 236 W/m² 2,2 °C 12,6 °C 3,2 km/h (1 Bft)
15.03.2017 14:48 12,4 °C 12,6 °C 48 % 1030,3 hPa 0,0 mm 1,7 km/h (1 Bft) N-NW 333 ° 1 min 0,000 mm 1,7 UV-I 244 W/m² 1,7 °C 12,4 °C 4,8 km/h (1 Bft)
15.03.2017 14:49 12,4 °C 12,4 °C 49 % 1030,3 hPa 0,0 mm 6,1 km/h (2 Bft) NW 306 ° 1 min 0,000 mm 1,8 UV-I 276 W/m² 2,0 °C 12,4 °C 8,0 km/h (2 Bft)
15.03.2017 14:50 12,6 °C 12,6 °C 50 % 1030,3 hPa 0,0 mm 5,0 km/h (1 Bft) W-NW 298 ° 1 min 0,000 mm 1,9 UV-I 325 W/m² 2,5 °C 12,6 °C 8,0 km/h (2 Bft)
15.03.2017 14:51 12,6 °C 12,6 °C 49 % 1030,2 hPa 0,0 mm 3,8 km/h (1 Bft) W-SW 239 ° 1 min 0,000 mm 1,9 UV-I 329 W/m² 2,2 °C 12,6 °C 6,4 km/h (2 Bft)
15.03.2017 14:52 12,6 °C 12,6 °C 49 % 1030,2 hPa 0,0 mm 4,8 km/h (1 Bft) SW 219 ° 1 min 0,000 mm 1,9 UV-I 294 W/m² 2,2 °C 12,6 °C 6,4 km/h (2 Bft)
15.03.2017 14:53 12,6 °C 12,6 °C 49 % 1030,2 hPa 0,0 mm 0,9 km/h (0 Bft) SW 219 ° 1 min 0,000 mm 1,8 UV-I 287 W/m² 2,2 °C 12,6 °C 3,2 km/h (1 Bft)
15.03.2017 14:54 12,6 °C 12,6 °C 50 % 1030,2 hPa 0,0 mm 3,4 km/h (1 Bft) NO 44 ° 1 min 0,000 mm 1,6 UV-I 239 W/m² 2,5 °C 12,6 °C 6,4 km/h (2 Bft)
15.03.2017 14:55 12,5 °C 12,6 °C 50 % 1030,2 hPa 0,0 mm 1,4 km/h (1 Bft) NO 44 ° 1 min 0,000 mm 1,5 UV-I 214 W/m² 2,4 °C 12,5 °C 3,2 km/h (1 Bft)
15.03.2017 14:56 12,4 °C 12,5 °C 50 % 1030,2 hPa 0,0 mm 0,8 km/h (0 Bft) NO 52 ° 1 min 0,000 mm 1,4 UV-I 207 W/m² 2,3 °C 12,4 °C 3,2 km/h (1 Bft)
15.03.2017 14:57 12,4 °C 12,4 °C 49 % 1030,2 hPa 0,0 mm 4,1 km/h (1 Bft) NO 44 ° 1 min 0,000 mm 1,4 UV-I 200 W/m² 2,0 °C 12,4 °C 6,4 km/h (2 Bft)
15.03.2017 14:58 12,4 °C 12,4 °C 50 % 1030,1 hPa 0,0 mm 5,6 km/h (1 Bft) N 355 ° 0 min 0,000 mm 1,3 UV-I 188 W/m² 2,3 °C 12,4 °C 8,0 km/h (2 Bft)
15.03.2017 14:59 12,5 °C 12,5 °C 50 % 1030,2 hPa 0,0 mm 4,1 km/h (1 Bft) N-NW 348 ° 0 min 0,000 mm 1,3 UV-I 178 W/m² 2,4 °C 12,5 °C 6,4 km/h (2 Bft)
15.03.2017 15:00 12,5 °C 12,6 °C 49 % 1030,1 hPa 0,0 mm 3,0 km/h (1 Bft) N-NW 348 ° 0 min 0,000 mm 1,1 UV-I 165 W/m² 2,1 °C 12,5 °C 4,8 km/h (1 Bft)
15.03.2017 15:01 12,5 °C 12,5 °C 49 % 1030,1 hPa 0,0 mm 3,8 km/h (1 Bft) N-NO 23 ° 0 min 0,228 mm 1,0 UV-I 151 W/m² 2,1 °C 12,5 °C 4,8 km/h (1 Bft)
15.03.2017 15:02 12,5 °C 12,6 °C 51 % 1030,1 hPa 0,0 mm 2,3 km/h (1 Bft) NO 41 ° 0 min 0,000 mm 0,9 UV-I 139 W/m² 2,6 °C 12,5 °C 4,8 km/h (1 Bft)
15.03.2017 15:03 12,5 °C 12,6 °C 50 % 1030,1 hPa 0,0 mm 3,6 km/h (1 Bft) O-NO 57 ° 0 min 0,000 mm 0,9 UV-I 128 W/m² 2,4 °C 12,5 °C 6,4 km/h (2 Bft)
15.03.2017 15:04 12,4 °C 12,5 °C 48 % 1030,1 hPa 0,0 mm 4,6 km/h (1 Bft) O-NO 64 ° 0 min 0,000 mm 0,9 UV-I 123 W/m² 1,7 °C 12,4 °C 6,4 km/h (2 Bft)
15.03.2017 15:05 12,4 °C 12,4 °C 48 % 1030,1 hPa 0,0 mm 5,4 km/h (1 Bft) NO 55 ° 0 min 0,000 mm 0,9 UV-I 127 W/m² 1,7 °C 12,4 °C 6,4 km/h (2 Bft)
15.03.2017 15:06 12,3 °C 12,4 °C 49 % 1030,1 hPa 0,0 mm 4,9 km/h (1 Bft) N-NO 32 ° 0 min 0,000 mm 0,9 UV-I 132 W/m² 1,9 °C 12,3 °C 6,4 km/h (2 Bft)
15.03.2017 15:07 12,3 °C 12,4 °C 49 % 1030,1 hPa 0,0 mm 3,2 km/h (1 Bft) N-NO 32 ° 0 min 0,000 mm 1,0 UV-I 137 W/m² 1,9 °C 12,3 °C 6,4 km/h (2 Bft)
15.03.2017 15:08 12,3 °C 12,4 °C 49 % 1030,0 hPa 0,0 mm 4,2 km/h (1 Bft) N-NO 23 ° 0 min 0,000 mm 1,0 UV-I 141 W/m² 1,9 °C 12,3 °C 6,4 km/h (2 Bft)
15.03.2017 15:09 12,3 °C 12,4 °C 49 % 1030,0 hPa 0,0 mm 4,0 km/h (1 Bft) NO 36 ° 0 min 0,000 mm 1,0 UV-I 142 W/m² 1,9 °C 12,3 °C 4,8 km/h (1 Bft)
15.03.2017 15:10 12,3 °C 12,3 °C 49 % 1029,9 hPa 0,0 mm 1,4 km/h (1 Bft) NO 36 ° 0 min 0,000 mm 1,0 UV-I 141 W/m² 1,9 °C 12,3 °C 3,2 km/h (1 Bft)
15.03.2017 15:11 12,3 °C 12,3 °C 48 % 1029,9 hPa 0,0 mm 1,2 km/h (1 Bft) NO 36 ° 0 min 0,000 mm 0,9 UV-I 135 W/m² 1,6 °C 12,3 °C 3,2 km/h (1 Bft)
15.03.2017 15:12 12,2 °C 12,3 °C 49 % 1029,9 hPa 0,0 mm 1,3 km/h (1 Bft) NO 36 ° 0 min 0,000 mm 0,9 UV-I 132 W/m² 1,8 °C 12,2 °C 3,2 km/h (1 Bft)
15.03.2017 15:13 12,2 °C 12,3 °C 49 % 1029,9 hPa 0,0 mm 4,5 km/h (1 Bft) N-NO 28 ° 0 min 0,000 mm 0,9 UV-I 132 W/m² 1,8 °C 12,2 °C 6,4 km/h (2 Bft)
15.03.2017 15:14 12,3 °C 12,3 °C 49 % 1029,9 hPa 0,0 mm 4,7 km/h (1 Bft) N 355 ° 0 min 0,000 mm 0,9 UV-I 134 W/m² 1,9 °C 12,3 °C 4,8 km/h (1 Bft)
15.03.2017 15:15 12,3 °C 12,4 °C 48 % 1029,9 hPa 0,0 mm 4,4 km/h (1 Bft) N 355 ° 0 min 0,000 mm 1,0 UV-I 141 W/m² 1,6 °C 12,3 °C 6,4 km/h (2 Bft)
15.03.2017 15:16 12,3 °C 12,3 °C 48 % 1029,9 hPa 0,0 mm 4,9 km/h (1 Bft) N 355 ° 0 min 0,000 mm 1,0 UV-I 158 W/m² 1,6 °C 12,3 °C 6,4 km/h (2 Bft)
15.03.2017 15:17 12,4 °C 12,4 °C 49 % 1029,8 hPa 0,0 mm 3,4 km/h (1 Bft) N 355 ° 0 min 0,000 mm 1,2 UV-I 167 W/m² 2,0 °C 12,4 °C 4,8 km/h (1 Bft)
15.03.2017 15:18 12,4 °C 12,4 °C 49 % 1029,8 hPa 0,0 mm 2,5 km/h (1 Bft) N 5 ° 0 min 0,000 mm 1,2 UV-I 176 W/m² 2,0 °C 12,4 °C 3,2 km/h (1 Bft)
15.03.2017 15:19 12,4 °C 12,4 °C 50 % 1029,8 hPa 0,0 mm 2,4 km/h (1 Bft) N 5 ° 0 min 0,000 mm 1,3 UV-I 190 W/m² 2,3 °C 12,4 °C 3,2 km/h (1 Bft)
15.03.2017 15:20 12,4 °C 12,4 °C 54 % 1029,8 hPa 0,0 mm 2,5 km/h (1 Bft) NO 44 ° 1 min 0,000 mm 1,4 UV-I 209 W/m² 3,4 °C 12,4 °C 4,8 km/h (1 Bft)
15.03.2017 15:21 12,3 °C 12,4 °C 56 % 1029,8 hPa 0,0 mm 2,1 km/h (1 Bft) N-NW 346 ° 1 min 0,000 mm 1,4 UV-I 221 W/m² 3,8 °C 12,3 °C 4,8 km/h (1 Bft)
15.03.2017 15:22 12,2 °C 12,3 °C 56 % 1029,8 hPa 0,0 mm 3,2 km/h (1 Bft) N 5 ° 1 min 0,000 mm 1,5 UV-I 230 W/m² 3,7 °C 12,2 °C 4,8 km/h (1 Bft)
15.03.2017 15:23 12,2 °C 12,2 °C 57 % 1029,8 hPa 0,0 mm 4,7 km/h (1 Bft) O-NO 72 ° 1 min 0,000 mm 1,4 UV-I 239 W/m² 3,9 °C 12,2 °C 6,4 km/h (2 Bft)
15.03.2017 15:24 12,2 °C 12,2 °C 58 % 1029,8 hPa 0,0 mm 4,1 km/h (1 Bft) NO 46 ° 0 min 0,000 mm 1,3 UV-I 195 W/m² 4,2 °C 12,2 °C 8,0 km/h (2 Bft)
15.03.2017 15:25 12,1 °C 12,2 °C 59 % 1029,8 hPa 0,0 mm 6,1 km/h (2 Bft) O-NO 74 ° 0 min 0,000 mm 1,2 UV-I 181 W/m² 4,3 °C 12,1 °C 8,0 km/h (2 Bft)
15.03.2017 15:26 12,1 °C 12,1 °C 59 % 1029,8 hPa 0,0 mm 5,2 km/h (1 Bft) O 79 ° 0 min 0,000 mm 1,2 UV-I 163 W/m² 4,3 °C 12,1 °C 6,4 km/h (2 Bft)
15.03.2017 15:27 12,1 °C 12,1 °C 59 % 1029,8 hPa 0,0 mm 3,7 km/h (1 Bft) O 82 ° 0 min 0,000 mm 1,1 UV-I 153 W/m² 4,3 °C 12,1 °C 6,4 km/h (2 Bft)
15.03.2017 15:28 11,9 °C 12,1 °C 59 % 1029,7 hPa 0,0 mm 2,2 km/h (1 Bft) O 84 ° 0 min 0,000 mm 1,1 UV-I 151 W/m² 4,1 °C 11,9 °C 3,2 km/h (1 Bft)
15.03.2017 15:29 11,9 °C 11,9 °C 60 % 1029,7 hPa 0,0 mm 2,8 km/h (1 Bft) O 84 ° 0 min 0,000 mm 1,1 UV-I 151 W/m² 4,4 °C 11,9 °C 4,8 km/h (1 Bft)
15.03.2017 15:30 11,9 °C 11,9 °C 60 % 1029,7 hPa 0,0 mm 3,6 km/h (1 Bft) O 83 ° 0 min 0,000 mm 1,1 UV-I 155 W/m² 4,4 °C 11,9 °C 4,8 km/h (1 Bft)
15.03.2017 15:31 11,9 °C 11,9 °C 60 % 1029,7 hPa 0,0 mm 4,2 km/h (1 Bft) O-NO 66 ° 0 min 0,000 mm 1,1 UV-I 158 W/m² 4,4 °C 11,9 °C 6,4 km/h (2 Bft)
15.03.2017 15:32 11,8 °C 11,9 °C 60 % 1029,6 hPa 0,0 mm 1,5 km/h (1 Bft) O-NO 66 ° 0 min 0,000 mm 1,2 UV-I 163 W/m² 4,3 °C 11,8 °C 4,8 km/h (1 Bft)
15.03.2017 15:33 11,8 °C 11,8 °C 60 % 1029,6 hPa 0,0 mm 3,1 km/h (1 Bft) O-NO 74 ° 0 min 0,000 mm 1,2 UV-I 172 W/m² 4,3 °C 11,8 °C 6,4 km/h (2 Bft)
15.03.2017 15:34 11,9 °C 11,9 °C 60 % 1029,6 hPa 0,0 mm 5,8 km/h (2 Bft) O-NO 74 ° 0 min 0,000 mm 1,2 UV-I 197 W/m² 4,4 °C 11,9 °C 8,0 km/h (2 Bft)
15.03.2017 15:35 11,9 °C 11,9 °C 61 % 1029,5 hPa 0,0 mm 4,0 km/h (1 Bft) O 92 ° 1 min 0,000 mm 1,3 UV-I 209 W/m² 4,6 °C 11,9 °C 6,4 km/h (2 Bft)
15.03.2017 15:36 11,9 °C 12,0 °C 60 % 1029,6 hPa 0,0 mm 5,6 km/h (1 Bft) O-NO 58 ° 1 min 0,000 mm 1,3 UV-I 220 W/m² 4,4 °C 11,9 °C 9,7 km/h (2 Bft)
15.03.2017 15:37 11,9 °C 11,9 °C 59 % 1029,6 hPa 0,0 mm 3,9 km/h (1 Bft) O-NO 70 ° 1 min 0,000 mm 1,3 UV-I 227 W/m² 4,1 °C 11,9 °C 6,4 km/h (2 Bft)
15.03.2017 15:38 11,9 °C 12,0 °C 59 % 1029,5 hPa 0,0 mm 2,7 km/h (1 Bft) O-NO 70 ° 1 min 0,000 mm 1,3 UV-I 220 W/m² 4,1 °C 11,9 °C 4,8 km/h (1 Bft)
15.03.2017 15:39 11,9 °C 11,9 °C 58 % 1029,5 hPa 0,0 mm 0,6 km/h (0 Bft) O-NO 70 ° 1 min 0,000 mm 1,3 UV-I 211 W/m² 3,9 °C 11,9 °C 3,2 km/h (1 Bft)
15.03.2017 15:40 11,9 °C 11,9 °C 59 % 1029,5 hPa 0,0 mm 0,7 km/h (0 Bft) O-NO 70 ° 1 min 0,000 mm 1,3 UV-I 209 W/m² 4,1 °C 11,9 °C 1,6 km/h (1 Bft)
15.03.2017 15:41 11,9 °C 12,0 °C 59 % 1029,5 hPa 0,0 mm 3,2 km/h (1 Bft) O-NO 70 ° 1 min 0,000 mm 1,3 UV-I 206 W/m² 4,1 °C 11,9 °C 4,8 km/h (1 Bft)
15.03.2017 15:42 11,9 °C 12,0 °C 59 % 1029,5 hPa 0,0 mm 3,4 km/h (1 Bft) O-NO 71 ° 1 min 0,000 mm 1,3 UV-I 207 W/m² 4,1 °C 11,9 °C 4,8 km/h (1 Bft)
15.03.2017 15:43 12,0 °C 12,0 °C 59 % 1029,4 hPa 0,0 mm 1,4 km/h (1 Bft) O-NO 71 ° 0 min 0,000 mm 1,3 UV-I 197 W/m² 4,2 °C 12,0 °C 3,2 km/h (1 Bft)
15.03.2017 15:44 12,1 °C 12,1 °C 59 % 1029,5 hPa 0,0 mm 1,2 km/h (1 Bft) O-NO 71 ° 0 min 0,000 mm 1,2 UV-I 195 W/m² 4,3 °C 12,1 °C 3,2 km/h (1 Bft)
15.03.2017 15:45 12,1 °C 12,1 °C 60 % 1029,4 hPa 0,0 mm 1,9 km/h (1 Bft) O-NO 71 ° 0 min 0,000 mm 1,2 UV-I 195 W/m² 4,6 °C 12,1 °C 4,8 km/h (1 Bft)
15.03.2017 15:46 12,1 °C 12,1 °C 59 % 1029,3 hPa 0,0 mm 1,3 km/h (1 Bft) O-NO 71 ° 0 min 0,000 mm 1,2 UV-I 199 W/m² 4,3 °C 12,1 °C 3,2 km/h (1 Bft)
15.03.2017 15:47 12,2 °C 12,2 °C 60 % 1029,3 hPa 0,0 mm 1,2 km/h (1 Bft) O-NO 71 ° 1 min 0,000 mm 1,2 UV-I 202 W/m² 4,7 °C 12,2 °C 3,2 km/h (1 Bft)
15.03.2017 15:48 12,2 °C 12,2 °C 59 % 1029,2 hPa 0,0 mm 0,9 km/h (0 Bft) O-NO 71 ° 1 min 0,000 mm 1,3 UV-I 207 W/m² 4,4 °C 12,2 °C 3,2 km/h (1 Bft)
15.03.2017 15:49 12,2 °C 12,2 °C 58 % 1029,2 hPa 0,0 mm 0,4 km/h (0 Bft) O-NO 71 ° 1 min 0,000 mm 1,3 UV-I 207 W/m² 4,2 °C 12,2 °C 1,6 km/h (1 Bft)
15.03.2017 15:50 12,3 °C 12,3 °C 57 % 1029,1 hPa 0,0 mm 2,7 km/h (1 Bft) S-SW 205 ° 1 min 0,000 mm 1,3 UV-I 211 W/m² 4,0 °C 12,3 °C 6,4 km/h (2 Bft)
15.03.2017 15:51 12,3 °C 12,3 °C 57 % 1029,1 hPa 0,0 mm 4,1 km/h (1 Bft) S-SW 208 ° 1 min 0,000 mm 1,3 UV-I 204 W/m² 4,0 °C 12,3 °C 6,4 km/h (2 Bft)
15.03.2017 15:52 12,3 °C 12,3 °C 58 % 1029,0 hPa 0,0 mm 4,1 km/h (1 Bft) SW 228 ° 0 min 0,000 mm 1,2 UV-I 197 W/m² 4,3 °C 12,3 °C 4,8 km/h (1 Bft)
15.03.2017 15:53 12,3 °C 12,3 °C 57 % 1029,0 hPa 0,0 mm 1,5 km/h (1 Bft) SW 228 ° 0 min 0,000 mm 1,2 UV-I 193 W/m² 4,0 °C 12,3 °C 1,6 km/h (1 Bft)
15.03.2017 15:54 12,4 °C 12,4 °C 58 % 1029,0 hPa 0,0 mm 2,0 km/h (1 Bft) SW 229 ° 0 min 0,000 mm 1,2 UV-I 195 W/m² 4,4 °C 12,4 °C 3,2 km/h (1 Bft)
15.03.2017 15:55 12,4 °C 12,4 °C 57 % 1029,0 hPa 0,0 mm 5,2 km/h (1 Bft) S-SW 194 ° 0 min 0,000 mm 1,2 UV-I 192 W/m² 4,1 °C 12,4 °C 6,4 km/h (2 Bft)
15.03.2017 15:56 12,4 °C 12,4 °C 57 % 1028,9 hPa 0,0 mm 4,8 km/h (1 Bft) W-SW 237 ° 0 min 0,000 mm 1,2 UV-I 185 W/m² 4,1 °C 12,4 °C 6,4 km/h (2 Bft)
15.03.2017 15:57 12,4 °C 12,4 °C 58 % 1028,9 hPa 0,0 mm 5,7 km/h (1 Bft) W-NW 295 ° 0 min 0,000 mm 1,2 UV-I 190 W/m² 4,4 °C 12,4 °C 6,4 km/h (2 Bft)
15.03.2017 15:58 12,4 °C 12,5 °C 55 % 1028,8 hPa 0,0 mm 4,6 km/h (1 Bft) W-NW 292 ° 0 min 0,000 mm 1,2 UV-I 190 W/m² 3,6 °C 12,4 °C 6,4 km/h (2 Bft)
15.03.2017 15:59 12,5 °C 12,5 °C 54 % 1028,8 hPa 0,0 mm 3,8 km/h (1 Bft) W-NW 283 ° 0 min 0,000 mm 1,2 UV-I 188 W/m² 3,5 °C 12,5 °C 6,4 km/h (2 Bft)
15.03.2017 16:00 12,6 °C 12,6 °C 53 % 1028,8 hPa 0,0 mm 5,4 km/h (1 Bft) W-SW 250 ° 0 min 0,102 mm 1,2 UV-I 190 W/m² 3,3 °C 12,6 °C 8,0 km/h (2 Bft)
15.03.2017 16:01 12,6 °C 12,6 °C 54 % 1028,8 hPa 0,0 mm 4,8 km/h (1 Bft) S-SW 194 ° 0 min 0,000 mm 1,2 UV-I 186 W/m² 3,5 °C 12,6 °C 6,4 km/h (2 Bft)
15.03.2017 16:02 12,6 °C 12,6 °C 53 % 1028,8 hPa 0,0 mm 5,5 km/h (1 Bft) W-NW 295 ° 0 min 0,000 mm 1,2 UV-I 186 W/m² 3,3 °C 12,6 °C 8,0 km/h (2 Bft)
15.03.2017 16:03 12,6 °C 12,6 °C 53 % 1028,8 hPa 0,0 mm 2,8 km/h (1 Bft) SW 231 ° 0 min 0,000 mm 1,2 UV-I 193 W/m² 3,3 °C 12,6 °C 6,4 km/h (2 Bft)
15.03.2017 16:04 12,6 °C 12,6 °C 53 % 1028,8 hPa 0,0 mm 1,7 km/h (1 Bft) W-SW 240 ° 0 min 0,000 mm 1,2 UV-I 195 W/m² 3,3 °C 12,6 °C 3,2 km/h (1 Bft)
15.03.2017 16:05 12,6 °C 12,6 °C 54 % 1028,8 hPa 0,0 mm 3,0 km/h (1 Bft) W-SW 246 ° 0 min 0,000 mm 1,2 UV-I 199 W/m² 3,5 °C 12,6 °C 4,8 km/h (1 Bft)
15.03.2017 16:06 12,6 °C 12,6 °C 53 % 1028,7 hPa 0,0 mm 5,4 km/h (1 Bft) SW 234 ° 0 min 0,000 mm 1,2 UV-I 199 W/m² 3,3 °C 12,6 °C 8,0 km/h (2 Bft)
15.03.2017 16:07 12,6 °C 12,6 °C 54 % 1028,7 hPa 0,0 mm 3,1 km/h (1 Bft) W-SW 239 ° 1 min 0,000 mm 1,2 UV-I 200 W/m² 3,5 °C 12,6 °C 6,4 km/h (2 Bft)
15.03.2017 16:08 12,7 °C 12,7 °C 53 % 1028,8 hPa 0,0 mm 1,7 km/h (1 Bft) W-SW 239 ° 1 min 0,000 mm 1,2 UV-I 202 W/m² 3,4 °C 12,7 °C 3,2 km/h (1 Bft)
15.03.2017 16:09 12,7 °C 12,7 °C 54 % 1028,8 hPa 0,0 mm 3,0 km/h (1 Bft) W-SW 252 ° 1 min 0,000 mm 1,1 UV-I 202 W/m² 3,6 °C 12,7 °C 4,8 km/h (1 Bft)
15.03.2017 16:10 12,6 °C 12,7 °C 52 % 1028,8 hPa 0,0 mm 1,5 km/h (1 Bft) W-SW 252 ° 0 min 0,000 mm 1,1 UV-I 195 W/m² 3,0 °C 12,6 °C 3,2 km/h (1 Bft)
15.03.2017 16:11 12,7 °C 12,7 °C 53 % 1028,8 hPa 0,0 mm 3,4 km/h (1 Bft) W 279 ° 0 min 0,000 mm 1,0 UV-I 185 W/m² 3,4 °C 12,7 °C 4,8 km/h (1 Bft)
15.03.2017 16:12 12,7 °C 12,7 °C 52 % 1028,8 hPa 0,0 mm 1,1 km/h (1 Bft) W 279 ° 0 min 0,000 mm 1,0 UV-I 174 W/m² 3,1 °C 12,7 °C 1,6 km/h (1 Bft)
15.03.2017 16:13 12,6 °C 12,7 °C 52 % 1028,8 hPa 0,0 mm 0,3 km/h (0 Bft) W 279 ° 0 min 0,000 mm 0,9 UV-I 163 W/m² 3,0 °C 12,6 °C 1,6 km/h (1 Bft)
15.03.2017 16:14 12,6 °C 12,7 °C 53 % 1028,8 hPa 0,0 mm 2,8 km/h (1 Bft) W-NW 303 ° 0 min 0,000 mm 0,9 UV-I 163 W/m² 3,3 °C 12,6 °C 4,8 km/h (1 Bft)
15.03.2017 16:15 12,7 °C 12,7 °C 54 % 1028,8 hPa 0,0 mm 3,3 km/h (1 Bft) W-NW 303 ° 0 min 0,000 mm 0,9 UV-I 149 W/m² 3,6 °C 12,7 °C 6,4 km/h (2 Bft)
15.03.2017 16:16 12,7 °C 12,7 °C 54 % 1028,8 hPa 0,0 mm 2,5 km/h (1 Bft) W-NW 303 ° 0 min 0,000 mm 0,8 UV-I 135 W/m² 3,6 °C 12,7 °C 3,2 km/h (1 Bft)
15.03.2017 16:17 12,8 °C 12,8 °C 54 % 1028,8 hPa 0,0 mm 2,1 km/h (1 Bft) NW 304 ° 0 min 0,000 mm 0,7 UV-I 125 W/m² 3,7 °C 12,8 °C 4,8 km/h (1 Bft)
15.03.2017 16:18 12,8 °C 12,8 °C 53 % 1028,8 hPa 0,0 mm 3,7 km/h (1 Bft) W-NW 298 ° 0 min 0,000 mm 0,7 UV-I 121 W/m² 3,5 °C 12,8 °C 6,4 km/h (2 Bft)
15.03.2017 16:19 12,7 °C 12,8 °C 53 % 1028,9 hPa 0,0 mm 2,5 km/h (1 Bft) NW 317 ° 0 min 0,000 mm 0,7 UV-I 118 W/m² 3,4 °C 12,7 °C 4,8 km/h (1 Bft)
15.03.2017 16:20 12,7 °C 12,7 °C 51 % 1028,9 hPa 0,0 mm 3,2 km/h (1 Bft) NW 317 ° 0 min 0,000 mm 0,7 UV-I 118 W/m² 2,8 °C 12,7 °C 3,2 km/h (1 Bft)
15.03.2017 16:21 12,7 °C 12,7 °C 51 % 1028,9 hPa 0,0 mm 2,2 km/h (1 Bft) NW 317 ° 0 min 0,000 mm 0,7 UV-I 116 W/m² 2,8 °C 12,7 °C 4,8 km/h (1 Bft)
15.03.2017 16:22 12,6 °C 12,7 °C 51 % 1028,9 hPa 0,0 mm 1,7 km/h (1 Bft) NW 317 ° 0 min 0,000 mm 0,7 UV-I 114 W/m² 2,7 °C 12,6 °C 3,2 km/h (1 Bft)
15.03.2017 16:23 12,6 °C 12,6 °C 52 % 1028,8 hPa 0,0 mm 1,9 km/h (1 Bft) NW 317 ° 0 min 0,000 mm 0,7 UV-I 114 W/m² 3,0 °C 12,6 °C 3,2 km/h (1 Bft)
15.03.2017 16:24 12,6 °C 12,6 °C 52 % 1028,8 hPa 0,0 mm 3,0 km/h (1 Bft) NW 317 ° 0 min 0,000 mm 0,7 UV-I 113 W/m² 3,0 °C 12,6 °C 4,8 km/h (1 Bft)
15.03.2017 16:25 12,6 °C 12,6 °C 51 % 1028,8 hPa 0,0 mm 2,7 km/h (1 Bft) N-NW 327 ° 0 min 0,000 mm 0,7 UV-I 111 W/m² 2,7 °C 12,6 °C 4,8 km/h (1 Bft)
15.03.2017 16:26 12,6 °C 12,6 °C 52 % 1028,9 hPa 0,0 mm 1,7 km/h (1 Bft) N-NW 327 ° 0 min 0,000 mm 0,7 UV-I 111 W/m² 3,0 °C 12,6 °C 3,2 km/h (1 Bft)
15.03.2017 16:27 12,6 °C 12,6 °C 52 % 1028,8 hPa 0,0 mm 3,4 km/h (1 Bft) N 10 ° 0 min 0,000 mm 0,7 UV-I 111 W/m² 3,0 °C 12,6 °C 6,4 km/h (2 Bft)
15.03.2017 16:28 12,6 °C 12,6 °C 53 % 1028,8 hPa 0,0 mm 5,1 km/h (1 Bft) NW 312 ° 0 min 0,000 mm 0,7 UV-I 111 W/m² 3,3 °C 12,6 °C 6,4 km/h (2 Bft)
15.03.2017 16:29 12,6 °C 12,7 °C 52 % 1028,8 hPa 0,0 mm 3,6 km/h (1 Bft) NW 304 ° 0 min 0,000 mm 0,6 UV-I 111 W/m² 3,0 °C 12,6 °C 8,0 km/h (2 Bft)
15.03.2017 16:30 12,6 °C 12,6 °C 52 % 1028,8 hPa 0,0 mm 1,0 km/h (0 Bft) NW 304 ° 0 min 0,000 mm 0,6 UV-I 109 W/m² 3,0 °C 12,6 °C 3,2 km/h (1 Bft)
15.03.2017 16:31 12,6 °C 12,6 °C 52 % 1028,9 hPa 0,0 mm 3,8 km/h (1 Bft) NW 304 ° 0 min 0,000 mm 0,6 UV-I 107 W/m² 3,0 °C 12,6 °C 4,8 km/h (1 Bft)
15.03.2017 16:32 12,6 °C 12,6 °C 53 % 1028,9 hPa 0,0 mm 4,2 km/h (1 Bft) NW 323 ° 0 min 0,000 mm 0,6 UV-I 104 W/m² 3,3 °C 12,6 °C 6,4 km/h (2 Bft)
15.03.2017 16:33 12,6 °C 12,6 °C 53 % 1028,9 hPa 0,0 mm 4,6 km/h (1 Bft) W-NW 300 ° 0 min 0,000 mm 0,6 UV-I 100 W/m² 3,3 °C 12,6 °C 6,4 km/h (2 Bft)
15.03.2017 16:34 12,5 °C 12,6 °C 52 % 1028,8 hPa 0,0 mm 1,6 km/h (1 Bft) W-NW 300 ° 0 min 0,000 mm 0,6 UV-I 97 W/m² 2,9 °C 12,5 °C 3,2 km/h (1 Bft)
15.03.2017 16:35 12,4 °C 12,5 °C 53 % 1028,7 hPa 0,0 mm 0,4 km/h (0 Bft) W-NW 300 ° 0 min 0,000 mm 0,6 UV-I 93 W/m² 3,1 °C 12,4 °C 1,6 km/h (1 Bft)
15.03.2017 16:36 12,4 °C 12,4 °C 52 % 1028,8 hPa 0,0 mm 1,7 km/h (1 Bft) W-NW 303 ° 0 min 0,000 mm 0,6 UV-I 90 W/m² 2,8 °C 12,4 °C 3,2 km/h (1 Bft)
15.03.2017 16:37 12,4 °C 12,4 °C 52 % 1028,7 hPa 0,0 mm 1,7 km/h (1 Bft) W-NW 303 ° 0 min 0,000 mm 0,6 UV-I 88 W/m² 2,8 °C 12,4 °C 3,2 km/h (1 Bft)
15.03.2017 16:38 12,4 °C 12,4 °C 52 % 1028,7 hPa 0,0 mm 1,7 km/h (1 Bft) W-NW 303 ° 0 min 0,000 mm 0,5 UV-I 84 W/m² 2,8 °C 12,4 °C 3,2 km/h (1 Bft)
15.03.2017 16:39 12,4 °C 12,4 °C 53 % 1028,7 hPa 0,0 mm 0,6 km/h (0 Bft) W-NW 303 ° 0 min 0,000 mm 0,5 UV-I 83 W/m² 3,1 °C 12,4 °C 1,6 km/h (1 Bft)
15.03.2017 16:40 12,3 °C 12,4 °C 53 % 1028,7 hPa 0,0 mm 2,8 km/h (1 Bft) N-NW 329 ° 0 min 0,000 mm 0,5 UV-I 83 W/m² 3,0 °C 12,3 °C 4,8 km/h (1 Bft)
15.03.2017 16:41 12,4 °C 12,4 °C 52 % 1028,7 hPa 0,0 mm 3,6 km/h (1 Bft) N 355 ° 0 min 0,000 mm 0,5 UV-I 83 W/m² 2,8 °C 12,4 °C 6,4 km/h (2 Bft)
15.03.2017 16:42 12,4 °C 12,4 °C 52 % 1028,7 hPa 0,0 mm 3,3 km/h (1 Bft) N-NW 333 ° 0 min 0,000 mm 0,5 UV-I 83 W/m² 2,8 °C 12,4 °C 4,8 km/h (1 Bft)
15.03.2017 16:43 12,4 °C 12,4 °C 51 % 1028,7 hPa 0,0 mm 2,8 km/h (1 Bft) N-NW 333 ° 0 min 0,000 mm 0,5 UV-I 81 W/m² 2,6 °C 12,4 °C 4,8 km/h (1 Bft)
15.03.2017 16:44 12,4 °C 12,4 °C 52 % 1028,8 hPa 0,0 mm 1,7 km/h (1 Bft) N 355 ° 0 min 0,000 mm 0,5 UV-I 83 W/m² 2,8 °C 12,4 °C 3,2 km/h (1 Bft)
15.03.2017 16:45 12,4 °C 12,4 °C 53 % 1028,7 hPa 0,0 mm 2,8 km/h (1 Bft) N 355 ° 0 min 0,000 mm 0,5 UV-I 83 W/m² 3,1 °C 12,4 °C 3,2 km/h (1 Bft)
15.03.2017 16:46 12,3 °C 12,4 °C 54 % 1028,7 hPa 0,0 mm 4,5 km/h (1 Bft) N-NW 347 ° 0 min 0,000 mm 0,5 UV-I 84 W/m² 3,3 °C 12,3 °C 6,4 km/h (2 Bft)
15.03.2017 16:47 12,3 °C 12,4 °C 55 % 1028,8 hPa 0,0 mm 3,0 km/h (1 Bft) N-NW 347 ° 0 min 0,000 mm 0,5 UV-I 84 W/m² 3,5 °C 12,3 °C 3,2 km/h (1 Bft)
15.03.2017 16:48 12,3 °C 12,3 °C 56 % 1028,7 hPa 0,0 mm 2,3 km/h (1 Bft) N-NW 347 ° 0 min 0,000 mm 0,5 UV-I 84 W/m² 3,8 °C 12,3 °C 3,2 km/h (1 Bft)
15.03.2017 16:49 12,2 °C 12,3 °C 57 % 1028,7 hPa 0,0 mm 2,4 km/h (1 Bft) N-NW 347 ° 0 min 0,000 mm 0,5 UV-I 84 W/m² 3,9 °C 12,2 °C 3,2 km/h (1 Bft)
15.03.2017 16:50 12,2 °C 12,2 °C 58 % 1028,7 hPa 0,0 mm 3,2 km/h (1 Bft) N 360 ° 0 min 0,000 mm 0,5 UV-I 84 W/m² 4,2 °C 12,2 °C 4,8 km/h (1 Bft)
15.03.2017 16:51 12,2 °C 12,2 °C 58 % 1028,7 hPa 0,0 mm 1,7 km/h (1 Bft) N 360 ° 0 min 0,000 mm 0,5 UV-I 84 W/m² 4,2 °C 12,2 °C 3,2 km/h (1 Bft)
15.03.2017 16:52 12,1 °C 12,2 °C 59 % 1028,7 hPa 0,0 mm 2,5 km/h (1 Bft) N 360 ° 0 min 0,000 mm 0,5 UV-I 84 W/m² 4,3 °C 12,1 °C 3,2 km/h (1 Bft)
15.03.2017 16:53 12,1 °C 12,1 °C 59 % 1028,7 hPa 0,0 mm 1,1 km/h (1 Bft) N 360 ° 0 min 0,000 mm 0,5 UV-I 84 W/m² 4,3 °C 12,1 °C 1,6 km/h (1 Bft)
15.03.2017 16:54 12,1 °C 12,1 °C 60 % 1028,7 hPa 0,0 mm 2,3 km/h (1 Bft) N 360 ° 0 min 0,000 mm 0,5 UV-I 86 W/m² 4,6 °C 12,1 °C 3,2 km/h (1 Bft)
15.03.2017 16:55 12,1 °C 12,1 °C 60 % 1028,7 hPa 0,0 mm 1,9 km/h (1 Bft) N 360 ° 0 min 0,000 mm 0,5 UV-I 84 W/m² 4,6 °C 12,1 °C 3,2 km/h (1 Bft)
15.03.2017 16:56 12,1 °C 12,1 °C 60 % 1028,6 hPa 0,0 mm 0,7 km/h (0 Bft) N 360 ° 0 min 0,000 mm 0,5 UV-I 84 W/m² 4,6 °C 12,1 °C 1,6 km/h (1 Bft)
15.03.2017 16:57 11,9 °C 12,1 °C 60 % 1028,7 hPa 0,0 mm 2,6 km/h (1 Bft) N 360 ° 0 min 0,000 mm 0,5 UV-I 83 W/m² 4,4 °C 11,9 °C 3,2 km/h (1 Bft)
15.03.2017 16:58 11,9 °C 12,0 °C 60 % 1028,7 hPa 0,0 mm 3,3 km/h (1 Bft) N 360 ° 0 min 0,000 mm 0,5 UV-I 81 W/m² 4,4 °C 11,9 °C 4,8 km/h (1 Bft)
15.03.2017 16:59 12,0 °C 12,0 °C 60 % 1028,8 hPa 0,0 mm 1,6 km/h (1 Bft) N 360 ° 0 min 0,000 mm 0,0 UV-I 81 W/m² 4,5 °C 12,0 °C 3,2 km/h (1 Bft)
15.03.2017 17:00 12,0 °C 12,0 °C 59 % 1028,8 hPa 0,0 mm 1,2 km/h (1 Bft) N 360 ° 0 min 0,076 mm 0,0 UV-I 79 W/m² 4,2 °C 12,0 °C 1,6 km/h (1 Bft)
15.03.2017 17:01 11,9 °C 12,0 °C 59 % 1028,8 hPa 0,0 mm 3,9 km/h (1 Bft) W-NW 302 ° 0 min 0,000 mm 0,0 UV-I 77 W/m² 4,1 °C 11,9 °C 6,4 km/h (2 Bft)
15.03.2017 17:02 11,9 °C 12,0 °C 60 % 1028,8 hPa 0,0 mm 4,2 km/h (1 Bft) NW 321 ° 0 min 0,000 mm 0,0 UV-I 77 W/m² 4,4 °C 11,9 °C 6,4 km/h (2 Bft)
15.03.2017 17:03 11,9 °C 11,9 °C 60 % 1028,8 hPa 0,0 mm 1,6 km/h (1 Bft) NW 321 ° 0 min 0,000 mm 0,0 UV-I 76 W/m² 4,4 °C 11,9 °C 3,2 km/h (1 Bft)
15.03.2017 17:04 11,9 °C 11,9 °C 60 % 1028,8 hPa 0,0 mm 2,7 km/h (1 Bft) NW 321 ° 0 min 0,000 mm 0,0 UV-I 76 W/m² 4,4 °C 11,9 °C 3,2 km/h (1 Bft)
15.03.2017 17:05 11,8 °C 11,9 °C 61 % 1028,8 hPa 0,0 mm 3,6 km/h (1 Bft) N-NW 342 ° 0 min 0,000 mm 0,0 UV-I 76 W/m² 4,5 °C 11,8 °C 4,8 km/h (1 Bft)
15.03.2017 17:06 11,8 °C 11,8 °C 61 % 1028,8 hPa 0,0 mm 2,6 km/h (1 Bft) N-NW 333 ° 0 min 0,000 mm 0,0 UV-I 76 W/m² 4,5 °C 11,8 °C 4,8 km/h (1 Bft)
15.03.2017 17:07 11,8 °C 11,8 °C 61 % 1028,8 hPa 0,0 mm 3,7 km/h (1 Bft) N-NW 333 ° 0 min 0,000 mm 0,0 UV-I 76 W/m² 4,5 °C 11,8 °C 4,8 km/h (1 Bft)
15.03.2017 17:08 11,8 °C 11,8 °C 61 % 1028,8 hPa 0,0 mm 2,3 km/h (1 Bft) N-NW 333 ° 0 min 0,000 mm 0,0 UV-I 74 W/m² 4,5 °C 11,8 °C 3,2 km/h (1 Bft)
15.03.2017 17:09 11,8 °C 11,8 °C 61 % 1028,8 hPa 0,0 mm 2,3 km/h (1 Bft) O-NO 59 ° 0 min 0,000 mm 0,0 UV-I 72 W/m² 4,5 °C 11,8 °C 6,4 km/h (2 Bft)
15.03.2017 17:10 11,7 °C 11,8 °C 62 % 1028,8 hPa 0,0 mm 4,0 km/h (1 Bft) NO 51 ° 0 min 0,000 mm 0,0 UV-I 72 W/m² 4,7 °C 11,7 °C 6,4 km/h (2 Bft)
15.03.2017 17:11 11,7 °C 11,7 °C 62 % 1028,8 hPa 0,0 mm 5,6 km/h (1 Bft) NO 40 ° 0 min 0,000 mm 0,0 UV-I 69 W/m² 4,7 °C 11,7 °C 6,4 km/h (2 Bft)
15.03.2017 17:12 11,6 °C 11,7 °C 61 % 1028,9 hPa 0,0 mm 3,4 km/h (1 Bft) NO 53 ° 0 min 0,000 mm 0,0 UV-I 69 W/m² 4,3 °C 11,6 °C 4,8 km/h (1 Bft)
15.03.2017 17:13 11,6 °C 11,6 °C 62 % 1028,8 hPa 0,0 mm 3,9 km/h (1 Bft) NO 53 ° 0 min 0,000 mm 0,0 UV-I 67 W/m² 4,6 °C 11,6 °C 4,8 km/h (1 Bft)
15.03.2017 17:14 11,6 °C 11,6 °C 62 % 1028,9 hPa 0,0 mm 3,8 km/h (1 Bft) N-NO 28 ° 0 min 0,000 mm 0,0 UV-I 65 W/m² 4,6 °C 11,6 °C 6,4 km/h (2 Bft)
15.03.2017 17:15 11,6 °C 11,6 °C 62 % 1028,9 hPa 0,0 mm 2,4 km/h (1 Bft) N-NO 28 ° 0 min 0,000 mm 0,0 UV-I 65 W/m² 4,6 °C 11,6 °C 3,2 km/h (1 Bft)
15.03.2017 17:16 11,5 °C 11,6 °C 62 % 1028,9 hPa 0,0 mm 2,8 km/h (1 Bft) N-NO 28 ° 0 min 0,000 mm 0,0 UV-I 63 W/m² 4,5 °C 11,5 °C 3,2 km/h (1 Bft)
15.03.2017 17:17 11,6 °C 11,6 °C 62 % 1028,9 hPa 0,0 mm 3,4 km/h (1 Bft) N-NO 28 ° 0 min 0,000 mm 0,0 UV-I 63 W/m² 4,6 °C 11,6 °C 4,8 km/h (1 Bft)
15.03.2017 17:18 11,5 °C 11,6 °C 63 % 1028,9 hPa 0,0 mm 2,7 km/h (1 Bft) N-NO 28 ° 0 min 0,000 mm 0,0 UV-I 62 W/m² 4,7 °C 11,5 °C 3,2 km/h (1 Bft)
15.03.2017 17:19 11,4 °C 11,5 °C 63 % 1028,9 hPa 0,0 mm 2,7 km/h (1 Bft) N-NO 28 ° 0 min 0,000 mm 0,0 UV-I 60 W/m² 4,6 °C 11,4 °C 4,8 km/h (1 Bft)
15.03.2017 17:20 11,3 °C 11,4 °C 64 % 1028,9 hPa 0,0 mm 2,3 km/h (1 Bft) NO 48 ° 0 min 0,000 mm 0,0 UV-I 58 W/m² 4,7 °C 11,3 °C 4,8 km/h (1 Bft)
15.03.2017 17:21 11,3 °C 11,3 °C 63 % 1028,8 hPa 0,0 mm 2,3 km/h (1 Bft) NO 48 ° 0 min 0,000 mm 0,0 UV-I 58 W/m² 4,5 °C 11,3 °C 4,8 km/h (1 Bft)
15.03.2017 17:22 11,3 °C 11,3 °C 63 % 1028,9 hPa 0,0 mm 2,8 km/h (1 Bft) NO 47 ° 0 min 0,000 mm 0,0 UV-I 56 W/m² 4,5 °C 11,3 °C 4,8 km/h (1 Bft)
15.03.2017 17:23 11,3 °C 11,3 °C 63 % 1028,9 hPa 0,0 mm 3,9 km/h (1 Bft) N-NO 16 ° 0 min 0,000 mm 0,0 UV-I 56 W/m² 4,5 °C 11,3 °C 6,4 km/h (2 Bft)
15.03.2017 17:24 11,4 °C 11,4 °C 63 % 1028,9 hPa 0,0 mm 3,6 km/h (1 Bft) N-NO 16 ° 0 min 0,000 mm 0,0 UV-I 54 W/m² 4,6 °C 11,4 °C 4,8 km/h (1 Bft)
15.03.2017 17:25 11,4 °C 11,4 °C 64 % 1028,9 hPa 0,0 mm 3,2 km/h (1 Bft) NO 41 ° 0 min 0,000 mm 0,0 UV-I 53 W/m² 4,8 °C 11,4 °C 4,8 km/h (1 Bft)
15.03.2017 17:26 11,3 °C 11,4 °C 64 % 1028,9 hPa 0,0 mm 2,2 km/h (1 Bft) NO 41 ° 0 min 0,000 mm 0,0 UV-I 51 W/m² 4,7 °C 11,3 °C 3,2 km/h (1 Bft)
15.03.2017 17:27 11,3 °C 11,3 °C 65 % 1028,9 hPa 0,0 mm 1,2 km/h (1 Bft) NO 41 ° 0 min 0,000 mm 0,0 UV-I 51 W/m² 5,0 °C 11,3 °C 3,2 km/h (1 Bft)
15.03.2017 17:28 11,2 °C 11,3 °C 64 % 1028,9 hPa 0,0 mm 3,2 km/h (1 Bft) NO 40 ° 0 min 0,000 mm 0,0 UV-I 51 W/m² 4,6 °C 11,2 °C 4,8 km/h (1 Bft)
15.03.2017 17:29 11,2 °C 11,3 °C 63 % 1029,0 hPa 0,0 mm 5,7 km/h (1 Bft) NO 44 ° 0 min 0,000 mm 0,0 UV-I 51 W/m² 4,4 °C 11,2 °C 6,4 km/h (2 Bft)
15.03.2017 17:30 11,3 °C 11,3 °C 63 % 1029,0 hPa 0,0 mm 2,8 km/h (1 Bft) NO 44 ° 0 min 0,000 mm 0,0 UV-I 51 W/m² 4,5 °C 11,3 °C 4,8 km/h (1 Bft)
15.03.2017 17:31 11,3 °C 11,3 °C 63 % 1029,0 hPa 0,0 mm 2,5 km/h (1 Bft) NO 44 ° 0 min 0,000 mm 0,0 UV-I 51 W/m² 4,5 °C 11,3 °C 4,8 km/h (1 Bft)
15.03.2017 17:32 11,3 °C 11,3 °C 64 % 1029,0 hPa 0,0 mm 2,7 km/h (1 Bft) NO 44 ° 0 min 0,000 mm 0,0 UV-I 49 W/m² 4,7 °C 11,3 °C 3,2 km/h (1 Bft)
15.03.2017 17:33 11,2 °C 11,3 °C 64 % 1029,1 hPa 0,0 mm 3,8 km/h (1 Bft) N-NO 27 ° 0 min 0,000 mm 0,0 UV-I 49 W/m² 4,6 °C 11,2 °C 4,8 km/h (1 Bft)
15.03.2017 17:34 11,2 °C 11,3 °C 64 % 1029,1 hPa 0,0 mm 3,5 km/h (1 Bft) N-NO 27 ° 0 min 0,000 mm 0,0 UV-I 49 W/m² 4,6 °C 11,2 °C 4,8 km/h (1 Bft)
15.03.2017 17:35 11,3 °C 11,3 °C 64 % 1029,1 hPa 0,0 mm 3,1 km/h (1 Bft) N-NO 27 ° 0 min 0,000 mm 0,0 UV-I 49 W/m² 4,7 °C 11,3 °C 4,8 km/h (1 Bft)
15.03.2017 17:36 11,2 °C 11,3 °C 64 % 1029,0 hPa 0,0 mm 1,6 km/h (1 Bft) N-NO 27 ° 0 min 0,000 mm 0,0 UV-I 49 W/m² 4,6 °C 11,2 °C 3,2 km/h (1 Bft)
15.03.2017 17:37 11,2 °C 11,3 °C 64 % 1028,9 hPa 0,0 mm 2,3 km/h (1 Bft) N-NO 27 ° 0 min 0,000 mm 0,0 UV-I 47 W/m² 4,6 °C 11,2 °C 3,2 km/h (1 Bft)
15.03.2017 17:38 11,2 °C 11,2 °C 64 % 1028,9 hPa 0,0 mm 1,0 km/h (0 Bft) N-NO 27 ° 0 min 0,000 mm 0,0 UV-I 46 W/m² 4,6 °C 11,2 °C 3,2 km/h (1 Bft)
15.03.2017 17:39 11,2 °C 11,2 °C 64 % 1028,9 hPa 0,0 mm 0,2 km/h (0 Bft) N-NO 27 ° 0 min 0,000 mm 0,0 UV-I 46 W/m² 4,6 °C 11,2 °C 1,6 km/h (1 Bft)
15.03.2017 17:40 11,2 °C 11,2 °C 64 % 1028,9 hPa 0,0 mm 0,6 km/h (0 Bft) N-NO 27 ° 0 min 0,000 mm 0,0 UV-I 44 W/m² 4,6 °C 11,2 °C 1,6 km/h (1 Bft)
15.03.2017 17:41 11,2 °C 11,2 °C 65 % 1028,9 hPa 0,0 mm 0,7 km/h (0 Bft) N-NO 27 ° 0 min 0,000 mm 0,0 UV-I 42 W/m² 4,9 °C 11,2 °C 1,6 km/h (1 Bft)
15.03.2017 17:42 11,1 °C 11,2 °C 65 % 1028,9 hPa 0,0 mm 0,0 km/h (0 Bft) N-NO 27 ° 0 min 0,000 mm 0,0 UV-I 40 W/m² 4,8 °C 11,1 °C 0,0 km/h (0 Bft)
15.03.2017 17:43 10,9 °C 11,1 °C 66 % 1028,9 hPa 0,0 mm 0,6 km/h (0 Bft) N-NO 27 ° 0 min 0,000 mm 0,0 UV-I 39 W/m² 4,8 °C 10,9 °C 1,6 km/h (1 Bft)
15.03.2017 17:44 10,8 °C 10,9 °C 66 % 1028,9 hPa 0,0 mm 0,5 km/h (0 Bft) N-NO 27 ° 0 min 0,000 mm 0,0 UV-I 39 W/m² 4,7 °C 10,8 °C 1,6 km/h (1 Bft)
15.03.2017 17:45 10,7 °C 10,8 °C 66 % 1029,0 hPa 0,0 mm 0,3 km/h (0 Bft) N-NO 27 ° 0 min 0,000 mm 0,0 UV-I 37 W/m² 4,6 °C 10,7 °C 1,6 km/h (1 Bft)
15.03.2017 17:46 10,7 °C 10,8 °C 66 % 1028,9 hPa 0,0 mm 0,9 km/h (0 Bft) N-NO 27 ° 0 min 0,000 mm 0,0 UV-I 35 W/m² 4,6 °C 10,7 °C 1,6 km/h (1 Bft)
15.03.2017 17:47 10,6 °C 10,7 °C 68 % 1028,9 hPa 0,0 mm 1,9 km/h (1 Bft) N-NO 27 ° 0 min 0,000 mm 0,0 UV-I 35 W/m² 4,9 °C 10,6 °C 3,2 km/h (1 Bft)
15.03.2017 17:48 10,5 °C 10,6 °C 68 % 1028,9 hPa 0,0 mm 2,3 km/h (1 Bft) N-NO 27 ° 0 min 0,000 mm 0,0 UV-I 32 W/m² 4,8 °C 10,5 °C 3,2 km/h (1 Bft)
15.03.2017 17:49 10,4 °C 10,5 °C 68 % 1029,0 hPa 0,0 mm 3,0 km/h (1 Bft) N-NO 15 ° 0 min 0,000 mm 0,0 UV-I 32 W/m² 4,8 °C 10,4 °C 6,4 km/h (2 Bft)
15.03.2017 17:50 10,4 °C 10,4 °C 68 % 1029,0 hPa 0,0 mm 5,3 km/h (1 Bft) N 360 ° 0 min 0,000 mm 0,0 UV-I 32 W/m² 4,8 °C 10,4 °C 8,0 km/h (2 Bft)
15.03.2017 17:51 10,4 °C 10,4 °C 67 % 1029,0 hPa 0,0 mm 3,5 km/h (1 Bft) N 5 ° 0 min 0,000 mm 0,0 UV-I 30 W/m² 4,5 °C 10,4 °C 6,4 km/h (2 Bft)
15.03.2017 17:52 10,4 °C 10,4 °C 67 % 1029,0 hPa 0,0 mm 1,7 km/h (1 Bft) N 5 ° 0 min 0,000 mm 0,0 UV-I 28 W/m² 4,5 °C 10,4 °C 3,2 km/h (1 Bft)
15.03.2017 17:53 10,3 °C 10,4 °C 68 % 1029,1 hPa 0,0 mm 1,9 km/h (1 Bft) N 5 ° 0 min 0,000 mm 0,0 UV-I 26 W/m² 4,7 °C 10,3 °C 3,2 km/h (1 Bft)
15.03.2017 17:54 10,3 °C 10,3 °C 67 % 1029,2 hPa 0,0 mm 4,6 km/h (1 Bft) NO 36 ° 0 min 0,000 mm 0,0 UV-I 25 W/m² 4,4 °C 10,3 °C 6,4 km/h (2 Bft)
15.03.2017 17:55 10,4 °C 10,4 °C 67 % 1029,1 hPa 0,0 mm 4,5 km/h (1 Bft) O 80 ° 0 min 0,000 mm 0,0 UV-I 23 W/m² 4,5 °C 10,4 °C 6,4 km/h (2 Bft)
15.03.2017 17:56 10,4 °C 10,4 °C 67 % 1029,2 hPa 0,0 mm 6,3 km/h (2 Bft) NO 54 ° 0 min 0,000 mm 0,0 UV-I 21 W/m² 4,5 °C 10,4 °C 8,0 km/h (2 Bft)
15.03.2017 17:57 10,3 °C 10,4 °C 67 % 1029,2 hPa 0,0 mm 4,4 km/h (1 Bft) O-NO 60 ° 0 min 0,000 mm 0,0 UV-I 21 W/m² 4,4 °C 10,3 °C 8,0 km/h (2 Bft)
15.03.2017 17:58 10,3 °C 10,3 °C 67 % 1029,3 hPa 0,0 mm 4,8 km/h (1 Bft) O 84 ° 0 min 0,000 mm 0,0 UV-I 19 W/m² 4,4 °C 10,3 °C 6,4 km/h (2 Bft)
15.03.2017 17:59 10,2 °C 10,3 °C 67 % 1029,3 hPa 0,0 mm 4,9 km/h (1 Bft) O 82 ° 0 min 0,000 mm 0,0 UV-I 19 W/m² 4,4 °C 10,2 °C 8,0 km/h (2 Bft)
15.03.2017 18:00 10,2 °C 10,2 °C 67 % 1029,3 hPa 0,0 mm 5,3 km/h (1 Bft) O-NO 71 ° 0 min 0,000 mm 0,0 UV-I 16 W/m² 4,4 °C 10,2 °C 8,0 km/h (2 Bft)
15.03.2017 18:01 10,1 °C 10,2 °C 68 % 1029,3 hPa 0,0 mm 5,4 km/h (1 Bft) NO 51 ° 0 min 0,051 mm 0,0 UV-I 16 W/m² 4,5 °C 10,1 °C 8,0 km/h (2 Bft)
15.03.2017 18:02 10,1 °C 10,1 °C 68 % 1029,3 hPa 0,0 mm 3,4 km/h (1 Bft) NO 52 ° 0 min 0,000 mm 0,0 UV-I 14 W/m² 4,5 °C 10,1 °C 4,8 km/h (1 Bft)
15.03.2017 18:03 10,0 °C 10,1 °C 67 % 1029,3 hPa 0,0 mm 3,8 km/h (1 Bft) O-NO 69 ° 0 min 0,000 mm 0,0 UV-I 14 W/m² 4,2 °C 10,0 °C 4,8 km/h (1 Bft)
15.03.2017 18:04 9,9 °C 10,0 °C 68 % 1029,4 hPa 0,0 mm 3,3 km/h (1 Bft) O-NO 59 ° 0 min 0,000 mm 0,0 UV-I 14 W/m² 4,3 °C 9,9 °C 4,8 km/h (1 Bft)
15.03.2017 18:05 9,8 °C 9,9 °C 68 % 1029,3 hPa 0,0 mm 3,6 km/h (1 Bft) O-NO 67 ° 0 min 0,000 mm 0,0 UV-I 12 W/m² 4,2 °C 9,8 °C 6,4 km/h (2 Bft)
15.03.2017 18:06 9,7 °C 9,8 °C 69 % 1029,5 hPa 0,0 mm 3,8 km/h (1 Bft) NO 40 ° 0 min 0,000 mm 0,0 UV-I 11 W/m² 4,3 °C 9,7 °C 8,0 km/h (2 Bft)
15.03.2017 18:07 9,6 °C 9,7 °C 69 % 1029,4 hPa 0,0 mm 1,0 km/h (0 Bft) NO 40 ° 0 min 0,000 mm 0,0 UV-I 11 W/m² 4,2 °C 9,6 °C 3,2 km/h (1 Bft)
15.03.2017 18:08 9,6 °C 9,7 °C 69 % 1029,4 hPa 0,0 mm 2,7 km/h (1 Bft) NO 40 ° 0 min 0,000 mm 0,0 UV-I 11 W/m² 4,2 °C 9,6 °C 4,8 km/h (1 Bft)
15.03.2017 18:09 9,4 °C 9,6 °C 71 % 1029,4 hPa 0,0 mm 2,1 km/h (1 Bft) NO 40 ° 0 min 0,000 mm 0,0 UV-I 11 W/m² 4,4 °C 9,4 °C 3,2 km/h (1 Bft)
15.03.2017 18:10 9,3 °C 9,4 °C 70 % 1029,4 hPa 0,0 mm 2,9 km/h (1 Bft) NO 41 ° 0 min 0,000 mm 0,0 UV-I 9 W/m² 4,1 °C 9,3 °C 4,8 km/h (1 Bft)
15.03.2017 18:11 9,2 °C 9,3 °C 70 % 1029,4 hPa 0,0 mm 2,8 km/h (1 Bft) O-NO 59 ° 0 min 0,000 mm 0,0 UV-I 9 W/m² 4,0 °C 9,2 °C 4,8 km/h (1 Bft)
15.03.2017 18:12 9,1 °C 9,2 °C 71 % 1029,4 hPa 0,0 mm 3,7 km/h (1 Bft) O-NO 65 ° 0 min 0,000 mm 0,0 UV-I 9 W/m² 4,1 °C 9,1 °C 4,8 km/h (1 Bft)
15.03.2017 18:13 9,0 °C 9,1 °C 71 % 1029,5 hPa 0,0 mm 2,4 km/h (1 Bft) O-NO 65 ° 0 min 0,000 mm 0,0 UV-I 7 W/m² 4,0 °C 9,0 °C 4,8 km/h (1 Bft)
15.03.2017 18:14 8,9 °C 9,0 °C 71 % 1029,5 hPa 0,0 mm 4,3 km/h (1 Bft) O 82 ° 0 min 0,000 mm 0,0 UV-I 7 W/m² 3,9 °C 8,9 °C 6,4 km/h (2 Bft)
15.03.2017 18:15 9,0 °C 9,0 °C 71 % 1029,5 hPa 0,0 mm 3,2 km/h (1 Bft) O-SO 121 ° 0 min 0,000 mm 0,0 UV-I 5 W/m² 4,0 °C 9,0 °C 8,0 km/h (2 Bft)
15.03.2017 18:16 9,0 °C 9,0 °C 71 % 1029,5 hPa 0,0 mm 3,4 km/h (1 Bft) O-NO 71 ° 0 min 0,000 mm 0,0 UV-I 5 W/m² 4,0 °C 9,0 °C 6,4 km/h (2 Bft)
15.03.2017 18:17 8,9 °C 9,0 °C 71 % 1029,5 hPa 0,0 mm 4,4 km/h (1 Bft) O 99 ° 0 min 0,000 mm 0,0 UV-I 5 W/m² 3,9 °C 8,9 °C 6,4 km/h (2 Bft)
15.03.2017 18:18 8,8 °C 8,9 °C 71 % 1029,5 hPa 0,0 mm 5,2 km/h (1 Bft) NO 54 ° 0 min 0,000 mm 0,0 UV-I 0 W/m² 3,8 °C 8,3 °C 8,0 km/h (2 Bft)
15.03.2017 18:19 8,7 °C 8,8 °C 71 % 1029,5 hPa 0,0 mm 6,3 km/h (2 Bft) O-NO 72 ° 0 min 0,000 mm 0,0 UV-I 0 W/m² 3,7 °C 7,9 °C 9,7 km/h (2 Bft)
15.03.2017 18:20 8,7 °C 8,7 °C 71 % 1029,5 hPa 0,0 mm 6,4 km/h (2 Bft) O 93 ° 0 min 0,000 mm 0,0 UV-I 0 W/m² 3,7 °C 7,9 °C 11,3 km/h (2 Bft)
15.03.2017 18:21 8,6 °C 8,7 °C 71 % 1029,5 hPa 0,0 mm 3,4 km/h (1 Bft) O 93 ° 0 min 0,000 mm 0,0 UV-I 0 W/m² 3,6 °C 8,6 °C 4,8 km/h (1 Bft)
15.03.2017 18:22 8,6 °C 8,6 °C 71 % 1029,6 hPa 0,0 mm 1,9 km/h (1 Bft) O 93 ° 0 min 0,000 mm 0,0 UV-I 0 W/m² 3,6 °C 8,6 °C 4,8 km/h (1 Bft)
15.03.2017 18:23 8,5 °C 8,6 °C 72 % 1029,5 hPa 0,0 mm 2,1 km/h (1 Bft) O 93 ° 0 min 0,000 mm 0,0 UV-I 0 W/m² 3,7 °C 8,5 °C 4,8 km/h (1 Bft)
15.03.2017 18:24 8,5 °C 8,6 °C 71 % 1029,5 hPa 0,0 mm 1,5 km/h (1 Bft) O 93 ° 0 min 0,000 mm 0,0 UV-I 0 W/m² 3,5 °C 8,5 °C 4,8 km/h (1 Bft)
15.03.2017 18:25 8,3 °C 8,5 °C 71 % 1029,5 hPa 0,0 mm 2,3 km/h (1 Bft) O 93 ° 0 min 0,000 mm 0,0 UV-I 0 W/m² 3,4 °C 8,3 °C 4,8 km/h (1 Bft)
15.03.2017 18:26 8,2 °C 8,3 °C 72 % 1029,5 hPa 0,0 mm 1,5 km/h (1 Bft) O 93 ° 0 min 0,000 mm 0,0 UV-I 0 W/m² 3,5 °C 8,2 °C 3,2 km/h (1 Bft)
15.03.2017 18:27 8,2 °C 8,3 °C 72 % 1029,5 hPa 0,0 mm 1,3 km/h (1 Bft) O 93 ° 0 min 0,000 mm 0,0 UV-I 0 W/m² 3,5 °C 8,2 °C 3,2 km/h (1 Bft)
15.03.2017 18:28 8,2 °C 8,2 °C 72 % 1029,6 hPa 0,0 mm 2,4 km/h (1 Bft) O 93 ° 0 min 0,000 mm 0,0 UV-I 0 W/m² 3,5 °C 8,2 °C 3,2 km/h (1 Bft)
15.03.2017 18:29 8,1 °C 8,2 °C 72 % 1029,5 hPa 0,0 mm 2,5 km/h (1 Bft) O 93 ° 0 min 0,000 mm 0,0 UV-I 0 W/m² 3,4 °C 8,1 °C 3,2 km/h (1 Bft)
15.03.2017 18:30 8,1 °C 8,1 °C 72 % 1029,5 hPa 0,0 mm 1,5 km/h (1 Bft) O 93 ° 0 min 0,000 mm 0,0 UV-I 0 W/m² 3,4 °C 8,1 °C 3,2 km/h (1 Bft)
15.03.2017 18:31 8,1 °C 8,1 °C 71 % 1029,5 hPa 0,0 mm 3,1 km/h (1 Bft) O 93 ° 0 min 0,000 mm 0,0 UV-I 0 W/m² 3,2 °C 8,1 °C 4,8 km/h (1 Bft)
15.03.2017 18:32 8,1 °C 8,1 °C 72 % 1029,5 hPa 0,0 mm 2,1 km/h (1 Bft) O 93 ° 0 min 0,000 mm 0,0 UV-I 0 W/m² 3,4 °C 8,1 °C 3,2 km/h (1 Bft)
15.03.2017 18:33 8,0 °C 8,1 °C 72 % 1029,5 hPa 0,0 mm 2,8 km/h (1 Bft) O 93 ° 0 min 0,000 mm 0,0 UV-I 0 W/m² 3,3 °C 8,0 °C 4,8 km/h (1 Bft)
15.03.2017 18:34 8,0 °C 8,1 °C 71 % 1029,5 hPa 0,0 mm 3,4 km/h (1 Bft) O 93 ° 0 min 0,000 mm 0,0 UV-I 0 W/m² 3,1 °C 8,0 °C 4,8 km/h (1 Bft)
15.03.2017 18:35 7,9 °C 8,0 °C 73 % 1029,5 hPa 0,0 mm 3,0 km/h (1 Bft) O 93 ° 0 min 0,000 mm 0,0 UV-I 0 W/m² 3,4 °C 7,9 °C 3,2 km/h (1 Bft)
15.03.2017 18:36 7,9 °C 7,9 °C 72 % 1029,6 hPa 0,0 mm 2,5 km/h (1 Bft) O 93 ° 0 min 0,000 mm 0,0 UV-I 0 W/m² 3,2 °C 7,9 °C 3,2 km/h (1 Bft)
15.03.2017 18:37 7,8 °C 7,9 °C 73 % 1029,6 hPa 0,0 mm 1,9 km/h (1 Bft) O 93 ° 0 min 0,000 mm 0,0 UV-I 0 W/m² 3,3 °C 7,8 °C 3,2 km/h (1 Bft)
15.03.2017 18:38 7,9 °C 7,9 °C 72 % 1029,6 hPa 0,0 mm 2,4 km/h (1 Bft) O 93 ° 0 min 0,000 mm 0,0 UV-I 0 W/m² 3,2 °C 7,9 °C 3,2 km/h (1 Bft)
15.03.2017 18:39 7,8 °C 7,9 °C 73 % 1029,6 hPa 0,0 mm 2,9 km/h (1 Bft) O 93 ° 0 min 0,000 mm 0,0 UV-I 0 W/m² 3,3 °C 7,8 °C 3,2 km/h (1 Bft)
15.03.2017 18:40 7,8 °C 7,8 °C 73 % 1029,5 hPa 0,0 mm 0,8 km/h (0 Bft) O 93 ° 0 min 0,000 mm 0,0 UV-I 0 W/m² 3,3 °C 7,8 °C 3,2 km/h (1 Bft)
15.03.2017 18:41 7,7 °C 7,8 °C 73 % 1029,6 hPa 0,0 mm 2,2 km/h (1 Bft) O 93 ° 0 min 0,000 mm 0,0 UV-I 0 W/m² 3,2 °C 7,7 °C 4,8 km/h (1 Bft)
15.03.2017 18:42 7,7 °C 7,7 °C 73 % 1029,5 hPa 0,0 mm 2,3 km/h (1 Bft) O 93 ° 0 min 0,000 mm 0,0 UV-I 0 W/m² 3,2 °C 7,7 °C 3,2 km/h (1 Bft)
15.03.2017 18:43 7,7 °C 7,7 °C 73 % 1029,5 hPa 0,0 mm 3,0 km/h (1 Bft) O 93 ° 0 min 0,000 mm 0,0 UV-I 0 W/m² 3,2 °C 7,7 °C 4,8 km/h (1 Bft)
15.03.2017 18:44 7,7 °C 7,7 °C 74 % 1029,5 hPa 0,0 mm 3,3 km/h (1 Bft) O 93 ° 0 min 0,000 mm 0,0 UV-I 0 W/m² 3,4 °C 7,7 °C 4,8 km/h (1 Bft)
15.03.2017 18:45 7,7 °C 7,7 °C 74 % 1029,5 hPa 0,0 mm 3,4 km/h (1 Bft) O 94 ° 0 min 0,000 mm 0,0 UV-I 0 W/m² 3,4 °C 7,7 °C 4,8 km/h (1 Bft)
15.03.2017 18:46 7,6 °C 7,7 °C 74 % 1029,5 hPa 0,0 mm 3,2 km/h (1 Bft) SO 145 ° 0 min 0,000 mm 0,0 UV-I 0 W/m² 3,3 °C 7,6 °C 6,4 km/h (2 Bft)
15.03.2017 18:47 7,6 °C 7,7 °C 74 % 1029,5 hPa 0,0 mm 2,7 km/h (1 Bft) SO 146 ° 0 min 0,000 mm 0,0 UV-I 0 W/m² 3,3 °C 7,6 °C 4,8 km/h (1 Bft)
15.03.2017 18:48 7,6 °C 7,6 °C 74 % 1029,5 hPa 0,0 mm 3,3 km/h (1 Bft) SO 146 ° 0 min 0,000 mm 0,0 UV-I 0 W/m² 3,3 °C 7,6 °C 4,8 km/h (1 Bft)
15.03.2017 18:49 7,6 °C 7,6 °C 74 % 1029,5 hPa 0,0 mm 2,6 km/h (1 Bft) SO 146 ° 0 min 0,000 mm 0,0 UV-I 0 W/m² 3,3 °C 7,6 °C 4,8 km/h (1 Bft)
15.03.2017 18:50 7,4 °C 7,6 °C 74 % 1029,5 hPa 0,0 mm 1,3 km/h (1 Bft) SO 146 ° 0 min 0,000 mm 0,0 UV-I 0 W/m² 3,1 °C 7,4 °C 4,8 km/h (1 Bft)
15.03.2017 18:51 7,4 °C 7,4 °C 74 % 1029,5 hPa 0,0 mm 3,2 km/h (1 Bft) SO 146 ° 0 min 0,000 mm 0,0 UV-I 0 W/m² 3,1 °C 7,4 °C 4,8 km/h (1 Bft)
15.03.2017 18:52 7,3 °C 7,4 °C 75 % 1029,5 hPa 0,0 mm 2,7 km/h (1 Bft) SO 146 ° 0 min 0,000 mm 0,0 UV-I 0 W/m² 3,2 °C 7,3 °C 4,8 km/h (1 Bft)
15.03.2017 18:53 7,3 °C 7,3 °C 75 % 1029,5 hPa 0,0 mm 2,3 km/h (1 Bft) SO 146 ° 0 min 0,000 mm 0,0 UV-I 0 W/m² 3,2 °C 7,3 °C 3,2 km/h (1 Bft)
15.03.2017 18:54 7,3 °C 7,3 °C 75 % 1029,5 hPa 0,0 mm 2,3 km/h (1 Bft) SO 146 ° 0 min 0,000 mm 0,0 UV-I 0 W/m² 3,2 °C 7,3 °C 3,2 km/h (1 Bft)
15.03.2017 18:55 7,3 °C 7,3 °C 75 % 1029,5 hPa 0,0 mm 3,0 km/h (1 Bft) SO 146 ° 0 min 0,000 mm 0,0 UV-I 0 W/m² 3,2 °C 7,3 °C 4,8 km/h (1 Bft)
15.03.2017 18:56 7,2 °C 7,3 °C 75 % 1029,5 hPa 0,0 mm 2,5 km/h (1 Bft) SO 146 ° 0 min 0,000 mm 0,0 UV-I 0 W/m² 3,1 °C 7,2 °C 3,2 km/h (1 Bft)
15.03.2017 18:57 7,2 °C 7,2 °C 75 % 1029,5 hPa 0,0 mm 2,5 km/h (1 Bft) SO 146 ° 0 min 0,000 mm 0,0 UV-I 0 W/m² 3,1 °C 7,2 °C 4,8 km/h (1 Bft)
15.03.2017 18:58 7,2 °C 7,2 °C 76 % 1029,4 hPa 0,0 mm 3,2 km/h (1 Bft) SO 146 ° 0 min 0,000 mm 0,0 UV-I 0 W/m² 3,3 °C 7,2 °C 4,8 km/h (1 Bft)
15.03.2017 18:59 7,2 °C 7,2 °C 76 % 1029,5 hPa 0,0 mm 3,0 km/h (1 Bft) SO 146 ° 0 min 0,000 mm 0,0 UV-I 0 W/m² 3,3 °C 7,2 °C 4,8 km/h (1 Bft)
15.03.2017 19:00 7,2 °C 7,2 °C 76 % 1029,5 hPa 0,0 mm 2,8 km/h (1 Bft) SO 146 ° 0 min 0,000 mm 0,0 UV-I 0 W/m² 3,3 °C 7,2 °C 4,8 km/h (1 Bft)
15.03.2017 19:01 7,1 °C 7,2 °C 76 % 1029,5 hPa 0,0 mm 2,5 km/h (1 Bft) SO 146 ° 0 min 0,025 mm 0,0 UV-I 0 W/m² 3,2 °C 7,1 °C 3,2 km/h (1 Bft)
15.03.2017 19:02 7,1 °C 7,1 °C 76 % 1029,5 hPa 0,0 mm 3,1 km/h (1 Bft) SO 146 ° 0 min 0,000 mm 0,0 UV-I 0 W/m² 3,2 °C 7,1 °C 4,8 km/h (1 Bft)
15.03.2017 19:03 7,1 °C 7,1 °C 76 % 1029,5 hPa 0,0 mm 2,5 km/h (1 Bft) SO 146 ° 0 min 0,000 mm 0,0 UV-I 0 W/m² 3,2 °C 7,1 °C 4,8 km/h (1 Bft)
15.03.2017 19:04 7,1 °C 7,1 °C 76 % 1029,5 hPa 0,0 mm 3,2 km/h (1 Bft) SO 142 ° 0 min 0,000 mm 0,0 UV-I 0 W/m² 3,2 °C 7,1 °C 4,8 km/h (1 Bft)
15.03.2017 19:05 7,1 °C 7,1 °C 76 % 1029,5 hPa 0,0 mm 3,5 km/h (1 Bft) SO 142 ° 0 min 0,000 mm 0,0 UV-I 0 W/m² 3,2 °C 7,1 °C 4,8 km/h (1 Bft)
15.03.2017 19:06 7,1 °C 7,1 °C 76 % 1029,5 hPa 0,0 mm 2,5 km/h (1 Bft) SO 142 ° 0 min 0,000 mm 0,0 UV-I 0 W/m² 3,2 °C 7,1 °C 3,2 km/h (1 Bft)
15.03.2017 19:07 7,1 °C 7,1 °C 76 % 1029,5 hPa 0,0 mm 2,5 km/h (1 Bft) SO 142 ° 0 min 0,000 mm 0,0 UV-I 0 W/m² 3,2 °C 7,1 °C 3,2 km/h (1 Bft)
15.03.2017 19:08 7,1 °C 7,1 °C 76 % 1029,4 hPa 0,0 mm 3,5 km/h (1 Bft) SO 142 ° 0 min 0,000 mm 0,0 UV-I 0 W/m² 3,2 °C 7,1 °C 4,8 km/h (1 Bft)
15.03.2017 19:09 7,1 °C 7,1 °C 76 % 1029,4 hPa 0,0 mm 1,7 km/h (1 Bft) SO 142 ° 0 min 0,000 mm 0,0 UV-I 0 W/m² 3,2 °C 7,1 °C 3,2 km/h (1 Bft)
15.03.2017 19:10 7,0 °C 7,1 °C 76 % 1029,5 hPa 0,0 mm 2,3 km/h (1 Bft) SO 142 ° 0 min 0,000 mm 0,0 UV-I 0 W/m² 3,1 °C 7,0 °C 3,2 km/h (1 Bft)
15.03.2017 19:11 6,9 °C 7,0 °C 76 % 1029,4 hPa 0,0 mm 1,9 km/h (1 Bft) SO 142 ° 0 min 0,000 mm 0,0 UV-I 0 W/m² 3,0 °C 6,9 °C 3,2 km/h (1 Bft)
15.03.2017 19:12 7,0 °C 7,0 °C 76 % 1029,5 hPa 0,0 mm 2,0 km/h (1 Bft) SO 142 ° 0 min 0,000 mm 0,0 UV-I 0 W/m² 3,1 °C 7,0 °C 3,2 km/h (1 Bft)
15.03.2017 19:13 6,9 °C 7,0 °C 76 % 1029,5 hPa 0,0 mm 1,9 km/h (1 Bft) SO 142 ° 0 min 0,000 mm 0,0 UV-I 0 W/m² 3,0 °C 6,9 °C 3,2 km/h (1 Bft)
15.03.2017 19:14 7,0 °C 7,0 °C 76 % 1029,5 hPa 0,0 mm 0,4 km/h (0 Bft) SO 142 ° 0 min 0,000 mm 0,0 UV-I 0 W/m² 3,1 °C 7,0 °C 1,6 km/h (1 Bft)
15.03.2017 19:15 6,9 °C 7,0 °C 76 % 1029,4 hPa 0,0 mm 2,2 km/h (1 Bft) SO 142 ° 0 min 0,000 mm 0,0 UV-I 0 W/m² 3,0 °C 6,9 °C 3,2 km/h (1 Bft)
15.03.2017 19:16 6,9 °C 6,9 °C 76 % 1029,5 hPa 0,0 mm 0,3 km/h (0 Bft) SO 142 ° 0 min 0,000 mm 0,0 UV-I 0 W/m² 3,0 °C 6,9 °C 1,6 km/h (1 Bft)
15.03.2017 19:17 6,9 °C 6,9 °C 76 % 1029,5 hPa 0,0 mm 1,8 km/h (1 Bft) SO 142 ° 0 min 0,000 mm 0,0 UV-I 0 W/m² 3,0 °C 6,9 °C 3,2 km/h (1 Bft)
15.03.2017 19:18 6,9 °C 6,9 °C 76 % 1029,5 hPa 0,0 mm 1,1 km/h (1 Bft) SO 142 ° 0 min 0,000 mm 0,0 UV-I 0 W/m² 3,0 °C 6,9 °C 3,2 km/h (1 Bft)
15.03.2017 19:19 6,9 °C 6,9 °C 76 % 1029,4 hPa 0,0 mm 0,7 km/h (0 Bft) SO 142 ° 0 min 0,000 mm 0,0 UV-I 0 W/m² 3,0 °C 6,9 °C 3,2 km/h (1 Bft)
15.03.2017 19:20 6,8 °C 6,9 °C 76 % 1029,5 hPa 0,0 mm 1,1 km/h (1 Bft) SO 142 ° 0 min 0,000 mm 0,0 UV-I 0 W/m² 2,9 °C 6,8 °C 1,6 km/h (1 Bft)
15.03.2017 19:21 6,8 °C 6,8 °C 76 % 1029,5 hPa 0,0 mm 1,0 km/h (0 Bft) SO 142 ° 0 min 0,000 mm 0,0 UV-I 0 W/m² 2,9 °C 6,8 °C 1,6 km/h (1 Bft)
15.03.2017 19:22 6,8 °C 6,8 °C 77 % 1029,5 hPa 0,0 mm 1,5 km/h (1 Bft) SO 142 ° 0 min 0,000 mm 0,0 UV-I 0 W/m² 3,1 °C 6,8 °C 3,2 km/h (1 Bft)
15.03.2017 19:23 6,8 °C 6,8 °C 77 % 1029,4 hPa 0,0 mm 0,2 km/h (0 Bft) SO 142 ° 0 min 0,000 mm 0,0 UV-I 0 W/m² 3,1 °C 6,8 °C 1,6 km/h (1 Bft)
15.03.2017 19:24 6,7 °C 6,8 °C 77 % 1029,4 hPa 0,0 mm 0,0 km/h (0 Bft) SO 142 ° 0 min 0,000 mm 0,0 UV-I 0 W/m² 3,0 °C 6,7 °C 0,0 km/h (0 Bft)
15.03.2017 19:25 6,8 °C 6,8 °C 77 % 1029,4 hPa 0,0 mm 0,1 km/h (0 Bft) SO 142 ° 0 min 0,000 mm 0,0 UV-I 0 W/m² 3,1 °C 6,8 °C 1,6 km/h (1 Bft)
15.03.2017 19:26 6,4 °C 6,8 °C 75 % 1029,4 hPa 0,0 mm 0,7 km/h (0 Bft) SO 142 ° 0 min 0,000 mm 0,0 UV-I 0 W/m² 2,3 °C 6,4 °C 1,6 km/h (1 Bft)
15.03.2017 19:27 6,1 °C 6,4 °C 76 % 1029,4 hPa 0,0 mm 1,2 km/h (1 Bft) SO 142 ° 0 min 0,000 mm 0,0 UV-I 0 W/m² 2,2 °C 6,1 °C 3,2 km/h (1 Bft)
15.03.2017 19:28 5,8 °C 6,1 °C 77 % 1029,4 hPa 0,0 mm 0,0 km/h (0 Bft) SO 142 ° 0 min 0,000 mm 0,0 UV-I 0 W/m² 2,1 °C 5,8 °C 0,0 km/h (0 Bft)
15.03.2017 19:29 5,6 °C 5,8 °C 77 % 1029,5 hPa 0,0 mm 0,0 km/h (0 Bft) SO 142 ° 0 min 0,000 mm 0,0 UV-I 0 W/m² 1,9 °C 5,6 °C 0,0 km/h (0 Bft)
15.03.2017 19:30 5,4 °C 5,6 °C 79 % 1029,5 hPa 0,0 mm 0,0 km/h (0 Bft) SO 142 ° 0 min 0,000 mm 0,0 UV-I 0 W/m² 2,1 °C 5,4 °C 0,0 km/h (0 Bft)
15.03.2017 19:31 5,3 °C 5,4 °C 80 % 1029,5 hPa 0,0 mm 0,0 km/h (0 Bft) SO 142 ° 0 min 0,000 mm 0,0 UV-I 0 W/m² 2,1 °C 5,3 °C 0,0 km/h (0 Bft)
15.03.2017 19:32 5,2 °C 5,3 °C 80 % 1029,5 hPa 0,0 mm 0,0 km/h (0 Bft) SO 142 ° 0 min 0,000 mm 0,0 UV-I 0 W/m² 2,0 °C 5,2 °C 0,0 km/h (0 Bft)
15.03.2017 19:33 5,2 °C 5,2 °C 81 % 1029,5 hPa 0,0 mm 0,0 km/h (0 Bft) SO 142 ° 0 min 0,000 mm 0,0 UV-I 0 W/m² 2,2 °C 5,2 °C 0,0 km/h (0 Bft)
15.03.2017 19:34 5,1 °C 5,2 °C 81 % 1029,5 hPa 0,0 mm 0,0 km/h (0 Bft) SO 142 ° 0 min 0,000 mm 0,0 UV-I 0 W/m² 2,1 °C 5,1 °C 0,0 km/h (0 Bft)
15.03.2017 19:35 5,1 °C 5,1 °C 80 % 1029,5 hPa 0,0 mm 0,0 km/h (0 Bft) SO 142 ° 0 min 0,000 mm 0,0 UV-I 0 W/m² 1,9 °C 5,1 °C 0,0 km/h (0 Bft)
15.03.2017 19:36 5,1 °C 5,1 °C 81 % 1029,5 hPa 0,0 mm 0,0 km/h (0 Bft) SO 142 ° 0 min 0,000 mm 0,0 UV-I 0 W/m² 2,1 °C 5,1 °C 0,0 km/h (0 Bft)
15.03.2017 19:37 5,1 °C 5,1 °C 82 % 1029,5 hPa 0,0 mm 0,0 km/h (0 Bft) SO 142 ° 0 min 0,000 mm 0,0 UV-I 0 W/m² 2,3 °C 5,1 °C 0,0 km/h (0 Bft)
15.03.2017 19:38 4,9 °C 5,1 °C 80 % 1029,5 hPa 0,0 mm 0,0 km/h (0 Bft) SO 142 ° 0 min 0,000 mm 0,0 UV-I 0 W/m² 1,7 °C 4,9 °C 0,0 km/h (0 Bft)
15.03.2017 19:39 4,8 °C 4,9 °C 82 % 1029,6 hPa 0,0 mm 0,0 km/h (0 Bft) SO 142 ° 0 min 0,000 mm 0,0 UV-I 0 W/m² 2,0 °C 4,8 °C 0,0 km/h (0 Bft)
15.03.2017 19:40 4,8 °C 4,8 °C 82 % 1029,6 hPa 0,0 mm 0,0 km/h (0 Bft) SO 142 ° 0 min 0,000 mm 0,0 UV-I 0 W/m² 2,0 °C 4,8 °C 0,0 km/h (0 Bft)
15.03.2017 19:41 4,8 °C 4,8 °C 82 % 1029,6 hPa 0,0 mm 0,5 km/h (0 Bft) SO 142 ° 0 min 0,000 mm 0,0 UV-I 0 W/m² 2,0 °C 4,8 °C 1,6 km/h (1 Bft)
15.03.2017 19:42 4,8 °C 4,8 °C 83 % 1029,5 hPa 0,0 mm 1,6 km/h (1 Bft) SO 142 ° 0 min 0,000 mm 0,0 UV-I 0 W/m² 2,2 °C 4,8 °C 1,6 km/h (1 Bft)
15.03.2017 19:43 4,9 °C 4,9 °C 83 % 1029,6 hPa 0,0 mm 1,3 km/h (1 Bft) SO 142 ° 0 min 0,000 mm 0,0 UV-I 0 W/m² 2,3 °C 4,9 °C 1,6 km/h (1 Bft)
15.03.2017 19:44 5,1 °C 5,1 °C 83 % 1029,6 hPa 0,0 mm 0,9 km/h (0 Bft) SO 142 ° 0 min 0,000 mm 0,0 UV-I 0 W/m² 2,5 °C 5,1 °C 1,6 km/h (1 Bft)
15.03.2017 19:45 5,2 °C 5,2 °C 83 % 1029,6 hPa 0,0 mm 1,4 km/h (1 Bft) SO 142 ° 0 min 0,000 mm 0,0 UV-I 0 W/m² 2,6 °C 5,2 °C 1,6 km/h (1 Bft)
15.03.2017 19:46 5,3 °C 5,3 °C 83 % 1029,5 hPa 0,0 mm 2,4 km/h (1 Bft) SO 142 ° 0 min 0,000 mm 0,0 UV-I 0 W/m² 2,7 °C 5,3 °C 3,2 km/h (1 Bft)
15.03.2017 19:47 5,3 °C 5,3 °C 82 % 1029,6 hPa 0,0 mm 2,2 km/h (1 Bft) SO 142 ° 0 min 0,000 mm 0,0 UV-I 0 W/m² 2,5 °C 5,3 °C 3,2 km/h (1 Bft)
15.03.2017 19:48 5,4 °C 5,4 °C 82 % 1029,5 hPa 0,0 mm 1,7 km/h (1 Bft) SO 142 ° 0 min 0,000 mm 0,0 UV-I 0 W/m² 2,6 °C 5,4 °C 3,2 km/h (1 Bft)
15.03.2017 19:49 5,6 °C 5,6 °C 82 % 1029,5 hPa 0,0 mm 1,0 km/h (0 Bft) SO 142 ° 0 min 0,000 mm 0,0 UV-I 0 W/m² 2,8 °C 5,6 °C 1,6 km/h (1 Bft)
15.03.2017 19:50 5,6 °C 5,6 °C 81 % 1029,6 hPa 0,0 mm 0,6 km/h (0 Bft) SO 142 ° 0 min 0,000 mm 0,0 UV-I 0 W/m² 2,6 °C 5,6 °C 1,6 km/h (1 Bft)
15.03.2017 19:51 5,7 °C 5,7 °C 81 % 1029,6 hPa 0,0 mm 0,0 km/h (0 Bft) SO 142 ° 0 min 0,000 mm 0,0 UV-I 0 W/m² 2,7 °C 5,7 °C 0,0 km/h (0 Bft)
15.03.2017 19:52 5,8 °C 5,8 °C 81 % 1029,6 hPa 0,0 mm 0,0 km/h (0 Bft) SO 142 ° 0 min 0,000 mm 0,0 UV-I 0 W/m² 2,8 °C 5,8 °C 0,0 km/h (0 Bft)
15.03.2017 19:53 5,8 °C 5,8 °C 81 % 1029,7 hPa 0,0 mm 0,0 km/h (0 Bft) SO 142 ° 0 min 0,000 mm 0,0 UV-I 0 W/m² 2,8 °C 5,8 °C 0,0 km/h (0 Bft)
15.03.2017 19:54 5,9 °C 5,9 °C 81 % 1029,6 hPa 0,0 mm 1,2 km/h (1 Bft) SO 142 ° 0 min 0,000 mm 0,0 UV-I 0 W/m² 2,9 °C 5,9 °C 3,2 km/h (1 Bft)
15.03.2017 19:55 5,9 °C 5,9 °C 80 % 1029,7 hPa 0,0 mm 2,7 km/h (1 Bft) SO 142 ° 0 min 0,000 mm 0,0 UV-I 0 W/m² 2,7 °C 5,9 °C 3,2 km/h (1 Bft)
15.03.2017 19:56 5,9 °C 5,9 °C 80 % 1029,6 hPa 0,0 mm 1,5 km/h (1 Bft) SO 142 ° 0 min 0,000 mm 0,0 UV-I 0 W/m² 2,7 °C 5,9 °C 3,2 km/h (1 Bft)
15.03.2017 19:57 5,9 °C 5,9 °C 80 % 1029,6 hPa 0,0 mm 0,5 km/h (0 Bft) SO 142 ° 0 min 0,000 mm 0,0 UV-I 0 W/m² 2,7 °C 5,9 °C 1,6 km/h (1 Bft)
15.03.2017 19:58 5,9 °C 5,9 °C 80 % 1029,6 hPa 0,0 mm 1,2 km/h (1 Bft) SO 142 ° 0 min 0,000 mm 0,0 UV-I 0 W/m² 2,7 °C 5,9 °C 1,6 km/h (1 Bft)
15.03.2017 19:59 5,8 °C 5,9 °C 80 % 1029,7 hPa 0,0 mm 0,8 km/h (0 Bft) SO 142 ° 0 min 0,000 mm 0,0 UV-I 0 W/m² 2,6 °C 5,8 °C 1,6 km/h (1 Bft)
15.03.2017 20:00 5,8 °C 5,9 °C 80 % 1029,6 hPa 0,0 mm 0,2 km/h (0 Bft) SO 142 ° 0 min 0,000 mm 0,0 UV-I 0 W/m² 2,6 °C 5,8 °C 1,6 km/h (1 Bft)
15.03.2017 20:01 5,7 °C 5,8 °C 78 % 1029,7 hPa 0,0 mm 0,0 km/h (0 Bft) SO 142 ° 0 min 0,026 mm 0,0 UV-I 0 W/m² 2,2 °C 5,7 °C 0,0 km/h (0 Bft)
15.03.2017 20:02 5,3 °C 5,7 °C 78 % 1029,7 hPa 0,0 mm 0,0 km/h (0 Bft) SO 142 ° 0 min 0,000 mm 0,0 UV-I 0 W/m² 1,8 °C 5,3 °C 0,0 km/h (0 Bft)
15.03.2017 20:03 4,9 °C 5,3 °C 79 % 1029,7 hPa 0,0 mm 0,0 km/h (0 Bft) SO 142 ° 0 min 0,000 mm 0,0 UV-I 0 W/m² 1,6 °C 4,9 °C 0,0 km/h (0 Bft)
15.03.2017 20:04 4,7 °C 4,9 °C 81 % 1029,7 hPa 0,0 mm 0,7 km/h (0 Bft) SO 142 ° 0 min 0,000 mm 0,0 UV-I 0 W/m² 1,7 °C 4,7 °C 3,2 km/h (1 Bft)
15.03.2017 20:05 4,8 °C 4,8 °C 83 % 1029,7 hPa 0,0 mm 2,0 km/h (1 Bft) SO 142 ° 0 min 0,000 mm 0,0 UV-I 0 W/m² 2,2 °C 4,8 °C 3,2 km/h (1 Bft)
15.03.2017 20:06 4,9 °C 4,9 °C 84 % 1029,7 hPa 0,0 mm 1,3 km/h (1 Bft) SO 142 ° 0 min 0,000 mm 0,0 UV-I 0 W/m² 2,4 °C 4,9 °C 3,2 km/h (1 Bft)
15.03.2017 20:07 5,1 °C 5,1 °C 83 % 1029,7 hPa 0,0 mm 0,1 km/h (0 Bft) SO 142 ° 0 min 0,000 mm 0,0 UV-I 0 W/m² 2,5 °C 5,1 °C 1,6 km/h (1 Bft)
15.03.2017 20:08 5,2 °C 5,2 °C 83 % 1029,7 hPa 0,0 mm 0,1 km/h (0 Bft) SO 142 ° 0 min 0,000 mm 0,0 UV-I 0 W/m² 2,6 °C 5,2 °C 1,6 km/h (1 Bft)
15.03.2017 20:09 5,3 °C 5,3 °C 83 % 1029,7 hPa 0,0 mm 0,0 km/h (0 Bft) SO 142 ° 0 min 0,000 mm 0,0 UV-I 0 W/m² 2,7 °C 5,3 °C 0,0 km/h (0 Bft)
15.03.2017 20:10 5,3 °C 5,4 °C 82 % 1029,7 hPa 0,0 mm 0,0 km/h (0 Bft) SO 142 ° 0 min 0,000 mm 0,0 UV-I 0 W/m² 2,5 °C 5,3 °C 0,0 km/h (0 Bft)
15.03.2017 20:11 5,2 °C 5,3 °C 80 % 1029,7 hPa 0,0 mm 0,0 km/h (0 Bft) SO 142 ° 0 min 0,000 mm 0,0 UV-I 0 W/m² 2,0 °C 5,2 °C 0,0 km/h (0 Bft)
15.03.2017 20:12 4,9 °C 5,2 °C 81 % 1029,7 hPa 0,0 mm 0,0 km/h (0 Bft) SO 142 ° 0 min 0,000 mm 0,0 UV-I 0 W/m² 1,9 °C 4,9 °C 0,0 km/h (0 Bft)
15.03.2017 20:13 4,7 °C 4,9 °C 82 % 1029,7 hPa 0,0 mm 0,0 km/h (0 Bft) SO 142 ° 0 min 0,000 mm 0,0 UV-I 0 W/m² 1,9 °C 4,7 °C 0,0 km/h (0 Bft)
15.03.2017 20:14 4,6 °C 4,7 °C 83 % 1029,7 hPa 0,0 mm 0,0 km/h (0 Bft) SO 142 ° 0 min 0,000 mm 0,0 UV-I 0 W/m² 2,0 °C 4,6 °C 0,0 km/h (0 Bft)
15.03.2017 20:15 4,6 °C 4,6 °C 83 % 1029,7 hPa 0,0 mm 0,0 km/h (0 Bft) SO 142 ° 0 min 0,000 mm 0,0 UV-I 0 W/m² 2,0 °C 4,6 °C 0,0 km/h (0 Bft)
15.03.2017 20:16 4,6 °C 4,6 °C 84 % 1029,7 hPa 0,0 mm 0,0 km/h (0 Bft) SO 142 ° 0 min 0,000 mm 0,0 UV-I 0 W/m² 2,1 °C 4,6 °C 0,0 km/h (0 Bft)
15.03.2017 20:17 4,6 °C 4,6 °C 84 % 1029,7 hPa 0,0 mm 0,0 km/h (0 Bft) SO 142 ° 0 min 0,000 mm 0,0 UV-I 0 W/m² 2,1 °C 4,6 °C 0,0 km/h (0 Bft)
15.03.2017 20:18 4,4 °C 4,6 °C 82 % 1029,7 hPa 0,0 mm 0,0 km/h (0 Bft) SO 142 ° 0 min 0,000 mm 0,0 UV-I 0 W/m² 1,6 °C 4,4 °C 0,0 km/h (0 Bft)
15.03.2017 20:19 4,2 °C 4,4 °C 82 % 1029,7 hPa 0,0 mm 0,0 km/h (0 Bft) SO 142 ° 0 min 0,000 mm 0,0 UV-I 0 W/m² 1,4 °C 4,2 °C 0,0 km/h (0 Bft)
15.03.2017 20:20 4,0 °C 4,2 °C 83 % 1029,7 hPa 0,0 mm 0,0 km/h (0 Bft) SO 142 ° 0 min 0,000 mm 0,0 UV-I 0 W/m² 1,4 °C 4,0 °C 0,0 km/h (0 Bft)
15.03.2017 20:21 3,8 °C 4,0 °C 83 % 1029,7 hPa 0,0 mm 0,0 km/h (0 Bft) SO 142 ° 0 min 0,000 mm 0,0 UV-I 0 W/m² 1,2 °C 3,8 °C 0,0 km/h (0 Bft)
15.03.2017 20:22 3,7 °C 3,8 °C 84 % 1029,8 hPa 0,0 mm 0,0 km/h (0 Bft) SO 142 ° 0 min 0,000 mm 0,0 UV-I 0 W/m² 1,3 °C 3,7 °C 0,0 km/h (0 Bft)
15.03.2017 20:23 3,7 °C 3,7 °C 85 % 1029,7 hPa 0,0 mm 0,0 km/h (0 Bft) SO 142 ° 0 min 0,000 mm 0,0 UV-I 0 W/m² 1,4 °C 3,7 °C 0,0 km/h (0 Bft)
15.03.2017 20:24 3,7 °C 3,7 °C 86 % 1029,8 hPa 0,0 mm 0,0 km/h (0 Bft) SO 142 ° 0 min 0,000 mm 0,0 UV-I 0 W/m² 1,6 °C 3,7 °C 0,0 km/h (0 Bft)
15.03.2017 20:25 3,7 °C 3,7 °C 86 % 1029,7 hPa 0,0 mm 0,0 km/h (0 Bft) SO 142 ° 0 min 0,000 mm 0,0 UV-I 0 W/m² 1,6 °C 3,7 °C 0,0 km/h (0 Bft)
15.03.2017 20:26 3,8 °C 3,8 °C 87 % 1029,7 hPa 0,0 mm 0,0 km/h (0 Bft) SO 142 ° 0 min 0,000 mm 0,0 UV-I 0 W/m² 1,8 °C 3,8 °C 0,0 km/h (0 Bft)
15.03.2017 20:27 4,1 °C 4,1 °C 88 % 1029,8 hPa 0,0 mm 0,1 km/h (0 Bft) SO 142 ° 0 min 0,000 mm 0,0 UV-I 0 W/m² 2,3 °C 4,1 °C 1,6 km/h (1 Bft)
15.03.2017 20:28 4,3 °C 4,3 °C 88 % 1029,8 hPa 0,0 mm 0,0 km/h (0 Bft) SO 142 ° 0 min 0,000 mm 0,0 UV-I 0 W/m² 2,5 °C 4,3 °C 0,0 km/h (0 Bft)
15.03.2017 20:29 4,6 °C 4,6 °C 87 % 1029,8 hPa 0,0 mm 0,0 km/h (0 Bft) SO 142 ° 0 min 0,000 mm 0,0 UV-I 0 W/m² 2,6 °C 4,6 °C 0,0 km/h (0 Bft)
15.03.2017 20:30 4,8 °C 4,8 °C 85 % 1029,8 hPa 0,0 mm 0,0 km/h (0 Bft) SO 142 ° 0 min 0,000 mm 0,0 UV-I 0 W/m² 2,5 °C 4,8 °C 0,0 km/h (0 Bft)
15.03.2017 20:31 4,8 °C 4,8 °C 83 % 1029,7 hPa 0,0 mm 0,0 km/h (0 Bft) SO 142 ° 0 min 0,000 mm 0,0 UV-I 0 W/m² 2,2 °C 4,8 °C 0,0 km/h (0 Bft)
15.03.2017 20:32 4,6 °C 4,8 °C 83 % 1029,8 hPa 0,0 mm 0,0 km/h (0 Bft) SO 142 ° 0 min 0,000 mm 0,0 UV-I 0 W/m² 2,0 °C 4,6 °C 0,0 km/h (0 Bft)
15.03.2017 20:33 4,4 °C 4,6 °C 83 % 1029,9 hPa 0,0 mm 0,0 km/h (0 Bft) SO 142 ° 0 min 0,000 mm 0,0 UV-I 0 W/m² 1,8 °C 4,4 °C 0,0 km/h (0 Bft)
15.03.2017 20:34 4,3 °C 4,4 °C 83 % 1029,9 hPa 0,0 mm 0,0 km/h (0 Bft) SO 142 ° 0 min 0,000 mm 0,0 UV-I 0 W/m² 1,7 °C 4,3 °C 0,0 km/h (0 Bft)
15.03.2017 20:35 4,1 °C 4,3 °C 84 % 1029,8 hPa 0,0 mm 0,0 km/h (0 Bft) SO 142 ° 0 min 0,000 mm 0,0 UV-I 0 W/m² 1,6 °C 4,1 °C 0,0 km/h (0 Bft)
15.03.2017 20:36 3,9 °C 4,1 °C 85 % 1029,8 hPa 0,0 mm 0,0 km/h (0 Bft) SO 142 ° 0 min 0,000 mm 0,0 UV-I 0 W/m² 1,6 °C 3,9 °C 0,0 km/h (0 Bft)
15.03.2017 20:37 3,9 °C 3,9 °C 85 % 1029,8 hPa 0,0 mm 0,0 km/h (0 Bft) SO 142 ° 0 min 0,000 mm 0,0 UV-I 0 W/m² 1,6 °C 3,9 °C 0,0 km/h (0 Bft)
15.03.2017 20:38 3,7 °C 3,9 °C 85 % 1029,9 hPa 0,0 mm 0,0 km/h (0 Bft) SO 142 ° 0 min 0,000 mm 0,0 UV-I 0 W/m² 1,4 °C 3,7 °C 0,0 km/h (0 Bft)
15.03.2017 20:39 3,7 °C 3,7 °C 85 % 1029,9 hPa 0,0 mm 0,0 km/h (0 Bft) SO 142 ° 0 min 0,000 mm 0,0 UV-I 0 W/m² 1,4 °C 3,7 °C 0,0 km/h (0 Bft)
15.03.2017 20:40 3,6 °C 3,7 °C 86 % 1029,9 hPa 0,0 mm 0,0 km/h (0 Bft) SO 142 ° 0 min 0,000 mm 0,0 UV-I 0 W/m² 1,5 °C 3,6 °C 0,0 km/h (0 Bft)
15.03.2017 20:41 3,6 °C 3,6 °C 86 % 1029,9 hPa 0,0 mm 0,0 km/h (0 Bft) SO 142 ° 0 min 0,000 mm 0,0 UV-I 0 W/m² 1,5 °C 3,6 °C 0,0 km/h (0 Bft)
15.03.2017 20:42 3,5 °C 3,6 °C 86 % 1029,8 hPa 0,0 mm 0,0 km/h (0 Bft) SO 142 ° 0 min 0,000 mm 0,0 UV-I 0 W/m² 1,4 °C 3,5 °C 0,0 km/h (0 Bft)
15.03.2017 20:43 3,4 °C 3,5 °C 86 % 1029,9 hPa 0,0 mm 0,0 km/h (0 Bft) SO 142 ° 0 min 0,000 mm 0,0 UV-I 0 W/m² 1,3 °C 3,4 °C 0,0 km/h (0 Bft)
15.03.2017 20:44 3,3 °C 3,4 °C 87 % 1029,9 hPa 0,0 mm 0,0 km/h (0 Bft) SO 142 ° 0 min 0,000 mm 0,0 UV-I 0 W/m² 1,3 °C 3,3 °C 0,0 km/h (0 Bft)
15.03.2017 20:45 3,3 °C 3,3 °C 87 % 1029,9 hPa 0,0 mm 0,0 km/h (0 Bft) SO 142 ° 0 min 0,000 mm 0,0 UV-I 0 W/m² 1,3 °C 3,3 °C 0,0 km/h (0 Bft)
15.03.2017 20:46 3,3 °C 3,3 °C 86 % 1029,9 hPa 0,0 mm 0,0 km/h (0 Bft) SO 142 ° 0 min 0,000 mm 0,0 UV-I 0 W/m² 1,2 °C 3,3 °C 0,0 km/h (0 Bft)
15.03.2017 20:47 3,2 °C 3,3 °C 86 % 1029,9 hPa 0,0 mm 0,0 km/h (0 Bft) SO 142 ° 0 min 0,000 mm 0,0 UV-I 0 W/m² 1,1 °C 3,2 °C 0,0 km/h (0 Bft)
15.03.2017 20:48 3,3 °C 3,3 °C 87 % 1029,9 hPa 0,0 mm 0,0 km/h (0 Bft) SO 142 ° 0 min 0,000 mm 0,0 UV-I 0 W/m² 1,3 °C 3,3 °C 0,0 km/h (0 Bft)
15.03.2017 20:49 3,2 °C 3,3 °C 87 % 1029,9 hPa 0,0 mm 0,1 km/h (0 Bft) SO 142 ° 0 min 0,000 mm 0,0 UV-I 0 W/m² 1,2 °C 3,2 °C 1,6 km/h (1 Bft)
15.03.2017 20:50 3,2 °C 3,2 °C 86 % 1029,9 hPa 0,0 mm 0,0 km/h (0 Bft) SO 142 ° 0 min 0,000 mm 0,0 UV-I 0 W/m² 1,1 °C 3,2 °C 0,0 km/h (0 Bft)
15.03.2017 20:51 3,1 °C 3,2 °C 87 % 1029,9 hPa 0,0 mm 0,0 km/h (0 Bft) SO 142 ° 0 min 0,000 mm 0,0 UV-I 0 W/m² 1,2 °C 3,1 °C 0,0 km/h (0 Bft)
15.03.2017 20:52 3,1 °C 3,1 °C 87 % 1029,9 hPa 0,0 mm 0,0 km/h (0 Bft) SO 142 ° 0 min 0,000 mm 0,0 UV-I 0 W/m² 1,2 °C 3,1 °C 0,0 km/h (0 Bft)
15.03.2017 20:53 3,1 °C 3,1 °C 88 % 1029,9 hPa 0,0 mm 0,0 km/h (0 Bft) SO 142 ° 0 min 0,000 mm 0,0 UV-I 0 W/m² 1,3 °C 3,1 °C 0,0 km/h (0 Bft)
15.03.2017 20:54 3,2 °C 3,2 °C 89 % 1029,9 hPa 0,0 mm 0,0 km/h (0 Bft) SO 142 ° 0 min 0,000 mm 0,0 UV-I 0 W/m² 1,6 °C 3,2 °C 0,0 km/h (0 Bft)
15.03.2017 20:55 3,2 °C 3,2 °C 89 % 1029,9 hPa 0,0 mm 0,0 km/h (0 Bft) SO 142 ° 0 min 0,000 mm 0,0 UV-I 0 W/m² 1,6 °C 3,2 °C 0,0 km/h (0 Bft)
15.03.2017 20:56 3,3 °C 3,3 °C 89 % 1029,9 hPa 0,0 mm 0,0 km/h (0 Bft) SO 142 ° 0 min 0,000 mm 0,0 UV-I 0 W/m² 1,7 °C 3,3 °C 0,0 km/h (0 Bft)
15.03.2017 20:57 3,3 °C 3,3 °C 89 % 1029,9 hPa 0,0 mm 0,0 km/h (0 Bft) SO 142 ° 0 min 0,000 mm 0,0 UV-I 0 W/m² 1,7 °C 3,3 °C 0,0 km/h (0 Bft)
15.03.2017 20:58 3,3 °C 3,3 °C 88 % 1029,9 hPa 0,0 mm 0,0 km/h (0 Bft) SO 142 ° 0 min 0,000 mm 0,0 UV-I 0 W/m² 1,5 °C 3,3 °C 0,0 km/h (0 Bft)
15.03.2017 20:59 3,3 °C 3,3 °C 88 % 1029,9 hPa 0,0 mm 0,0 km/h (0 Bft) SO 142 ° 0 min 0,000 mm 0,0 UV-I 0 W/m² 1,5 °C 3,3 °C 0,0 km/h (0 Bft)
15.03.2017 21:00 3,2 °C 3,3 °C 88 % 1029,9 hPa 0,0 mm 0,0 km/h (0 Bft) SO 142 ° 0 min 0,000 mm 0,0 UV-I 0 W/m² 1,4 °C 3,2 °C 0,0 km/h (0 Bft)
15.03.2017 21:01 3,2 °C 3,2 °C 88 % 1030,0 hPa 0,0 mm 0,0 km/h (0 Bft) SO 142 ° 0 min 0,000 mm 0,0 UV-I 0 W/m² 1,4 °C 3,2 °C 0,0 km/h (0 Bft)
15.03.2017 21:02 3,2 °C 3,2 °C 89 % 1030,0 hPa 0,0 mm 0,0 km/h (0 Bft) SO 142 ° 0 min 0,000 mm 0,0 UV-I 0 W/m² 1,6 °C 3,2 °C 0,0 km/h (0 Bft)
15.03.2017 21:03 3,2 °C 3,2 °C 89 % 1030,0 hPa 0,0 mm 0,0 km/h (0 Bft) SO 142 ° 0 min 0,000 mm 0,0 UV-I 0 W/m² 1,6 °C 3,2 °C 0,0 km/h (0 Bft)
15.03.2017 21:04 3,2 °C 3,2 °C 88 % 1030,0 hPa 0,0 mm 0,0 km/h (0 Bft) SO 142 ° 0 min 0,000 mm 0,0 UV-I 0 W/m² 1,4 °C 3,2 °C 0,0 km/h (0 Bft)
15.03.2017 21:05 3,2 °C 3,2 °C 89 % 1029,9 hPa 0,0 mm 0,0 km/h (0 Bft) SO 142 ° 0 min 0,000 mm 0,0 UV-I 0 W/m² 1,6 °C 3,2 °C 0,0 km/h (0 Bft)
15.03.2017 21:06 3,2 °C 3,3 °C 88 % 1030,0 hPa 0,0 mm 0,0 km/h (0 Bft) SO 142 ° 0 min 0,000 mm 0,0 UV-I 0 W/m² 1,4 °C 3,2 °C 0,0 km/h (0 Bft)
15.03.2017 21:07 3,3 °C 3,3 °C 89 % 1029,9 hPa 0,0 mm 0,0 km/h (0 Bft) SO 142 ° 0 min 0,000 mm 0,0 UV-I 0 W/m² 1,7 °C 3,3 °C 0,0 km/h (0 Bft)
15.03.2017 21:08 3,4 °C 3,4 °C 90 % 1029,9 hPa 0,0 mm 0,1 km/h (0 Bft) SO 142 ° 0 min 0,000 mm 0,0 UV-I 0 W/m² 1,9 °C 3,4 °C 1,6 km/h (1 Bft)
15.03.2017 21:09 3,6 °C 3,6 °C 90 % 1029,9 hPa 0,0 mm 0,1 km/h (0 Bft) SO 142 ° 0 min 0,000 mm 0,0 UV-I 0 W/m² 2,1 °C 3,6 °C 1,6 km/h (1 Bft)
15.03.2017 21:10 3,8 °C 3,8 °C 89 % 1029,9 hPa 0,0 mm 0,5 km/h (0 Bft) SO 142 ° 0 min 0,000 mm 0,0 UV-I 0 W/m² 2,2 °C 3,8 °C 1,6 km/h (1 Bft)
15.03.2017 21:11 3,8 °C 3,8 °C 87 % 1030,0 hPa 0,0 mm 0,1 km/h (0 Bft) SO 142 ° 0 min 0,000 mm 0,0 UV-I 0 W/m² 1,8 °C 3,8 °C 1,6 km/h (1 Bft)
15.03.2017 21:12 3,7 °C 3,8 °C 86 % 1030,0 hPa 0,0 mm 0,0 km/h (0 Bft) SO 142 ° 0 min 0,000 mm 0,0 UV-I 0 W/m² 1,6 °C 3,7 °C 0,0 km/h (0 Bft)
15.03.2017 21:13 3,6 °C 3,7 °C 86 % 1030,0 hPa 0,0 mm 0,0 km/h (0 Bft) SO 142 ° 0 min 0,000 mm 0,0 UV-I 0 W/m² 1,5 °C 3,6 °C 0,0 km/h (0 Bft)
15.03.2017 21:14 3,5 °C 3,6 °C 87 % 1030,0 hPa 0,0 mm 0,0 km/h (0 Bft) SO 142 ° 0 min 0,000 mm 0,0 UV-I 0 W/m² 1,5 °C 3,5 °C 0,0 km/h (0 Bft)
15.03.2017 21:15 3,4 °C 3,5 °C 87 % 1030,0 hPa 0,0 mm 0,0 km/h (0 Bft) SO 142 ° 0 min 0,000 mm 0,0 UV-I 0 W/m² 1,4 °C 3,4 °C 0,0 km/h (0 Bft)
15.03.2017 21:16 3,3 °C 3,4 °C 87 % 1029,9 hPa 0,0 mm 0,0 km/h (0 Bft) SO 142 ° 0 min 0,000 mm 0,0 UV-I 0 W/m² 1,3 °C 3,3 °C 0,0 km/h (0 Bft)
15.03.2017 21:17 3,3 °C 3,3 °C 87 % 1029,9 hPa 0,0 mm 0,0 km/h (0 Bft) SO 142 ° 0 min 0,000 mm 0,0 UV-I 0 W/m² 1,3 °C 3,3 °C 0,0 km/h (0 Bft)
15.03.2017 21:18 3,2 °C 3,3 °C 88 % 1029,9 hPa 0,0 mm 0,0 km/h (0 Bft) SO 142 ° 0 min 0,000 mm 0,0 UV-I 0 W/m² 1,4 °C 3,2 °C 0,0 km/h (0 Bft)
15.03.2017 21:19 3,2 °C 3,2 °C 88 % 1029,9 hPa 0,0 mm 0,0 km/h (0 Bft) SO 142 ° 0 min 0,000 mm 0,0 UV-I 0 W/m² 1,4 °C 3,2 °C 0,0 km/h (0 Bft)
15.03.2017 21:20 3,2 °C 3,2 °C 88 % 1029,9 hPa 0,0 mm 0,0 km/h (0 Bft) SO 142 ° 0 min 0,000 mm 0,0 UV-I 0 W/m² 1,4 °C 3,2 °C 0,0 km/h (0 Bft)
15.03.2017 21:21 3,2 °C 3,3 °C 89 % 1029,9 hPa 0,0 mm 0,0 km/h (0 Bft) SO 142 ° 0 min 0,000 mm 0,0 UV-I 0 W/m² 1,6 °C 3,2 °C 0,0 km/h (0 Bft)
15.03.2017 21:22 3,1 °C 3,2 °C 88 % 1029,9 hPa 0,0 mm 0,0 km/h (0 Bft) SO 142 ° 0 min 0,000 mm 0,0 UV-I 0 W/m² 1,3 °C 3,1 °C 0,0 km/h (0 Bft)
15.03.2017 21:23 2,9 °C 3,1 °C 87 % 1030,0 hPa 0,0 mm 0,0 km/h (0 Bft) SO 142 ° 0 min 0,000 mm 0,0 UV-I 0 W/m² 1,0 °C 2,9 °C 0,0 km/h (0 Bft)
15.03.2017 21:24 2,8 °C 2,9 °C 87 % 1029,9 hPa 0,0 mm 0,0 km/h (0 Bft) SO 142 ° 0 min 0,000 mm 0,0 UV-I 0 W/m² 0,9 °C 2,8 °C 0,0 km/h (0 Bft)
15.03.2017 21:25 2,7 °C 2,8 °C 87 % 1029,9 hPa 0,0 mm 0,0 km/h (0 Bft) SO 142 ° 0 min 0,000 mm 0,0 UV-I 0 W/m² 0,8 °C 2,7 °C 0,0 km/h (0 Bft)
15.03.2017 21:26 2,7 °C 2,7 °C 88 % 1030,0 hPa 0,0 mm 0,3 km/h (0 Bft) SO 142 ° 0 min 0,000 mm 0,0 UV-I 0 W/m² 0,9 °C 2,7 °C 1,6 km/h (1 Bft)
15.03.2017 21:27 2,7 °C 2,7 °C 89 % 1029,9 hPa 0,0 mm 0,0 km/h (0 Bft) SO 142 ° 0 min 0,000 mm 0,0 UV-I 0 W/m² 1,1 °C 2,7 °C 0,0 km/h (0 Bft)
15.03.2017 21:28 2,8 °C 2,8 °C 90 % 1029,9 hPa 0,0 mm 0,3 km/h (0 Bft) SO 142 ° 0 min 0,000 mm 0,0 UV-I 0 W/m² 1,3 °C 2,8 °C 1,6 km/h (1 Bft)
15.03.2017 21:29 2,9 °C 2,9 °C 90 % 1029,9 hPa 0,0 mm 2,4 km/h (1 Bft) SO 142 ° 0 min 0,000 mm 0,0 UV-I 0 W/m² 1,4 °C 2,9 °C 3,2 km/h (1 Bft)
15.03.2017 21:30 3,0 °C 3,0 °C 90 % 1029,9 hPa 0,0 mm 1,8 km/h (1 Bft) SO 142 ° 0 min 0,000 mm 0,0 UV-I 0 W/m² 1,5 °C 3,0 °C 3,2 km/h (1 Bft)
15.03.2017 21:31 3,2 °C 3,2 °C 90 % 1029,9 hPa 0,0 mm 0,8 km/h (0 Bft) SO 142 ° 0 min 0,000 mm 0,0 UV-I 0 W/m² 1,7 °C 3,2 °C 1,6 km/h (1 Bft)
15.03.2017 21:32 3,2 °C 3,2 °C 90 % 1029,9 hPa 0,0 mm 0,4 km/h (0 Bft) SO 142 ° 0 min 0,000 mm 0,0 UV-I 0 W/m² 1,7 °C 3,2 °C 1,6 km/h (1 Bft)
15.03.2017 21:33 3,1 °C 3,2 °C 89 % 1029,9 hPa 0,0 mm 0,0 km/h (0 Bft) SO 142 ° 0 min 0,000 mm 0,0 UV-I 0 W/m² 1,5 °C 3,1 °C 0,0 km/h (0 Bft)
15.03.2017 21:34 3,1 °C 3,1 °C 89 % 1030,0 hPa 0,0 mm 0,4 km/h (0 Bft) SO 142 ° 0 min 0,000 mm 0,0 UV-I 0 W/m² 1,5 °C 3,1 °C 1,6 km/h (1 Bft)
15.03.2017 21:35 3,2 °C 3,2 °C 90 % 1030,0 hPa 0,0 mm 0,7 km/h (0 Bft) SO 142 ° 0 min 0,000 mm 0,0 UV-I 0 W/m² 1,7 °C 3,2 °C 1,6 km/h (1 Bft)
15.03.2017 21:36 3,3 °C 3,3 °C 90 % 1030,0 hPa 0,0 mm 1,1 km/h (1 Bft) SO 142 ° 0 min 0,000 mm 0,0 UV-I 0 W/m² 1,8 °C 3,3 °C 3,2 km/h (1 Bft)
15.03.2017 21:37 3,3 °C 3,3 °C 89 % 1029,9 hPa 0,0 mm 1,1 km/h (1 Bft) SO 142 ° 0 min 0,000 mm 0,0 UV-I 0 W/m² 1,7 °C 3,3 °C 1,6 km/h (1 Bft)
15.03.2017 21:38 3,4 °C 3,4 °C 90 % 1029,9 hPa 0,0 mm 0,9 km/h (0 Bft) SO 142 ° 0 min 0,000 mm 0,0 UV-I 0 W/m² 1,9 °C 3,4 °C 1,6 km/h (1 Bft)
15.03.2017 21:39 3,5 °C 3,5 °C 89 % 1029,9 hPa 0,0 mm 0,9 km/h (0 Bft) SO 142 ° 0 min 0,000 mm 0,0 UV-I 0 W/m² 1,9 °C 3,5 °C 1,6 km/h (1 Bft)
15.03.2017 21:40 3,6 °C 3,6 °C 89 % 1029,9 hPa 0,0 mm 1,1 km/h (1 Bft) SO 142 ° 0 min 0,000 mm 0,0 UV-I 0 W/m² 2,0 °C 3,6 °C 3,2 km/h (1 Bft)
15.03.2017 21:41 3,6 °C 3,6 °C 89 % 1029,9 hPa 0,0 mm 2,0 km/h (1 Bft) SO 142 ° 0 min 0,000 mm 0,0 UV-I 0 W/m² 2,0 °C 3,6 °C 3,2 km/h (1 Bft)
15.03.2017 21:42 3,6 °C 3,6 °C 88 % 1029,9 hPa 0,0 mm 1,6 km/h (1 Bft) SO 142 ° 0 min 0,000 mm 0,0 UV-I 0 W/m² 1,8 °C 3,6 °C 3,2 km/h (1 Bft)
15.03.2017 21:43 3,6 °C 3,6 °C 88 % 1029,9 hPa 0,0 mm 2,0 km/h (1 Bft) SO 142 ° 0 min 0,000 mm 0,0 UV-I 0 W/m² 1,8 °C 3,6 °C 3,2 km/h (1 Bft)
15.03.2017 21:44 3,5 °C 3,6 °C 88 % 1029,9 hPa 0,0 mm 1,9 km/h (1 Bft) SO 142 ° 0 min 0,000 mm 0,0 UV-I 0 W/m² 1,7 °C 3,5 °C 3,2 km/h (1 Bft)
15.03.2017 21:45 3,5 °C 3,5 °C 88 % 1029,9 hPa 0,0 mm 0,9 km/h (0 Bft) SO 142 ° 0 min 0,000 mm 0,0 UV-I 0 W/m² 1,7 °C 3,5 °C 3,2 km/h (1 Bft)
15.03.2017 21:46 3,4 °C 3,5 °C 88 % 1029,9 hPa 0,0 mm 0,4 km/h (0 Bft) SO 142 ° 0 min 0,000 mm 0,0 UV-I 0 W/m² 1,6 °C 3,4 °C 1,6 km/h (1 Bft)
15.03.2017 21:47 3,3 °C 3,4 °C 87 % 1029,9 hPa 0,0 mm 0,0 km/h (0 Bft) SO 142 ° 0 min 0,000 mm 0,0 UV-I 0 W/m² 1,3 °C 3,3 °C 0,0 km/h (0 Bft)
15.03.2017 21:48 3,1 °C 3,3 °C 87 % 1029,9 hPa 0,0 mm 0,0 km/h (0 Bft) SO 142 ° 0 min 0,000 mm 0,0 UV-I 0 W/m² 1,2 °C 3,1 °C 0,0 km/h (0 Bft)
15.03.2017 21:49 3,0 °C 3,1 °C 87 % 1029,9 hPa 0,0 mm 0,0 km/h (0 Bft) SO 142 ° 0 min 0,000 mm 0,0 UV-I 0 W/m² 1,1 °C 3,0 °C 0,0 km/h (0 Bft)
15.03.2017 21:50 2,8 °C 3,0 °C 88 % 1029,9 hPa 0,0 mm 0,0 km/h (0 Bft) SO 142 ° 0 min 0,000 mm 0,0 UV-I 0 W/m² 1,0 °C 2,8 °C 0,0 km/h (0 Bft)
15.03.2017 21:51 2,7 °C 2,8 °C 88 % 1029,9 hPa 0,0 mm 0,0 km/h (0 Bft) SO 142 ° 0 min 0,000 mm 0,0 UV-I 0 W/m² 0,9 °C 2,7 °C 0,0 km/h (0 Bft)
15.03.2017 21:52 2,6 °C 2,7 °C 89 % 1029,9 hPa 0,0 mm 0,0 km/h (0 Bft) SO 142 ° 0 min 0,000 mm 0,0 UV-I 0 W/m² 1,0 °C 2,6 °C 0,0 km/h (0 Bft)
15.03.2017 21:53 2,6 °C 2,6 °C 89 % 1029,9 hPa 0,0 mm 0,0 km/h (0 Bft) SO 142 ° 0 min 0,000 mm 0,0 UV-I 0 W/m² 1,0 °C 2,6 °C 0,0 km/h (0 Bft)
15.03.2017 21:54 2,5 °C 2,6 °C 89 % 1029,9 hPa 0,0 mm 0,0 km/h (0 Bft) SO 142 ° 0 min 0,000 mm 0,0 UV-I 0 W/m² 0,9 °C 2,5 °C 0,0 km/h (0 Bft)
15.03.2017 21:55 2,5 °C 2,6 °C 90 % 1029,9 hPa 0,0 mm 0,0 km/h (0 Bft) SO 142 ° 0 min 0,000 mm 0,0 UV-I 0 W/m² 1,0 °C 2,5 °C 0,0 km/h (0 Bft)
15.03.2017 21:56 2,6 °C 2,6 °C 90 % 1029,9 hPa 0,0 mm 0,0 km/h (0 Bft) SO 142 ° 0 min 0,000 mm 0,0 UV-I 0 W/m² 1,1 °C 2,6 °C 0,0 km/h (0 Bft)
15.03.2017 21:57 2,6 °C 2,6 °C 90 % 1029,9 hPa 0,0 mm 0,0 km/h (0 Bft) SO 142 ° 0 min 0,000 mm 0,0 UV-I 0 W/m² 1,1 °C 2,6 °C 0,0 km/h (0 Bft)
15.03.2017 21:58 2,6 °C 2,6 °C 90 % 1029,9 hPa 0,0 mm 0,0 km/h (0 Bft) SO 142 ° 0 min 0,000 mm 0,0 UV-I 0 W/m² 1,1 °C 2,6 °C 0,0 km/h (0 Bft)
15.03.2017 21:59 2,6 °C 2,6 °C 90 % 1029,9 hPa 0,0 mm 0,0 km/h (0 Bft) SO 142 ° 0 min 0,000 mm 0,0 UV-I 0 W/m² 1,1 °C 2,6 °C 0,0 km/h (0 Bft)
15.03.2017 22:00 2,6 °C 2,6 °C 89 % 1029,9 hPa 0,0 mm 0,0 km/h (0 Bft) SO 142 ° 0 min 0,000 mm 0,0 UV-I 0 W/m² 1,0 °C 2,6 °C 0,0 km/h (0 Bft)
15.03.2017 22:01 2,4 °C 2,6 °C 89 % 1029,9 hPa 0,0 mm 0,0 km/h (0 Bft) SO 142 ° 0 min 0,000 mm 0,0 UV-I 0 W/m² 0,8 °C 2,4 °C 0,0 km/h (0 Bft)
15.03.2017 22:02 2,3 °C 2,4 °C 89 % 1029,9 hPa 0,0 mm 0,5 km/h (0 Bft) SO 142 ° 0 min 0,000 mm 0,0 UV-I 0 W/m² 0,7 °C 2,3 °C 1,6 km/h (1 Bft)
15.03.2017 22:03 2,3 °C 2,3 °C 89 % 1029,9 hPa 0,0 mm 0,5 km/h (0 Bft) SO 142 ° 0 min 0,000 mm 0,0 UV-I 0 W/m² 0,7 °C 2,3 °C 1,6 km/h (1 Bft)
15.03.2017 22:04 2,1 °C 2,3 °C 89 % 1029,9 hPa 0,0 mm 1,1 km/h (1 Bft) SO 142 ° 0 min 0,000 mm 0,0 UV-I 0 W/m² 0,5 °C 2,1 °C 3,2 km/h (1 Bft)
15.03.2017 22:05 2,2 °C 2,2 °C 90 % 1029,9 hPa 0,0 mm 1,9 km/h (1 Bft) SO 142 ° 0 min 0,000 mm 0,0 UV-I 0 W/m² 0,7 °C 2,2 °C 3,2 km/h (1 Bft)
15.03.2017 22:06 2,2 °C 2,2 °C 91 % 1029,9 hPa 0,0 mm 2,2 km/h (1 Bft) SO 142 ° 0 min 0,000 mm 0,0 UV-I 0 W/m² 0,9 °C 2,2 °C 3,2 km/h (1 Bft)
15.03.2017 22:07 2,3 °C 2,3 °C 91 % 1029,9 hPa 0,0 mm 1,8 km/h (1 Bft) SO 142 ° 0 min 0,000 mm 0,0 UV-I 0 W/m² 1,0 °C 2,3 °C 3,2 km/h (1 Bft)
15.03.2017 22:08 2,5 °C 2,5 °C 91 % 1029,8 hPa 0,0 mm 1,4 km/h (1 Bft) SO 142 ° 0 min 0,000 mm 0,0 UV-I 0 W/m² 1,2 °C 2,5 °C 3,2 km/h (1 Bft)
15.03.2017 22:09 2,7 °C 2,7 °C 91 % 1029,9 hPa 0,0 mm 1,4 km/h (1 Bft) SO 142 ° 0 min 0,000 mm 0,0 UV-I 0 W/m² 1,4 °C 2,7 °C 3,2 km/h (1 Bft)
15.03.2017 22:10 2,8 °C 2,8 °C 91 % 1029,9 hPa 0,0 mm 1,9 km/h (1 Bft) SO 142 ° 0 min 0,000 mm 0,0 UV-I 0 W/m² 1,5 °C 2,8 °C 3,2 km/h (1 Bft)
15.03.2017 22:11 2,8 °C 2,8 °C 91 % 1029,9 hPa 0,0 mm 0,6 km/h (0 Bft) SO 142 ° 0 min 0,000 mm 0,0 UV-I 0 W/m² 1,5 °C 2,8 °C 1,6 km/h (1 Bft)
15.03.2017 22:12 2,9 °C 2,9 °C 91 % 1029,8 hPa 0,0 mm 1,7 km/h (1 Bft) SO 142 ° 0 min 0,000 mm 0,0 UV-I 0 W/m² 1,6 °C 2,9 °C 3,2 km/h (1 Bft)
15.03.2017 22:13 3,0 °C 3,0 °C 91 % 1029,9 hPa 0,0 mm 1,5 km/h (1 Bft) SO 142 ° 0 min 0,000 mm 0,0 UV-I 0 W/m² 1,7 °C 3,0 °C 3,2 km/h (1 Bft)
15.03.2017 22:14 3,1 °C 3,1 °C 90 % 1029,8 hPa 0,0 mm 1,1 km/h (1 Bft) SO 142 ° 0 min 0,000 mm 0,0 UV-I 0 W/m² 1,6 °C 3,1 °C 1,6 km/h (1 Bft)
15.03.2017 22:15 3,1 °C 3,1 °C 90 % 1029,9 hPa 0,0 mm 1,4 km/h (1 Bft) SO 142 ° 0 min 0,000 mm 0,0 UV-I 0 W/m² 1,6 °C 3,1 °C 3,2 km/h (1 Bft)
15.03.2017 22:16 3,2 °C 3,2 °C 90 % 1029,9 hPa 0,0 mm 1,7 km/h (1 Bft) SO 142 ° 0 min 0,000 mm 0,0 UV-I 0 W/m² 1,7 °C 3,2 °C 3,2 km/h (1 Bft)
15.03.2017 22:17 3,2 °C 3,2 °C 89 % 1029,8 hPa 0,0 mm 1,7 km/h (1 Bft) SO 142 ° 0 min 0,000 mm 0,0 UV-I 0 W/m² 1,6 °C 3,2 °C 3,2 km/h (1 Bft)
15.03.2017 22:18 3,2 °C 3,2 °C 89 % 1029,8 hPa 0,0 mm 1,7 km/h (1 Bft) SO 142 ° 0 min 0,000 mm 0,0 UV-I 0 W/m² 1,6 °C 3,2 °C 3,2 km/h (1 Bft)
15.03.2017 22:19 3,2 °C 3,2 °C 90 % 1029,8 hPa 0,0 mm 1,2 km/h (1 Bft) SO 142 ° 0 min 0,000 mm 0,0 UV-I 0 W/m² 1,7 °C 3,2 °C 1,6 km/h (1 Bft)
15.03.2017 22:20 3,3 °C 3,3 °C 90 % 1029,8 hPa 0,0 mm 0,7 km/h (0 Bft) SO 142 ° 0 min 0,000 mm 0,0 UV-I 0 W/m² 1,8 °C 3,3 °C 1,6 km/h (1 Bft)
15.03.2017 22:21 3,3 °C 3,3 °C 89 % 1029,8 hPa 0,0 mm 1,5 km/h (1 Bft) SO 142 ° 0 min 0,000 mm 0,0 UV-I 0 W/m² 1,7 °C 3,3 °C 3,2 km/h (1 Bft)
15.03.2017 22:22 3,4 °C 3,4 °C 89 % 1029,8 hPa 0,0 mm 0,8 km/h (0 Bft) SO 142 ° 0 min 0,000 mm 0,0 UV-I 0 W/m² 1,8 °C 3,4 °C 1,6 km/h (1 Bft)
15.03.2017 22:23 3,4 °C 3,4 °C 89 % 1029,8 hPa 0,0 mm 1,2 km/h (1 Bft) SO 142 ° 0 min 0,000 mm 0,0 UV-I 0 W/m² 1,8 °C 3,4 °C 1,6 km/h (1 Bft)
15.03.2017 22:24 3,4 °C 3,5 °C 89 % 1029,8 hPa 0,0 mm 1,6 km/h (1 Bft) SO 142 ° 0 min 0,000 mm 0,0 UV-I 0 W/m² 1,8 °C 3,4 °C 3,2 km/h (1 Bft)
15.03.2017 22:25 3,4 °C 3,5 °C 88 % 1029,8 hPa 0,0 mm 1,5 km/h (1 Bft) SO 142 ° 0 min 0,000 mm 0,0 UV-I 0 W/m² 1,6 °C 3,4 °C 3,2 km/h (1 Bft)
15.03.2017 22:26 3,5 °C 3,5 °C 89 % 1029,8 hPa 0,0 mm 0,7 km/h (0 Bft) SO 142 ° 0 min 0,000 mm 0,0 UV-I 0 W/m² 1,9 °C 3,5 °C 3,2 km/h (1 Bft)
15.03.2017 22:27 3,4 °C 3,5 °C 88 % 1029,8 hPa 0,0 mm 0,1 km/h (0 Bft) SO 142 ° 0 min 0,000 mm 0,0 UV-I 0 W/m² 1,6 °C 3,4 °C 1,6 km/h (1 Bft)
15.03.2017 22:28 3,5 °C 3,5 °C 88 % 1029,8 hPa 0,0 mm 0,6 km/h (0 Bft) SO 142 ° 0 min 0,000 mm 0,0 UV-I 0 W/m² 1,7 °C 3,5 °C 1,6 km/h (1 Bft)
15.03.2017 22:29 3,5 °C 3,5 °C 88 % 1029,8 hPa 0,0 mm 0,0 km/h (0 Bft) SO 142 ° 0 min 0,000 mm 0,0 UV-I 0 W/m² 1,7 °C 3,5 °C 0,0 km/h (0 Bft)
15.03.2017 22:30 3,4 °C 3,5 °C 87 % 1029,8 hPa 0,0 mm 0,0 km/h (0 Bft) SO 142 ° 0 min 0,000 mm 0,0 UV-I 0 W/m² 1,4 °C 3,4 °C 0,0 km/h (0 Bft)
15.03.2017 22:31 3,1 °C 3,4 °C 85 % 1029,8 hPa 0,0 mm 0,0 km/h (0 Bft) SO 142 ° 0 min 0,000 mm 0,0 UV-I 0 W/m² 0,8 °C 3,1 °C 0,0 km/h (0 Bft)
15.03.2017 22:32 2,9 °C 3,1 °C 86 % 1029,8 hPa 0,0 mm 0,0 km/h (0 Bft) SO 142 ° 0 min 0,000 mm 0,0 UV-I 0 W/m² 0,8 °C 2,9 °C 0,0 km/h (0 Bft)
15.03.2017 22:33 2,6 °C 2,9 °C 86 % 1029,8 hPa 0,0 mm 0,0 km/h (0 Bft) SO 142 ° 0 min 0,000 mm 0,0 UV-I 0 W/m² 0,5 °C 2,6 °C 0,0 km/h (0 Bft)
15.03.2017 22:34 2,4 °C 2,6 °C 87 % 1029,8 hPa 0,0 mm 0,0 km/h (0 Bft) SO 142 ° 0 min 0,000 mm 0,0 UV-I 0 W/m² 0,5 °C 2,4 °C 0,0 km/h (0 Bft)
15.03.2017 22:35 2,2 °C 2,4 °C 88 % 1029,8 hPa 0,0 mm 0,0 km/h (0 Bft) SO 142 ° 0 min 0,000 mm 0,0 UV-I 0 W/m² 0,4 °C 2,2 °C 0,0 km/h (0 Bft)
15.03.2017 22:36 2,1 °C 2,2 °C 88 % 1029,8 hPa 0,0 mm 0,0 km/h (0 Bft) SO 142 ° 0 min 0,000 mm 0,0 UV-I 0 W/m² 0,3 °C 2,1 °C 0,0 km/h (0 Bft)
15.03.2017 22:37 2,0 °C 2,1 °C 89 % 1029,8 hPa 0,0 mm 0,0 km/h (0 Bft) SO 142 ° 0 min 0,000 mm 0,0 UV-I 0 W/m² 0,4 °C 2,0 °C 0,0 km/h (0 Bft)
15.03.2017 22:38 1,9 °C 2,0 °C 89 % 1029,8 hPa 0,0 mm 0,1 km/h (0 Bft) SO 142 ° 0 min 0,000 mm 0,0 UV-I 0 W/m² 0,3 °C 1,9 °C 1,6 km/h (1 Bft)
15.03.2017 22:39 1,9 °C 1,9 °C 90 % 1029,8 hPa 0,0 mm 0,3 km/h (0 Bft) SO 142 ° 0 min 0,000 mm 0,0 UV-I 0 W/m² 0,4 °C 1,9 °C 1,6 km/h (1 Bft)
15.03.2017 22:40 1,9 °C 1,9 °C 90 % 1029,7 hPa 0,0 mm 0,3 km/h (0 Bft) SO 142 ° 0 min 0,000 mm 0,0 UV-I 0 W/m² 0,4 °C 1,9 °C 1,6 km/h (1 Bft)
15.03.2017 22:41 2,0 °C 2,0 °C 90 % 1029,8 hPa 0,0 mm 0,0 km/h (0 Bft) SO 142 ° 0 min 0,000 mm 0,0 UV-I 0 W/m² 0,5 °C 2,0 °C 0,0 km/h (0 Bft)
15.03.2017 22:42 2,0 °C 2,0 °C 91 % 1029,8 hPa 0,0 mm 0,0 km/h (0 Bft) SO 142 ° 0 min 0,000 mm 0,0 UV-I 0 W/m² 0,7 °C 2,0 °C 0,0 km/h (0 Bft)
15.03.2017 22:43 2,0 °C 2,0 °C 90 % 1029,8 hPa 0,0 mm 0,0 km/h (0 Bft) SO 142 ° 0 min 0,000 mm 0,0 UV-I 0 W/m² 0,5 °C 2,0 °C 0,0 km/h (0 Bft)
15.03.2017 22:44 1,9 °C 2,0 °C 90 % 1029,8 hPa 0,0 mm 0,0 km/h (0 Bft) SO 142 ° 0 min 0,000 mm 0,0 UV-I 0 W/m² 0,4 °C 1,9 °C 0,0 km/h (0 Bft)
15.03.2017 22:45 1,9 °C 2,0 °C 91 % 1029,8 hPa 0,0 mm 0,0 km/h (0 Bft) SO 142 ° 0 min 0,000 mm 0,0 UV-I 0 W/m² 0,6 °C 1,9 °C 0,0 km/h (0 Bft)
15.03.2017 22:46 1,9 °C 1,9 °C 91 % 1029,8 hPa 0,0 mm 0,0 km/h (0 Bft) SO 142 ° 0 min 0,000 mm 0,0 UV-I 0 W/m² 0,6 °C 1,9 °C 0,0 km/h (0 Bft)
15.03.2017 22:47 1,9 °C 1,9 °C 91 % 1029,8 hPa 0,0 mm 0,0 km/h (0 Bft) SO 142 ° 0 min 0,000 mm 0,0 UV-I 0 W/m² 0,6 °C 1,9 °C 0,0 km/h (0 Bft)
15.03.2017 22:48 1,9 °C 1,9 °C 91 % 1029,8 hPa 0,0 mm 0,0 km/h (0 Bft) SO 142 ° 0 min 0,000 mm 0,0 UV-I 0 W/m² 0,6 °C 1,9 °C 0,0 km/h (0 Bft)
15.03.2017 22:49 1,9 °C 1,9 °C 91 % 1029,8 hPa 0,0 mm 0,0 km/h (0 Bft) SO 142 ° 0 min 0,000 mm 0,0 UV-I 0 W/m² 0,6 °C 1,9 °C 0,0 km/h (0 Bft)
15.03.2017 22:50 1,9 °C 1,9 °C 91 % 1029,7 hPa 0,0 mm 0,0 km/h (0 Bft) SO 142 ° 0 min 0,000 mm 0,0 UV-I 0 W/m² 0,6 °C 1,9 °C 0,0 km/h (0 Bft)
15.03.2017 22:51 1,9 °C 2,0 °C 92 % 1029,7 hPa 0,0 mm 0,0 km/h (0 Bft) SO 142 ° 0 min 0,000 mm 0,0 UV-I 0 W/m² 0,7 °C 1,9 °C 0,0 km/h (0 Bft)
15.03.2017 22:52 2,0 °C 2,1 °C 91 % 1029,7 hPa 0,0 mm 0,0 km/h (0 Bft) SO 142 ° 0 min 0,000 mm 0,0 UV-I 0 W/m² 0,7 °C 2,0 °C 0,0 km/h (0 Bft)
15.03.2017 22:53 2,1 °C 2,1 °C 91 % 1029,7 hPa 0,0 mm 0,0 km/h (0 Bft) SO 142 ° 0 min 0,000 mm 0,0 UV-I 0 W/m² 0,8 °C 2,1 °C 0,0 km/h (0 Bft)
15.03.2017 22:54 2,1 °C 2,1 °C 91 % 1029,7 hPa 0,0 mm 0,0 km/h (0 Bft) SO 142 ° 0 min 0,000 mm 0,0 UV-I 0 W/m² 0,8 °C 2,1 °C 0,0 km/h (0 Bft)
15.03.2017 22:55 2,1 °C 2,1 °C 91 % 1029,7 hPa 0,0 mm 0,0 km/h (0 Bft) SO 142 ° 0 min 0,000 mm 0,0 UV-I 0 W/m² 0,8 °C 2,1 °C 0,0 km/h (0 Bft)
15.03.2017 22:56 2,1 °C 2,1 °C 91 % 1029,7 hPa 0,0 mm 0,0 km/h (0 Bft) SO 142 ° 0 min 0,000 mm 0,0 UV-I 0 W/m² 0,8 °C 2,1 °C 0,0 km/h (0 Bft)
15.03.2017 22:57 2,1 °C 2,1 °C 91 % 1029,7 hPa 0,0 mm 0,0 km/h (0 Bft) SO 142 ° 0 min 0,000 mm 0,0 UV-I 0 W/m² 0,8 °C 2,1 °C 0,0 km/h (0 Bft)
15.03.2017 22:58 2,0 °C 2,1 °C 91 % 1029,7 hPa 0,0 mm 0,0 km/h (0 Bft) SO 142 ° 0 min 0,000 mm 0,0 UV-I 0 W/m² 0,7 °C 2,0 °C 0,0 km/h (0 Bft)
15.03.2017 22:59 2,0 °C 2,0 °C 91 % 1029,6 hPa 0,0 mm 0,0 km/h (0 Bft) SO 142 ° 0 min 0,000 mm 0,0 UV-I 0 W/m² 0,7 °C 2,0 °C 0,0 km/h (0 Bft)
15.03.2017 23:00 2,0 °C 2,0 °C 91 % 1029,6 hPa 0,0 mm 0,0 km/h (0 Bft) SO 142 ° 0 min 0,000 mm 0,0 UV-I 0 W/m² 0,7 °C 2,0 °C 0,0 km/h (0 Bft)
15.03.2017 23:01 2,0 °C 2,0 °C 91 % 1029,6 hPa 0,0 mm 0,0 km/h (0 Bft) SO 142 ° 0 min 0,000 mm 0,0 UV-I 0 W/m² 0,7 °C 2,0 °C 0,0 km/h (0 Bft)
15.03.2017 23:02 2,1 °C 2,1 °C 91 % 1029,5 hPa 0,0 mm 0,0 km/h (0 Bft) SO 142 ° 0 min 0,000 mm 0,0 UV-I 0 W/m² 0,8 °C 2,1 °C 0,0 km/h (0 Bft)
15.03.2017 23:03 2,2 °C 2,2 °C 92 % 1029,5 hPa 0,0 mm 0,0 km/h (0 Bft) SO 142 ° 0 min 0,000 mm 0,0 UV-I 0 W/m² 1,0 °C 2,2 °C 0,0 km/h (0 Bft)
15.03.2017 23:04 2,3 °C 2,3 °C 92 % 1029,5 hPa 0,0 mm 0,0 km/h (0 Bft) SO 142 ° 0 min 0,000 mm 0,0 UV-I 0 W/m² 1,1 °C 2,3 °C 0,0 km/h (0 Bft)
15.03.2017 23:05 2,3 °C 2,3 °C 92 % 1029,5 hPa 0,0 mm 0,0 km/h (0 Bft) SO 142 ° 0 min 0,000 mm 0,0 UV-I 0 W/m² 1,1 °C 2,3 °C 0,0 km/h (0 Bft)
15.03.2017 23:06 2,4 °C 2,4 °C 92 % 1029,5 hPa 0,0 mm 0,0 km/h (0 Bft) SO 142 ° 0 min 0,000 mm 0,0 UV-I 0 W/m² 1,2 °C 2,4 °C 0,0 km/h (0 Bft)
15.03.2017 23:07 2,4 °C 2,4 °C 91 % 1029,5 hPa 0,0 mm 0,0 km/h (0 Bft) SO 142 ° 0 min 0,000 mm 0,0 UV-I 0 W/m² 1,1 °C 2,4 °C 0,0 km/h (0 Bft)
15.03.2017 23:08 2,5 °C 2,6 °C 91 % 1029,5 hPa 0,0 mm 0,0 km/h (0 Bft) SO 142 ° 0 min 0,000 mm 0,0 UV-I 0 W/m² 1,2 °C 2,5 °C 0,0 km/h (0 Bft)
15.03.2017 23:09 2,4 °C 2,5 °C 91 % 1029,5 hPa 0,0 mm 0,0 km/h (0 Bft) SO 142 ° 0 min 0,000 mm 0,0 UV-I 0 W/m² 1,1 °C 2,4 °C 0,0 km/h (0 Bft)
15.03.2017 23:10 2,3 °C 2,4 °C 90 % 1029,5 hPa 0,0 mm 0,0 km/h (0 Bft) SO 142 ° 0 min 0,000 mm 0,0 UV-I 0 W/m² 0,8 °C 2,3 °C 0,0 km/h (0 Bft)
15.03.2017 23:11 2,2 °C 2,3 °C 89 % 1029,6 hPa 0,0 mm 1,1 km/h (1 Bft) SO 142 ° 0 min 0,000 mm 0,0 UV-I 0 W/m² 0,6 °C 2,2 °C 3,2 km/h (1 Bft)
15.03.2017 23:12 2,0 °C 2,2 °C 89 % 1029,5 hPa 0,0 mm 0,1 km/h (0 Bft) SO 142 ° 0 min 0,000 mm 0,0 UV-I 0 W/m² 0,4 °C 2,0 °C 1,6 km/h (1 Bft)
15.03.2017 23:13 1,9 °C 2,0 °C 89 % 1029,6 hPa 0,0 mm 0,0 km/h (0 Bft) SO 142 ° 0 min 0,000 mm 0,0 UV-I 0 W/m² 0,3 °C 1,9 °C 0,0 km/h (0 Bft)
15.03.2017 23:14 1,8 °C 1,9 °C 90 % 1029,6 hPa 0,0 mm 0,0 km/h (0 Bft) SO 142 ° 0 min 0,000 mm 0,0 UV-I 0 W/m² 0,3 °C 1,8 °C 0,0 km/h (0 Bft)
15.03.2017 23:15 1,8 °C 1,8 °C 90 % 1029,6 hPa 0,0 mm 0,2 km/h (0 Bft) SO 142 ° 0 min 0,000 mm 0,0 UV-I 0 W/m² 0,3 °C 1,8 °C 1,6 km/h (1 Bft)
15.03.2017 23:16 1,8 °C 1,8 °C 91 % 1029,5 hPa 0,0 mm 0,2 km/h (0 Bft) SO 142 ° 0 min 0,000 mm 0,0 UV-I 0 W/m² 0,5 °C 1,8 °C 1,6 km/h (1 Bft)
15.03.2017 23:17 1,8 °C 1,8 °C 91 % 1029,5 hPa 0,0 mm 0,2 km/h (0 Bft) SO 142 ° 0 min 0,000 mm 0,0 UV-I 0 W/m² 0,5 °C 1,8 °C 1,6 km/h (1 Bft)
15.03.2017 23:18 1,8 °C 1,8 °C 91 % 1029,6 hPa 0,0 mm 0,1 km/h (0 Bft) SO 142 ° 0 min 0,000 mm 0,0 UV-I 0 W/m² 0,5 °C 1,8 °C 1,6 km/h (1 Bft)
15.03.2017 23:19 1,8 °C 1,8 °C 91 % 1029,5 hPa 0,0 mm 0,0 km/h (0 Bft) SO 142 ° 0 min 0,000 mm 0,0 UV-I 0 W/m² 0,5 °C 1,8 °C 0,0 km/h (0 Bft)
15.03.2017 23:20 1,8 °C 1,8 °C 91 % 1029,6 hPa 0,0 mm 0,1 km/h (0 Bft) SO 142 ° 0 min 0,000 mm 0,0 UV-I 0 W/m² 0,5 °C 1,8 °C 1,6 km/h (1 Bft)
15.03.2017 23:21 1,8 °C 1,8 °C 91 % 1029,5 hPa 0,0 mm 0,0 km/h (0 Bft) SO 142 ° 0 min 0,000 mm 0,0 UV-I 0 W/m² 0,5 °C 1,8 °C 0,0 km/h (0 Bft)
15.03.2017 23:22 1,8 °C 1,8 °C 91 % 1029,5 hPa 0,0 mm 0,0 km/h (0 Bft) SO 142 ° 0 min 0,000 mm 0,0 UV-I 0 W/m² 0,5 °C 1,8 °C 0,0 km/h (0 Bft)
15.03.2017 23:23 1,8 °C 1,8 °C 91 % 1029,6 hPa 0,0 mm 0,0 km/h (0 Bft) SO 142 ° 0 min 0,000 mm 0,0 UV-I 0 W/m² 0,5 °C 1,8 °C 0,0 km/h (0 Bft)
15.03.2017 23:24 1,8 °C 1,8 °C 91 % 1029,6 hPa 0,0 mm 0,0 km/h (0 Bft) SO 142 ° 0 min 0,000 mm 0,0 UV-I 0 W/m² 0,5 °C 1,8 °C 0,0 km/h (0 Bft)
15.03.2017 23:25 1,9 °C 1,9 °C 91 % 1029,5 hPa 0,0 mm 0,0 km/h (0 Bft) SO 142 ° 0 min 0,000 mm 0,0 UV-I 0 W/m² 0,6 °C 1,9 °C 0,0 km/h (0 Bft)
15.03.2017 23:26 1,9 °C 1,9 °C 91 % 1029,5 hPa 0,0 mm 0,0 km/h (0 Bft) SO 142 ° 0 min 0,000 mm 0,0 UV-I 0 W/m² 0,6 °C 1,9 °C 0,0 km/h (0 Bft)
15.03.2017 23:27 2,0 °C 2,0 °C 92 % 1029,5 hPa 0,0 mm 0,0 km/h (0 Bft) SO 142 ° 0 min 0,000 mm 0,0 UV-I 0 W/m² 0,8 °C 2,0 °C 0,0 km/h (0 Bft)
15.03.2017 23:28 2,1 °C 2,1 °C 92 % 1029,5 hPa 0,0 mm 0,0 km/h (0 Bft) SO 142 ° 0 min 0,000 mm 0,0 UV-I 0 W/m² 0,9 °C 2,1 °C 0,0 km/h (0 Bft)
15.03.2017 23:29 2,1 °C 2,1 °C 91 % 1029,4 hPa 0,0 mm 0,0 km/h (0 Bft) SO 142 ° 0 min 0,000 mm 0,0 UV-I 0 W/m² 0,8 °C 2,1 °C 0,0 km/h (0 Bft)
15.03.2017 23:30 2,0 °C 2,1 °C 91 % 1029,4 hPa 0,0 mm 0,0 km/h (0 Bft) SO 142 ° 0 min 0,000 mm 0,0 UV-I 0 W/m² 0,7 °C 2,0 °C 0,0 km/h (0 Bft)
15.03.2017 23:31 1,9 °C 2,0 °C 90 % 1029,4 hPa 0,0 mm 0,0 km/h (0 Bft) SO 142 ° 0 min 0,000 mm 0,0 UV-I 0 W/m² 0,4 °C 1,9 °C 0,0 km/h (0 Bft)
15.03.2017 23:32 1,9 °C 1,9 °C 91 % 1029,4 hPa 0,0 mm 0,0 km/h (0 Bft) SO 142 ° 0 min 0,000 mm 0,0 UV-I 0 W/m² 0,6 °C 1,9 °C 0,0 km/h (0 Bft)
15.03.2017 23:33 1,8 °C 1,9 °C 91 % 1029,3 hPa 0,0 mm 0,0 km/h (0 Bft) SO 142 ° 0 min 0,000 mm 0,0 UV-I 0 W/m² 0,5 °C 1,8 °C 0,0 km/h (0 Bft)
15.03.2017 23:34 1,8 °C 1,8 °C 91 % 1029,3 hPa 0,0 mm 0,0 km/h (0 Bft) SO 142 ° 0 min 0,000 mm 0,0 UV-I 0 W/m² 0,5 °C 1,8 °C 0,0 km/h (0 Bft)
15.03.2017 23:35 1,7 °C 1,8 °C 91 % 1029,3 hPa 0,0 mm 0,0 km/h (0 Bft) SO 142 ° 0 min 0,000 mm 0,0 UV-I 0 W/m² 0,4 °C 1,7 °C 0,0 km/h (0 Bft)
15.03.2017 23:36 1,7 °C 1,7 °C 91 % 1029,3 hPa 0,0 mm 0,1 km/h (0 Bft) SO 142 ° 0 min 0,000 mm 0,0 UV-I 0 W/m² 0,4 °C 1,7 °C 1,6 km/h (1 Bft)
15.03.2017 23:37 1,6 °C 1,7 °C 90 % 1029,3 hPa 0,0 mm 0,2 km/h (0 Bft) SO 142 ° 0 min 0,000 mm 0,0 UV-I 0 W/m² 0,1 °C 1,6 °C 1,6 km/h (1 Bft)
15.03.2017 23:38 1,5 °C 1,6 °C 90 % 1029,3 hPa 0,0 mm 0,7 km/h (0 Bft) SO 142 ° 0 min 0,000 mm 0,0 UV-I 0 W/m² 0,0 °C 1,5 °C 1,6 km/h (1 Bft)
15.03.2017 23:39 1,4 °C 1,5 °C 90 % 1029,3 hPa 0,0 mm 0,5 km/h (0 Bft) SO 142 ° 0 min 0,000 mm 0,0 UV-I 0 W/m² -0,1 °C 1,4 °C 1,6 km/h (1 Bft)
15.03.2017 23:40 1,4 °C 1,4 °C 90 % 1029,3 hPa 0,0 mm 0,1 km/h (0 Bft) SO 142 ° 0 min 0,000 mm 0,0 UV-I 0 W/m² -0,1 °C 1,4 °C 1,6 km/h (1 Bft)
15.03.2017 23:41 1,3 °C 1,4 °C 91 % 1029,3 hPa 0,0 mm 0,0 km/h (0 Bft) SO 142 ° 0 min 0,000 mm 0,0 UV-I 0 W/m² -0,0 °C 1,3 °C 0,0 km/h (0 Bft)
15.03.2017 23:42 1,3 °C 1,3 °C 91 % 1029,3 hPa 0,0 mm 0,0 km/h (0 Bft) SO 142 ° 0 min 0,000 mm 0,0 UV-I 0 W/m² -0,0 °C 1,3 °C 0,0 km/h (0 Bft)
15.03.2017 23:43 1,3 °C 1,3 °C 91 % 1029,3 hPa 0,0 mm 0,0 km/h (0 Bft) SO 142 ° 0 min 0,000 mm 0,0 UV-I 0 W/m² -0,0 °C 1,3 °C 0,0 km/h (0 Bft)
15.03.2017 23:44 1,3 °C 1,3 °C 91 % 1029,4 hPa 0,0 mm 0,1 km/h (0 Bft) SO 142 ° 0 min 0,000 mm 0,0 UV-I 0 W/m² -0,0 °C 1,3 °C 1,6 km/h (1 Bft)
15.03.2017 23:45 1,3 °C 1,3 °C 91 % 1029,4 hPa 0,0 mm 0,1 km/h (0 Bft) SO 142 ° 0 min 0,000 mm 0,0 UV-I 0 W/m² -0,0 °C 1,3 °C 1,6 km/h (1 Bft)
15.03.2017 23:46 1,3 °C 1,3 °C 92 % 1029,3 hPa 0,0 mm 0,3 km/h (0 Bft) SO 142 ° 0 min 0,000 mm 0,0 UV-I 0 W/m² 0,1 °C 1,3 °C 1,6 km/h (1 Bft)
15.03.2017 23:47 1,3 °C 1,3 °C 92 % 1029,3 hPa 0,0 mm 0,3 km/h (0 Bft) SO 142 ° 0 min 0,000 mm 0,0 UV-I 0 W/m² 0,1 °C 1,3 °C 1,6 km/h (1 Bft)
15.03.2017 23:48 1,3 °C 1,3 °C 92 % 1029,3 hPa 0,0 mm 1,0 km/h (0 Bft) SO 142 ° 0 min 0,000 mm 0,0 UV-I 0 W/m² 0,1 °C 1,3 °C 1,6 km/h (1 Bft)
15.03.2017 23:49 1,3 °C 1,3 °C 92 % 1029,4 hPa 0,0 mm 0,0 km/h (0 Bft) SO 142 ° 0 min 0,000 mm 0,0 UV-I 0 W/m² 0,1 °C 1,3 °C 0,0 km/h (0 Bft)
15.03.2017 23:50 1,3 °C 1,3 °C 92 % 1029,4 hPa 0,0 mm 0,0 km/h (0 Bft) SO 142 ° 0 min 0,000 mm 0,0 UV-I 0 W/m² 0,1 °C 1,3 °C 0,0 km/h (0 Bft)
15.03.2017 23:51 1,1 °C 1,3 °C 92 % 1029,3 hPa 0,0 mm 0,0 km/h (0 Bft) SO 142 ° 0 min 0,000 mm 0,0 UV-I 0 W/m² -0,1 °C 1,1 °C 0,0 km/h (0 Bft)
15.03.2017 23:52 1,1 °C 1,2 °C 91 % 1029,3 hPa 0,0 mm 0,0 km/h (0 Bft) SO 142 ° 0 min 0,000 mm 0,0 UV-I 0 W/m² -0,2 °C 1,1 °C 0,0 km/h (0 Bft)
15.03.2017 23:53 1,2 °C 1,2 °C 92 % 1029,3 hPa 0,0 mm 0,0 km/h (0 Bft) SO 142 ° 0 min 0,000 mm 0,0 UV-I 0 W/m² 0,0 °C 1,2 °C 0,0 km/h (0 Bft)
15.03.2017 23:54 1,2 °C 1,2 °C 92 % 1029,3 hPa 0,0 mm 0,8 km/h (0 Bft) SO 142 ° 0 min 0,000 mm 0,0 UV-I 0 W/m² 0,0 °C 1,2 °C 1,6 km/h (1 Bft)
15.03.2017 23:55 1,2 °C 1,2 °C 92 % 1029,3 hPa 0,0 mm 1,7 km/h (1 Bft) SO 142 ° 0 min 0,000 mm 0,0 UV-I 0 W/m² 0,0 °C 1,2 °C 3,2 km/h (1 Bft)
15.03.2017 23:56 1,2 °C 1,2 °C 92 % 1029,4 hPa 0,0 mm 2,2 km/h (1 Bft) SO 142 ° 0 min 0,000 mm 0,0 UV-I 0 W/m² 0,0 °C 1,2 °C 3,2 km/h (1 Bft)
15.03.2017 23:57 1,3 °C 1,3 °C 93 % 1029,3 hPa 0,0 mm 1,1 km/h (1 Bft) SO 142 ° 0 min 0,000 mm 0,0 UV-I 0 W/m² 0,3 °C 1,3 °C 3,2 km/h (1 Bft)
15.03.2017 23:58 1,4 °C 1,4 °C 93 % 1029,3 hPa 0,0 mm 0,5 km/h (0 Bft) SO 142 ° 0 min 0,000 mm 0,0 UV-I 0 W/m² 0,4 °C 1,4 °C 1,6 km/h (1 Bft)
15.03.2017 23:59 1,6 °C 1,6 °C 93 % 1029,3 hPa 0,0 mm 0,0 km/h (0 Bft) SO 142 ° 0 min 0,000 mm 0,0 UV-I 0 W/m² 0,6 °C 1,6 °C 0,0 km/h (0 Bft)
_ Min-Zeit 05:57 05:57 13:32 16:56 - 23:59 - - - - - - 05:45 05:57 23:59
Minimum _ -1,1 °C -1,1 °C 47 % 1028,6 hPa - 0,0 km/h (0 Bft) - - - - - - -3,0 °C -1,1 °C 0,0 km/h (0 Bft)
_ Max-Zeit 13:39 13:40 23:59 00:56 23:59 11:35 - - 09:27 14:00 13:03 12:46 17:27 13:39 14:03
Maximum _ 13,4 °C 13,4 °C 93 % 1032,2 hPa 0,0 mm 10,7 km/h
NW (2 Bft)
- - 2 min 0,280 mm 4,0 UV-I 700 W/m² 5,0 °C 13,4 °C 17,7 km/h
W-NW (3 Bft)
Durchschnitt _ 5,7 °C 5,7 °C 72 % 1030,7 hPa #0,0 mm 1,9 km/h (1 Bft) NW - #6:23 h #1,753 mm 2,1 UV-I 132 W/m² 0,7 °C 5,7 °C 3,2 km/h (1 Bft)